<?xml version="1.0" encoding="UTF-8" standalone="no" ?>
<gpx xmlns="http://www.topografix.com/GPX/1/1" xmlns:xsi="http://www.w3.org/2001/XMLSchema-instance" xsi:schemaLocation="http://www.topografix.com/GPX/1/1 http://www.topografix.com/GPX/1/1/gpx.xsd" version="1.1" creator="VisuGPX - https://www.visugpx.com">
  <metadata>
    <name>Sur les traces des carriers en forêt de Fontainebleau</name>
    <desc><![CDATA[une boucle au départ du parking derrière la faisanderie qui nous emmène sur les traces des carriers qui taillaient des pavés dans le grès de la forêt. Nous avons prolongé cette randonnée jusqu'à la bucolique petite mare aux pigeons dont nous faisons le tour avant de revenir vers le sentier des carriers pour traverser ce "village" insolite, lieu de réunion des carriers peut-être et de revenir au parking.]]></desc>
  </metadata>
  <trk>
    <name><![CDATA[Sentier des carriers 29-9-22]]></name>
    <extensions>
      <line xmlns="http://www.topografix.com/GPX/gpx_style/0/2">
        <color>0000FF</color>
        <width>4</width>
      </line>
    </extensions>
    <trkseg>
      <trkpt lat="48.40463" lon="2.67789">
        <ele>-63.200000762939</ele>
        <time>2022-09-29T12:07:08Z</time>
      </trkpt>
      <trkpt lat="48.40466" lon="2.67788">
        <ele>-63</ele>
        <time>2022-09-29T12:07:12Z</time>
      </trkpt>
      <trkpt lat="48.40469" lon="2.67788">
        <ele>-63</ele>
        <time>2022-09-29T12:07:16Z</time>
      </trkpt>
      <trkpt lat="48.40472" lon="2.67788">
        <ele>-63.200000762939</ele>
        <time>2022-09-29T12:07:20Z</time>
      </trkpt>
      <trkpt lat="48.40474" lon="2.67788">
        <ele>-63.200000762939</ele>
        <time>2022-09-29T12:07:24Z</time>
      </trkpt>
      <trkpt lat="48.40477" lon="2.67788">
        <ele>-63.400001525879</ele>
        <time>2022-09-29T12:07:28Z</time>
      </trkpt>
      <trkpt lat="48.4048" lon="2.67787">
        <ele>-63.400001525879</ele>
        <time>2022-09-29T12:07:32Z</time>
      </trkpt>
      <trkpt lat="48.40484" lon="2.67785">
        <ele>-63.400001525879</ele>
        <time>2022-09-29T12:07:36Z</time>
      </trkpt>
      <trkpt lat="48.40486" lon="2.67782">
        <ele>-63.400001525879</ele>
        <time>2022-09-29T12:07:40Z</time>
      </trkpt>
      <trkpt lat="48.40489" lon="2.6778">
        <ele>-63.200000762939</ele>
        <time>2022-09-29T12:07:44Z</time>
      </trkpt>
      <trkpt lat="48.40492" lon="2.67779">
        <ele>-63</ele>
        <time>2022-09-29T12:07:48Z</time>
      </trkpt>
      <trkpt lat="48.40494" lon="2.67774">
        <ele>-63</ele>
        <time>2022-09-29T12:07:52Z</time>
      </trkpt>
      <trkpt lat="48.40496" lon="2.67769">
        <ele>-63</ele>
        <time>2022-09-29T12:07:56Z</time>
      </trkpt>
      <trkpt lat="48.40498" lon="2.67763">
        <ele>-63</ele>
        <time>2022-09-29T12:08:00Z</time>
      </trkpt>
      <trkpt lat="48.40499" lon="2.67758">
        <ele>-63</ele>
        <time>2022-09-29T12:08:04Z</time>
      </trkpt>
      <trkpt lat="48.40499" lon="2.67753">
        <ele>-63</ele>
        <time>2022-09-29T12:08:08Z</time>
      </trkpt>
      <trkpt lat="48.40499" lon="2.67749">
        <ele>-63</ele>
        <time>2022-09-29T12:08:12Z</time>
      </trkpt>
      <trkpt lat="48.40501" lon="2.67742">
        <ele>-63</ele>
        <time>2022-09-29T12:08:16Z</time>
      </trkpt>
      <trkpt lat="48.40504" lon="2.67738">
        <ele>-63</ele>
        <time>2022-09-29T12:08:20Z</time>
      </trkpt>
      <trkpt lat="48.40505" lon="2.67733">
        <ele>-62.799999237061</ele>
        <time>2022-09-29T12:08:24Z</time>
      </trkpt>
      <trkpt lat="48.40505" lon="2.67726">
        <ele>-63</ele>
        <time>2022-09-29T12:08:28Z</time>
      </trkpt>
      <trkpt lat="48.40505" lon="2.67722">
        <ele>-63</ele>
        <time>2022-09-29T12:08:32Z</time>
      </trkpt>
      <trkpt lat="48.40505" lon="2.67716">
        <ele>-63</ele>
        <time>2022-09-29T12:08:36Z</time>
      </trkpt>
      <trkpt lat="48.40505" lon="2.6771">
        <ele>-63</ele>
        <time>2022-09-29T12:08:40Z</time>
      </trkpt>
      <trkpt lat="48.40503" lon="2.67704">
        <ele>-63</ele>
        <time>2022-09-29T12:08:44Z</time>
      </trkpt>
      <trkpt lat="48.40503" lon="2.67698">
        <ele>-63</ele>
        <time>2022-09-29T12:08:48Z</time>
      </trkpt>
      <trkpt lat="48.40502" lon="2.67691">
        <ele>-63</ele>
        <time>2022-09-29T12:08:52Z</time>
      </trkpt>
      <trkpt lat="48.40503" lon="2.67686">
        <ele>-63</ele>
        <time>2022-09-29T12:08:56Z</time>
      </trkpt>
      <trkpt lat="48.40503" lon="2.67679">
        <ele>-63</ele>
        <time>2022-09-29T12:09:00Z</time>
      </trkpt>
      <trkpt lat="48.40503" lon="2.67673">
        <ele>-63</ele>
        <time>2022-09-29T12:09:04Z</time>
      </trkpt>
      <trkpt lat="48.40503" lon="2.67665">
        <ele>-63</ele>
        <time>2022-09-29T12:09:08Z</time>
      </trkpt>
      <trkpt lat="48.40503" lon="2.67658">
        <ele>-63.200000762939</ele>
        <time>2022-09-29T12:09:12Z</time>
      </trkpt>
      <trkpt lat="48.405" lon="2.67651">
        <ele>-63.400001525879</ele>
        <time>2022-09-29T12:09:16Z</time>
      </trkpt>
      <trkpt lat="48.40497" lon="2.67648">
        <ele>-63.400001525879</ele>
        <time>2022-09-29T12:09:20Z</time>
      </trkpt>
      <trkpt lat="48.40495" lon="2.67647">
        <ele>-63.400001525879</ele>
        <time>2022-09-29T12:09:24Z</time>
      </trkpt>
      <trkpt lat="48.40491" lon="2.67645">
        <ele>-63.400001525879</ele>
        <time>2022-09-29T12:09:28Z</time>
      </trkpt>
      <trkpt lat="48.40486" lon="2.67645">
        <ele>-63.400001525879</ele>
        <time>2022-09-29T12:09:32Z</time>
      </trkpt>
      <trkpt lat="48.40482" lon="2.67643">
        <ele>-63.599998474121</ele>
        <time>2022-09-29T12:09:36Z</time>
      </trkpt>
      <trkpt lat="48.40477" lon="2.67641">
        <ele>-63.799999237061</ele>
        <time>2022-09-29T12:09:40Z</time>
      </trkpt>
      <trkpt lat="48.40474" lon="2.67638">
        <ele>-63.799999237061</ele>
        <time>2022-09-29T12:09:44Z</time>
      </trkpt>
      <trkpt lat="48.4047" lon="2.67634">
        <ele>-63.799999237061</ele>
        <time>2022-09-29T12:09:48Z</time>
      </trkpt>
      <trkpt lat="48.40466" lon="2.6763">
        <ele>-63.599998474121</ele>
        <time>2022-09-29T12:09:52Z</time>
      </trkpt>
      <trkpt lat="48.40463" lon="2.67625">
        <ele>-63.599998474121</ele>
        <time>2022-09-29T12:09:56Z</time>
      </trkpt>
      <trkpt lat="48.40459" lon="2.67621">
        <ele>-63.599998474121</ele>
        <time>2022-09-29T12:10:00Z</time>
      </trkpt>
      <trkpt lat="48.40456" lon="2.67618">
        <ele>-63.599998474121</ele>
        <time>2022-09-29T12:10:04Z</time>
      </trkpt>
      <trkpt lat="48.40452" lon="2.67613">
        <ele>-63.599998474121</ele>
        <time>2022-09-29T12:10:08Z</time>
      </trkpt>
      <trkpt lat="48.40449" lon="2.67608">
        <ele>-63.799999237061</ele>
        <time>2022-09-29T12:10:12Z</time>
      </trkpt>
      <trkpt lat="48.40447" lon="2.67603">
        <ele>-63.799999237061</ele>
        <time>2022-09-29T12:10:16Z</time>
      </trkpt>
      <trkpt lat="48.40443" lon="2.67597">
        <ele>-63.799999237061</ele>
        <time>2022-09-29T12:10:20Z</time>
      </trkpt>
      <trkpt lat="48.4044" lon="2.67593">
        <ele>-63.799999237061</ele>
        <time>2022-09-29T12:10:24Z</time>
      </trkpt>
      <trkpt lat="48.40436" lon="2.67587">
        <ele>-63.799999237061</ele>
        <time>2022-09-29T12:10:28Z</time>
      </trkpt>
      <trkpt lat="48.40432" lon="2.67581">
        <ele>-64</ele>
        <time>2022-09-29T12:10:32Z</time>
      </trkpt>
      <trkpt lat="48.40427" lon="2.67575">
        <ele>-64</ele>
        <time>2022-09-29T12:10:36Z</time>
      </trkpt>
      <trkpt lat="48.40424" lon="2.6757">
        <ele>-64</ele>
        <time>2022-09-29T12:10:40Z</time>
      </trkpt>
      <trkpt lat="48.40421" lon="2.67565">
        <ele>-64.199996948242</ele>
        <time>2022-09-29T12:10:44Z</time>
      </trkpt>
      <trkpt lat="48.40416" lon="2.67561">
        <ele>-64.199996948242</ele>
        <time>2022-09-29T12:10:48Z</time>
      </trkpt>
      <trkpt lat="48.40414" lon="2.67557">
        <ele>-64.199996948242</ele>
        <time>2022-09-29T12:10:52Z</time>
      </trkpt>
      <trkpt lat="48.4041" lon="2.67552">
        <ele>-64.199996948242</ele>
        <time>2022-09-29T12:10:56Z</time>
      </trkpt>
      <trkpt lat="48.40407" lon="2.67547">
        <ele>-64.400001525879</ele>
        <time>2022-09-29T12:11:00Z</time>
      </trkpt>
      <trkpt lat="48.40404" lon="2.67542">
        <ele>-64.400001525879</ele>
        <time>2022-09-29T12:11:04Z</time>
      </trkpt>
      <trkpt lat="48.40402" lon="2.67539">
        <ele>-64.199996948242</ele>
        <time>2022-09-29T12:11:08Z</time>
      </trkpt>
      <trkpt lat="48.40401" lon="2.67533">
        <ele>-64.199996948242</ele>
        <time>2022-09-29T12:11:12Z</time>
      </trkpt>
      <trkpt lat="48.40398" lon="2.67527">
        <ele>-64.400001525879</ele>
        <time>2022-09-29T12:11:16Z</time>
      </trkpt>
      <trkpt lat="48.40395" lon="2.67524">
        <ele>-64.400001525879</ele>
        <time>2022-09-29T12:11:20Z</time>
      </trkpt>
      <trkpt lat="48.40392" lon="2.67518">
        <ele>-64.400001525879</ele>
        <time>2022-09-29T12:11:24Z</time>
      </trkpt>
      <trkpt lat="48.40389" lon="2.67514">
        <ele>-64.199996948242</ele>
        <time>2022-09-29T12:11:28Z</time>
      </trkpt>
      <trkpt lat="48.40386" lon="2.67511">
        <ele>-64.400001525879</ele>
        <time>2022-09-29T12:11:32Z</time>
      </trkpt>
      <trkpt lat="48.40384" lon="2.67507">
        <ele>-64.400001525879</ele>
        <time>2022-09-29T12:11:36Z</time>
      </trkpt>
      <trkpt lat="48.40383" lon="2.67503">
        <ele>-64.400001525879</ele>
        <time>2022-09-29T12:11:40Z</time>
      </trkpt>
      <trkpt lat="48.40381" lon="2.67498">
        <ele>-64.400001525879</ele>
        <time>2022-09-29T12:11:44Z</time>
      </trkpt>
      <trkpt lat="48.40378" lon="2.67495">
        <ele>-64.400001525879</ele>
        <time>2022-09-29T12:11:48Z</time>
      </trkpt>
      <trkpt lat="48.40375" lon="2.67492">
        <ele>-64.599998474121</ele>
        <time>2022-09-29T12:11:52Z</time>
      </trkpt>
      <trkpt lat="48.40372" lon="2.67487">
        <ele>-64.599998474121</ele>
        <time>2022-09-29T12:11:56Z</time>
      </trkpt>
      <trkpt lat="48.40369" lon="2.67483">
        <ele>-64.599998474121</ele>
        <time>2022-09-29T12:12:00Z</time>
      </trkpt>
      <trkpt lat="48.40366" lon="2.67479">
        <ele>-64.599998474121</ele>
        <time>2022-09-29T12:12:04Z</time>
      </trkpt>
      <trkpt lat="48.40362" lon="2.67476">
        <ele>-64.800003051758</ele>
        <time>2022-09-29T12:12:08Z</time>
      </trkpt>
      <trkpt lat="48.40359" lon="2.67473">
        <ele>-64.800003051758</ele>
        <time>2022-09-29T12:12:12Z</time>
      </trkpt>
      <trkpt lat="48.40355" lon="2.67468">
        <ele>-65</ele>
        <time>2022-09-29T12:12:16Z</time>
      </trkpt>
      <trkpt lat="48.4035" lon="2.67463">
        <ele>-65</ele>
        <time>2022-09-29T12:12:20Z</time>
      </trkpt>
      <trkpt lat="48.40348" lon="2.67458">
        <ele>-65.199996948242</ele>
        <time>2022-09-29T12:12:24Z</time>
      </trkpt>
      <trkpt lat="48.40344" lon="2.67454">
        <ele>-65.199996948242</ele>
        <time>2022-09-29T12:12:28Z</time>
      </trkpt>
      <trkpt lat="48.40341" lon="2.67448">
        <ele>-65.199996948242</ele>
        <time>2022-09-29T12:12:32Z</time>
      </trkpt>
      <trkpt lat="48.40339" lon="2.67443">
        <ele>-65</ele>
        <time>2022-09-29T12:12:36Z</time>
      </trkpt>
      <trkpt lat="48.40335" lon="2.67439">
        <ele>-65.199996948242</ele>
        <time>2022-09-29T12:12:40Z</time>
      </trkpt>
      <trkpt lat="48.40331" lon="2.67435">
        <ele>-65.400001525879</ele>
        <time>2022-09-29T12:12:44Z</time>
      </trkpt>
      <trkpt lat="48.40327" lon="2.67431">
        <ele>-65.400001525879</ele>
        <time>2022-09-29T12:12:48Z</time>
      </trkpt>
      <trkpt lat="48.40324" lon="2.67428">
        <ele>-65.400001525879</ele>
        <time>2022-09-29T12:12:52Z</time>
      </trkpt>
      <trkpt lat="48.4032" lon="2.67426">
        <ele>-65.400001525879</ele>
        <time>2022-09-29T12:12:56Z</time>
      </trkpt>
      <trkpt lat="48.40317" lon="2.67424">
        <ele>-65.599998474121</ele>
        <time>2022-09-29T12:13:00Z</time>
      </trkpt>
      <trkpt lat="48.40315" lon="2.67419">
        <ele>-65.599998474121</ele>
        <time>2022-09-29T12:13:04Z</time>
      </trkpt>
      <trkpt lat="48.40312" lon="2.67415">
        <ele>-65.599998474121</ele>
        <time>2022-09-29T12:13:08Z</time>
      </trkpt>
      <trkpt lat="48.4031" lon="2.67413">
        <ele>-65.800003051758</ele>
        <time>2022-09-29T12:13:12Z</time>
      </trkpt>
      <trkpt lat="48.40306" lon="2.6741">
        <ele>-65.800003051758</ele>
        <time>2022-09-29T12:13:16Z</time>
      </trkpt>
      <trkpt lat="48.40304" lon="2.67408">
        <ele>-65.800003051758</ele>
        <time>2022-09-29T12:13:20Z</time>
      </trkpt>
      <trkpt lat="48.40301" lon="2.67404">
        <ele>-65.800003051758</ele>
        <time>2022-09-29T12:13:24Z</time>
      </trkpt>
      <trkpt lat="48.40297" lon="2.67402">
        <ele>-66</ele>
        <time>2022-09-29T12:13:28Z</time>
      </trkpt>
      <trkpt lat="48.40294" lon="2.674">
        <ele>-66</ele>
        <time>2022-09-29T12:13:32Z</time>
      </trkpt>
      <trkpt lat="48.4029" lon="2.67398">
        <ele>-66.199996948242</ele>
        <time>2022-09-29T12:13:36Z</time>
      </trkpt>
      <trkpt lat="48.40285" lon="2.67393">
        <ele>-66.199996948242</ele>
        <time>2022-09-29T12:13:40Z</time>
      </trkpt>
      <trkpt lat="48.40281" lon="2.6739">
        <ele>-66.199996948242</ele>
        <time>2022-09-29T12:13:44Z</time>
      </trkpt>
      <trkpt lat="48.40277" lon="2.6739">
        <ele>-66.199996948242</ele>
        <time>2022-09-29T12:13:48Z</time>
      </trkpt>
      <trkpt lat="48.40274" lon="2.67389">
        <ele>-66.199996948242</ele>
        <time>2022-09-29T12:13:52Z</time>
      </trkpt>
      <trkpt lat="48.40271" lon="2.67384">
        <ele>-66.400001525879</ele>
        <time>2022-09-29T12:13:56Z</time>
      </trkpt>
      <trkpt lat="48.40267" lon="2.67379">
        <ele>-66.400001525879</ele>
        <time>2022-09-29T12:14:00Z</time>
      </trkpt>
      <trkpt lat="48.40264" lon="2.67376">
        <ele>-66.400001525879</ele>
        <time>2022-09-29T12:14:04Z</time>
      </trkpt>
      <trkpt lat="48.40261" lon="2.67374">
        <ele>-66.599998474121</ele>
        <time>2022-09-29T12:14:08Z</time>
      </trkpt>
      <trkpt lat="48.40254" lon="2.67372">
        <ele>-66.599998474121</ele>
        <time>2022-09-29T12:14:12Z</time>
      </trkpt>
      <trkpt lat="48.4025" lon="2.6737">
        <ele>-66.800003051758</ele>
        <time>2022-09-29T12:14:16Z</time>
      </trkpt>
      <trkpt lat="48.40246" lon="2.6737">
        <ele>-67</ele>
        <time>2022-09-29T12:14:20Z</time>
      </trkpt>
      <trkpt lat="48.40243" lon="2.67368">
        <ele>-67</ele>
        <time>2022-09-29T12:14:24Z</time>
      </trkpt>
      <trkpt lat="48.40238" lon="2.67368">
        <ele>-67</ele>
        <time>2022-09-29T12:14:28Z</time>
      </trkpt>
      <trkpt lat="48.40234" lon="2.67366">
        <ele>-67.199996948242</ele>
        <time>2022-09-29T12:14:32Z</time>
      </trkpt>
      <trkpt lat="48.40228" lon="2.67364">
        <ele>-67.199996948242</ele>
        <time>2022-09-29T12:14:36Z</time>
      </trkpt>
      <trkpt lat="48.40223" lon="2.67363">
        <ele>-67.199996948242</ele>
        <time>2022-09-29T12:14:40Z</time>
      </trkpt>
      <trkpt lat="48.40218" lon="2.67362">
        <ele>-67.400001525879</ele>
        <time>2022-09-29T12:14:44Z</time>
      </trkpt>
      <trkpt lat="48.40214" lon="2.67359">
        <ele>-67.599998474121</ele>
        <time>2022-09-29T12:14:48Z</time>
      </trkpt>
      <trkpt lat="48.40209" lon="2.67355">
        <ele>-67.599998474121</ele>
        <time>2022-09-29T12:14:52Z</time>
      </trkpt>
      <trkpt lat="48.40205" lon="2.67352">
        <ele>-67.800003051758</ele>
        <time>2022-09-29T12:14:56Z</time>
      </trkpt>
      <trkpt lat="48.40201" lon="2.67351">
        <ele>-67.599998474121</ele>
        <time>2022-09-29T12:15:00Z</time>
      </trkpt>
      <trkpt lat="48.40198" lon="2.67349">
        <ele>-67.599998474121</ele>
        <time>2022-09-29T12:15:04Z</time>
      </trkpt>
      <trkpt lat="48.40194" lon="2.67347">
        <ele>-67.599998474121</ele>
        <time>2022-09-29T12:15:08Z</time>
      </trkpt>
      <trkpt lat="48.4019" lon="2.67345">
        <ele>-67.599998474121</ele>
        <time>2022-09-29T12:15:12Z</time>
      </trkpt>
      <trkpt lat="48.40186" lon="2.67343">
        <ele>-67.599998474121</ele>
        <time>2022-09-29T12:15:16Z</time>
      </trkpt>
      <trkpt lat="48.4018" lon="2.67342">
        <ele>-67.599998474121</ele>
        <time>2022-09-29T12:15:20Z</time>
      </trkpt>
      <trkpt lat="48.40177" lon="2.67341">
        <ele>-67.599998474121</ele>
        <time>2022-09-29T12:15:24Z</time>
      </trkpt>
      <trkpt lat="48.40174" lon="2.67339">
        <ele>-67.599998474121</ele>
        <time>2022-09-29T12:15:28Z</time>
      </trkpt>
      <trkpt lat="48.40171" lon="2.67339">
        <ele>-67.400001525879</ele>
        <time>2022-09-29T12:15:32Z</time>
      </trkpt>
      <trkpt lat="48.40167" lon="2.67337">
        <ele>-67.400001525879</ele>
        <time>2022-09-29T12:15:36Z</time>
      </trkpt>
      <trkpt lat="48.40163" lon="2.67336">
        <ele>-67.400001525879</ele>
        <time>2022-09-29T12:15:40Z</time>
      </trkpt>
      <trkpt lat="48.4016" lon="2.67334">
        <ele>-67.400001525879</ele>
        <time>2022-09-29T12:15:44Z</time>
      </trkpt>
      <trkpt lat="48.40156" lon="2.67331">
        <ele>-67.400001525879</ele>
        <time>2022-09-29T12:15:48Z</time>
      </trkpt>
      <trkpt lat="48.40153" lon="2.6733">
        <ele>-67.400001525879</ele>
        <time>2022-09-29T12:15:52Z</time>
      </trkpt>
      <trkpt lat="48.40148" lon="2.6733">
        <ele>-67.400001525879</ele>
        <time>2022-09-29T12:15:56Z</time>
      </trkpt>
      <trkpt lat="48.40144" lon="2.67328">
        <ele>-67.400001525879</ele>
        <time>2022-09-29T12:16:00Z</time>
      </trkpt>
      <trkpt lat="48.40141" lon="2.67325">
        <ele>-67.400001525879</ele>
        <time>2022-09-29T12:16:04Z</time>
      </trkpt>
      <trkpt lat="48.40136" lon="2.67323">
        <ele>-67.400001525879</ele>
        <time>2022-09-29T12:16:08Z</time>
      </trkpt>
      <trkpt lat="48.40131" lon="2.6732">
        <ele>-67.400001525879</ele>
        <time>2022-09-29T12:16:12Z</time>
      </trkpt>
      <trkpt lat="48.40127" lon="2.67318">
        <ele>-67.199996948242</ele>
        <time>2022-09-29T12:16:16Z</time>
      </trkpt>
      <trkpt lat="48.40123" lon="2.67315">
        <ele>-67.199996948242</ele>
        <time>2022-09-29T12:16:20Z</time>
      </trkpt>
      <trkpt lat="48.40118" lon="2.67311">
        <ele>-67.199996948242</ele>
        <time>2022-09-29T12:16:24Z</time>
      </trkpt>
      <trkpt lat="48.40114" lon="2.67306">
        <ele>-67.199996948242</ele>
        <time>2022-09-29T12:16:28Z</time>
      </trkpt>
      <trkpt lat="48.40111" lon="2.67303">
        <ele>-67.199996948242</ele>
        <time>2022-09-29T12:16:32Z</time>
      </trkpt>
      <trkpt lat="48.40108" lon="2.673">
        <ele>-67</ele>
        <time>2022-09-29T12:16:36Z</time>
      </trkpt>
      <trkpt lat="48.40106" lon="2.67295">
        <ele>-67.199996948242</ele>
        <time>2022-09-29T12:16:40Z</time>
      </trkpt>
      <trkpt lat="48.40101" lon="2.67293">
        <ele>-67.199996948242</ele>
        <time>2022-09-29T12:16:44Z</time>
      </trkpt>
      <trkpt lat="48.40097" lon="2.67292">
        <ele>-67</ele>
        <time>2022-09-29T12:16:48Z</time>
      </trkpt>
      <trkpt lat="48.40094" lon="2.67289">
        <ele>-67</ele>
        <time>2022-09-29T12:16:52Z</time>
      </trkpt>
      <trkpt lat="48.40092" lon="2.67284">
        <ele>-67</ele>
        <time>2022-09-29T12:16:56Z</time>
      </trkpt>
      <trkpt lat="48.40089" lon="2.6728">
        <ele>-67</ele>
        <time>2022-09-29T12:17:00Z</time>
      </trkpt>
      <trkpt lat="48.40085" lon="2.67276">
        <ele>-67</ele>
        <time>2022-09-29T12:17:04Z</time>
      </trkpt>
      <trkpt lat="48.4008" lon="2.67273">
        <ele>-67</ele>
        <time>2022-09-29T12:17:08Z</time>
      </trkpt>
      <trkpt lat="48.40075" lon="2.67271">
        <ele>-67</ele>
        <time>2022-09-29T12:17:12Z</time>
      </trkpt>
      <trkpt lat="48.40072" lon="2.67267">
        <ele>-67</ele>
        <time>2022-09-29T12:17:16Z</time>
      </trkpt>
      <trkpt lat="48.40068" lon="2.67262">
        <ele>-67</ele>
        <time>2022-09-29T12:17:20Z</time>
      </trkpt>
      <trkpt lat="48.40064" lon="2.67258">
        <ele>-66.800003051758</ele>
        <time>2022-09-29T12:17:24Z</time>
      </trkpt>
      <trkpt lat="48.40062" lon="2.67254">
        <ele>-66.800003051758</ele>
        <time>2022-09-29T12:17:28Z</time>
      </trkpt>
      <trkpt lat="48.40059" lon="2.67253">
        <ele>-66.800003051758</ele>
        <time>2022-09-29T12:17:32Z</time>
      </trkpt>
      <trkpt lat="48.40057" lon="2.67249">
        <ele>-66.800003051758</ele>
        <time>2022-09-29T12:17:36Z</time>
      </trkpt>
      <trkpt lat="48.40055" lon="2.67245">
        <ele>-66.800003051758</ele>
        <time>2022-09-29T12:17:40Z</time>
      </trkpt>
      <trkpt lat="48.40053" lon="2.67239">
        <ele>-66.800003051758</ele>
        <time>2022-09-29T12:17:44Z</time>
      </trkpt>
      <trkpt lat="48.4005" lon="2.67235">
        <ele>-66.800003051758</ele>
        <time>2022-09-29T12:17:48Z</time>
      </trkpt>
      <trkpt lat="48.40046" lon="2.67231">
        <ele>-66.800003051758</ele>
        <time>2022-09-29T12:17:52Z</time>
      </trkpt>
      <trkpt lat="48.40044" lon="2.67228">
        <ele>-66.800003051758</ele>
        <time>2022-09-29T12:17:56Z</time>
      </trkpt>
      <trkpt lat="48.40043" lon="2.67225">
        <ele>-66.599998474121</ele>
        <time>2022-09-29T12:18:00Z</time>
      </trkpt>
      <trkpt lat="48.40041" lon="2.6722">
        <ele>-66.599998474121</ele>
        <time>2022-09-29T12:18:04Z</time>
      </trkpt>
      <trkpt lat="48.40039" lon="2.67214">
        <ele>-66.599998474121</ele>
        <time>2022-09-29T12:18:08Z</time>
      </trkpt>
      <trkpt lat="48.40037" lon="2.67208">
        <ele>-66.599998474121</ele>
        <time>2022-09-29T12:18:12Z</time>
      </trkpt>
      <trkpt lat="48.40034" lon="2.67202">
        <ele>-66.599998474121</ele>
        <time>2022-09-29T12:18:16Z</time>
      </trkpt>
      <trkpt lat="48.40032" lon="2.67199">
        <ele>-66.599998474121</ele>
        <time>2022-09-29T12:18:20Z</time>
      </trkpt>
      <trkpt lat="48.40028" lon="2.67195">
        <ele>-66.599998474121</ele>
        <time>2022-09-29T12:18:24Z</time>
      </trkpt>
      <trkpt lat="48.40025" lon="2.67192">
        <ele>-66.599998474121</ele>
        <time>2022-09-29T12:18:28Z</time>
      </trkpt>
      <trkpt lat="48.40021" lon="2.6719">
        <ele>-66.599998474121</ele>
        <time>2022-09-29T12:18:32Z</time>
      </trkpt>
      <trkpt lat="48.40017" lon="2.67187">
        <ele>-66.599998474121</ele>
        <time>2022-09-29T12:18:36Z</time>
      </trkpt>
      <trkpt lat="48.40015" lon="2.67183">
        <ele>-66.599998474121</ele>
        <time>2022-09-29T12:18:40Z</time>
      </trkpt>
      <trkpt lat="48.40015" lon="2.67176">
        <ele>-66.599998474121</ele>
        <time>2022-09-29T12:18:44Z</time>
      </trkpt>
      <trkpt lat="48.40013" lon="2.6717">
        <ele>-66.800003051758</ele>
        <time>2022-09-29T12:18:48Z</time>
      </trkpt>
      <trkpt lat="48.40011" lon="2.67166">
        <ele>-66.800003051758</ele>
        <time>2022-09-29T12:18:52Z</time>
      </trkpt>
      <trkpt lat="48.40009" lon="2.67162">
        <ele>-66.800003051758</ele>
        <time>2022-09-29T12:18:56Z</time>
      </trkpt>
      <trkpt lat="48.40006" lon="2.67157">
        <ele>-66.800003051758</ele>
        <time>2022-09-29T12:19:00Z</time>
      </trkpt>
      <trkpt lat="48.40002" lon="2.67154">
        <ele>-66.800003051758</ele>
        <time>2022-09-29T12:19:04Z</time>
      </trkpt>
      <trkpt lat="48.39998" lon="2.67148">
        <ele>-66.800003051758</ele>
        <time>2022-09-29T12:19:08Z</time>
      </trkpt>
      <trkpt lat="48.39995" lon="2.67145">
        <ele>-66.599998474121</ele>
        <time>2022-09-29T12:19:12Z</time>
      </trkpt>
      <trkpt lat="48.39992" lon="2.67141">
        <ele>-66.599998474121</ele>
        <time>2022-09-29T12:19:16Z</time>
      </trkpt>
      <trkpt lat="48.39989" lon="2.67137">
        <ele>-66.599998474121</ele>
        <time>2022-09-29T12:19:20Z</time>
      </trkpt>
      <trkpt lat="48.39987" lon="2.67132">
        <ele>-66.599998474121</ele>
        <time>2022-09-29T12:19:24Z</time>
      </trkpt>
      <trkpt lat="48.39984" lon="2.67127">
        <ele>-66.400001525879</ele>
        <time>2022-09-29T12:19:28Z</time>
      </trkpt>
      <trkpt lat="48.39981" lon="2.6712">
        <ele>-66.400001525879</ele>
        <time>2022-09-29T12:19:32Z</time>
      </trkpt>
      <trkpt lat="48.39978" lon="2.67115">
        <ele>-66.400001525879</ele>
        <time>2022-09-29T12:19:36Z</time>
      </trkpt>
      <trkpt lat="48.39976" lon="2.67109">
        <ele>-66.400001525879</ele>
        <time>2022-09-29T12:19:40Z</time>
      </trkpt>
      <trkpt lat="48.39973" lon="2.67105">
        <ele>-66.199996948242</ele>
        <time>2022-09-29T12:19:44Z</time>
      </trkpt>
      <trkpt lat="48.3997" lon="2.671">
        <ele>-66.199996948242</ele>
        <time>2022-09-29T12:19:48Z</time>
      </trkpt>
      <trkpt lat="48.39969" lon="2.67095">
        <ele>-66.199996948242</ele>
        <time>2022-09-29T12:19:52Z</time>
      </trkpt>
      <trkpt lat="48.39967" lon="2.67091">
        <ele>-66</ele>
        <time>2022-09-29T12:19:56Z</time>
      </trkpt>
      <trkpt lat="48.39965" lon="2.67086">
        <ele>-65.800003051758</ele>
        <time>2022-09-29T12:20:00Z</time>
      </trkpt>
      <trkpt lat="48.39963" lon="2.67081">
        <ele>-65.599998474121</ele>
        <time>2022-09-29T12:20:04Z</time>
      </trkpt>
      <trkpt lat="48.39961" lon="2.67075">
        <ele>-65.599998474121</ele>
        <time>2022-09-29T12:20:08Z</time>
      </trkpt>
      <trkpt lat="48.39959" lon="2.67071">
        <ele>-65.400001525879</ele>
        <time>2022-09-29T12:20:12Z</time>
      </trkpt>
      <trkpt lat="48.39957" lon="2.67068">
        <ele>-65.400001525879</ele>
        <time>2022-09-29T12:20:16Z</time>
      </trkpt>
      <trkpt lat="48.39957" lon="2.67067">
        <ele>-65.400001525879</ele>
        <time>2022-09-29T12:20:20Z</time>
      </trkpt>
      <trkpt lat="48.39958" lon="2.67065">
        <ele>-65.199996948242</ele>
        <time>2022-09-29T12:20:36Z</time>
      </trkpt>
      <trkpt lat="48.39956" lon="2.67061">
        <ele>-65.199996948242</ele>
        <time>2022-09-29T12:20:40Z</time>
      </trkpt>
      <trkpt lat="48.39954" lon="2.67057">
        <ele>-65</ele>
        <time>2022-09-29T12:20:44Z</time>
      </trkpt>
      <trkpt lat="48.39952" lon="2.67053">
        <ele>-65</ele>
        <time>2022-09-29T12:20:48Z</time>
      </trkpt>
      <trkpt lat="48.3995" lon="2.67049">
        <ele>-65</ele>
        <time>2022-09-29T12:20:52Z</time>
      </trkpt>
      <trkpt lat="48.39948" lon="2.67046">
        <ele>-65</ele>
        <time>2022-09-29T12:20:56Z</time>
      </trkpt>
      <trkpt lat="48.39946" lon="2.67041">
        <ele>-65</ele>
        <time>2022-09-29T12:21:00Z</time>
      </trkpt>
      <trkpt lat="48.39944" lon="2.67037">
        <ele>-65</ele>
        <time>2022-09-29T12:21:04Z</time>
      </trkpt>
      <trkpt lat="48.39941" lon="2.67032">
        <ele>-64.800003051758</ele>
        <time>2022-09-29T12:21:08Z</time>
      </trkpt>
      <trkpt lat="48.39939" lon="2.67027">
        <ele>-64.599998474121</ele>
        <time>2022-09-29T12:21:12Z</time>
      </trkpt>
      <trkpt lat="48.39937" lon="2.67023">
        <ele>-64.400001525879</ele>
        <time>2022-09-29T12:21:16Z</time>
      </trkpt>
      <trkpt lat="48.39935" lon="2.67018">
        <ele>-64.400001525879</ele>
        <time>2022-09-29T12:21:20Z</time>
      </trkpt>
      <trkpt lat="48.39932" lon="2.67013">
        <ele>-64</ele>
        <time>2022-09-29T12:21:24Z</time>
      </trkpt>
      <trkpt lat="48.39929" lon="2.67006">
        <ele>-64</ele>
        <time>2022-09-29T12:21:28Z</time>
      </trkpt>
      <trkpt lat="48.39926" lon="2.67001">
        <ele>-63.799999237061</ele>
        <time>2022-09-29T12:21:32Z</time>
      </trkpt>
      <trkpt lat="48.39924" lon="2.66995">
        <ele>-63.400001525879</ele>
        <time>2022-09-29T12:21:36Z</time>
      </trkpt>
      <trkpt lat="48.39923" lon="2.6699">
        <ele>-63.200000762939</ele>
        <time>2022-09-29T12:21:40Z</time>
      </trkpt>
      <trkpt lat="48.39925" lon="2.66986">
        <ele>-63</ele>
        <time>2022-09-29T12:21:44Z</time>
      </trkpt>
      <trkpt lat="48.39924" lon="2.66983">
        <ele>-63</ele>
        <time>2022-09-29T12:21:48Z</time>
      </trkpt>
      <trkpt lat="48.39921" lon="2.66978">
        <ele>-63</ele>
        <time>2022-09-29T12:21:52Z</time>
      </trkpt>
      <trkpt lat="48.39917" lon="2.66974">
        <ele>-63</ele>
        <time>2022-09-29T12:21:56Z</time>
      </trkpt>
      <trkpt lat="48.39913" lon="2.6697">
        <ele>-62.799999237061</ele>
        <time>2022-09-29T12:22:00Z</time>
      </trkpt>
      <trkpt lat="48.39911" lon="2.66965">
        <ele>-62.599998474121</ele>
        <time>2022-09-29T12:22:04Z</time>
      </trkpt>
      <trkpt lat="48.3991" lon="2.6696">
        <ele>-62.400001525879</ele>
        <time>2022-09-29T12:22:08Z</time>
      </trkpt>
      <trkpt lat="48.39908" lon="2.66956">
        <ele>-62.200000762939</ele>
        <time>2022-09-29T12:22:12Z</time>
      </trkpt>
      <trkpt lat="48.39905" lon="2.66953">
        <ele>-62.200000762939</ele>
        <time>2022-09-29T12:22:16Z</time>
      </trkpt>
      <trkpt lat="48.39902" lon="2.6695">
        <ele>-62</ele>
        <time>2022-09-29T12:22:20Z</time>
      </trkpt>
      <trkpt lat="48.399" lon="2.66948">
        <ele>-61.799999237061</ele>
        <time>2022-09-29T12:22:24Z</time>
      </trkpt>
      <trkpt lat="48.39898" lon="2.66946">
        <ele>-61.400001525879</ele>
        <time>2022-09-29T12:22:28Z</time>
      </trkpt>
      <trkpt lat="48.39896" lon="2.66942">
        <ele>-61.200000762939</ele>
        <time>2022-09-29T12:22:32Z</time>
      </trkpt>
      <trkpt lat="48.39895" lon="2.66939">
        <ele>-61</ele>
        <time>2022-09-29T12:22:36Z</time>
      </trkpt>
      <trkpt lat="48.39893" lon="2.66933">
        <ele>-60.599998474121</ele>
        <time>2022-09-29T12:22:40Z</time>
      </trkpt>
      <trkpt lat="48.3989" lon="2.66928">
        <ele>-60.400001525879</ele>
        <time>2022-09-29T12:22:44Z</time>
      </trkpt>
      <trkpt lat="48.39888" lon="2.66921">
        <ele>-60.200000762939</ele>
        <time>2022-09-29T12:22:48Z</time>
      </trkpt>
      <trkpt lat="48.39887" lon="2.66915">
        <ele>-60</ele>
        <time>2022-09-29T12:22:52Z</time>
      </trkpt>
      <trkpt lat="48.39887" lon="2.66911">
        <ele>-59.799999237061</ele>
        <time>2022-09-29T12:22:56Z</time>
      </trkpt>
      <trkpt lat="48.39888" lon="2.66908">
        <ele>-59.599998474121</ele>
        <time>2022-09-29T12:23:00Z</time>
      </trkpt>
      <trkpt lat="48.39887" lon="2.66905">
        <ele>-59.400001525879</ele>
        <time>2022-09-29T12:23:04Z</time>
      </trkpt>
      <trkpt lat="48.39885" lon="2.66902">
        <ele>-59.200000762939</ele>
        <time>2022-09-29T12:23:08Z</time>
      </trkpt>
      <trkpt lat="48.39882" lon="2.66901">
        <ele>-59</ele>
        <time>2022-09-29T12:23:12Z</time>
      </trkpt>
      <trkpt lat="48.39878" lon="2.66898">
        <ele>-58.599998474121</ele>
        <time>2022-09-29T12:23:16Z</time>
      </trkpt>
      <trkpt lat="48.39875" lon="2.66896">
        <ele>-58</ele>
        <time>2022-09-29T12:23:20Z</time>
      </trkpt>
      <trkpt lat="48.39872" lon="2.66891">
        <ele>-57.599998474121</ele>
        <time>2022-09-29T12:23:24Z</time>
      </trkpt>
      <trkpt lat="48.39868" lon="2.66888">
        <ele>-57</ele>
        <time>2022-09-29T12:23:28Z</time>
      </trkpt>
      <trkpt lat="48.39866" lon="2.66885">
        <ele>-56.400001525879</ele>
        <time>2022-09-29T12:23:32Z</time>
      </trkpt>
      <trkpt lat="48.39863" lon="2.66883">
        <ele>-55.799999237061</ele>
        <time>2022-09-29T12:23:36Z</time>
      </trkpt>
      <trkpt lat="48.39863" lon="2.66881">
        <ele>-55.200000762939</ele>
        <time>2022-09-29T12:23:40Z</time>
      </trkpt>
      <trkpt lat="48.3986" lon="2.66879">
        <ele>-54.599998474121</ele>
        <time>2022-09-29T12:23:44Z</time>
      </trkpt>
      <trkpt lat="48.39856" lon="2.6688">
        <ele>-54.200000762939</ele>
        <time>2022-09-29T12:23:48Z</time>
      </trkpt>
      <trkpt lat="48.39852" lon="2.66881">
        <ele>-54</ele>
        <time>2022-09-29T12:23:52Z</time>
      </trkpt>
      <trkpt lat="48.39847" lon="2.66881">
        <ele>-53.400001525879</ele>
        <time>2022-09-29T12:23:56Z</time>
      </trkpt>
      <trkpt lat="48.39843" lon="2.66881">
        <ele>-52.799999237061</ele>
        <time>2022-09-29T12:24:00Z</time>
      </trkpt>
      <trkpt lat="48.39839" lon="2.66881">
        <ele>-52.200000762939</ele>
        <time>2022-09-29T12:24:04Z</time>
      </trkpt>
      <trkpt lat="48.39836" lon="2.66882">
        <ele>-52</ele>
        <time>2022-09-29T12:24:08Z</time>
      </trkpt>
      <trkpt lat="48.39833" lon="2.66885">
        <ele>-51.400001525879</ele>
        <time>2022-09-29T12:24:12Z</time>
      </trkpt>
      <trkpt lat="48.39831" lon="2.66884">
        <ele>-50.799999237061</ele>
        <time>2022-09-29T12:24:16Z</time>
      </trkpt>
      <trkpt lat="48.3983" lon="2.66883">
        <ele>-50.400001525879</ele>
        <time>2022-09-29T12:24:20Z</time>
      </trkpt>
      <trkpt lat="48.39828" lon="2.66884">
        <ele>-49.799999237061</ele>
        <time>2022-09-29T12:24:24Z</time>
      </trkpt>
      <trkpt lat="48.39825" lon="2.66884">
        <ele>-49.400001525879</ele>
        <time>2022-09-29T12:24:28Z</time>
      </trkpt>
      <trkpt lat="48.39824" lon="2.66884">
        <ele>-49</ele>
        <time>2022-09-29T12:24:32Z</time>
      </trkpt>
      <trkpt lat="48.39822" lon="2.66884">
        <ele>-48.200000762939</ele>
        <time>2022-09-29T12:24:36Z</time>
      </trkpt>
      <trkpt lat="48.39819" lon="2.66886">
        <ele>-47.799999237061</ele>
        <time>2022-09-29T12:24:40Z</time>
      </trkpt>
      <trkpt lat="48.39815" lon="2.66887">
        <ele>-47.400001525879</ele>
        <time>2022-09-29T12:24:44Z</time>
      </trkpt>
      <trkpt lat="48.39811" lon="2.66888">
        <ele>-47</ele>
        <time>2022-09-29T12:24:48Z</time>
      </trkpt>
      <trkpt lat="48.39808" lon="2.66889">
        <ele>-46.599998474121</ele>
        <time>2022-09-29T12:24:52Z</time>
      </trkpt>
      <trkpt lat="48.39806" lon="2.6689">
        <ele>-45.599998474121</ele>
        <time>2022-09-29T12:24:56Z</time>
      </trkpt>
      <trkpt lat="48.39806" lon="2.66893">
        <ele>-44.799999237061</ele>
        <time>2022-09-29T12:25:00Z</time>
      </trkpt>
      <trkpt lat="48.39807" lon="2.66894">
        <ele>-44.200000762939</ele>
        <time>2022-09-29T12:25:04Z</time>
      </trkpt>
      <trkpt lat="48.39808" lon="2.66897">
        <ele>-43.400001525879</ele>
        <time>2022-09-29T12:25:08Z</time>
      </trkpt>
      <trkpt lat="48.39808" lon="2.66903">
        <ele>-43</ele>
        <time>2022-09-29T12:25:12Z</time>
      </trkpt>
      <trkpt lat="48.39808" lon="2.66908">
        <ele>-42.400001525879</ele>
        <time>2022-09-29T12:25:16Z</time>
      </trkpt>
      <trkpt lat="48.39809" lon="2.66914">
        <ele>-41.599998474121</ele>
        <time>2022-09-29T12:25:20Z</time>
      </trkpt>
      <trkpt lat="48.39809" lon="2.66918">
        <ele>-40.400001525879</ele>
        <time>2022-09-29T12:25:24Z</time>
      </trkpt>
      <trkpt lat="48.39809" lon="2.6692">
        <ele>-40</ele>
        <time>2022-09-29T12:25:28Z</time>
      </trkpt>
      <trkpt lat="48.39807" lon="2.66921">
        <ele>-40</ele>
        <time>2022-09-29T12:25:32Z</time>
      </trkpt>
      <trkpt lat="48.39806" lon="2.66921">
        <ele>-39</ele>
        <time>2022-09-29T12:25:40Z</time>
      </trkpt>
      <trkpt lat="48.39803" lon="2.66923">
        <ele>-38.200000762939</ele>
        <time>2022-09-29T12:25:44Z</time>
      </trkpt>
      <trkpt lat="48.398" lon="2.66925">
        <ele>-37.599998474121</ele>
        <time>2022-09-29T12:25:48Z</time>
      </trkpt>
      <trkpt lat="48.39799" lon="2.66927">
        <ele>-37</ele>
        <time>2022-09-29T12:25:52Z</time>
      </trkpt>
      <trkpt lat="48.39797" lon="2.66925">
        <ele>-36.599998474121</ele>
        <time>2022-09-29T12:25:56Z</time>
      </trkpt>
      <trkpt lat="48.39796" lon="2.66924">
        <ele>-36.200000762939</ele>
        <time>2022-09-29T12:26:00Z</time>
      </trkpt>
      <trkpt lat="48.39793" lon="2.66923">
        <ele>-35.400001525879</ele>
        <time>2022-09-29T12:26:04Z</time>
      </trkpt>
      <trkpt lat="48.3979" lon="2.66922">
        <ele>-34.599998474121</ele>
        <time>2022-09-29T12:26:08Z</time>
      </trkpt>
      <trkpt lat="48.39787" lon="2.66923">
        <ele>-33.799999237061</ele>
        <time>2022-09-29T12:26:12Z</time>
      </trkpt>
      <trkpt lat="48.39783" lon="2.66922">
        <ele>-33</ele>
        <time>2022-09-29T12:26:16Z</time>
      </trkpt>
      <trkpt lat="48.39781" lon="2.66917">
        <ele>-32.599998474121</ele>
        <time>2022-09-29T12:26:20Z</time>
      </trkpt>
      <trkpt lat="48.39781" lon="2.66915">
        <ele>-32</ele>
        <time>2022-09-29T12:26:24Z</time>
      </trkpt>
      <trkpt lat="48.39779" lon="2.66916">
        <ele>-31.200000762939</ele>
        <time>2022-09-29T12:26:28Z</time>
      </trkpt>
      <trkpt lat="48.39778" lon="2.66915">
        <ele>-30.799999237061</ele>
        <time>2022-09-29T12:26:32Z</time>
      </trkpt>
      <trkpt lat="48.39777" lon="2.66914">
        <ele>-30</ele>
        <time>2022-09-29T12:26:36Z</time>
      </trkpt>
      <trkpt lat="48.39774" lon="2.66913">
        <ele>-29.60000038147</ele>
        <time>2022-09-29T12:26:40Z</time>
      </trkpt>
      <trkpt lat="48.39771" lon="2.66912">
        <ele>-28.799999237061</ele>
        <time>2022-09-29T12:26:44Z</time>
      </trkpt>
      <trkpt lat="48.39769" lon="2.6691">
        <ele>-28.200000762939</ele>
        <time>2022-09-29T12:26:48Z</time>
      </trkpt>
      <trkpt lat="48.39767" lon="2.66908">
        <ele>-27.39999961853</ele>
        <time>2022-09-29T12:26:52Z</time>
      </trkpt>
      <trkpt lat="48.39767" lon="2.66907">
        <ele>-26.60000038147</ele>
        <time>2022-09-29T12:26:56Z</time>
      </trkpt>
      <trkpt lat="48.39768" lon="2.66905">
        <ele>-26</ele>
        <time>2022-09-29T12:27:00Z</time>
      </trkpt>
      <trkpt lat="48.39768" lon="2.66903">
        <ele>-25.799999237061</ele>
        <time>2022-09-29T12:27:04Z</time>
      </trkpt>
      <trkpt lat="48.39767" lon="2.669">
        <ele>-25.60000038147</ele>
        <time>2022-09-29T12:27:08Z</time>
      </trkpt>
      <trkpt lat="48.39767" lon="2.66895">
        <ele>-25.799999237061</ele>
        <time>2022-09-29T12:27:12Z</time>
      </trkpt>
      <trkpt lat="48.39766" lon="2.66892">
        <ele>-26</ele>
        <time>2022-09-29T12:27:16Z</time>
      </trkpt>
      <trkpt lat="48.39764" lon="2.66889">
        <ele>-25.799999237061</ele>
        <time>2022-09-29T12:27:20Z</time>
      </trkpt>
      <trkpt lat="48.39761" lon="2.66885">
        <ele>-25.39999961853</ele>
        <time>2022-09-29T12:27:24Z</time>
      </trkpt>
      <trkpt lat="48.39758" lon="2.66884">
        <ele>-25</ele>
        <time>2022-09-29T12:27:28Z</time>
      </trkpt>
      <trkpt lat="48.39755" lon="2.66885">
        <ele>-24.200000762939</ele>
        <time>2022-09-29T12:27:32Z</time>
      </trkpt>
      <trkpt lat="48.39753" lon="2.66886">
        <ele>-23</ele>
        <time>2022-09-29T12:27:36Z</time>
      </trkpt>
      <trkpt lat="48.39752" lon="2.66886">
        <ele>-22</ele>
        <time>2022-09-29T12:27:40Z</time>
      </trkpt>
      <trkpt lat="48.3975" lon="2.66883">
        <ele>-21.200000762939</ele>
        <time>2022-09-29T12:27:44Z</time>
      </trkpt>
      <trkpt lat="48.39747" lon="2.66883">
        <ele>-20.39999961853</ele>
        <time>2022-09-29T12:27:48Z</time>
      </trkpt>
      <trkpt lat="48.39744" lon="2.66883">
        <ele>-19.799999237061</ele>
        <time>2022-09-29T12:27:52Z</time>
      </trkpt>
      <trkpt lat="48.39741" lon="2.66883">
        <ele>-19.39999961853</ele>
        <time>2022-09-29T12:27:56Z</time>
      </trkpt>
      <trkpt lat="48.39736" lon="2.66884">
        <ele>-19.200000762939</ele>
        <time>2022-09-29T12:28:00Z</time>
      </trkpt>
      <trkpt lat="48.39733" lon="2.6688">
        <ele>-18.799999237061</ele>
        <time>2022-09-29T12:28:04Z</time>
      </trkpt>
      <trkpt lat="48.39732" lon="2.66879">
        <ele>-18.60000038147</ele>
        <time>2022-09-29T12:28:08Z</time>
      </trkpt>
      <trkpt lat="48.39732" lon="2.6688">
        <ele>-18.39999961853</ele>
        <time>2022-09-29T12:28:12Z</time>
      </trkpt>
      <trkpt lat="48.39732" lon="2.66881">
        <ele>-18.39999961853</ele>
        <time>2022-09-29T12:28:20Z</time>
      </trkpt>
      <trkpt lat="48.39733" lon="2.66882">
        <ele>-18.39999961853</ele>
        <time>2022-09-29T12:28:28Z</time>
      </trkpt>
      <trkpt lat="48.39732" lon="2.66882">
        <ele>-18.39999961853</ele>
        <time>2022-09-29T12:28:32Z</time>
      </trkpt>
      <trkpt lat="48.39731" lon="2.66883">
        <ele>-18.39999961853</ele>
        <time>2022-09-29T12:28:40Z</time>
      </trkpt>
      <trkpt lat="48.39731" lon="2.66884">
        <ele>-18.39999961853</ele>
        <time>2022-09-29T12:28:44Z</time>
      </trkpt>
      <trkpt lat="48.39731" lon="2.66883">
        <ele>-18.200000762939</ele>
        <time>2022-09-29T12:28:48Z</time>
      </trkpt>
      <trkpt lat="48.39732" lon="2.66882">
        <ele>-18.200000762939</ele>
        <time>2022-09-29T12:28:52Z</time>
      </trkpt>
      <trkpt lat="48.39733" lon="2.66882">
        <ele>-18.200000762939</ele>
        <time>2022-09-29T12:28:56Z</time>
      </trkpt>
      <trkpt lat="48.39735" lon="2.66885">
        <ele>-18.200000762939</ele>
        <time>2022-09-29T12:29:00Z</time>
      </trkpt>
      <trkpt lat="48.39738" lon="2.66886">
        <ele>-18.60000038147</ele>
        <time>2022-09-29T12:29:04Z</time>
      </trkpt>
      <trkpt lat="48.39742" lon="2.66886">
        <ele>-18.799999237061</ele>
        <time>2022-09-29T12:29:08Z</time>
      </trkpt>
      <trkpt lat="48.39744" lon="2.66888">
        <ele>-19.200000762939</ele>
        <time>2022-09-29T12:29:12Z</time>
      </trkpt>
      <trkpt lat="48.39745" lon="2.66888">
        <ele>-19.39999961853</ele>
        <time>2022-09-29T12:29:16Z</time>
      </trkpt>
      <trkpt lat="48.39746" lon="2.66889">
        <ele>-19.39999961853</ele>
        <time>2022-09-29T12:29:24Z</time>
      </trkpt>
      <trkpt lat="48.39747" lon="2.66889">
        <ele>-19.39999961853</ele>
        <time>2022-09-29T12:29:28Z</time>
      </trkpt>
      <trkpt lat="48.39748" lon="2.66889">
        <ele>-19.39999961853</ele>
        <time>2022-09-29T12:29:44Z</time>
      </trkpt>
      <trkpt lat="48.39748" lon="2.66887">
        <ele>-19.39999961853</ele>
        <time>2022-09-29T12:29:48Z</time>
      </trkpt>
      <trkpt lat="48.39747" lon="2.66886">
        <ele>-19.39999961853</ele>
        <time>2022-09-29T12:29:52Z</time>
      </trkpt>
      <trkpt lat="48.39748" lon="2.66888">
        <ele>-19.39999961853</ele>
        <time>2022-09-29T12:30:00Z</time>
      </trkpt>
      <trkpt lat="48.3975" lon="2.6689">
        <ele>-19.39999961853</ele>
        <time>2022-09-29T12:30:04Z</time>
      </trkpt>
      <trkpt lat="48.39751" lon="2.66891">
        <ele>-19.39999961853</ele>
        <time>2022-09-29T12:30:08Z</time>
      </trkpt>
      <trkpt lat="48.39751" lon="2.66893">
        <ele>-19.200000762939</ele>
        <time>2022-09-29T12:30:12Z</time>
      </trkpt>
      <trkpt lat="48.3975" lon="2.66893">
        <ele>-19.200000762939</ele>
        <time>2022-09-29T12:30:16Z</time>
      </trkpt>
      <trkpt lat="48.39749" lon="2.66894">
        <ele>-19.200000762939</ele>
        <time>2022-09-29T12:30:36Z</time>
      </trkpt>
      <trkpt lat="48.39746" lon="2.66892">
        <ele>-19.200000762939</ele>
        <time>2022-09-29T12:30:40Z</time>
      </trkpt>
      <trkpt lat="48.39743" lon="2.66887">
        <ele>-19.200000762939</ele>
        <time>2022-09-29T12:30:44Z</time>
      </trkpt>
      <trkpt lat="48.39742" lon="2.66885">
        <ele>-19.200000762939</ele>
        <time>2022-09-29T12:30:48Z</time>
      </trkpt>
      <trkpt lat="48.39742" lon="2.66886">
        <ele>-19.200000762939</ele>
        <time>2022-09-29T12:30:52Z</time>
      </trkpt>
      <trkpt lat="48.39741" lon="2.66887">
        <ele>-19.200000762939</ele>
        <time>2022-09-29T12:30:56Z</time>
      </trkpt>
      <trkpt lat="48.3974" lon="2.66888">
        <ele>-19.200000762939</ele>
        <time>2022-09-29T12:31:00Z</time>
      </trkpt>
      <trkpt lat="48.39738" lon="2.66888">
        <ele>-19.200000762939</ele>
        <time>2022-09-29T12:31:04Z</time>
      </trkpt>
      <trkpt lat="48.39737" lon="2.66887">
        <ele>-19.200000762939</ele>
        <time>2022-09-29T12:31:08Z</time>
      </trkpt>
      <trkpt lat="48.39736" lon="2.66886">
        <ele>-19.200000762939</ele>
        <time>2022-09-29T12:31:12Z</time>
      </trkpt>
      <trkpt lat="48.39735" lon="2.66886">
        <ele>-19.200000762939</ele>
        <time>2022-09-29T12:31:16Z</time>
      </trkpt>
      <trkpt lat="48.39736" lon="2.66887">
        <ele>-19.200000762939</ele>
        <time>2022-09-29T12:31:20Z</time>
      </trkpt>
      <trkpt lat="48.39736" lon="2.66888">
        <ele>-19.200000762939</ele>
        <time>2022-09-29T12:31:24Z</time>
      </trkpt>
      <trkpt lat="48.39737" lon="2.66888">
        <ele>-19.200000762939</ele>
        <time>2022-09-29T12:31:32Z</time>
      </trkpt>
      <trkpt lat="48.39737" lon="2.66887">
        <ele>-19.200000762939</ele>
        <time>2022-09-29T12:31:40Z</time>
      </trkpt>
      <trkpt lat="48.39736" lon="2.66887">
        <ele>-19.200000762939</ele>
        <time>2022-09-29T12:31:44Z</time>
      </trkpt>
      <trkpt lat="48.39737" lon="2.66888">
        <ele>-19.200000762939</ele>
        <time>2022-09-29T12:31:48Z</time>
      </trkpt>
      <trkpt lat="48.39739" lon="2.6689">
        <ele>-19.200000762939</ele>
        <time>2022-09-29T12:31:52Z</time>
      </trkpt>
      <trkpt lat="48.39739" lon="2.66888">
        <ele>-19.200000762939</ele>
        <time>2022-09-29T12:32:00Z</time>
      </trkpt>
      <trkpt lat="48.39739" lon="2.66886">
        <ele>-19.200000762939</ele>
        <time>2022-09-29T12:32:04Z</time>
      </trkpt>
      <trkpt lat="48.39738" lon="2.66886">
        <ele>-19.200000762939</ele>
        <time>2022-09-29T12:32:08Z</time>
      </trkpt>
      <trkpt lat="48.39738" lon="2.66887">
        <ele>-19.200000762939</ele>
        <time>2022-09-29T12:32:12Z</time>
      </trkpt>
      <trkpt lat="48.39738" lon="2.66888">
        <ele>-19.200000762939</ele>
        <time>2022-09-29T12:32:16Z</time>
      </trkpt>
      <trkpt lat="48.39737" lon="2.66889">
        <ele>-19.200000762939</ele>
        <time>2022-09-29T12:32:20Z</time>
      </trkpt>
      <trkpt lat="48.39737" lon="2.6689">
        <ele>-19.200000762939</ele>
        <time>2022-09-29T12:32:24Z</time>
      </trkpt>
      <trkpt lat="48.39735" lon="2.66889">
        <ele>-19.200000762939</ele>
        <time>2022-09-29T12:32:28Z</time>
      </trkpt>
      <trkpt lat="48.39735" lon="2.66888">
        <ele>-19.200000762939</ele>
        <time>2022-09-29T12:32:32Z</time>
      </trkpt>
      <trkpt lat="48.39733" lon="2.66888">
        <ele>-19.200000762939</ele>
        <time>2022-09-29T12:32:36Z</time>
      </trkpt>
      <trkpt lat="48.39732" lon="2.66887">
        <ele>-19.200000762939</ele>
        <time>2022-09-29T12:32:40Z</time>
      </trkpt>
      <trkpt lat="48.39731" lon="2.66887">
        <ele>-19.200000762939</ele>
        <time>2022-09-29T12:32:44Z</time>
      </trkpt>
      <trkpt lat="48.39732" lon="2.66887">
        <ele>-19.200000762939</ele>
        <time>2022-09-29T12:32:48Z</time>
      </trkpt>
      <trkpt lat="48.39733" lon="2.66885">
        <ele>-19.200000762939</ele>
        <time>2022-09-29T12:33:00Z</time>
      </trkpt>
      <trkpt lat="48.39736" lon="2.6688">
        <ele>-19.200000762939</ele>
        <time>2022-09-29T12:33:04Z</time>
      </trkpt>
      <trkpt lat="48.39739" lon="2.66876">
        <ele>-19.200000762939</ele>
        <time>2022-09-29T12:33:08Z</time>
      </trkpt>
      <trkpt lat="48.39739" lon="2.66871">
        <ele>-19</ele>
        <time>2022-09-29T12:33:12Z</time>
      </trkpt>
      <trkpt lat="48.3974" lon="2.66866">
        <ele>-19</ele>
        <time>2022-09-29T12:33:16Z</time>
      </trkpt>
      <trkpt lat="48.39742" lon="2.66863">
        <ele>-19</ele>
        <time>2022-09-29T12:33:20Z</time>
      </trkpt>
      <trkpt lat="48.39745" lon="2.6686">
        <ele>-19.200000762939</ele>
        <time>2022-09-29T12:33:24Z</time>
      </trkpt>
      <trkpt lat="48.39748" lon="2.66855">
        <ele>-19.200000762939</ele>
        <time>2022-09-29T12:33:28Z</time>
      </trkpt>
      <trkpt lat="48.39749" lon="2.66851">
        <ele>-19.200000762939</ele>
        <time>2022-09-29T12:33:32Z</time>
      </trkpt>
      <trkpt lat="48.3975" lon="2.66848">
        <ele>-19</ele>
        <time>2022-09-29T12:33:36Z</time>
      </trkpt>
      <trkpt lat="48.3975" lon="2.66846">
        <ele>-19.200000762939</ele>
        <time>2022-09-29T12:33:40Z</time>
      </trkpt>
      <trkpt lat="48.39752" lon="2.66843">
        <ele>-19.39999961853</ele>
        <time>2022-09-29T12:33:44Z</time>
      </trkpt>
      <trkpt lat="48.39754" lon="2.6684">
        <ele>-19.799999237061</ele>
        <time>2022-09-29T12:33:48Z</time>
      </trkpt>
      <trkpt lat="48.39756" lon="2.66836">
        <ele>-19.799999237061</ele>
        <time>2022-09-29T12:33:52Z</time>
      </trkpt>
      <trkpt lat="48.39758" lon="2.66831">
        <ele>-19.799999237061</ele>
        <time>2022-09-29T12:33:56Z</time>
      </trkpt>
      <trkpt lat="48.3976" lon="2.66827">
        <ele>-19.799999237061</ele>
        <time>2022-09-29T12:34:00Z</time>
      </trkpt>
      <trkpt lat="48.39762" lon="2.66821">
        <ele>-19.60000038147</ele>
        <time>2022-09-29T12:34:04Z</time>
      </trkpt>
      <trkpt lat="48.39763" lon="2.66817">
        <ele>-19.60000038147</ele>
        <time>2022-09-29T12:34:08Z</time>
      </trkpt>
      <trkpt lat="48.39764" lon="2.66813">
        <ele>-19.200000762939</ele>
        <time>2022-09-29T12:34:12Z</time>
      </trkpt>
      <trkpt lat="48.39765" lon="2.6681">
        <ele>-19.39999961853</ele>
        <time>2022-09-29T12:34:16Z</time>
      </trkpt>
      <trkpt lat="48.39766" lon="2.66806">
        <ele>-19.799999237061</ele>
        <time>2022-09-29T12:34:20Z</time>
      </trkpt>
      <trkpt lat="48.39767" lon="2.66805">
        <ele>-20.39999961853</ele>
        <time>2022-09-29T12:34:24Z</time>
      </trkpt>
      <trkpt lat="48.39766" lon="2.66803">
        <ele>-21.200000762939</ele>
        <time>2022-09-29T12:34:28Z</time>
      </trkpt>
      <trkpt lat="48.39766" lon="2.668">
        <ele>-21.39999961853</ele>
        <time>2022-09-29T12:34:32Z</time>
      </trkpt>
      <trkpt lat="48.39766" lon="2.66797">
        <ele>-21.799999237061</ele>
        <time>2022-09-29T12:34:36Z</time>
      </trkpt>
      <trkpt lat="48.39765" lon="2.66797">
        <ele>-22.200000762939</ele>
        <time>2022-09-29T12:34:40Z</time>
      </trkpt>
      <trkpt lat="48.39764" lon="2.66796">
        <ele>-22.60000038147</ele>
        <time>2022-09-29T12:34:44Z</time>
      </trkpt>
      <trkpt lat="48.39763" lon="2.66795">
        <ele>-22.799999237061</ele>
        <time>2022-09-29T12:34:48Z</time>
      </trkpt>
      <trkpt lat="48.39762" lon="2.66794">
        <ele>-23.200000762939</ele>
        <time>2022-09-29T12:34:52Z</time>
      </trkpt>
      <trkpt lat="48.39762" lon="2.6679">
        <ele>-23.39999961853</ele>
        <time>2022-09-29T12:34:56Z</time>
      </trkpt>
      <trkpt lat="48.39762" lon="2.66788">
        <ele>-24</ele>
        <time>2022-09-29T12:35:00Z</time>
      </trkpt>
      <trkpt lat="48.39763" lon="2.66788">
        <ele>-24</ele>
        <time>2022-09-29T12:35:04Z</time>
      </trkpt>
      <trkpt lat="48.39763" lon="2.66787">
        <ele>-24.200000762939</ele>
        <time>2022-09-29T12:35:08Z</time>
      </trkpt>
      <trkpt lat="48.39763" lon="2.66786">
        <ele>-24.200000762939</ele>
        <time>2022-09-29T12:35:12Z</time>
      </trkpt>
      <trkpt lat="48.39764" lon="2.66785">
        <ele>-24.200000762939</ele>
        <time>2022-09-29T12:35:16Z</time>
      </trkpt>
      <trkpt lat="48.39764" lon="2.66784">
        <ele>-24.200000762939</ele>
        <time>2022-09-29T12:35:20Z</time>
      </trkpt>
      <trkpt lat="48.39766" lon="2.66783">
        <ele>-24.200000762939</ele>
        <time>2022-09-29T12:35:24Z</time>
      </trkpt>
      <trkpt lat="48.39767" lon="2.66781">
        <ele>-24.39999961853</ele>
        <time>2022-09-29T12:35:28Z</time>
      </trkpt>
      <trkpt lat="48.39768" lon="2.6678">
        <ele>-24.39999961853</ele>
        <time>2022-09-29T12:35:32Z</time>
      </trkpt>
      <trkpt lat="48.39767" lon="2.66779">
        <ele>-24.60000038147</ele>
        <time>2022-09-29T12:35:36Z</time>
      </trkpt>
      <trkpt lat="48.39767" lon="2.66778">
        <ele>-25</ele>
        <time>2022-09-29T12:35:40Z</time>
      </trkpt>
      <trkpt lat="48.39768" lon="2.66778">
        <ele>-25.39999961853</ele>
        <time>2022-09-29T12:35:44Z</time>
      </trkpt>
      <trkpt lat="48.3977" lon="2.6678">
        <ele>-26</ele>
        <time>2022-09-29T12:35:52Z</time>
      </trkpt>
      <trkpt lat="48.39773" lon="2.66781">
        <ele>-26</ele>
        <time>2022-09-29T12:35:56Z</time>
      </trkpt>
      <trkpt lat="48.39775" lon="2.66781">
        <ele>-26</ele>
        <time>2022-09-29T12:36:00Z</time>
      </trkpt>
      <trkpt lat="48.39776" lon="2.66781">
        <ele>-26</ele>
        <time>2022-09-29T12:36:04Z</time>
      </trkpt>
      <trkpt lat="48.39777" lon="2.66781">
        <ele>-26</ele>
        <time>2022-09-29T12:36:08Z</time>
      </trkpt>
      <trkpt lat="48.39779" lon="2.66779">
        <ele>-26</ele>
        <time>2022-09-29T12:36:12Z</time>
      </trkpt>
      <trkpt lat="48.39779" lon="2.66777">
        <ele>-27</ele>
        <time>2022-09-29T12:36:24Z</time>
      </trkpt>
      <trkpt lat="48.39779" lon="2.66769">
        <ele>-27.60000038147</ele>
        <time>2022-09-29T12:36:28Z</time>
      </trkpt>
      <trkpt lat="48.3978" lon="2.66767">
        <ele>-27.799999237061</ele>
        <time>2022-09-29T12:36:32Z</time>
      </trkpt>
      <trkpt lat="48.39782" lon="2.66766">
        <ele>-27.799999237061</ele>
        <time>2022-09-29T12:36:36Z</time>
      </trkpt>
      <trkpt lat="48.39782" lon="2.66765">
        <ele>-27.60000038147</ele>
        <time>2022-09-29T12:36:40Z</time>
      </trkpt>
      <trkpt lat="48.39781" lon="2.66766">
        <ele>-27.60000038147</ele>
        <time>2022-09-29T12:36:56Z</time>
      </trkpt>
      <trkpt lat="48.3978" lon="2.66767">
        <ele>-27.60000038147</ele>
        <time>2022-09-29T12:37:04Z</time>
      </trkpt>
      <trkpt lat="48.3978" lon="2.66768">
        <ele>-27.60000038147</ele>
        <time>2022-09-29T12:37:12Z</time>
      </trkpt>
      <trkpt lat="48.39779" lon="2.66768">
        <ele>-27.60000038147</ele>
        <time>2022-09-29T12:37:16Z</time>
      </trkpt>
      <trkpt lat="48.39778" lon="2.66768">
        <ele>-27.60000038147</ele>
        <time>2022-09-29T12:37:20Z</time>
      </trkpt>
      <trkpt lat="48.39777" lon="2.66767">
        <ele>-27.60000038147</ele>
        <time>2022-09-29T12:37:24Z</time>
      </trkpt>
      <trkpt lat="48.39777" lon="2.66768">
        <ele>-27.799999237061</ele>
        <time>2022-09-29T12:37:28Z</time>
      </trkpt>
      <trkpt lat="48.39778" lon="2.66767">
        <ele>-27.799999237061</ele>
        <time>2022-09-29T12:37:32Z</time>
      </trkpt>
      <trkpt lat="48.39778" lon="2.66765">
        <ele>-27.799999237061</ele>
        <time>2022-09-29T12:37:36Z</time>
      </trkpt>
      <trkpt lat="48.39777" lon="2.66764">
        <ele>-27.799999237061</ele>
        <time>2022-09-29T12:37:40Z</time>
      </trkpt>
      <trkpt lat="48.39776" lon="2.66766">
        <ele>-27.799999237061</ele>
        <time>2022-09-29T12:37:44Z</time>
      </trkpt>
      <trkpt lat="48.39774" lon="2.66764">
        <ele>-27.799999237061</ele>
        <time>2022-09-29T12:37:48Z</time>
      </trkpt>
      <trkpt lat="48.39772" lon="2.66761">
        <ele>-27.799999237061</ele>
        <time>2022-09-29T12:37:52Z</time>
      </trkpt>
      <trkpt lat="48.39775" lon="2.6676">
        <ele>-27.799999237061</ele>
        <time>2022-09-29T12:37:56Z</time>
      </trkpt>
      <trkpt lat="48.39774" lon="2.66758">
        <ele>-27.799999237061</ele>
        <time>2022-09-29T12:38:00Z</time>
      </trkpt>
      <trkpt lat="48.39773" lon="2.66757">
        <ele>-27.799999237061</ele>
        <time>2022-09-29T12:38:04Z</time>
      </trkpt>
      <trkpt lat="48.39772" lon="2.66758">
        <ele>-27.799999237061</ele>
        <time>2022-09-29T12:38:08Z</time>
      </trkpt>
      <trkpt lat="48.39772" lon="2.66755">
        <ele>-28</ele>
        <time>2022-09-29T12:38:12Z</time>
      </trkpt>
      <trkpt lat="48.39773" lon="2.66758">
        <ele>-28</ele>
        <time>2022-09-29T12:38:16Z</time>
      </trkpt>
      <trkpt lat="48.39777" lon="2.66757">
        <ele>-28</ele>
        <time>2022-09-29T12:38:20Z</time>
      </trkpt>
      <trkpt lat="48.39775" lon="2.66755">
        <ele>-28</ele>
        <time>2022-09-29T12:38:24Z</time>
      </trkpt>
      <trkpt lat="48.39774" lon="2.66754">
        <ele>-28</ele>
        <time>2022-09-29T12:38:28Z</time>
      </trkpt>
      <trkpt lat="48.39772" lon="2.66752">
        <ele>-28</ele>
        <time>2022-09-29T12:38:32Z</time>
      </trkpt>
      <trkpt lat="48.3977" lon="2.6675">
        <ele>-27.60000038147</ele>
        <time>2022-09-29T12:38:36Z</time>
      </trkpt>
      <trkpt lat="48.39766" lon="2.66748">
        <ele>-27.799999237061</ele>
        <time>2022-09-29T12:38:40Z</time>
      </trkpt>
      <trkpt lat="48.39761" lon="2.66751">
        <ele>-27.60000038147</ele>
        <time>2022-09-29T12:38:44Z</time>
      </trkpt>
      <trkpt lat="48.39762" lon="2.6675">
        <ele>-27</ele>
        <time>2022-09-29T12:38:48Z</time>
      </trkpt>
      <trkpt lat="48.39758" lon="2.66743">
        <ele>-26.39999961853</ele>
        <time>2022-09-29T12:38:52Z</time>
      </trkpt>
      <trkpt lat="48.39755" lon="2.66737">
        <ele>-25</ele>
        <time>2022-09-29T12:38:56Z</time>
      </trkpt>
      <trkpt lat="48.39759" lon="2.66734">
        <ele>-23.799999237061</ele>
        <time>2022-09-29T12:39:00Z</time>
      </trkpt>
      <trkpt lat="48.39764" lon="2.66736">
        <ele>-23.60000038147</ele>
        <time>2022-09-29T12:39:04Z</time>
      </trkpt>
      <trkpt lat="48.39771" lon="2.66739">
        <ele>-23</ele>
        <time>2022-09-29T12:39:08Z</time>
      </trkpt>
      <trkpt lat="48.39777" lon="2.66742">
        <ele>-22.39999961853</ele>
        <time>2022-09-29T12:39:12Z</time>
      </trkpt>
      <trkpt lat="48.39781" lon="2.66742">
        <ele>-22.39999961853</ele>
        <time>2022-09-29T12:39:16Z</time>
      </trkpt>
      <trkpt lat="48.39783" lon="2.66742">
        <ele>-22.200000762939</ele>
        <time>2022-09-29T12:39:20Z</time>
      </trkpt>
      <trkpt lat="48.39786" lon="2.66742">
        <ele>-22.39999961853</ele>
        <time>2022-09-29T12:39:24Z</time>
      </trkpt>
      <trkpt lat="48.39785" lon="2.66737">
        <ele>-22.799999237061</ele>
        <time>2022-09-29T12:39:28Z</time>
      </trkpt>
      <trkpt lat="48.39785" lon="2.66731">
        <ele>-23.200000762939</ele>
        <time>2022-09-29T12:39:32Z</time>
      </trkpt>
      <trkpt lat="48.39785" lon="2.66723">
        <ele>-24</ele>
        <time>2022-09-29T12:39:36Z</time>
      </trkpt>
      <trkpt lat="48.39787" lon="2.6672">
        <ele>-24.799999237061</ele>
        <time>2022-09-29T12:39:40Z</time>
      </trkpt>
      <trkpt lat="48.39788" lon="2.66718">
        <ele>-25.200000762939</ele>
        <time>2022-09-29T12:39:44Z</time>
      </trkpt>
      <trkpt lat="48.39793" lon="2.66716">
        <ele>-25.799999237061</ele>
        <time>2022-09-29T12:39:48Z</time>
      </trkpt>
      <trkpt lat="48.39794" lon="2.66714">
        <ele>-26.39999961853</ele>
        <time>2022-09-29T12:39:52Z</time>
      </trkpt>
      <trkpt lat="48.39794" lon="2.6671">
        <ele>-26.799999237061</ele>
        <time>2022-09-29T12:39:56Z</time>
      </trkpt>
      <trkpt lat="48.39795" lon="2.66707">
        <ele>-27</ele>
        <time>2022-09-29T12:40:00Z</time>
      </trkpt>
      <trkpt lat="48.39797" lon="2.66704">
        <ele>-27</ele>
        <time>2022-09-29T12:40:04Z</time>
      </trkpt>
      <trkpt lat="48.39794" lon="2.66688">
        <ele>-26.39999961853</ele>
        <time>2022-09-29T12:40:08Z</time>
      </trkpt>
      <trkpt lat="48.39794" lon="2.6668">
        <ele>-26.200000762939</ele>
        <time>2022-09-29T12:40:12Z</time>
      </trkpt>
      <trkpt lat="48.39791" lon="2.66677">
        <ele>-25.799999237061</ele>
        <time>2022-09-29T12:40:16Z</time>
      </trkpt>
      <trkpt lat="48.3979" lon="2.66673">
        <ele>-25.39999961853</ele>
        <time>2022-09-29T12:40:21Z</time>
      </trkpt>
      <trkpt lat="48.3979" lon="2.6667">
        <ele>-25.200000762939</ele>
        <time>2022-09-29T12:40:25Z</time>
      </trkpt>
      <trkpt lat="48.39789" lon="2.66667">
        <ele>-25</ele>
        <time>2022-09-29T12:40:29Z</time>
      </trkpt>
      <trkpt lat="48.39789" lon="2.66664">
        <ele>-24.39999961853</ele>
        <time>2022-09-29T12:40:33Z</time>
      </trkpt>
      <trkpt lat="48.39791" lon="2.66665">
        <ele>-24</ele>
        <time>2022-09-29T12:40:37Z</time>
      </trkpt>
      <trkpt lat="48.39792" lon="2.66666">
        <ele>-23.39999961853</ele>
        <time>2022-09-29T12:40:41Z</time>
      </trkpt>
      <trkpt lat="48.39792" lon="2.6667">
        <ele>-23.799999237061</ele>
        <time>2022-09-29T12:40:49Z</time>
      </trkpt>
      <trkpt lat="48.39793" lon="2.66668">
        <ele>-24</ele>
        <time>2022-09-29T12:40:53Z</time>
      </trkpt>
      <trkpt lat="48.39794" lon="2.66665">
        <ele>-24</ele>
        <time>2022-09-29T12:40:57Z</time>
      </trkpt>
      <trkpt lat="48.39795" lon="2.66663">
        <ele>-24</ele>
        <time>2022-09-29T12:41:01Z</time>
      </trkpt>
      <trkpt lat="48.39795" lon="2.66659">
        <ele>-24.200000762939</ele>
        <time>2022-09-29T12:41:05Z</time>
      </trkpt>
      <trkpt lat="48.39797" lon="2.66656">
        <ele>-24.39999961853</ele>
        <time>2022-09-29T12:41:09Z</time>
      </trkpt>
      <trkpt lat="48.39798" lon="2.66654">
        <ele>-24.60000038147</ele>
        <time>2022-09-29T12:41:13Z</time>
      </trkpt>
      <trkpt lat="48.39798" lon="2.6665">
        <ele>-24.39999961853</ele>
        <time>2022-09-29T12:41:17Z</time>
      </trkpt>
      <trkpt lat="48.39798" lon="2.66646">
        <ele>-23.799999237061</ele>
        <time>2022-09-29T12:41:21Z</time>
      </trkpt>
      <trkpt lat="48.39798" lon="2.6664">
        <ele>-22.60000038147</ele>
        <time>2022-09-29T12:41:25Z</time>
      </trkpt>
      <trkpt lat="48.39798" lon="2.66636">
        <ele>-22.39999961853</ele>
        <time>2022-09-29T12:41:29Z</time>
      </trkpt>
      <trkpt lat="48.39799" lon="2.66634">
        <ele>-21.799999237061</ele>
        <time>2022-09-29T12:41:33Z</time>
      </trkpt>
      <trkpt lat="48.39801" lon="2.66631">
        <ele>-21</ele>
        <time>2022-09-29T12:41:37Z</time>
      </trkpt>
      <trkpt lat="48.39802" lon="2.66627">
        <ele>-21</ele>
        <time>2022-09-29T12:41:41Z</time>
      </trkpt>
      <trkpt lat="48.39799" lon="2.66623">
        <ele>-21.200000762939</ele>
        <time>2022-09-29T12:41:45Z</time>
      </trkpt>
      <trkpt lat="48.39796" lon="2.66624">
        <ele>-21.39999961853</ele>
        <time>2022-09-29T12:41:49Z</time>
      </trkpt>
      <trkpt lat="48.39793" lon="2.66624">
        <ele>-21.39999961853</ele>
        <time>2022-09-29T12:41:53Z</time>
      </trkpt>
      <trkpt lat="48.39789" lon="2.66623">
        <ele>-21.39999961853</ele>
        <time>2022-09-29T12:41:57Z</time>
      </trkpt>
      <trkpt lat="48.39786" lon="2.66621">
        <ele>-21.60000038147</ele>
        <time>2022-09-29T12:42:01Z</time>
      </trkpt>
      <trkpt lat="48.39784" lon="2.66617">
        <ele>-21.60000038147</ele>
        <time>2022-09-29T12:42:05Z</time>
      </trkpt>
      <trkpt lat="48.39783" lon="2.66613">
        <ele>-21.799999237061</ele>
        <time>2022-09-29T12:42:09Z</time>
      </trkpt>
      <trkpt lat="48.39782" lon="2.66609">
        <ele>-21.799999237061</ele>
        <time>2022-09-29T12:42:13Z</time>
      </trkpt>
      <trkpt lat="48.39783" lon="2.66609">
        <ele>-21.799999237061</ele>
        <time>2022-09-29T12:42:17Z</time>
      </trkpt>
      <trkpt lat="48.39784" lon="2.66609">
        <ele>-21.799999237061</ele>
        <time>2022-09-29T12:42:33Z</time>
      </trkpt>
      <trkpt lat="48.39784" lon="2.66608">
        <ele>-21.60000038147</ele>
        <time>2022-09-29T12:42:37Z</time>
      </trkpt>
      <trkpt lat="48.39784" lon="2.66609">
        <ele>-21.60000038147</ele>
        <time>2022-09-29T12:42:45Z</time>
      </trkpt>
      <trkpt lat="48.39784" lon="2.66608">
        <ele>-21.799999237061</ele>
        <time>2022-09-29T12:43:17Z</time>
      </trkpt>
      <trkpt lat="48.39785" lon="2.66606">
        <ele>-22</ele>
        <time>2022-09-29T12:43:25Z</time>
      </trkpt>
      <trkpt lat="48.39787" lon="2.66602">
        <ele>-21.799999237061</ele>
        <time>2022-09-29T12:43:29Z</time>
      </trkpt>
      <trkpt lat="48.39788" lon="2.66597">
        <ele>-21.799999237061</ele>
        <time>2022-09-29T12:43:33Z</time>
      </trkpt>
      <trkpt lat="48.39787" lon="2.66591">
        <ele>-21.799999237061</ele>
        <time>2022-09-29T12:43:37Z</time>
      </trkpt>
      <trkpt lat="48.39787" lon="2.66587">
        <ele>-22</ele>
        <time>2022-09-29T12:43:41Z</time>
      </trkpt>
      <trkpt lat="48.39786" lon="2.66583">
        <ele>-22.60000038147</ele>
        <time>2022-09-29T12:43:45Z</time>
      </trkpt>
      <trkpt lat="48.39786" lon="2.66579">
        <ele>-23</ele>
        <time>2022-09-29T12:43:49Z</time>
      </trkpt>
      <trkpt lat="48.39787" lon="2.66574">
        <ele>-23.200000762939</ele>
        <time>2022-09-29T12:43:53Z</time>
      </trkpt>
      <trkpt lat="48.39787" lon="2.66572">
        <ele>-23.39999961853</ele>
        <time>2022-09-29T12:43:57Z</time>
      </trkpt>
      <trkpt lat="48.39789" lon="2.66568">
        <ele>-23.60000038147</ele>
        <time>2022-09-29T12:44:01Z</time>
      </trkpt>
      <trkpt lat="48.3979" lon="2.66563">
        <ele>-23.799999237061</ele>
        <time>2022-09-29T12:44:05Z</time>
      </trkpt>
      <trkpt lat="48.39791" lon="2.66559">
        <ele>-24.200000762939</ele>
        <time>2022-09-29T12:44:09Z</time>
      </trkpt>
      <trkpt lat="48.39791" lon="2.66555">
        <ele>-24.799999237061</ele>
        <time>2022-09-29T12:44:13Z</time>
      </trkpt>
      <trkpt lat="48.39792" lon="2.66552">
        <ele>-25.200000762939</ele>
        <time>2022-09-29T12:44:17Z</time>
      </trkpt>
      <trkpt lat="48.39793" lon="2.66546">
        <ele>-25.799999237061</ele>
        <time>2022-09-29T12:44:21Z</time>
      </trkpt>
      <trkpt lat="48.39795" lon="2.66542">
        <ele>-26.200000762939</ele>
        <time>2022-09-29T12:44:25Z</time>
      </trkpt>
      <trkpt lat="48.39794" lon="2.66538">
        <ele>-26.60000038147</ele>
        <time>2022-09-29T12:44:29Z</time>
      </trkpt>
      <trkpt lat="48.39793" lon="2.66534">
        <ele>-27</ele>
        <time>2022-09-29T12:44:33Z</time>
      </trkpt>
      <trkpt lat="48.39793" lon="2.66532">
        <ele>-27.39999961853</ele>
        <time>2022-09-29T12:44:37Z</time>
      </trkpt>
      <trkpt lat="48.39793" lon="2.6653">
        <ele>-27.799999237061</ele>
        <time>2022-09-29T12:44:41Z</time>
      </trkpt>
      <trkpt lat="48.39793" lon="2.66525">
        <ele>-28.200000762939</ele>
        <time>2022-09-29T12:44:45Z</time>
      </trkpt>
      <trkpt lat="48.39792" lon="2.6652">
        <ele>-28.799999237061</ele>
        <time>2022-09-29T12:44:49Z</time>
      </trkpt>
      <trkpt lat="48.3979" lon="2.66515">
        <ele>-29.39999961853</ele>
        <time>2022-09-29T12:44:53Z</time>
      </trkpt>
      <trkpt lat="48.39789" lon="2.66511">
        <ele>-30</ele>
        <time>2022-09-29T12:44:57Z</time>
      </trkpt>
      <trkpt lat="48.3979" lon="2.66508">
        <ele>-30.60000038147</ele>
        <time>2022-09-29T12:45:01Z</time>
      </trkpt>
      <trkpt lat="48.3979" lon="2.66505">
        <ele>-30.799999237061</ele>
        <time>2022-09-29T12:45:05Z</time>
      </trkpt>
      <trkpt lat="48.39789" lon="2.66502">
        <ele>-31</ele>
        <time>2022-09-29T12:45:09Z</time>
      </trkpt>
      <trkpt lat="48.39789" lon="2.665">
        <ele>-31.60000038147</ele>
        <time>2022-09-29T12:45:13Z</time>
      </trkpt>
      <trkpt lat="48.39789" lon="2.66495">
        <ele>-32.599998474121</ele>
        <time>2022-09-29T12:45:17Z</time>
      </trkpt>
      <trkpt lat="48.39788" lon="2.6649">
        <ele>-33.400001525879</ele>
        <time>2022-09-29T12:45:21Z</time>
      </trkpt>
      <trkpt lat="48.39787" lon="2.66486">
        <ele>-34</ele>
        <time>2022-09-29T12:45:25Z</time>
      </trkpt>
      <trkpt lat="48.39786" lon="2.66482">
        <ele>-34.400001525879</ele>
        <time>2022-09-29T12:45:29Z</time>
      </trkpt>
      <trkpt lat="48.39785" lon="2.66479">
        <ele>-35</ele>
        <time>2022-09-29T12:45:33Z</time>
      </trkpt>
      <trkpt lat="48.39785" lon="2.66474">
        <ele>-35.599998474121</ele>
        <time>2022-09-29T12:45:37Z</time>
      </trkpt>
      <trkpt lat="48.39786" lon="2.66467">
        <ele>-36.200000762939</ele>
        <time>2022-09-29T12:45:41Z</time>
      </trkpt>
      <trkpt lat="48.39787" lon="2.66461">
        <ele>-36.400001525879</ele>
        <time>2022-09-29T12:45:45Z</time>
      </trkpt>
      <trkpt lat="48.39789" lon="2.66456">
        <ele>-36.200000762939</ele>
        <time>2022-09-29T12:45:49Z</time>
      </trkpt>
      <trkpt lat="48.39789" lon="2.66451">
        <ele>-36</ele>
        <time>2022-09-29T12:45:53Z</time>
      </trkpt>
      <trkpt lat="48.3979" lon="2.66447">
        <ele>-35.599998474121</ele>
        <time>2022-09-29T12:45:57Z</time>
      </trkpt>
      <trkpt lat="48.39791" lon="2.66445">
        <ele>-35</ele>
        <time>2022-09-29T12:46:01Z</time>
      </trkpt>
      <trkpt lat="48.39791" lon="2.66441">
        <ele>-34.400001525879</ele>
        <time>2022-09-29T12:46:05Z</time>
      </trkpt>
      <trkpt lat="48.39792" lon="2.66437">
        <ele>-33.799999237061</ele>
        <time>2022-09-29T12:46:09Z</time>
      </trkpt>
      <trkpt lat="48.39793" lon="2.66432">
        <ele>-33.200000762939</ele>
        <time>2022-09-29T12:46:13Z</time>
      </trkpt>
      <trkpt lat="48.39796" lon="2.66427">
        <ele>-32.400001525879</ele>
        <time>2022-09-29T12:46:17Z</time>
      </trkpt>
      <trkpt lat="48.39797" lon="2.66422">
        <ele>-31.799999237061</ele>
        <time>2022-09-29T12:46:21Z</time>
      </trkpt>
      <trkpt lat="48.39797" lon="2.66418">
        <ele>-31</ele>
        <time>2022-09-29T12:46:25Z</time>
      </trkpt>
      <trkpt lat="48.39798" lon="2.66414">
        <ele>-30.39999961853</ele>
        <time>2022-09-29T12:46:29Z</time>
      </trkpt>
      <trkpt lat="48.39798" lon="2.66408">
        <ele>-29.799999237061</ele>
        <time>2022-09-29T12:46:33Z</time>
      </trkpt>
      <trkpt lat="48.398" lon="2.66405">
        <ele>-29.200000762939</ele>
        <time>2022-09-29T12:46:37Z</time>
      </trkpt>
      <trkpt lat="48.39802" lon="2.66402">
        <ele>-28.39999961853</ele>
        <time>2022-09-29T12:46:41Z</time>
      </trkpt>
      <trkpt lat="48.39804" lon="2.664">
        <ele>-28</ele>
        <time>2022-09-29T12:46:45Z</time>
      </trkpt>
      <trkpt lat="48.39806" lon="2.66397">
        <ele>-27.39999961853</ele>
        <time>2022-09-29T12:46:49Z</time>
      </trkpt>
      <trkpt lat="48.39808" lon="2.66393">
        <ele>-27</ele>
        <time>2022-09-29T12:46:53Z</time>
      </trkpt>
      <trkpt lat="48.3981" lon="2.66389">
        <ele>-26.799999237061</ele>
        <time>2022-09-29T12:46:57Z</time>
      </trkpt>
      <trkpt lat="48.39811" lon="2.66385">
        <ele>-26.39999961853</ele>
        <time>2022-09-29T12:47:01Z</time>
      </trkpt>
      <trkpt lat="48.39812" lon="2.66379">
        <ele>-26</ele>
        <time>2022-09-29T12:47:05Z</time>
      </trkpt>
      <trkpt lat="48.39814" lon="2.66374">
        <ele>-25.60000038147</ele>
        <time>2022-09-29T12:47:09Z</time>
      </trkpt>
      <trkpt lat="48.39814" lon="2.66371">
        <ele>-25.200000762939</ele>
        <time>2022-09-29T12:47:13Z</time>
      </trkpt>
      <trkpt lat="48.39813" lon="2.66368">
        <ele>-24.60000038147</ele>
        <time>2022-09-29T12:47:17Z</time>
      </trkpt>
      <trkpt lat="48.39813" lon="2.66364">
        <ele>-24.200000762939</ele>
        <time>2022-09-29T12:47:21Z</time>
      </trkpt>
      <trkpt lat="48.39812" lon="2.6636">
        <ele>-23.799999237061</ele>
        <time>2022-09-29T12:47:25Z</time>
      </trkpt>
      <trkpt lat="48.39811" lon="2.66355">
        <ele>-23.39999961853</ele>
        <time>2022-09-29T12:47:29Z</time>
      </trkpt>
      <trkpt lat="48.39809" lon="2.66352">
        <ele>-23.200000762939</ele>
        <time>2022-09-29T12:47:33Z</time>
      </trkpt>
      <trkpt lat="48.39808" lon="2.66349">
        <ele>-22.799999237061</ele>
        <time>2022-09-29T12:47:37Z</time>
      </trkpt>
      <trkpt lat="48.39808" lon="2.66347">
        <ele>-22.39999961853</ele>
        <time>2022-09-29T12:47:41Z</time>
      </trkpt>
      <trkpt lat="48.39807" lon="2.66344">
        <ele>-22</ele>
        <time>2022-09-29T12:47:45Z</time>
      </trkpt>
      <trkpt lat="48.39804" lon="2.66341">
        <ele>-21.60000038147</ele>
        <time>2022-09-29T12:47:49Z</time>
      </trkpt>
      <trkpt lat="48.39803" lon="2.66338">
        <ele>-21.200000762939</ele>
        <time>2022-09-29T12:47:53Z</time>
      </trkpt>
      <trkpt lat="48.39802" lon="2.66339">
        <ele>-21.200000762939</ele>
        <time>2022-09-29T12:48:01Z</time>
      </trkpt>
      <trkpt lat="48.39802" lon="2.6634">
        <ele>-21.200000762939</ele>
        <time>2022-09-29T12:48:05Z</time>
      </trkpt>
      <trkpt lat="48.398" lon="2.66341">
        <ele>-21.200000762939</ele>
        <time>2022-09-29T12:48:09Z</time>
      </trkpt>
      <trkpt lat="48.39798" lon="2.66341">
        <ele>-21.200000762939</ele>
        <time>2022-09-29T12:48:13Z</time>
      </trkpt>
      <trkpt lat="48.39797" lon="2.66341">
        <ele>-21</ele>
        <time>2022-09-29T12:48:21Z</time>
      </trkpt>
      <trkpt lat="48.39798" lon="2.66342">
        <ele>-21.200000762939</ele>
        <time>2022-09-29T12:48:25Z</time>
      </trkpt>
      <trkpt lat="48.39798" lon="2.66341">
        <ele>-21.200000762939</ele>
        <time>2022-09-29T12:48:29Z</time>
      </trkpt>
      <trkpt lat="48.39799" lon="2.66342">
        <ele>-21.200000762939</ele>
        <time>2022-09-29T12:48:33Z</time>
      </trkpt>
      <trkpt lat="48.39798" lon="2.66341">
        <ele>-21.200000762939</ele>
        <time>2022-09-29T12:48:37Z</time>
      </trkpt>
      <trkpt lat="48.39797" lon="2.66343">
        <ele>-21.200000762939</ele>
        <time>2022-09-29T12:48:41Z</time>
      </trkpt>
      <trkpt lat="48.39797" lon="2.66344">
        <ele>-21.39999961853</ele>
        <time>2022-09-29T12:48:45Z</time>
      </trkpt>
      <trkpt lat="48.39798" lon="2.66346">
        <ele>-21.39999961853</ele>
        <time>2022-09-29T12:48:49Z</time>
      </trkpt>
      <trkpt lat="48.39798" lon="2.66345">
        <ele>-21.200000762939</ele>
        <time>2022-09-29T12:48:53Z</time>
      </trkpt>
      <trkpt lat="48.39798" lon="2.66343">
        <ele>-21.200000762939</ele>
        <time>2022-09-29T12:48:57Z</time>
      </trkpt>
      <trkpt lat="48.39797" lon="2.66344">
        <ele>-21.200000762939</ele>
        <time>2022-09-29T12:49:01Z</time>
      </trkpt>
      <trkpt lat="48.39797" lon="2.66342">
        <ele>-21.200000762939</ele>
        <time>2022-09-29T12:49:05Z</time>
      </trkpt>
      <trkpt lat="48.39797" lon="2.66341">
        <ele>-21.39999961853</ele>
        <time>2022-09-29T12:49:09Z</time>
      </trkpt>
      <trkpt lat="48.39796" lon="2.66341">
        <ele>-21.39999961853</ele>
        <time>2022-09-29T12:49:13Z</time>
      </trkpt>
      <trkpt lat="48.39795" lon="2.66339">
        <ele>-21.39999961853</ele>
        <time>2022-09-29T12:49:17Z</time>
      </trkpt>
      <trkpt lat="48.39795" lon="2.66337">
        <ele>-21.39999961853</ele>
        <time>2022-09-29T12:49:25Z</time>
      </trkpt>
      <trkpt lat="48.39794" lon="2.66338">
        <ele>-21.39999961853</ele>
        <time>2022-09-29T12:49:29Z</time>
      </trkpt>
      <trkpt lat="48.39793" lon="2.66339">
        <ele>-21.39999961853</ele>
        <time>2022-09-29T12:49:37Z</time>
      </trkpt>
      <trkpt lat="48.39792" lon="2.66339">
        <ele>-21.39999961853</ele>
        <time>2022-09-29T12:49:41Z</time>
      </trkpt>
      <trkpt lat="48.39792" lon="2.66338">
        <ele>-21.39999961853</ele>
        <time>2022-09-29T12:49:45Z</time>
      </trkpt>
      <trkpt lat="48.39791" lon="2.66338">
        <ele>-21.39999961853</ele>
        <time>2022-09-29T12:49:49Z</time>
      </trkpt>
      <trkpt lat="48.39791" lon="2.66337">
        <ele>-21.39999961853</ele>
        <time>2022-09-29T12:49:53Z</time>
      </trkpt>
      <trkpt lat="48.39792" lon="2.66337">
        <ele>-21.39999961853</ele>
        <time>2022-09-29T12:49:57Z</time>
      </trkpt>
      <trkpt lat="48.39793" lon="2.66337">
        <ele>-21.39999961853</ele>
        <time>2022-09-29T12:50:01Z</time>
      </trkpt>
      <trkpt lat="48.39794" lon="2.66337">
        <ele>-21.39999961853</ele>
        <time>2022-09-29T12:50:05Z</time>
      </trkpt>
      <trkpt lat="48.39795" lon="2.66336">
        <ele>-21.39999961853</ele>
        <time>2022-09-29T12:50:09Z</time>
      </trkpt>
      <trkpt lat="48.39794" lon="2.66336">
        <ele>-21.39999961853</ele>
        <time>2022-09-29T12:50:13Z</time>
      </trkpt>
      <trkpt lat="48.39794" lon="2.66335">
        <ele>-21.39999961853</ele>
        <time>2022-09-29T12:50:17Z</time>
      </trkpt>
      <trkpt lat="48.39794" lon="2.6633">
        <ele>-21.39999961853</ele>
        <time>2022-09-29T12:50:21Z</time>
      </trkpt>
      <trkpt lat="48.39797" lon="2.66324">
        <ele>-21.39999961853</ele>
        <time>2022-09-29T12:50:25Z</time>
      </trkpt>
      <trkpt lat="48.39797" lon="2.6632">
        <ele>-21.39999961853</ele>
        <time>2022-09-29T12:50:29Z</time>
      </trkpt>
      <trkpt lat="48.39797" lon="2.66316">
        <ele>-21.39999961853</ele>
        <time>2022-09-29T12:50:33Z</time>
      </trkpt>
      <trkpt lat="48.39799" lon="2.66313">
        <ele>-21.39999961853</ele>
        <time>2022-09-29T12:50:37Z</time>
      </trkpt>
      <trkpt lat="48.398" lon="2.6631">
        <ele>-22.60000038147</ele>
        <time>2022-09-29T12:50:41Z</time>
      </trkpt>
      <trkpt lat="48.39801" lon="2.66307">
        <ele>-23</ele>
        <time>2022-09-29T12:50:45Z</time>
      </trkpt>
      <trkpt lat="48.39802" lon="2.66302">
        <ele>-22.799999237061</ele>
        <time>2022-09-29T12:50:49Z</time>
      </trkpt>
      <trkpt lat="48.39803" lon="2.66299">
        <ele>-22.200000762939</ele>
        <time>2022-09-29T12:50:53Z</time>
      </trkpt>
      <trkpt lat="48.39805" lon="2.66293">
        <ele>-21.60000038147</ele>
        <time>2022-09-29T12:50:57Z</time>
      </trkpt>
      <trkpt lat="48.39808" lon="2.66287">
        <ele>-21.60000038147</ele>
        <time>2022-09-29T12:51:01Z</time>
      </trkpt>
      <trkpt lat="48.39808" lon="2.66282">
        <ele>-21.799999237061</ele>
        <time>2022-09-29T12:51:05Z</time>
      </trkpt>
      <trkpt lat="48.39809" lon="2.66276">
        <ele>-22.39999961853</ele>
        <time>2022-09-29T12:51:09Z</time>
      </trkpt>
      <trkpt lat="48.3981" lon="2.66272">
        <ele>-23</ele>
        <time>2022-09-29T12:51:13Z</time>
      </trkpt>
      <trkpt lat="48.3981" lon="2.66268">
        <ele>-23.60000038147</ele>
        <time>2022-09-29T12:51:17Z</time>
      </trkpt>
      <trkpt lat="48.39811" lon="2.66264">
        <ele>-24</ele>
        <time>2022-09-29T12:51:21Z</time>
      </trkpt>
      <trkpt lat="48.39813" lon="2.66259">
        <ele>-24.60000038147</ele>
        <time>2022-09-29T12:51:25Z</time>
      </trkpt>
      <trkpt lat="48.39815" lon="2.66253">
        <ele>-25.39999961853</ele>
        <time>2022-09-29T12:51:29Z</time>
      </trkpt>
      <trkpt lat="48.39816" lon="2.66248">
        <ele>-26</ele>
        <time>2022-09-29T12:51:33Z</time>
      </trkpt>
      <trkpt lat="48.39818" lon="2.66242">
        <ele>-26.200000762939</ele>
        <time>2022-09-29T12:51:37Z</time>
      </trkpt>
      <trkpt lat="48.3982" lon="2.66238">
        <ele>-26.200000762939</ele>
        <time>2022-09-29T12:51:41Z</time>
      </trkpt>
      <trkpt lat="48.39821" lon="2.66234">
        <ele>-26.39999961853</ele>
        <time>2022-09-29T12:51:45Z</time>
      </trkpt>
      <trkpt lat="48.39824" lon="2.6623">
        <ele>-26.60000038147</ele>
        <time>2022-09-29T12:51:49Z</time>
      </trkpt>
      <trkpt lat="48.39826" lon="2.66226">
        <ele>-26.799999237061</ele>
        <time>2022-09-29T12:51:53Z</time>
      </trkpt>
      <trkpt lat="48.39829" lon="2.66224">
        <ele>-27.200000762939</ele>
        <time>2022-09-29T12:51:57Z</time>
      </trkpt>
      <trkpt lat="48.39832" lon="2.66221">
        <ele>-27.39999961853</ele>
        <time>2022-09-29T12:52:01Z</time>
      </trkpt>
      <trkpt lat="48.39835" lon="2.6622">
        <ele>-27.799999237061</ele>
        <time>2022-09-29T12:52:05Z</time>
      </trkpt>
      <trkpt lat="48.39837" lon="2.6622">
        <ele>-28</ele>
        <time>2022-09-29T12:52:09Z</time>
      </trkpt>
      <trkpt lat="48.3984" lon="2.6622">
        <ele>-28.200000762939</ele>
        <time>2022-09-29T12:52:13Z</time>
      </trkpt>
      <trkpt lat="48.39844" lon="2.66221">
        <ele>-28.60000038147</ele>
        <time>2022-09-29T12:52:17Z</time>
      </trkpt>
      <trkpt lat="48.39846" lon="2.66221">
        <ele>-29</ele>
        <time>2022-09-29T12:52:21Z</time>
      </trkpt>
      <trkpt lat="48.39849" lon="2.6622">
        <ele>-29.39999961853</ele>
        <time>2022-09-29T12:52:25Z</time>
      </trkpt>
      <trkpt lat="48.39852" lon="2.66216">
        <ele>-30</ele>
        <time>2022-09-29T12:52:29Z</time>
      </trkpt>
      <trkpt lat="48.39854" lon="2.66211">
        <ele>-30.39999961853</ele>
        <time>2022-09-29T12:52:33Z</time>
      </trkpt>
      <trkpt lat="48.39857" lon="2.66206">
        <ele>-30.799999237061</ele>
        <time>2022-09-29T12:52:37Z</time>
      </trkpt>
      <trkpt lat="48.39858" lon="2.66201">
        <ele>-31.200000762939</ele>
        <time>2022-09-29T12:52:41Z</time>
      </trkpt>
      <trkpt lat="48.39859" lon="2.66193">
        <ele>-31.39999961853</ele>
        <time>2022-09-29T12:52:45Z</time>
      </trkpt>
      <trkpt lat="48.3986" lon="2.66188">
        <ele>-31.60000038147</ele>
        <time>2022-09-29T12:52:49Z</time>
      </trkpt>
      <trkpt lat="48.39862" lon="2.66181">
        <ele>-31.799999237061</ele>
        <time>2022-09-29T12:52:53Z</time>
      </trkpt>
      <trkpt lat="48.39863" lon="2.66177">
        <ele>-32.200000762939</ele>
        <time>2022-09-29T12:52:57Z</time>
      </trkpt>
      <trkpt lat="48.39864" lon="2.66173">
        <ele>-32.599998474121</ele>
        <time>2022-09-29T12:53:01Z</time>
      </trkpt>
      <trkpt lat="48.39865" lon="2.66167">
        <ele>-33</ele>
        <time>2022-09-29T12:53:05Z</time>
      </trkpt>
      <trkpt lat="48.39864" lon="2.66161">
        <ele>-34</ele>
        <time>2022-09-29T12:53:09Z</time>
      </trkpt>
      <trkpt lat="48.39863" lon="2.66156">
        <ele>-34.400001525879</ele>
        <time>2022-09-29T12:53:13Z</time>
      </trkpt>
      <trkpt lat="48.39863" lon="2.66151">
        <ele>-33.799999237061</ele>
        <time>2022-09-29T12:53:17Z</time>
      </trkpt>
      <trkpt lat="48.39864" lon="2.66146">
        <ele>-32.799999237061</ele>
        <time>2022-09-29T12:53:21Z</time>
      </trkpt>
      <trkpt lat="48.39865" lon="2.66143">
        <ele>-32.200000762939</ele>
        <time>2022-09-29T12:53:25Z</time>
      </trkpt>
      <trkpt lat="48.39867" lon="2.6614">
        <ele>-32.200000762939</ele>
        <time>2022-09-29T12:53:29Z</time>
      </trkpt>
      <trkpt lat="48.39869" lon="2.66137">
        <ele>-32</ele>
        <time>2022-09-29T12:53:33Z</time>
      </trkpt>
      <trkpt lat="48.39872" lon="2.66136">
        <ele>-31.799999237061</ele>
        <time>2022-09-29T12:53:37Z</time>
      </trkpt>
      <trkpt lat="48.39875" lon="2.66134">
        <ele>-31.799999237061</ele>
        <time>2022-09-29T12:53:41Z</time>
      </trkpt>
      <trkpt lat="48.39877" lon="2.66129">
        <ele>-32.599998474121</ele>
        <time>2022-09-29T12:53:45Z</time>
      </trkpt>
      <trkpt lat="48.39878" lon="2.66124">
        <ele>-33.200000762939</ele>
        <time>2022-09-29T12:53:49Z</time>
      </trkpt>
      <trkpt lat="48.39878" lon="2.6612">
        <ele>-33.400001525879</ele>
        <time>2022-09-29T12:53:53Z</time>
      </trkpt>
      <trkpt lat="48.39879" lon="2.66116">
        <ele>-33.799999237061</ele>
        <time>2022-09-29T12:53:57Z</time>
      </trkpt>
      <trkpt lat="48.39878" lon="2.66112">
        <ele>-34.200000762939</ele>
        <time>2022-09-29T12:54:01Z</time>
      </trkpt>
      <trkpt lat="48.39877" lon="2.66107">
        <ele>-34.599998474121</ele>
        <time>2022-09-29T12:54:05Z</time>
      </trkpt>
      <trkpt lat="48.39876" lon="2.66103">
        <ele>-35.200000762939</ele>
        <time>2022-09-29T12:54:09Z</time>
      </trkpt>
      <trkpt lat="48.39877" lon="2.66102">
        <ele>-35.599998474121</ele>
        <time>2022-09-29T12:54:13Z</time>
      </trkpt>
      <trkpt lat="48.39879" lon="2.66099">
        <ele>-35.599998474121</ele>
        <time>2022-09-29T12:54:17Z</time>
      </trkpt>
      <trkpt lat="48.39881" lon="2.66097">
        <ele>-35.400001525879</ele>
        <time>2022-09-29T12:54:21Z</time>
      </trkpt>
      <trkpt lat="48.39883" lon="2.66096">
        <ele>-35</ele>
        <time>2022-09-29T12:54:25Z</time>
      </trkpt>
      <trkpt lat="48.39883" lon="2.66092">
        <ele>-34.400001525879</ele>
        <time>2022-09-29T12:54:29Z</time>
      </trkpt>
      <trkpt lat="48.39885" lon="2.66085">
        <ele>-34</ele>
        <time>2022-09-29T12:54:33Z</time>
      </trkpt>
      <trkpt lat="48.39887" lon="2.6608">
        <ele>-33.799999237061</ele>
        <time>2022-09-29T12:54:37Z</time>
      </trkpt>
      <trkpt lat="48.39889" lon="2.66077">
        <ele>-33.400001525879</ele>
        <time>2022-09-29T12:54:41Z</time>
      </trkpt>
      <trkpt lat="48.39891" lon="2.66074">
        <ele>-33.200000762939</ele>
        <time>2022-09-29T12:54:45Z</time>
      </trkpt>
      <trkpt lat="48.39894" lon="2.66072">
        <ele>-32.799999237061</ele>
        <time>2022-09-29T12:54:49Z</time>
      </trkpt>
      <trkpt lat="48.39895" lon="2.66067">
        <ele>-32.400001525879</ele>
        <time>2022-09-29T12:54:53Z</time>
      </trkpt>
      <trkpt lat="48.39898" lon="2.66061">
        <ele>-32.400001525879</ele>
        <time>2022-09-29T12:54:57Z</time>
      </trkpt>
      <trkpt lat="48.39901" lon="2.66057">
        <ele>-32.400001525879</ele>
        <time>2022-09-29T12:55:01Z</time>
      </trkpt>
      <trkpt lat="48.39904" lon="2.66058">
        <ele>-32.200000762939</ele>
        <time>2022-09-29T12:55:05Z</time>
      </trkpt>
      <trkpt lat="48.39905" lon="2.66058">
        <ele>-32</ele>
        <time>2022-09-29T12:55:09Z</time>
      </trkpt>
      <trkpt lat="48.39907" lon="2.66059">
        <ele>-31.39999961853</ele>
        <time>2022-09-29T12:55:13Z</time>
      </trkpt>
      <trkpt lat="48.39909" lon="2.6606">
        <ele>-30.799999237061</ele>
        <time>2022-09-29T12:55:17Z</time>
      </trkpt>
      <trkpt lat="48.39912" lon="2.66058">
        <ele>-30.39999961853</ele>
        <time>2022-09-29T12:55:21Z</time>
      </trkpt>
      <trkpt lat="48.39915" lon="2.66056">
        <ele>-30</ele>
        <time>2022-09-29T12:55:25Z</time>
      </trkpt>
      <trkpt lat="48.39917" lon="2.66052">
        <ele>-29.39999961853</ele>
        <time>2022-09-29T12:55:29Z</time>
      </trkpt>
      <trkpt lat="48.3992" lon="2.66047">
        <ele>-29</ele>
        <time>2022-09-29T12:55:33Z</time>
      </trkpt>
      <trkpt lat="48.39922" lon="2.66042">
        <ele>-28.799999237061</ele>
        <time>2022-09-29T12:55:37Z</time>
      </trkpt>
      <trkpt lat="48.39924" lon="2.66037">
        <ele>-28.799999237061</ele>
        <time>2022-09-29T12:55:41Z</time>
      </trkpt>
      <trkpt lat="48.39927" lon="2.66033">
        <ele>-28.799999237061</ele>
        <time>2022-09-29T12:55:45Z</time>
      </trkpt>
      <trkpt lat="48.39928" lon="2.66028">
        <ele>-28.200000762939</ele>
        <time>2022-09-29T12:55:49Z</time>
      </trkpt>
      <trkpt lat="48.39929" lon="2.66024">
        <ele>-28.200000762939</ele>
        <time>2022-09-29T12:55:53Z</time>
      </trkpt>
      <trkpt lat="48.39931" lon="2.66019">
        <ele>-28.60000038147</ele>
        <time>2022-09-29T12:55:57Z</time>
      </trkpt>
      <trkpt lat="48.39932" lon="2.66015">
        <ele>-28.60000038147</ele>
        <time>2022-09-29T12:56:01Z</time>
      </trkpt>
      <trkpt lat="48.3993" lon="2.6601">
        <ele>-28.39999961853</ele>
        <time>2022-09-29T12:56:05Z</time>
      </trkpt>
      <trkpt lat="48.3993" lon="2.66004">
        <ele>-28.39999961853</ele>
        <time>2022-09-29T12:56:09Z</time>
      </trkpt>
      <trkpt lat="48.39931" lon="2.65999">
        <ele>-28.60000038147</ele>
        <time>2022-09-29T12:56:13Z</time>
      </trkpt>
      <trkpt lat="48.39933" lon="2.65994">
        <ele>-28.799999237061</ele>
        <time>2022-09-29T12:56:17Z</time>
      </trkpt>
      <trkpt lat="48.39934" lon="2.65988">
        <ele>-29.200000762939</ele>
        <time>2022-09-29T12:56:21Z</time>
      </trkpt>
      <trkpt lat="48.39935" lon="2.65985">
        <ele>-29.39999961853</ele>
        <time>2022-09-29T12:56:25Z</time>
      </trkpt>
      <trkpt lat="48.39937" lon="2.65984">
        <ele>-29.60000038147</ele>
        <time>2022-09-29T12:56:29Z</time>
      </trkpt>
      <trkpt lat="48.3994" lon="2.65983">
        <ele>-29.799999237061</ele>
        <time>2022-09-29T12:56:33Z</time>
      </trkpt>
      <trkpt lat="48.39941" lon="2.6598">
        <ele>-30</ele>
        <time>2022-09-29T12:56:37Z</time>
      </trkpt>
      <trkpt lat="48.39942" lon="2.65974">
        <ele>-30</ele>
        <time>2022-09-29T12:56:41Z</time>
      </trkpt>
      <trkpt lat="48.39946" lon="2.65968">
        <ele>-30</ele>
        <time>2022-09-29T12:56:45Z</time>
      </trkpt>
      <trkpt lat="48.39946" lon="2.65961">
        <ele>-29.799999237061</ele>
        <time>2022-09-29T12:56:49Z</time>
      </trkpt>
      <trkpt lat="48.39947" lon="2.65955">
        <ele>-29.799999237061</ele>
        <time>2022-09-29T12:56:53Z</time>
      </trkpt>
      <trkpt lat="48.39949" lon="2.65951">
        <ele>-29.39999961853</ele>
        <time>2022-09-29T12:56:57Z</time>
      </trkpt>
      <trkpt lat="48.39948" lon="2.65949">
        <ele>-29.39999961853</ele>
        <time>2022-09-29T12:57:01Z</time>
      </trkpt>
      <trkpt lat="48.39948" lon="2.65947">
        <ele>-29.60000038147</ele>
        <time>2022-09-29T12:57:05Z</time>
      </trkpt>
      <trkpt lat="48.3995" lon="2.65945">
        <ele>-29.60000038147</ele>
        <time>2022-09-29T12:57:09Z</time>
      </trkpt>
      <trkpt lat="48.39952" lon="2.65943">
        <ele>-29.200000762939</ele>
        <time>2022-09-29T12:57:13Z</time>
      </trkpt>
      <trkpt lat="48.39953" lon="2.6594">
        <ele>-29.200000762939</ele>
        <time>2022-09-29T12:57:17Z</time>
      </trkpt>
      <trkpt lat="48.39953" lon="2.65937">
        <ele>-29.200000762939</ele>
        <time>2022-09-29T12:57:21Z</time>
      </trkpt>
      <trkpt lat="48.39954" lon="2.65935">
        <ele>-29.60000038147</ele>
        <time>2022-09-29T12:57:25Z</time>
      </trkpt>
      <trkpt lat="48.39953" lon="2.65932">
        <ele>-30.200000762939</ele>
        <time>2022-09-29T12:57:29Z</time>
      </trkpt>
      <trkpt lat="48.39953" lon="2.65931">
        <ele>-30.39999961853</ele>
        <time>2022-09-29T12:57:33Z</time>
      </trkpt>
      <trkpt lat="48.39955" lon="2.65927">
        <ele>-30.39999961853</ele>
        <time>2022-09-29T12:57:45Z</time>
      </trkpt>
      <trkpt lat="48.39956" lon="2.65922">
        <ele>-30.799999237061</ele>
        <time>2022-09-29T12:57:49Z</time>
      </trkpt>
      <trkpt lat="48.39957" lon="2.65918">
        <ele>-31.200000762939</ele>
        <time>2022-09-29T12:57:53Z</time>
      </trkpt>
      <trkpt lat="48.39958" lon="2.65914">
        <ele>-31.39999961853</ele>
        <time>2022-09-29T12:57:57Z</time>
      </trkpt>
      <trkpt lat="48.39958" lon="2.65911">
        <ele>-31.60000038147</ele>
        <time>2022-09-29T12:58:01Z</time>
      </trkpt>
      <trkpt lat="48.39959" lon="2.65909">
        <ele>-31.39999961853</ele>
        <time>2022-09-29T12:58:05Z</time>
      </trkpt>
      <trkpt lat="48.3996" lon="2.65908">
        <ele>-31.39999961853</ele>
        <time>2022-09-29T12:58:09Z</time>
      </trkpt>
      <trkpt lat="48.39961" lon="2.65907">
        <ele>-31.39999961853</ele>
        <time>2022-09-29T12:58:13Z</time>
      </trkpt>
      <trkpt lat="48.39962" lon="2.65907">
        <ele>-31.799999237061</ele>
        <time>2022-09-29T12:58:17Z</time>
      </trkpt>
      <trkpt lat="48.39964" lon="2.65905">
        <ele>-32.799999237061</ele>
        <time>2022-09-29T12:58:21Z</time>
      </trkpt>
      <trkpt lat="48.39968" lon="2.65904">
        <ele>-33.200000762939</ele>
        <time>2022-09-29T12:58:25Z</time>
      </trkpt>
      <trkpt lat="48.3997" lon="2.65903">
        <ele>-32.599998474121</ele>
        <time>2022-09-29T12:58:29Z</time>
      </trkpt>
      <trkpt lat="48.39972" lon="2.65896">
        <ele>-32.200000762939</ele>
        <time>2022-09-29T12:58:33Z</time>
      </trkpt>
      <trkpt lat="48.39972" lon="2.65891">
        <ele>-32.200000762939</ele>
        <time>2022-09-29T12:58:37Z</time>
      </trkpt>
      <trkpt lat="48.39971" lon="2.65884">
        <ele>-32.799999237061</ele>
        <time>2022-09-29T12:58:41Z</time>
      </trkpt>
      <trkpt lat="48.39971" lon="2.65879">
        <ele>-33.400001525879</ele>
        <time>2022-09-29T12:58:45Z</time>
      </trkpt>
      <trkpt lat="48.39973" lon="2.65875">
        <ele>-34</ele>
        <time>2022-09-29T12:58:49Z</time>
      </trkpt>
      <trkpt lat="48.39974" lon="2.65871">
        <ele>-34.400001525879</ele>
        <time>2022-09-29T12:58:53Z</time>
      </trkpt>
      <trkpt lat="48.39973" lon="2.65866">
        <ele>-34.599998474121</ele>
        <time>2022-09-29T12:58:57Z</time>
      </trkpt>
      <trkpt lat="48.39973" lon="2.65865">
        <ele>-34.799999237061</ele>
        <time>2022-09-29T12:59:01Z</time>
      </trkpt>
      <trkpt lat="48.39973" lon="2.65864">
        <ele>-34.799999237061</ele>
        <time>2022-09-29T12:59:05Z</time>
      </trkpt>
      <trkpt lat="48.39973" lon="2.65865">
        <ele>-34.599998474121</ele>
        <time>2022-09-29T12:59:09Z</time>
      </trkpt>
      <trkpt lat="48.39974" lon="2.65868">
        <ele>-34.400001525879</ele>
        <time>2022-09-29T12:59:17Z</time>
      </trkpt>
      <trkpt lat="48.39974" lon="2.65866">
        <ele>-34.400001525879</ele>
        <time>2022-09-29T12:59:21Z</time>
      </trkpt>
      <trkpt lat="48.39973" lon="2.65866">
        <ele>-34.400001525879</ele>
        <time>2022-09-29T12:59:25Z</time>
      </trkpt>
      <trkpt lat="48.39972" lon="2.65866">
        <ele>-34.400001525879</ele>
        <time>2022-09-29T12:59:29Z</time>
      </trkpt>
      <trkpt lat="48.39971" lon="2.65866">
        <ele>-34.400001525879</ele>
        <time>2022-09-29T12:59:37Z</time>
      </trkpt>
      <trkpt lat="48.39971" lon="2.65864">
        <ele>-34.599998474121</ele>
        <time>2022-09-29T12:59:41Z</time>
      </trkpt>
      <trkpt lat="48.39971" lon="2.65863">
        <ele>-34.599998474121</ele>
        <time>2022-09-29T12:59:45Z</time>
      </trkpt>
      <trkpt lat="48.39972" lon="2.65863">
        <ele>-34.599998474121</ele>
        <time>2022-09-29T12:59:49Z</time>
      </trkpt>
      <trkpt lat="48.39973" lon="2.65862">
        <ele>-34.599998474121</ele>
        <time>2022-09-29T12:59:57Z</time>
      </trkpt>
      <trkpt lat="48.39973" lon="2.65861">
        <ele>-34.599998474121</ele>
        <time>2022-09-29T13:00:01Z</time>
      </trkpt>
      <trkpt lat="48.39972" lon="2.6586">
        <ele>-34.599998474121</ele>
        <time>2022-09-29T13:00:05Z</time>
      </trkpt>
      <trkpt lat="48.39973" lon="2.6586">
        <ele>-34.599998474121</ele>
        <time>2022-09-29T13:00:09Z</time>
      </trkpt>
      <trkpt lat="48.39973" lon="2.65861">
        <ele>-34.599998474121</ele>
        <time>2022-09-29T13:00:13Z</time>
      </trkpt>
      <trkpt lat="48.39973" lon="2.6586">
        <ele>-34.599998474121</ele>
        <time>2022-09-29T13:00:17Z</time>
      </trkpt>
      <trkpt lat="48.39972" lon="2.65859">
        <ele>-34.599998474121</ele>
        <time>2022-09-29T13:00:21Z</time>
      </trkpt>
      <trkpt lat="48.39971" lon="2.65858">
        <ele>-34.599998474121</ele>
        <time>2022-09-29T13:00:25Z</time>
      </trkpt>
      <trkpt lat="48.3997" lon="2.65857">
        <ele>-34.599998474121</ele>
        <time>2022-09-29T13:00:29Z</time>
      </trkpt>
      <trkpt lat="48.39969" lon="2.65858">
        <ele>-34.599998474121</ele>
        <time>2022-09-29T13:00:33Z</time>
      </trkpt>
      <trkpt lat="48.39969" lon="2.65859">
        <ele>-34.599998474121</ele>
        <time>2022-09-29T13:00:37Z</time>
      </trkpt>
      <trkpt lat="48.39971" lon="2.65861">
        <ele>-34.599998474121</ele>
        <time>2022-09-29T13:00:41Z</time>
      </trkpt>
      <trkpt lat="48.39971" lon="2.65863">
        <ele>-34.599998474121</ele>
        <time>2022-09-29T13:00:45Z</time>
      </trkpt>
      <trkpt lat="48.3997" lon="2.65863">
        <ele>-34.599998474121</ele>
        <time>2022-09-29T13:00:49Z</time>
      </trkpt>
      <trkpt lat="48.39969" lon="2.65862">
        <ele>-34.599998474121</ele>
        <time>2022-09-29T13:01:01Z</time>
      </trkpt>
      <trkpt lat="48.3997" lon="2.6586">
        <ele>-34.599998474121</ele>
        <time>2022-09-29T13:01:05Z</time>
      </trkpt>
      <trkpt lat="48.39971" lon="2.6586">
        <ele>-34.599998474121</ele>
        <time>2022-09-29T13:01:09Z</time>
      </trkpt>
      <trkpt lat="48.39972" lon="2.6586">
        <ele>-34.599998474121</ele>
        <time>2022-09-29T13:01:13Z</time>
      </trkpt>
      <trkpt lat="48.39973" lon="2.65861">
        <ele>-34.599998474121</ele>
        <time>2022-09-29T13:01:17Z</time>
      </trkpt>
      <trkpt lat="48.39975" lon="2.65862">
        <ele>-34.599998474121</ele>
        <time>2022-09-29T13:01:21Z</time>
      </trkpt>
      <trkpt lat="48.39977" lon="2.65865">
        <ele>-34.599998474121</ele>
        <time>2022-09-29T13:01:25Z</time>
      </trkpt>
      <trkpt lat="48.39978" lon="2.65867">
        <ele>-34.599998474121</ele>
        <time>2022-09-29T13:01:29Z</time>
      </trkpt>
      <trkpt lat="48.39977" lon="2.65868">
        <ele>-34.599998474121</ele>
        <time>2022-09-29T13:01:33Z</time>
      </trkpt>
      <trkpt lat="48.39978" lon="2.65869">
        <ele>-34.599998474121</ele>
        <time>2022-09-29T13:01:37Z</time>
      </trkpt>
      <trkpt lat="48.39979" lon="2.65869">
        <ele>-34.599998474121</ele>
        <time>2022-09-29T13:01:41Z</time>
      </trkpt>
      <trkpt lat="48.39981" lon="2.6587">
        <ele>-34.599998474121</ele>
        <time>2022-09-29T13:01:45Z</time>
      </trkpt>
      <trkpt lat="48.39982" lon="2.65872">
        <ele>-34.599998474121</ele>
        <time>2022-09-29T13:01:49Z</time>
      </trkpt>
      <trkpt lat="48.39982" lon="2.65869">
        <ele>-34.599998474121</ele>
        <time>2022-09-29T13:01:53Z</time>
      </trkpt>
      <trkpt lat="48.39981" lon="2.65867">
        <ele>-34.599998474121</ele>
        <time>2022-09-29T13:01:57Z</time>
      </trkpt>
      <trkpt lat="48.39981" lon="2.65866">
        <ele>-34.599998474121</ele>
        <time>2022-09-29T13:02:01Z</time>
      </trkpt>
      <trkpt lat="48.39982" lon="2.65867">
        <ele>-34.599998474121</ele>
        <time>2022-09-29T13:02:09Z</time>
      </trkpt>
      <trkpt lat="48.39982" lon="2.65868">
        <ele>-34.599998474121</ele>
        <time>2022-09-29T13:02:13Z</time>
      </trkpt>
      <trkpt lat="48.39983" lon="2.65868">
        <ele>-34.599998474121</ele>
        <time>2022-09-29T13:02:17Z</time>
      </trkpt>
      <trkpt lat="48.39985" lon="2.65869">
        <ele>-34.599998474121</ele>
        <time>2022-09-29T13:02:21Z</time>
      </trkpt>
      <trkpt lat="48.39983" lon="2.6587">
        <ele>-34.599998474121</ele>
        <time>2022-09-29T13:02:29Z</time>
      </trkpt>
      <trkpt lat="48.39976" lon="2.65871">
        <ele>-34.599998474121</ele>
        <time>2022-09-29T13:02:33Z</time>
      </trkpt>
      <trkpt lat="48.3997" lon="2.65868">
        <ele>-34.599998474121</ele>
        <time>2022-09-29T13:02:37Z</time>
      </trkpt>
      <trkpt lat="48.39973" lon="2.65867">
        <ele>-34.599998474121</ele>
        <time>2022-09-29T13:02:41Z</time>
      </trkpt>
      <trkpt lat="48.39974" lon="2.65866">
        <ele>-34.599998474121</ele>
        <time>2022-09-29T13:02:45Z</time>
      </trkpt>
      <trkpt lat="48.39975" lon="2.65864">
        <ele>-34.599998474121</ele>
        <time>2022-09-29T13:02:49Z</time>
      </trkpt>
      <trkpt lat="48.39978" lon="2.65866">
        <ele>-34.599998474121</ele>
        <time>2022-09-29T13:02:53Z</time>
      </trkpt>
      <trkpt lat="48.3998" lon="2.65866">
        <ele>-35.200000762939</ele>
        <time>2022-09-29T13:02:57Z</time>
      </trkpt>
      <trkpt lat="48.39981" lon="2.65865">
        <ele>-35.200000762939</ele>
        <time>2022-09-29T13:03:01Z</time>
      </trkpt>
      <trkpt lat="48.39981" lon="2.65862">
        <ele>-35.200000762939</ele>
        <time>2022-09-29T13:03:05Z</time>
      </trkpt>
      <trkpt lat="48.39979" lon="2.65859">
        <ele>-35.799999237061</ele>
        <time>2022-09-29T13:03:09Z</time>
      </trkpt>
      <trkpt lat="48.39977" lon="2.65856">
        <ele>-36.200000762939</ele>
        <time>2022-09-29T13:03:13Z</time>
      </trkpt>
      <trkpt lat="48.39977" lon="2.65855">
        <ele>-36.599998474121</ele>
        <time>2022-09-29T13:03:17Z</time>
      </trkpt>
      <trkpt lat="48.39978" lon="2.65855">
        <ele>-37</ele>
        <time>2022-09-29T13:03:21Z</time>
      </trkpt>
      <trkpt lat="48.39978" lon="2.65853">
        <ele>-37.400001525879</ele>
        <time>2022-09-29T13:03:25Z</time>
      </trkpt>
      <trkpt lat="48.39978" lon="2.65852">
        <ele>-37.799999237061</ele>
        <time>2022-09-29T13:03:29Z</time>
      </trkpt>
      <trkpt lat="48.39978" lon="2.6585">
        <ele>-38.400001525879</ele>
        <time>2022-09-29T13:03:33Z</time>
      </trkpt>
      <trkpt lat="48.39978" lon="2.65846">
        <ele>-38.599998474121</ele>
        <time>2022-09-29T13:03:37Z</time>
      </trkpt>
      <trkpt lat="48.39981" lon="2.65842">
        <ele>-38.799999237061</ele>
        <time>2022-09-29T13:03:41Z</time>
      </trkpt>
      <trkpt lat="48.39981" lon="2.6584">
        <ele>-39.200000762939</ele>
        <time>2022-09-29T13:03:45Z</time>
      </trkpt>
      <trkpt lat="48.39981" lon="2.65832">
        <ele>-39.400001525879</ele>
        <time>2022-09-29T13:03:49Z</time>
      </trkpt>
      <trkpt lat="48.39981" lon="2.65828">
        <ele>-40</ele>
        <time>2022-09-29T13:03:53Z</time>
      </trkpt>
      <trkpt lat="48.39983" lon="2.65825">
        <ele>-40.200000762939</ele>
        <time>2022-09-29T13:03:57Z</time>
      </trkpt>
      <trkpt lat="48.39983" lon="2.65822">
        <ele>-40.599998474121</ele>
        <time>2022-09-29T13:04:01Z</time>
      </trkpt>
      <trkpt lat="48.39985" lon="2.65819">
        <ele>-40.799999237061</ele>
        <time>2022-09-29T13:04:05Z</time>
      </trkpt>
      <trkpt lat="48.39988" lon="2.65815">
        <ele>-40.599998474121</ele>
        <time>2022-09-29T13:04:09Z</time>
      </trkpt>
      <trkpt lat="48.39989" lon="2.65811">
        <ele>-40.799999237061</ele>
        <time>2022-09-29T13:04:13Z</time>
      </trkpt>
      <trkpt lat="48.39991" lon="2.65806">
        <ele>-41.200000762939</ele>
        <time>2022-09-29T13:04:17Z</time>
      </trkpt>
      <trkpt lat="48.39992" lon="2.65801">
        <ele>-41.599998474121</ele>
        <time>2022-09-29T13:04:21Z</time>
      </trkpt>
      <trkpt lat="48.39993" lon="2.65797">
        <ele>-42</ele>
        <time>2022-09-29T13:04:25Z</time>
      </trkpt>
      <trkpt lat="48.39994" lon="2.65794">
        <ele>-42.400001525879</ele>
        <time>2022-09-29T13:04:29Z</time>
      </trkpt>
      <trkpt lat="48.39995" lon="2.65789">
        <ele>-42.400001525879</ele>
        <time>2022-09-29T13:04:33Z</time>
      </trkpt>
      <trkpt lat="48.39993" lon="2.65784">
        <ele>-41.599998474121</ele>
        <time>2022-09-29T13:04:37Z</time>
      </trkpt>
      <trkpt lat="48.39992" lon="2.65779">
        <ele>-41</ele>
        <time>2022-09-29T13:04:41Z</time>
      </trkpt>
      <trkpt lat="48.39992" lon="2.65774">
        <ele>-41</ele>
        <time>2022-09-29T13:04:45Z</time>
      </trkpt>
      <trkpt lat="48.39993" lon="2.65771">
        <ele>-41</ele>
        <time>2022-09-29T13:04:49Z</time>
      </trkpt>
      <trkpt lat="48.39992" lon="2.65768">
        <ele>-41</ele>
        <time>2022-09-29T13:04:53Z</time>
      </trkpt>
      <trkpt lat="48.39991" lon="2.65766">
        <ele>-41</ele>
        <time>2022-09-29T13:04:57Z</time>
      </trkpt>
      <trkpt lat="48.39989" lon="2.6576">
        <ele>-40.799999237061</ele>
        <time>2022-09-29T13:05:01Z</time>
      </trkpt>
      <trkpt lat="48.39988" lon="2.65759">
        <ele>-40.799999237061</ele>
        <time>2022-09-29T13:05:05Z</time>
      </trkpt>
      <trkpt lat="48.39987" lon="2.65757">
        <ele>-40.799999237061</ele>
        <time>2022-09-29T13:05:09Z</time>
      </trkpt>
      <trkpt lat="48.3999" lon="2.65753">
        <ele>-40.799999237061</ele>
        <time>2022-09-29T13:05:13Z</time>
      </trkpt>
      <trkpt lat="48.39992" lon="2.65752">
        <ele>-40.400001525879</ele>
        <time>2022-09-29T13:05:17Z</time>
      </trkpt>
      <trkpt lat="48.39994" lon="2.65749">
        <ele>-40.200000762939</ele>
        <time>2022-09-29T13:05:25Z</time>
      </trkpt>
      <trkpt lat="48.39995" lon="2.65744">
        <ele>-40.200000762939</ele>
        <time>2022-09-29T13:05:29Z</time>
      </trkpt>
      <trkpt lat="48.39996" lon="2.65742">
        <ele>-39.400001525879</ele>
        <time>2022-09-29T13:05:33Z</time>
      </trkpt>
      <trkpt lat="48.39996" lon="2.6574">
        <ele>-39.400001525879</ele>
        <time>2022-09-29T13:05:37Z</time>
      </trkpt>
      <trkpt lat="48.39997" lon="2.65738">
        <ele>-39.400001525879</ele>
        <time>2022-09-29T13:05:41Z</time>
      </trkpt>
      <trkpt lat="48.39996" lon="2.65737">
        <ele>-39.400001525879</ele>
        <time>2022-09-29T13:05:45Z</time>
      </trkpt>
      <trkpt lat="48.39996" lon="2.65738">
        <ele>-39.400001525879</ele>
        <time>2022-09-29T13:05:53Z</time>
      </trkpt>
      <trkpt lat="48.39995" lon="2.65739">
        <ele>-39.400001525879</ele>
        <time>2022-09-29T13:05:57Z</time>
      </trkpt>
      <trkpt lat="48.39995" lon="2.6574">
        <ele>-39.400001525879</ele>
        <time>2022-09-29T13:06:01Z</time>
      </trkpt>
      <trkpt lat="48.39995" lon="2.65742">
        <ele>-39.400001525879</ele>
        <time>2022-09-29T13:06:05Z</time>
      </trkpt>
      <trkpt lat="48.39996" lon="2.65743">
        <ele>-39.200000762939</ele>
        <time>2022-09-29T13:06:09Z</time>
      </trkpt>
      <trkpt lat="48.39997" lon="2.65743">
        <ele>-39.200000762939</ele>
        <time>2022-09-29T13:06:13Z</time>
      </trkpt>
      <trkpt lat="48.40002" lon="2.6574">
        <ele>-39.200000762939</ele>
        <time>2022-09-29T13:06:21Z</time>
      </trkpt>
      <trkpt lat="48.40003" lon="2.65735">
        <ele>-39.400001525879</ele>
        <time>2022-09-29T13:06:25Z</time>
      </trkpt>
      <trkpt lat="48.40003" lon="2.65733">
        <ele>-39</ele>
        <time>2022-09-29T13:06:29Z</time>
      </trkpt>
      <trkpt lat="48.40003" lon="2.65732">
        <ele>-38.400001525879</ele>
        <time>2022-09-29T13:06:33Z</time>
      </trkpt>
      <trkpt lat="48.40004" lon="2.65731">
        <ele>-37.799999237061</ele>
        <time>2022-09-29T13:06:37Z</time>
      </trkpt>
      <trkpt lat="48.40005" lon="2.65729">
        <ele>-37.200000762939</ele>
        <time>2022-09-29T13:06:41Z</time>
      </trkpt>
      <trkpt lat="48.40006" lon="2.65726">
        <ele>-37.200000762939</ele>
        <time>2022-09-29T13:06:45Z</time>
      </trkpt>
      <trkpt lat="48.40007" lon="2.65723">
        <ele>-37.200000762939</ele>
        <time>2022-09-29T13:06:49Z</time>
      </trkpt>
      <trkpt lat="48.40007" lon="2.6572">
        <ele>-37.599998474121</ele>
        <time>2022-09-29T13:06:53Z</time>
      </trkpt>
      <trkpt lat="48.40009" lon="2.65718">
        <ele>-37.599998474121</ele>
        <time>2022-09-29T13:06:57Z</time>
      </trkpt>
      <trkpt lat="48.4001" lon="2.65714">
        <ele>-37.599998474121</ele>
        <time>2022-09-29T13:07:01Z</time>
      </trkpt>
      <trkpt lat="48.40011" lon="2.65707">
        <ele>-37.599998474121</ele>
        <time>2022-09-29T13:07:05Z</time>
      </trkpt>
      <trkpt lat="48.40011" lon="2.65701">
        <ele>-37.599998474121</ele>
        <time>2022-09-29T13:07:09Z</time>
      </trkpt>
      <trkpt lat="48.40009" lon="2.65698">
        <ele>-37.599998474121</ele>
        <time>2022-09-29T13:07:13Z</time>
      </trkpt>
      <trkpt lat="48.40007" lon="2.65695">
        <ele>-37.799999237061</ele>
        <time>2022-09-29T13:07:17Z</time>
      </trkpt>
      <trkpt lat="48.40004" lon="2.6569">
        <ele>-37.799999237061</ele>
        <time>2022-09-29T13:07:21Z</time>
      </trkpt>
      <trkpt lat="48.40001" lon="2.65687">
        <ele>-37.400001525879</ele>
        <time>2022-09-29T13:07:25Z</time>
      </trkpt>
      <trkpt lat="48.4" lon="2.65686">
        <ele>-36.799999237061</ele>
        <time>2022-09-29T13:07:29Z</time>
      </trkpt>
      <trkpt lat="48.40001" lon="2.65684">
        <ele>-36.200000762939</ele>
        <time>2022-09-29T13:07:33Z</time>
      </trkpt>
      <trkpt lat="48.40002" lon="2.65682">
        <ele>-35.599998474121</ele>
        <time>2022-09-29T13:07:37Z</time>
      </trkpt>
      <trkpt lat="48.40002" lon="2.65678">
        <ele>-35.200000762939</ele>
        <time>2022-09-29T13:07:41Z</time>
      </trkpt>
      <trkpt lat="48.40001" lon="2.65673">
        <ele>-35.200000762939</ele>
        <time>2022-09-29T13:07:45Z</time>
      </trkpt>
      <trkpt lat="48.40001" lon="2.6567">
        <ele>-35.400001525879</ele>
        <time>2022-09-29T13:07:49Z</time>
      </trkpt>
      <trkpt lat="48.40001" lon="2.65665">
        <ele>-35.400001525879</ele>
        <time>2022-09-29T13:07:53Z</time>
      </trkpt>
      <trkpt lat="48.4" lon="2.65661">
        <ele>-35.599998474121</ele>
        <time>2022-09-29T13:07:57Z</time>
      </trkpt>
      <trkpt lat="48.4" lon="2.65658">
        <ele>-35.400001525879</ele>
        <time>2022-09-29T13:08:01Z</time>
      </trkpt>
      <trkpt lat="48.4" lon="2.65657">
        <ele>-35.200000762939</ele>
        <time>2022-09-29T13:08:05Z</time>
      </trkpt>
      <trkpt lat="48.4" lon="2.65656">
        <ele>-35.200000762939</ele>
        <time>2022-09-29T13:08:09Z</time>
      </trkpt>
      <trkpt lat="48.4" lon="2.65654">
        <ele>-35.200000762939</ele>
        <time>2022-09-29T13:08:13Z</time>
      </trkpt>
      <trkpt lat="48.39999" lon="2.65651">
        <ele>-35</ele>
        <time>2022-09-29T13:08:17Z</time>
      </trkpt>
      <trkpt lat="48.39998" lon="2.6565">
        <ele>-35.200000762939</ele>
        <time>2022-09-29T13:08:21Z</time>
      </trkpt>
      <trkpt lat="48.39995" lon="2.65651">
        <ele>-35.200000762939</ele>
        <time>2022-09-29T13:08:25Z</time>
      </trkpt>
      <trkpt lat="48.39996" lon="2.65648">
        <ele>-35</ele>
        <time>2022-09-29T13:08:29Z</time>
      </trkpt>
      <trkpt lat="48.39996" lon="2.65646">
        <ele>-34.599998474121</ele>
        <time>2022-09-29T13:08:33Z</time>
      </trkpt>
      <trkpt lat="48.39996" lon="2.65641">
        <ele>-34.200000762939</ele>
        <time>2022-09-29T13:08:37Z</time>
      </trkpt>
      <trkpt lat="48.39994" lon="2.65641">
        <ele>-34.200000762939</ele>
        <time>2022-09-29T13:08:41Z</time>
      </trkpt>
      <trkpt lat="48.39992" lon="2.65639">
        <ele>-34.400001525879</ele>
        <time>2022-09-29T13:08:45Z</time>
      </trkpt>
      <trkpt lat="48.39992" lon="2.65637">
        <ele>-33.599998474121</ele>
        <time>2022-09-29T13:08:49Z</time>
      </trkpt>
      <trkpt lat="48.39991" lon="2.65636">
        <ele>-33.400001525879</ele>
        <time>2022-09-29T13:08:53Z</time>
      </trkpt>
      <trkpt lat="48.39989" lon="2.65631">
        <ele>-33.200000762939</ele>
        <time>2022-09-29T13:08:57Z</time>
      </trkpt>
      <trkpt lat="48.3999" lon="2.65623">
        <ele>-32.200000762939</ele>
        <time>2022-09-29T13:09:01Z</time>
      </trkpt>
      <trkpt lat="48.3999" lon="2.65616">
        <ele>-32</ele>
        <time>2022-09-29T13:09:05Z</time>
      </trkpt>
      <trkpt lat="48.39989" lon="2.6561">
        <ele>-32.200000762939</ele>
        <time>2022-09-29T13:09:09Z</time>
      </trkpt>
      <trkpt lat="48.39987" lon="2.65606">
        <ele>-32.200000762939</ele>
        <time>2022-09-29T13:09:13Z</time>
      </trkpt>
      <trkpt lat="48.39987" lon="2.65603">
        <ele>-32.200000762939</ele>
        <time>2022-09-29T13:09:17Z</time>
      </trkpt>
      <trkpt lat="48.39988" lon="2.656">
        <ele>-32.200000762939</ele>
        <time>2022-09-29T13:09:21Z</time>
      </trkpt>
      <trkpt lat="48.39988" lon="2.65597">
        <ele>-32.200000762939</ele>
        <time>2022-09-29T13:09:25Z</time>
      </trkpt>
      <trkpt lat="48.39989" lon="2.65594">
        <ele>-31.39999961853</ele>
        <time>2022-09-29T13:09:29Z</time>
      </trkpt>
      <trkpt lat="48.39988" lon="2.6559">
        <ele>-31</ele>
        <time>2022-09-29T13:09:33Z</time>
      </trkpt>
      <trkpt lat="48.39987" lon="2.65587">
        <ele>-30.200000762939</ele>
        <time>2022-09-29T13:09:37Z</time>
      </trkpt>
      <trkpt lat="48.39985" lon="2.65585">
        <ele>-30</ele>
        <time>2022-09-29T13:09:41Z</time>
      </trkpt>
      <trkpt lat="48.39983" lon="2.6558">
        <ele>-29.200000762939</ele>
        <time>2022-09-29T13:09:45Z</time>
      </trkpt>
      <trkpt lat="48.39983" lon="2.65576">
        <ele>-29.39999961853</ele>
        <time>2022-09-29T13:09:49Z</time>
      </trkpt>
      <trkpt lat="48.39982" lon="2.65572">
        <ele>-29</ele>
        <time>2022-09-29T13:09:53Z</time>
      </trkpt>
      <trkpt lat="48.39984" lon="2.65567">
        <ele>-28.799999237061</ele>
        <time>2022-09-29T13:09:57Z</time>
      </trkpt>
      <trkpt lat="48.39983" lon="2.65562">
        <ele>-27.60000038147</ele>
        <time>2022-09-29T13:10:01Z</time>
      </trkpt>
      <trkpt lat="48.39981" lon="2.65557">
        <ele>-26.799999237061</ele>
        <time>2022-09-29T13:10:05Z</time>
      </trkpt>
      <trkpt lat="48.39981" lon="2.65555">
        <ele>-26.39999961853</ele>
        <time>2022-09-29T13:10:09Z</time>
      </trkpt>
      <trkpt lat="48.39983" lon="2.65555">
        <ele>-26</ele>
        <time>2022-09-29T13:10:13Z</time>
      </trkpt>
      <trkpt lat="48.39985" lon="2.65554">
        <ele>-25.200000762939</ele>
        <time>2022-09-29T13:10:17Z</time>
      </trkpt>
      <trkpt lat="48.39986" lon="2.65553">
        <ele>-25</ele>
        <time>2022-09-29T13:10:21Z</time>
      </trkpt>
      <trkpt lat="48.39986" lon="2.65552">
        <ele>-24</ele>
        <time>2022-09-29T13:10:25Z</time>
      </trkpt>
      <trkpt lat="48.39988" lon="2.6555">
        <ele>-22.799999237061</ele>
        <time>2022-09-29T13:10:29Z</time>
      </trkpt>
      <trkpt lat="48.3999" lon="2.6555">
        <ele>-21.39999961853</ele>
        <time>2022-09-29T13:10:33Z</time>
      </trkpt>
      <trkpt lat="48.3999" lon="2.65549">
        <ele>-21</ele>
        <time>2022-09-29T13:10:37Z</time>
      </trkpt>
      <trkpt lat="48.39993" lon="2.65548">
        <ele>-20.799999237061</ele>
        <time>2022-09-29T13:10:41Z</time>
      </trkpt>
      <trkpt lat="48.39994" lon="2.65547">
        <ele>-19.200000762939</ele>
        <time>2022-09-29T13:10:45Z</time>
      </trkpt>
      <trkpt lat="48.39995" lon="2.65545">
        <ele>-18.39999961853</ele>
        <time>2022-09-29T13:10:53Z</time>
      </trkpt>
      <trkpt lat="48.39997" lon="2.65541">
        <ele>-18.60000038147</ele>
        <time>2022-09-29T13:10:57Z</time>
      </trkpt>
      <trkpt lat="48.39996" lon="2.65539">
        <ele>-17.60000038147</ele>
        <time>2022-09-29T13:11:01Z</time>
      </trkpt>
      <trkpt lat="48.39995" lon="2.65538">
        <ele>-18</ele>
        <time>2022-09-29T13:11:09Z</time>
      </trkpt>
      <trkpt lat="48.39994" lon="2.65538">
        <ele>-18</ele>
        <time>2022-09-29T13:11:13Z</time>
      </trkpt>
      <trkpt lat="48.39992" lon="2.65539">
        <ele>-18.200000762939</ele>
        <time>2022-09-29T13:11:17Z</time>
      </trkpt>
      <trkpt lat="48.39991" lon="2.65541">
        <ele>-17.799999237061</ele>
        <time>2022-09-29T13:11:21Z</time>
      </trkpt>
      <trkpt lat="48.3999" lon="2.65542">
        <ele>-18.200000762939</ele>
        <time>2022-09-29T13:11:25Z</time>
      </trkpt>
      <trkpt lat="48.39989" lon="2.65542">
        <ele>-18.799999237061</ele>
        <time>2022-09-29T13:11:29Z</time>
      </trkpt>
      <trkpt lat="48.39988" lon="2.65541">
        <ele>-18.60000038147</ele>
        <time>2022-09-29T13:11:33Z</time>
      </trkpt>
      <trkpt lat="48.39987" lon="2.6554">
        <ele>-18.60000038147</ele>
        <time>2022-09-29T13:11:37Z</time>
      </trkpt>
      <trkpt lat="48.39986" lon="2.65539">
        <ele>-18.60000038147</ele>
        <time>2022-09-29T13:11:41Z</time>
      </trkpt>
      <trkpt lat="48.39988" lon="2.6554">
        <ele>-19</ele>
        <time>2022-09-29T13:11:45Z</time>
      </trkpt>
      <trkpt lat="48.39994" lon="2.65538">
        <ele>-19</ele>
        <time>2022-09-29T13:11:49Z</time>
      </trkpt>
      <trkpt lat="48.39995" lon="2.65538">
        <ele>-19.200000762939</ele>
        <time>2022-09-29T13:11:53Z</time>
      </trkpt>
      <trkpt lat="48.39996" lon="2.65537">
        <ele>-19.200000762939</ele>
        <time>2022-09-29T13:11:57Z</time>
      </trkpt>
      <trkpt lat="48.39997" lon="2.65538">
        <ele>-18.799999237061</ele>
        <time>2022-09-29T13:12:01Z</time>
      </trkpt>
      <trkpt lat="48.39997" lon="2.65537">
        <ele>-19.39999961853</ele>
        <time>2022-09-29T13:12:09Z</time>
      </trkpt>
      <trkpt lat="48.39996" lon="2.65539">
        <ele>-19.200000762939</ele>
        <time>2022-09-29T13:12:17Z</time>
      </trkpt>
      <trkpt lat="48.39995" lon="2.65539">
        <ele>-19.39999961853</ele>
        <time>2022-09-29T13:12:25Z</time>
      </trkpt>
      <trkpt lat="48.39995" lon="2.65538">
        <ele>-19.39999961853</ele>
        <time>2022-09-29T13:12:29Z</time>
      </trkpt>
      <trkpt lat="48.39996" lon="2.6554">
        <ele>-19.200000762939</ele>
        <time>2022-09-29T13:12:33Z</time>
      </trkpt>
      <trkpt lat="48.39997" lon="2.6554">
        <ele>-19.39999961853</ele>
        <time>2022-09-29T13:12:37Z</time>
      </trkpt>
      <trkpt lat="48.39998" lon="2.65542">
        <ele>-19.39999961853</ele>
        <time>2022-09-29T13:12:41Z</time>
      </trkpt>
      <trkpt lat="48.39999" lon="2.65541">
        <ele>-19</ele>
        <time>2022-09-29T13:12:45Z</time>
      </trkpt>
      <trkpt lat="48.4" lon="2.65542">
        <ele>-19</ele>
        <time>2022-09-29T13:12:49Z</time>
      </trkpt>
      <trkpt lat="48.40001" lon="2.65539">
        <ele>-19.200000762939</ele>
        <time>2022-09-29T13:12:53Z</time>
      </trkpt>
      <trkpt lat="48.40002" lon="2.65538">
        <ele>-19.39999961853</ele>
        <time>2022-09-29T13:12:57Z</time>
      </trkpt>
      <trkpt lat="48.40003" lon="2.65537">
        <ele>-19.39999961853</ele>
        <time>2022-09-29T13:13:01Z</time>
      </trkpt>
      <trkpt lat="48.40002" lon="2.65537">
        <ele>-19.39999961853</ele>
        <time>2022-09-29T13:13:05Z</time>
      </trkpt>
      <trkpt lat="48.40002" lon="2.65536">
        <ele>-19.39999961853</ele>
        <time>2022-09-29T13:13:09Z</time>
      </trkpt>
      <trkpt lat="48.40001" lon="2.65542">
        <ele>-19.200000762939</ele>
        <time>2022-09-29T13:13:13Z</time>
      </trkpt>
      <trkpt lat="48.4" lon="2.65543">
        <ele>-18.39999961853</ele>
        <time>2022-09-29T13:13:17Z</time>
      </trkpt>
      <trkpt lat="48.40001" lon="2.65543">
        <ele>-18.39999961853</ele>
        <time>2022-09-29T13:13:21Z</time>
      </trkpt>
      <trkpt lat="48.40001" lon="2.65542">
        <ele>-18.39999961853</ele>
        <time>2022-09-29T13:13:25Z</time>
      </trkpt>
      <trkpt lat="48.4" lon="2.65539">
        <ele>-18</ele>
        <time>2022-09-29T13:13:29Z</time>
      </trkpt>
      <trkpt lat="48.4" lon="2.65538">
        <ele>-18.200000762939</ele>
        <time>2022-09-29T13:13:33Z</time>
      </trkpt>
      <trkpt lat="48.40001" lon="2.65538">
        <ele>-18.60000038147</ele>
        <time>2022-09-29T13:13:37Z</time>
      </trkpt>
      <trkpt lat="48.40002" lon="2.65536">
        <ele>-18.60000038147</ele>
        <time>2022-09-29T13:13:41Z</time>
      </trkpt>
      <trkpt lat="48.40002" lon="2.65533">
        <ele>-19.200000762939</ele>
        <time>2022-09-29T13:13:45Z</time>
      </trkpt>
      <trkpt lat="48.39999" lon="2.6553">
        <ele>-19.39999961853</ele>
        <time>2022-09-29T13:13:49Z</time>
      </trkpt>
      <trkpt lat="48.39997" lon="2.65525">
        <ele>-19.60000038147</ele>
        <time>2022-09-29T13:13:53Z</time>
      </trkpt>
      <trkpt lat="48.39995" lon="2.65524">
        <ele>-19.799999237061</ele>
        <time>2022-09-29T13:13:57Z</time>
      </trkpt>
      <trkpt lat="48.39995" lon="2.65523">
        <ele>-20.200000762939</ele>
        <time>2022-09-29T13:14:01Z</time>
      </trkpt>
      <trkpt lat="48.39995" lon="2.6552">
        <ele>-21.200000762939</ele>
        <time>2022-09-29T13:14:05Z</time>
      </trkpt>
      <trkpt lat="48.39996" lon="2.65519">
        <ele>-21.60000038147</ele>
        <time>2022-09-29T13:14:09Z</time>
      </trkpt>
      <trkpt lat="48.39994" lon="2.65514">
        <ele>-22</ele>
        <time>2022-09-29T13:14:13Z</time>
      </trkpt>
      <trkpt lat="48.39992" lon="2.65511">
        <ele>-22.200000762939</ele>
        <time>2022-09-29T13:14:17Z</time>
      </trkpt>
      <trkpt lat="48.3999" lon="2.65509">
        <ele>-22</ele>
        <time>2022-09-29T13:14:21Z</time>
      </trkpt>
      <trkpt lat="48.39988" lon="2.65504">
        <ele>-22.200000762939</ele>
        <time>2022-09-29T13:14:25Z</time>
      </trkpt>
      <trkpt lat="48.39987" lon="2.655">
        <ele>-22.200000762939</ele>
        <time>2022-09-29T13:14:29Z</time>
      </trkpt>
      <trkpt lat="48.39986" lon="2.65494">
        <ele>-22.200000762939</ele>
        <time>2022-09-29T13:14:33Z</time>
      </trkpt>
      <trkpt lat="48.39986" lon="2.6549">
        <ele>-22.200000762939</ele>
        <time>2022-09-29T13:14:37Z</time>
      </trkpt>
      <trkpt lat="48.39986" lon="2.65486">
        <ele>-22.200000762939</ele>
        <time>2022-09-29T13:14:41Z</time>
      </trkpt>
      <trkpt lat="48.39986" lon="2.65484">
        <ele>-22.200000762939</ele>
        <time>2022-09-29T13:14:45Z</time>
      </trkpt>
      <trkpt lat="48.39988" lon="2.6548">
        <ele>-21.39999961853</ele>
        <time>2022-09-29T13:14:49Z</time>
      </trkpt>
      <trkpt lat="48.39988" lon="2.65476">
        <ele>-21.200000762939</ele>
        <time>2022-09-29T13:14:53Z</time>
      </trkpt>
      <trkpt lat="48.39988" lon="2.65475">
        <ele>-21.200000762939</ele>
        <time>2022-09-29T13:14:57Z</time>
      </trkpt>
      <trkpt lat="48.3999" lon="2.6547">
        <ele>-21</ele>
        <time>2022-09-29T13:15:01Z</time>
      </trkpt>
      <trkpt lat="48.39991" lon="2.65467">
        <ele>-20.39999961853</ele>
        <time>2022-09-29T13:15:05Z</time>
      </trkpt>
      <trkpt lat="48.3999" lon="2.65462">
        <ele>-19.799999237061</ele>
        <time>2022-09-29T13:15:09Z</time>
      </trkpt>
      <trkpt lat="48.3999" lon="2.65457">
        <ele>-19.60000038147</ele>
        <time>2022-09-29T13:15:13Z</time>
      </trkpt>
      <trkpt lat="48.39989" lon="2.65453">
        <ele>-19.60000038147</ele>
        <time>2022-09-29T13:15:17Z</time>
      </trkpt>
      <trkpt lat="48.39988" lon="2.65452">
        <ele>-19.60000038147</ele>
        <time>2022-09-29T13:15:21Z</time>
      </trkpt>
      <trkpt lat="48.39988" lon="2.6545">
        <ele>-19.60000038147</ele>
        <time>2022-09-29T13:15:25Z</time>
      </trkpt>
      <trkpt lat="48.39989" lon="2.65448">
        <ele>-19.60000038147</ele>
        <time>2022-09-29T13:15:29Z</time>
      </trkpt>
      <trkpt lat="48.39992" lon="2.65447">
        <ele>-19.60000038147</ele>
        <time>2022-09-29T13:15:33Z</time>
      </trkpt>
      <trkpt lat="48.39995" lon="2.65444">
        <ele>-19.60000038147</ele>
        <time>2022-09-29T13:15:37Z</time>
      </trkpt>
      <trkpt lat="48.39996" lon="2.65442">
        <ele>-19.60000038147</ele>
        <time>2022-09-29T13:15:41Z</time>
      </trkpt>
      <trkpt lat="48.39998" lon="2.65439">
        <ele>-19.39999961853</ele>
        <time>2022-09-29T13:15:45Z</time>
      </trkpt>
      <trkpt lat="48.39998" lon="2.65437">
        <ele>-19</ele>
        <time>2022-09-29T13:15:49Z</time>
      </trkpt>
      <trkpt lat="48.4" lon="2.65437">
        <ele>-18.799999237061</ele>
        <time>2022-09-29T13:15:53Z</time>
      </trkpt>
      <trkpt lat="48.40002" lon="2.65435">
        <ele>-19.200000762939</ele>
        <time>2022-09-29T13:15:57Z</time>
      </trkpt>
      <trkpt lat="48.40003" lon="2.65433">
        <ele>-19.60000038147</ele>
        <time>2022-09-29T13:16:01Z</time>
      </trkpt>
      <trkpt lat="48.40008" lon="2.65432">
        <ele>-19.60000038147</ele>
        <time>2022-09-29T13:16:05Z</time>
      </trkpt>
      <trkpt lat="48.40012" lon="2.65429">
        <ele>-19.60000038147</ele>
        <time>2022-09-29T13:16:09Z</time>
      </trkpt>
      <trkpt lat="48.40015" lon="2.65426">
        <ele>-19.60000038147</ele>
        <time>2022-09-29T13:16:13Z</time>
      </trkpt>
      <trkpt lat="48.40018" lon="2.65424">
        <ele>-19.60000038147</ele>
        <time>2022-09-29T13:16:17Z</time>
      </trkpt>
      <trkpt lat="48.40022" lon="2.65422">
        <ele>-19.799999237061</ele>
        <time>2022-09-29T13:16:21Z</time>
      </trkpt>
      <trkpt lat="48.40024" lon="2.65419">
        <ele>-19.799999237061</ele>
        <time>2022-09-29T13:16:25Z</time>
      </trkpt>
      <trkpt lat="48.40026" lon="2.65414">
        <ele>-19.799999237061</ele>
        <time>2022-09-29T13:16:29Z</time>
      </trkpt>
      <trkpt lat="48.40027" lon="2.6541">
        <ele>-19.799999237061</ele>
        <time>2022-09-29T13:16:33Z</time>
      </trkpt>
      <trkpt lat="48.40028" lon="2.65405">
        <ele>-20</ele>
        <time>2022-09-29T13:16:37Z</time>
      </trkpt>
      <trkpt lat="48.40029" lon="2.654">
        <ele>-20</ele>
        <time>2022-09-29T13:16:41Z</time>
      </trkpt>
      <trkpt lat="48.4003" lon="2.65395">
        <ele>-20</ele>
        <time>2022-09-29T13:16:45Z</time>
      </trkpt>
      <trkpt lat="48.4003" lon="2.65389">
        <ele>-20.200000762939</ele>
        <time>2022-09-29T13:16:49Z</time>
      </trkpt>
      <trkpt lat="48.4003" lon="2.65382">
        <ele>-20.200000762939</ele>
        <time>2022-09-29T13:16:53Z</time>
      </trkpt>
      <trkpt lat="48.40029" lon="2.65376">
        <ele>-20.200000762939</ele>
        <time>2022-09-29T13:16:57Z</time>
      </trkpt>
      <trkpt lat="48.40029" lon="2.6537">
        <ele>-20.200000762939</ele>
        <time>2022-09-29T13:17:01Z</time>
      </trkpt>
      <trkpt lat="48.40029" lon="2.65364">
        <ele>-20.200000762939</ele>
        <time>2022-09-29T13:17:05Z</time>
      </trkpt>
      <trkpt lat="48.40029" lon="2.65359">
        <ele>-20.39999961853</ele>
        <time>2022-09-29T13:17:09Z</time>
      </trkpt>
      <trkpt lat="48.40028" lon="2.65354">
        <ele>-20.39999961853</ele>
        <time>2022-09-29T13:17:13Z</time>
      </trkpt>
      <trkpt lat="48.4003" lon="2.6535">
        <ele>-20.200000762939</ele>
        <time>2022-09-29T13:17:17Z</time>
      </trkpt>
      <trkpt lat="48.40032" lon="2.65345">
        <ele>-20</ele>
        <time>2022-09-29T13:17:21Z</time>
      </trkpt>
      <trkpt lat="48.40034" lon="2.6534">
        <ele>-19.799999237061</ele>
        <time>2022-09-29T13:17:25Z</time>
      </trkpt>
      <trkpt lat="48.40037" lon="2.65334">
        <ele>-19.60000038147</ele>
        <time>2022-09-29T13:17:29Z</time>
      </trkpt>
      <trkpt lat="48.40039" lon="2.65327">
        <ele>-19.39999961853</ele>
        <time>2022-09-29T13:17:33Z</time>
      </trkpt>
      <trkpt lat="48.40041" lon="2.65323">
        <ele>-19.39999961853</ele>
        <time>2022-09-29T13:17:37Z</time>
      </trkpt>
      <trkpt lat="48.40041" lon="2.65316">
        <ele>-19.39999961853</ele>
        <time>2022-09-29T13:17:41Z</time>
      </trkpt>
      <trkpt lat="48.40042" lon="2.6531">
        <ele>-19.200000762939</ele>
        <time>2022-09-29T13:17:45Z</time>
      </trkpt>
      <trkpt lat="48.40043" lon="2.65304">
        <ele>-19.200000762939</ele>
        <time>2022-09-29T13:17:49Z</time>
      </trkpt>
      <trkpt lat="48.40043" lon="2.65298">
        <ele>-19</ele>
        <time>2022-09-29T13:17:53Z</time>
      </trkpt>
      <trkpt lat="48.40041" lon="2.65295">
        <ele>-19.39999961853</ele>
        <time>2022-09-29T13:17:57Z</time>
      </trkpt>
      <trkpt lat="48.40041" lon="2.65291">
        <ele>-19.39999961853</ele>
        <time>2022-09-29T13:18:01Z</time>
      </trkpt>
      <trkpt lat="48.40041" lon="2.65285">
        <ele>-19.60000038147</ele>
        <time>2022-09-29T13:18:05Z</time>
      </trkpt>
      <trkpt lat="48.40041" lon="2.65279">
        <ele>-19.60000038147</ele>
        <time>2022-09-29T13:18:09Z</time>
      </trkpt>
      <trkpt lat="48.40042" lon="2.65272">
        <ele>-19.60000038147</ele>
        <time>2022-09-29T13:18:13Z</time>
      </trkpt>
      <trkpt lat="48.40044" lon="2.65267">
        <ele>-19.60000038147</ele>
        <time>2022-09-29T13:18:17Z</time>
      </trkpt>
      <trkpt lat="48.40045" lon="2.65261">
        <ele>-19.60000038147</ele>
        <time>2022-09-29T13:18:21Z</time>
      </trkpt>
      <trkpt lat="48.40047" lon="2.65255">
        <ele>-19.60000038147</ele>
        <time>2022-09-29T13:18:25Z</time>
      </trkpt>
      <trkpt lat="48.40049" lon="2.65252">
        <ele>-19.60000038147</ele>
        <time>2022-09-29T13:18:29Z</time>
      </trkpt>
      <trkpt lat="48.40052" lon="2.65249">
        <ele>-19.60000038147</ele>
        <time>2022-09-29T13:18:33Z</time>
      </trkpt>
      <trkpt lat="48.40054" lon="2.65245">
        <ele>-19.799999237061</ele>
        <time>2022-09-29T13:18:37Z</time>
      </trkpt>
      <trkpt lat="48.40056" lon="2.65242">
        <ele>-20.200000762939</ele>
        <time>2022-09-29T13:18:41Z</time>
      </trkpt>
      <trkpt lat="48.40058" lon="2.65236">
        <ele>-20.200000762939</ele>
        <time>2022-09-29T13:18:45Z</time>
      </trkpt>
      <trkpt lat="48.40061" lon="2.6523">
        <ele>-20.39999961853</ele>
        <time>2022-09-29T13:18:49Z</time>
      </trkpt>
      <trkpt lat="48.40063" lon="2.65226">
        <ele>-20.60000038147</ele>
        <time>2022-09-29T13:18:53Z</time>
      </trkpt>
      <trkpt lat="48.40064" lon="2.65221">
        <ele>-20.60000038147</ele>
        <time>2022-09-29T13:18:57Z</time>
      </trkpt>
      <trkpt lat="48.40065" lon="2.65216">
        <ele>-20.60000038147</ele>
        <time>2022-09-29T13:19:01Z</time>
      </trkpt>
      <trkpt lat="48.40065" lon="2.6521">
        <ele>-20.60000038147</ele>
        <time>2022-09-29T13:19:05Z</time>
      </trkpt>
      <trkpt lat="48.40066" lon="2.65203">
        <ele>-20.39999961853</ele>
        <time>2022-09-29T13:19:09Z</time>
      </trkpt>
      <trkpt lat="48.40068" lon="2.65197">
        <ele>-20.39999961853</ele>
        <time>2022-09-29T13:19:13Z</time>
      </trkpt>
      <trkpt lat="48.40068" lon="2.65189">
        <ele>-20.39999961853</ele>
        <time>2022-09-29T13:19:17Z</time>
      </trkpt>
      <trkpt lat="48.40069" lon="2.65183">
        <ele>-20.200000762939</ele>
        <time>2022-09-29T13:19:21Z</time>
      </trkpt>
      <trkpt lat="48.40069" lon="2.65176">
        <ele>-20</ele>
        <time>2022-09-29T13:19:25Z</time>
      </trkpt>
      <trkpt lat="48.40069" lon="2.65169">
        <ele>-19.799999237061</ele>
        <time>2022-09-29T13:19:29Z</time>
      </trkpt>
      <trkpt lat="48.4007" lon="2.65163">
        <ele>-19.799999237061</ele>
        <time>2022-09-29T13:19:33Z</time>
      </trkpt>
      <trkpt lat="48.40071" lon="2.65156">
        <ele>-19.799999237061</ele>
        <time>2022-09-29T13:19:37Z</time>
      </trkpt>
      <trkpt lat="48.40072" lon="2.65152">
        <ele>-19.799999237061</ele>
        <time>2022-09-29T13:19:41Z</time>
      </trkpt>
      <trkpt lat="48.40074" lon="2.65148">
        <ele>-20</ele>
        <time>2022-09-29T13:19:45Z</time>
      </trkpt>
      <trkpt lat="48.40075" lon="2.65144">
        <ele>-20.200000762939</ele>
        <time>2022-09-29T13:19:49Z</time>
      </trkpt>
      <trkpt lat="48.40078" lon="2.65137">
        <ele>-20.39999961853</ele>
        <time>2022-09-29T13:19:53Z</time>
      </trkpt>
      <trkpt lat="48.40079" lon="2.65131">
        <ele>-20.60000038147</ele>
        <time>2022-09-29T13:19:57Z</time>
      </trkpt>
      <trkpt lat="48.4008" lon="2.65123">
        <ele>-20.60000038147</ele>
        <time>2022-09-29T13:20:01Z</time>
      </trkpt>
      <trkpt lat="48.40081" lon="2.65117">
        <ele>-20.39999961853</ele>
        <time>2022-09-29T13:20:05Z</time>
      </trkpt>
      <trkpt lat="48.40083" lon="2.65113">
        <ele>-20.60000038147</ele>
        <time>2022-09-29T13:20:09Z</time>
      </trkpt>
      <trkpt lat="48.40085" lon="2.65108">
        <ele>-20.799999237061</ele>
        <time>2022-09-29T13:20:13Z</time>
      </trkpt>
      <trkpt lat="48.40085" lon="2.65102">
        <ele>-20.799999237061</ele>
        <time>2022-09-29T13:20:17Z</time>
      </trkpt>
      <trkpt lat="48.40086" lon="2.65096">
        <ele>-20.799999237061</ele>
        <time>2022-09-29T13:20:21Z</time>
      </trkpt>
      <trkpt lat="48.40088" lon="2.65089">
        <ele>-20.799999237061</ele>
        <time>2022-09-29T13:20:25Z</time>
      </trkpt>
      <trkpt lat="48.4009" lon="2.65085">
        <ele>-20.799999237061</ele>
        <time>2022-09-29T13:20:29Z</time>
      </trkpt>
      <trkpt lat="48.40092" lon="2.6508">
        <ele>-21</ele>
        <time>2022-09-29T13:20:33Z</time>
      </trkpt>
      <trkpt lat="48.40093" lon="2.65075">
        <ele>-21.200000762939</ele>
        <time>2022-09-29T13:20:37Z</time>
      </trkpt>
      <trkpt lat="48.40094" lon="2.65071">
        <ele>-21.200000762939</ele>
        <time>2022-09-29T13:20:41Z</time>
      </trkpt>
      <trkpt lat="48.40096" lon="2.65066">
        <ele>-21</ele>
        <time>2022-09-29T13:20:45Z</time>
      </trkpt>
      <trkpt lat="48.40099" lon="2.65062">
        <ele>-21</ele>
        <time>2022-09-29T13:20:49Z</time>
      </trkpt>
      <trkpt lat="48.40099" lon="2.65055">
        <ele>-20.799999237061</ele>
        <time>2022-09-29T13:20:53Z</time>
      </trkpt>
      <trkpt lat="48.401" lon="2.6505">
        <ele>-20.60000038147</ele>
        <time>2022-09-29T13:20:57Z</time>
      </trkpt>
      <trkpt lat="48.40101" lon="2.65043">
        <ele>-20.60000038147</ele>
        <time>2022-09-29T13:21:01Z</time>
      </trkpt>
      <trkpt lat="48.401" lon="2.65036">
        <ele>-20.39999961853</ele>
        <time>2022-09-29T13:21:05Z</time>
      </trkpt>
      <trkpt lat="48.401" lon="2.65031">
        <ele>-20.200000762939</ele>
        <time>2022-09-29T13:21:09Z</time>
      </trkpt>
      <trkpt lat="48.40101" lon="2.65025">
        <ele>-20.200000762939</ele>
        <time>2022-09-29T13:21:13Z</time>
      </trkpt>
      <trkpt lat="48.40101" lon="2.65019">
        <ele>-20</ele>
        <time>2022-09-29T13:21:17Z</time>
      </trkpt>
      <trkpt lat="48.40101" lon="2.65014">
        <ele>-19.799999237061</ele>
        <time>2022-09-29T13:21:21Z</time>
      </trkpt>
      <trkpt lat="48.40101" lon="2.65005">
        <ele>-20</ele>
        <time>2022-09-29T13:21:25Z</time>
      </trkpt>
      <trkpt lat="48.401" lon="2.64999">
        <ele>-19.799999237061</ele>
        <time>2022-09-29T13:21:29Z</time>
      </trkpt>
      <trkpt lat="48.40098" lon="2.64991">
        <ele>-19.799999237061</ele>
        <time>2022-09-29T13:21:33Z</time>
      </trkpt>
      <trkpt lat="48.40099" lon="2.64987">
        <ele>-19.799999237061</ele>
        <time>2022-09-29T13:21:37Z</time>
      </trkpt>
      <trkpt lat="48.40098" lon="2.64982">
        <ele>-19.799999237061</ele>
        <time>2022-09-29T13:21:41Z</time>
      </trkpt>
      <trkpt lat="48.40098" lon="2.64976">
        <ele>-19.799999237061</ele>
        <time>2022-09-29T13:21:45Z</time>
      </trkpt>
      <trkpt lat="48.40099" lon="2.64971">
        <ele>-20</ele>
        <time>2022-09-29T13:21:49Z</time>
      </trkpt>
      <trkpt lat="48.40101" lon="2.64966">
        <ele>-19.799999237061</ele>
        <time>2022-09-29T13:21:53Z</time>
      </trkpt>
      <trkpt lat="48.40103" lon="2.6496">
        <ele>-19.799999237061</ele>
        <time>2022-09-29T13:21:57Z</time>
      </trkpt>
      <trkpt lat="48.40105" lon="2.64954">
        <ele>-19.799999237061</ele>
        <time>2022-09-29T13:22:01Z</time>
      </trkpt>
      <trkpt lat="48.40106" lon="2.64949">
        <ele>-19.799999237061</ele>
        <time>2022-09-29T13:22:05Z</time>
      </trkpt>
      <trkpt lat="48.40108" lon="2.64945">
        <ele>-19.799999237061</ele>
        <time>2022-09-29T13:22:09Z</time>
      </trkpt>
      <trkpt lat="48.4011" lon="2.64941">
        <ele>-19.799999237061</ele>
        <time>2022-09-29T13:22:13Z</time>
      </trkpt>
      <trkpt lat="48.40114" lon="2.64938">
        <ele>-20</ele>
        <time>2022-09-29T13:22:17Z</time>
      </trkpt>
      <trkpt lat="48.40117" lon="2.64935">
        <ele>-20.200000762939</ele>
        <time>2022-09-29T13:22:21Z</time>
      </trkpt>
      <trkpt lat="48.40121" lon="2.64933">
        <ele>-20.39999961853</ele>
        <time>2022-09-29T13:22:25Z</time>
      </trkpt>
      <trkpt lat="48.40124" lon="2.64925">
        <ele>-20.60000038147</ele>
        <time>2022-09-29T13:22:29Z</time>
      </trkpt>
      <trkpt lat="48.40128" lon="2.6492">
        <ele>-20.60000038147</ele>
        <time>2022-09-29T13:22:33Z</time>
      </trkpt>
      <trkpt lat="48.4013" lon="2.64916">
        <ele>-20.60000038147</ele>
        <time>2022-09-29T13:22:37Z</time>
      </trkpt>
      <trkpt lat="48.40132" lon="2.64911">
        <ele>-20.39999961853</ele>
        <time>2022-09-29T13:22:41Z</time>
      </trkpt>
      <trkpt lat="48.40133" lon="2.64906">
        <ele>-20.39999961853</ele>
        <time>2022-09-29T13:22:45Z</time>
      </trkpt>
      <trkpt lat="48.40133" lon="2.64901">
        <ele>-20.39999961853</ele>
        <time>2022-09-29T13:22:49Z</time>
      </trkpt>
      <trkpt lat="48.40132" lon="2.64896">
        <ele>-20.39999961853</ele>
        <time>2022-09-29T13:22:53Z</time>
      </trkpt>
      <trkpt lat="48.40132" lon="2.6489">
        <ele>-20</ele>
        <time>2022-09-29T13:22:57Z</time>
      </trkpt>
      <trkpt lat="48.40131" lon="2.64885">
        <ele>-20</ele>
        <time>2022-09-29T13:23:01Z</time>
      </trkpt>
      <trkpt lat="48.4013" lon="2.64876">
        <ele>-20</ele>
        <time>2022-09-29T13:23:05Z</time>
      </trkpt>
      <trkpt lat="48.40127" lon="2.64864">
        <ele>-19.799999237061</ele>
        <time>2022-09-29T13:23:09Z</time>
      </trkpt>
      <trkpt lat="48.40125" lon="2.64857">
        <ele>-20</ele>
        <time>2022-09-29T13:23:13Z</time>
      </trkpt>
      <trkpt lat="48.40124" lon="2.64852">
        <ele>-19.799999237061</ele>
        <time>2022-09-29T13:23:17Z</time>
      </trkpt>
      <trkpt lat="48.40124" lon="2.64847">
        <ele>-19.60000038147</ele>
        <time>2022-09-29T13:23:21Z</time>
      </trkpt>
      <trkpt lat="48.40123" lon="2.64844">
        <ele>-19.60000038147</ele>
        <time>2022-09-29T13:23:25Z</time>
      </trkpt>
      <trkpt lat="48.40124" lon="2.6484">
        <ele>-19.799999237061</ele>
        <time>2022-09-29T13:23:29Z</time>
      </trkpt>
      <trkpt lat="48.40125" lon="2.64835">
        <ele>-20</ele>
        <time>2022-09-29T13:23:33Z</time>
      </trkpt>
      <trkpt lat="48.40127" lon="2.6483">
        <ele>-20</ele>
        <time>2022-09-29T13:23:37Z</time>
      </trkpt>
      <trkpt lat="48.40129" lon="2.64825">
        <ele>-19.799999237061</ele>
        <time>2022-09-29T13:23:41Z</time>
      </trkpt>
      <trkpt lat="48.4013" lon="2.64823">
        <ele>-19.799999237061</ele>
        <time>2022-09-29T13:23:45Z</time>
      </trkpt>
      <trkpt lat="48.40131" lon="2.6482">
        <ele>-19.799999237061</ele>
        <time>2022-09-29T13:23:49Z</time>
      </trkpt>
      <trkpt lat="48.40131" lon="2.64817">
        <ele>-19.799999237061</ele>
        <time>2022-09-29T13:23:53Z</time>
      </trkpt>
      <trkpt lat="48.40133" lon="2.64815">
        <ele>-20</ele>
        <time>2022-09-29T13:23:57Z</time>
      </trkpt>
      <trkpt lat="48.40135" lon="2.64807">
        <ele>-19.799999237061</ele>
        <time>2022-09-29T13:24:01Z</time>
      </trkpt>
      <trkpt lat="48.40137" lon="2.64803">
        <ele>-19.799999237061</ele>
        <time>2022-09-29T13:24:05Z</time>
      </trkpt>
      <trkpt lat="48.40139" lon="2.64796">
        <ele>-19.799999237061</ele>
        <time>2022-09-29T13:24:09Z</time>
      </trkpt>
      <trkpt lat="48.40142" lon="2.64789">
        <ele>-20</ele>
        <time>2022-09-29T13:24:13Z</time>
      </trkpt>
      <trkpt lat="48.40145" lon="2.64786">
        <ele>-20</ele>
        <time>2022-09-29T13:24:17Z</time>
      </trkpt>
      <trkpt lat="48.40147" lon="2.64784">
        <ele>-20</ele>
        <time>2022-09-29T13:24:21Z</time>
      </trkpt>
      <trkpt lat="48.4015" lon="2.6478">
        <ele>-20</ele>
        <time>2022-09-29T13:24:25Z</time>
      </trkpt>
      <trkpt lat="48.40153" lon="2.64776">
        <ele>-19.799999237061</ele>
        <time>2022-09-29T13:24:29Z</time>
      </trkpt>
      <trkpt lat="48.40154" lon="2.64773">
        <ele>-19.799999237061</ele>
        <time>2022-09-29T13:24:33Z</time>
      </trkpt>
      <trkpt lat="48.40157" lon="2.64771">
        <ele>-20</ele>
        <time>2022-09-29T13:24:37Z</time>
      </trkpt>
      <trkpt lat="48.4016" lon="2.64766">
        <ele>-19.799999237061</ele>
        <time>2022-09-29T13:24:41Z</time>
      </trkpt>
      <trkpt lat="48.40162" lon="2.6476">
        <ele>-19.60000038147</ele>
        <time>2022-09-29T13:24:45Z</time>
      </trkpt>
      <trkpt lat="48.40164" lon="2.64756">
        <ele>-19.60000038147</ele>
        <time>2022-09-29T13:24:49Z</time>
      </trkpt>
      <trkpt lat="48.40166" lon="2.6475">
        <ele>-19.60000038147</ele>
        <time>2022-09-29T13:24:53Z</time>
      </trkpt>
      <trkpt lat="48.40166" lon="2.64742">
        <ele>-19.60000038147</ele>
        <time>2022-09-29T13:24:57Z</time>
      </trkpt>
      <trkpt lat="48.40169" lon="2.64735">
        <ele>-19.60000038147</ele>
        <time>2022-09-29T13:25:01Z</time>
      </trkpt>
      <trkpt lat="48.40172" lon="2.64728">
        <ele>-19.799999237061</ele>
        <time>2022-09-29T13:25:05Z</time>
      </trkpt>
      <trkpt lat="48.40174" lon="2.64722">
        <ele>-19.799999237061</ele>
        <time>2022-09-29T13:25:09Z</time>
      </trkpt>
      <trkpt lat="48.40176" lon="2.64717">
        <ele>-20</ele>
        <time>2022-09-29T13:25:13Z</time>
      </trkpt>
      <trkpt lat="48.40177" lon="2.6471">
        <ele>-20</ele>
        <time>2022-09-29T13:25:17Z</time>
      </trkpt>
      <trkpt lat="48.40177" lon="2.64703">
        <ele>-20.200000762939</ele>
        <time>2022-09-29T13:25:21Z</time>
      </trkpt>
      <trkpt lat="48.4018" lon="2.64699">
        <ele>-20.200000762939</ele>
        <time>2022-09-29T13:25:25Z</time>
      </trkpt>
      <trkpt lat="48.40181" lon="2.64685">
        <ele>-20</ele>
        <time>2022-09-29T13:25:29Z</time>
      </trkpt>
      <trkpt lat="48.40181" lon="2.64676">
        <ele>-19.799999237061</ele>
        <time>2022-09-29T13:25:33Z</time>
      </trkpt>
      <trkpt lat="48.40181" lon="2.64671">
        <ele>-19.799999237061</ele>
        <time>2022-09-29T13:25:37Z</time>
      </trkpt>
      <trkpt lat="48.40182" lon="2.64664">
        <ele>-19.799999237061</ele>
        <time>2022-09-29T13:25:41Z</time>
      </trkpt>
      <trkpt lat="48.40183" lon="2.64659">
        <ele>-19.799999237061</ele>
        <time>2022-09-29T13:25:45Z</time>
      </trkpt>
      <trkpt lat="48.40186" lon="2.64656">
        <ele>-20</ele>
        <time>2022-09-29T13:25:49Z</time>
      </trkpt>
      <trkpt lat="48.40187" lon="2.64651">
        <ele>-20</ele>
        <time>2022-09-29T13:25:53Z</time>
      </trkpt>
      <trkpt lat="48.4019" lon="2.64646">
        <ele>-20.200000762939</ele>
        <time>2022-09-29T13:25:57Z</time>
      </trkpt>
      <trkpt lat="48.40193" lon="2.64641">
        <ele>-20.200000762939</ele>
        <time>2022-09-29T13:26:01Z</time>
      </trkpt>
      <trkpt lat="48.40196" lon="2.64637">
        <ele>-20.200000762939</ele>
        <time>2022-09-29T13:26:05Z</time>
      </trkpt>
      <trkpt lat="48.40199" lon="2.64633">
        <ele>-20.200000762939</ele>
        <time>2022-09-29T13:26:09Z</time>
      </trkpt>
      <trkpt lat="48.40201" lon="2.64629">
        <ele>-20.39999961853</ele>
        <time>2022-09-29T13:26:13Z</time>
      </trkpt>
      <trkpt lat="48.40203" lon="2.64624">
        <ele>-20.39999961853</ele>
        <time>2022-09-29T13:26:17Z</time>
      </trkpt>
      <trkpt lat="48.40205" lon="2.64619">
        <ele>-20.39999961853</ele>
        <time>2022-09-29T13:26:21Z</time>
      </trkpt>
      <trkpt lat="48.40207" lon="2.64613">
        <ele>-20.60000038147</ele>
        <time>2022-09-29T13:26:25Z</time>
      </trkpt>
      <trkpt lat="48.40209" lon="2.64609">
        <ele>-20.60000038147</ele>
        <time>2022-09-29T13:26:29Z</time>
      </trkpt>
      <trkpt lat="48.40209" lon="2.64608">
        <ele>-20.60000038147</ele>
        <time>2022-09-29T13:26:33Z</time>
      </trkpt>
      <trkpt lat="48.40209" lon="2.64607">
        <ele>-20.60000038147</ele>
        <time>2022-09-29T13:26:37Z</time>
      </trkpt>
      <trkpt lat="48.4021" lon="2.64606">
        <ele>-20.60000038147</ele>
        <time>2022-09-29T13:26:41Z</time>
      </trkpt>
      <trkpt lat="48.4021" lon="2.64605">
        <ele>-20.60000038147</ele>
        <time>2022-09-29T13:26:49Z</time>
      </trkpt>
      <trkpt lat="48.40211" lon="2.64605">
        <ele>-20.60000038147</ele>
        <time>2022-09-29T13:26:53Z</time>
      </trkpt>
      <trkpt lat="48.40212" lon="2.64603">
        <ele>-20.60000038147</ele>
        <time>2022-09-29T13:26:57Z</time>
      </trkpt>
      <trkpt lat="48.40213" lon="2.64602">
        <ele>-20.60000038147</ele>
        <time>2022-09-29T13:27:01Z</time>
      </trkpt>
      <trkpt lat="48.40213" lon="2.64601">
        <ele>-20.60000038147</ele>
        <time>2022-09-29T13:27:05Z</time>
      </trkpt>
      <trkpt lat="48.40212" lon="2.646">
        <ele>-20.60000038147</ele>
        <time>2022-09-29T13:27:09Z</time>
      </trkpt>
      <trkpt lat="48.40213" lon="2.646">
        <ele>-20.60000038147</ele>
        <time>2022-09-29T13:27:13Z</time>
      </trkpt>
      <trkpt lat="48.40214" lon="2.646">
        <ele>-20.60000038147</ele>
        <time>2022-09-29T13:27:17Z</time>
      </trkpt>
      <trkpt lat="48.40213" lon="2.646">
        <ele>-20.60000038147</ele>
        <time>2022-09-29T13:27:21Z</time>
      </trkpt>
      <trkpt lat="48.40214" lon="2.646">
        <ele>-20.60000038147</ele>
        <time>2022-09-29T13:27:25Z</time>
      </trkpt>
      <trkpt lat="48.40214" lon="2.64599">
        <ele>-20.60000038147</ele>
        <time>2022-09-29T13:27:29Z</time>
      </trkpt>
      <trkpt lat="48.40213" lon="2.64598">
        <ele>-20.60000038147</ele>
        <time>2022-09-29T13:27:33Z</time>
      </trkpt>
      <trkpt lat="48.40213" lon="2.64599">
        <ele>-20.60000038147</ele>
        <time>2022-09-29T13:27:41Z</time>
      </trkpt>
      <trkpt lat="48.40213" lon="2.64601">
        <ele>-20.60000038147</ele>
        <time>2022-09-29T13:27:53Z</time>
      </trkpt>
      <trkpt lat="48.40213" lon="2.64602">
        <ele>-20.60000038147</ele>
        <time>2022-09-29T13:28:01Z</time>
      </trkpt>
      <trkpt lat="48.40214" lon="2.64602">
        <ele>-20.60000038147</ele>
        <time>2022-09-29T13:28:05Z</time>
      </trkpt>
      <trkpt lat="48.40215" lon="2.64603">
        <ele>-20.60000038147</ele>
        <time>2022-09-29T13:28:09Z</time>
      </trkpt>
      <trkpt lat="48.40216" lon="2.64605">
        <ele>-20.60000038147</ele>
        <time>2022-09-29T13:28:13Z</time>
      </trkpt>
      <trkpt lat="48.40215" lon="2.64605">
        <ele>-20.60000038147</ele>
        <time>2022-09-29T13:28:17Z</time>
      </trkpt>
      <trkpt lat="48.40215" lon="2.64606">
        <ele>-20.60000038147</ele>
        <time>2022-09-29T13:28:21Z</time>
      </trkpt>
      <trkpt lat="48.40215" lon="2.64604">
        <ele>-20.60000038147</ele>
        <time>2022-09-29T13:28:25Z</time>
      </trkpt>
      <trkpt lat="48.40215" lon="2.64596">
        <ele>-20.60000038147</ele>
        <time>2022-09-29T13:28:29Z</time>
      </trkpt>
      <trkpt lat="48.40216" lon="2.64592">
        <ele>-20.60000038147</ele>
        <time>2022-09-29T13:28:33Z</time>
      </trkpt>
      <trkpt lat="48.40219" lon="2.64589">
        <ele>-21.200000762939</ele>
        <time>2022-09-29T13:28:37Z</time>
      </trkpt>
      <trkpt lat="48.40221" lon="2.64587">
        <ele>-21.200000762939</ele>
        <time>2022-09-29T13:28:41Z</time>
      </trkpt>
      <trkpt lat="48.40222" lon="2.64584">
        <ele>-21.200000762939</ele>
        <time>2022-09-29T13:28:45Z</time>
      </trkpt>
      <trkpt lat="48.40225" lon="2.64578">
        <ele>-21.200000762939</ele>
        <time>2022-09-29T13:28:49Z</time>
      </trkpt>
      <trkpt lat="48.40227" lon="2.64569">
        <ele>-21.39999961853</ele>
        <time>2022-09-29T13:28:53Z</time>
      </trkpt>
      <trkpt lat="48.40229" lon="2.64561">
        <ele>-21.39999961853</ele>
        <time>2022-09-29T13:28:57Z</time>
      </trkpt>
      <trkpt lat="48.40231" lon="2.64556">
        <ele>-21.39999961853</ele>
        <time>2022-09-29T13:29:01Z</time>
      </trkpt>
      <trkpt lat="48.40233" lon="2.64549">
        <ele>-21.39999961853</ele>
        <time>2022-09-29T13:29:05Z</time>
      </trkpt>
      <trkpt lat="48.40235" lon="2.64542">
        <ele>-21.60000038147</ele>
        <time>2022-09-29T13:29:09Z</time>
      </trkpt>
      <trkpt lat="48.40236" lon="2.64535">
        <ele>-21.60000038147</ele>
        <time>2022-09-29T13:29:13Z</time>
      </trkpt>
      <trkpt lat="48.40237" lon="2.64526">
        <ele>-21.39999961853</ele>
        <time>2022-09-29T13:29:17Z</time>
      </trkpt>
      <trkpt lat="48.40239" lon="2.64522">
        <ele>-21.39999961853</ele>
        <time>2022-09-29T13:29:21Z</time>
      </trkpt>
      <trkpt lat="48.40241" lon="2.64519">
        <ele>-21.39999961853</ele>
        <time>2022-09-29T13:29:25Z</time>
      </trkpt>
      <trkpt lat="48.40241" lon="2.64514">
        <ele>-21.39999961853</ele>
        <time>2022-09-29T13:29:29Z</time>
      </trkpt>
      <trkpt lat="48.40242" lon="2.64507">
        <ele>-21.39999961853</ele>
        <time>2022-09-29T13:29:33Z</time>
      </trkpt>
      <trkpt lat="48.40242" lon="2.64499">
        <ele>-21.39999961853</ele>
        <time>2022-09-29T13:29:37Z</time>
      </trkpt>
      <trkpt lat="48.40243" lon="2.64492">
        <ele>-21.39999961853</ele>
        <time>2022-09-29T13:29:41Z</time>
      </trkpt>
      <trkpt lat="48.40244" lon="2.64487">
        <ele>-21.200000762939</ele>
        <time>2022-09-29T13:29:45Z</time>
      </trkpt>
      <trkpt lat="48.40244" lon="2.64482">
        <ele>-21.200000762939</ele>
        <time>2022-09-29T13:29:49Z</time>
      </trkpt>
      <trkpt lat="48.40244" lon="2.64478">
        <ele>-21</ele>
        <time>2022-09-29T13:29:53Z</time>
      </trkpt>
      <trkpt lat="48.40245" lon="2.64472">
        <ele>-20.799999237061</ele>
        <time>2022-09-29T13:29:57Z</time>
      </trkpt>
      <trkpt lat="48.40246" lon="2.64468">
        <ele>-20.799999237061</ele>
        <time>2022-09-29T13:30:01Z</time>
      </trkpt>
      <trkpt lat="48.40247" lon="2.64462">
        <ele>-21</ele>
        <time>2022-09-29T13:30:05Z</time>
      </trkpt>
      <trkpt lat="48.40247" lon="2.64456">
        <ele>-21.200000762939</ele>
        <time>2022-09-29T13:30:09Z</time>
      </trkpt>
      <trkpt lat="48.40249" lon="2.64449">
        <ele>-21.39999961853</ele>
        <time>2022-09-29T13:30:13Z</time>
      </trkpt>
      <trkpt lat="48.40249" lon="2.64442">
        <ele>-21.39999961853</ele>
        <time>2022-09-29T13:30:17Z</time>
      </trkpt>
      <trkpt lat="48.40249" lon="2.64436">
        <ele>-21.60000038147</ele>
        <time>2022-09-29T13:30:21Z</time>
      </trkpt>
      <trkpt lat="48.4025" lon="2.64428">
        <ele>-21.60000038147</ele>
        <time>2022-09-29T13:30:25Z</time>
      </trkpt>
      <trkpt lat="48.4025" lon="2.64422">
        <ele>-21.60000038147</ele>
        <time>2022-09-29T13:30:29Z</time>
      </trkpt>
      <trkpt lat="48.4025" lon="2.64416">
        <ele>-21.60000038147</ele>
        <time>2022-09-29T13:30:33Z</time>
      </trkpt>
      <trkpt lat="48.40249" lon="2.64412">
        <ele>-21.60000038147</ele>
        <time>2022-09-29T13:30:37Z</time>
      </trkpt>
      <trkpt lat="48.40248" lon="2.64407">
        <ele>-21.60000038147</ele>
        <time>2022-09-29T13:30:41Z</time>
      </trkpt>
      <trkpt lat="48.40249" lon="2.644">
        <ele>-21.60000038147</ele>
        <time>2022-09-29T13:30:45Z</time>
      </trkpt>
      <trkpt lat="48.40248" lon="2.64394">
        <ele>-21.60000038147</ele>
        <time>2022-09-29T13:30:49Z</time>
      </trkpt>
      <trkpt lat="48.40247" lon="2.64389">
        <ele>-21.799999237061</ele>
        <time>2022-09-29T13:30:53Z</time>
      </trkpt>
      <trkpt lat="48.40246" lon="2.64382">
        <ele>-21.799999237061</ele>
        <time>2022-09-29T13:30:57Z</time>
      </trkpt>
      <trkpt lat="48.40245" lon="2.64375">
        <ele>-21.60000038147</ele>
        <time>2022-09-29T13:31:01Z</time>
      </trkpt>
      <trkpt lat="48.40245" lon="2.64369">
        <ele>-21.60000038147</ele>
        <time>2022-09-29T13:31:05Z</time>
      </trkpt>
      <trkpt lat="48.40245" lon="2.64364">
        <ele>-21.60000038147</ele>
        <time>2022-09-29T13:31:09Z</time>
      </trkpt>
      <trkpt lat="48.40247" lon="2.64359">
        <ele>-21.60000038147</ele>
        <time>2022-09-29T13:31:13Z</time>
      </trkpt>
      <trkpt lat="48.40249" lon="2.64354">
        <ele>-21.60000038147</ele>
        <time>2022-09-29T13:31:17Z</time>
      </trkpt>
      <trkpt lat="48.4025" lon="2.64349">
        <ele>-21.60000038147</ele>
        <time>2022-09-29T13:31:21Z</time>
      </trkpt>
      <trkpt lat="48.4025" lon="2.64342">
        <ele>-21.60000038147</ele>
        <time>2022-09-29T13:31:25Z</time>
      </trkpt>
      <trkpt lat="48.40253" lon="2.64336">
        <ele>-21.60000038147</ele>
        <time>2022-09-29T13:31:29Z</time>
      </trkpt>
      <trkpt lat="48.40254" lon="2.64331">
        <ele>-21.60000038147</ele>
        <time>2022-09-29T13:31:33Z</time>
      </trkpt>
      <trkpt lat="48.40256" lon="2.64325">
        <ele>-21.799999237061</ele>
        <time>2022-09-29T13:31:37Z</time>
      </trkpt>
      <trkpt lat="48.40258" lon="2.64319">
        <ele>-21.799999237061</ele>
        <time>2022-09-29T13:31:41Z</time>
      </trkpt>
      <trkpt lat="48.4026" lon="2.64313">
        <ele>-21.799999237061</ele>
        <time>2022-09-29T13:31:45Z</time>
      </trkpt>
      <trkpt lat="48.40261" lon="2.64308">
        <ele>-21.799999237061</ele>
        <time>2022-09-29T13:31:49Z</time>
      </trkpt>
      <trkpt lat="48.40262" lon="2.64302">
        <ele>-21.799999237061</ele>
        <time>2022-09-29T13:31:53Z</time>
      </trkpt>
      <trkpt lat="48.40261" lon="2.64296">
        <ele>-21.799999237061</ele>
        <time>2022-09-29T13:31:57Z</time>
      </trkpt>
      <trkpt lat="48.40262" lon="2.64292">
        <ele>-21.200000762939</ele>
        <time>2022-09-29T13:32:01Z</time>
      </trkpt>
      <trkpt lat="48.40264" lon="2.64289">
        <ele>-20.39999961853</ele>
        <time>2022-09-29T13:32:05Z</time>
      </trkpt>
      <trkpt lat="48.40266" lon="2.64285">
        <ele>-19.799999237061</ele>
        <time>2022-09-29T13:32:09Z</time>
      </trkpt>
      <trkpt lat="48.40268" lon="2.64281">
        <ele>-19.799999237061</ele>
        <time>2022-09-29T13:32:13Z</time>
      </trkpt>
      <trkpt lat="48.40269" lon="2.64276">
        <ele>-20</ele>
        <time>2022-09-29T13:32:17Z</time>
      </trkpt>
      <trkpt lat="48.40271" lon="2.64271">
        <ele>-20.200000762939</ele>
        <time>2022-09-29T13:32:21Z</time>
      </trkpt>
      <trkpt lat="48.40272" lon="2.64266">
        <ele>-20.200000762939</ele>
        <time>2022-09-29T13:32:25Z</time>
      </trkpt>
      <trkpt lat="48.40273" lon="2.64262">
        <ele>-20.200000762939</ele>
        <time>2022-09-29T13:32:29Z</time>
      </trkpt>
      <trkpt lat="48.40275" lon="2.64256">
        <ele>-20</ele>
        <time>2022-09-29T13:32:33Z</time>
      </trkpt>
      <trkpt lat="48.40278" lon="2.64252">
        <ele>-19.60000038147</ele>
        <time>2022-09-29T13:32:37Z</time>
      </trkpt>
      <trkpt lat="48.4028" lon="2.64248">
        <ele>-19.39999961853</ele>
        <time>2022-09-29T13:32:41Z</time>
      </trkpt>
      <trkpt lat="48.40281" lon="2.64242">
        <ele>-19.200000762939</ele>
        <time>2022-09-29T13:32:45Z</time>
      </trkpt>
      <trkpt lat="48.40281" lon="2.64236">
        <ele>-19.60000038147</ele>
        <time>2022-09-29T13:32:49Z</time>
      </trkpt>
      <trkpt lat="48.40282" lon="2.64229">
        <ele>-19.799999237061</ele>
        <time>2022-09-29T13:32:53Z</time>
      </trkpt>
      <trkpt lat="48.40282" lon="2.64225">
        <ele>-20.200000762939</ele>
        <time>2022-09-29T13:32:57Z</time>
      </trkpt>
      <trkpt lat="48.40283" lon="2.64218">
        <ele>-20.60000038147</ele>
        <time>2022-09-29T13:33:01Z</time>
      </trkpt>
      <trkpt lat="48.40283" lon="2.64212">
        <ele>-20.60000038147</ele>
        <time>2022-09-29T13:33:05Z</time>
      </trkpt>
      <trkpt lat="48.40283" lon="2.64205">
        <ele>-20.60000038147</ele>
        <time>2022-09-29T13:33:09Z</time>
      </trkpt>
      <trkpt lat="48.40282" lon="2.64197">
        <ele>-20.60000038147</ele>
        <time>2022-09-29T13:33:13Z</time>
      </trkpt>
      <trkpt lat="48.40281" lon="2.64191">
        <ele>-21</ele>
        <time>2022-09-29T13:33:17Z</time>
      </trkpt>
      <trkpt lat="48.40281" lon="2.64186">
        <ele>-21</ele>
        <time>2022-09-29T13:33:21Z</time>
      </trkpt>
      <trkpt lat="48.40281" lon="2.6418">
        <ele>-21.200000762939</ele>
        <time>2022-09-29T13:33:25Z</time>
      </trkpt>
      <trkpt lat="48.40282" lon="2.64175">
        <ele>-21.200000762939</ele>
        <time>2022-09-29T13:33:29Z</time>
      </trkpt>
      <trkpt lat="48.40283" lon="2.64169">
        <ele>-21.200000762939</ele>
        <time>2022-09-29T13:33:33Z</time>
      </trkpt>
      <trkpt lat="48.40283" lon="2.64162">
        <ele>-21.200000762939</ele>
        <time>2022-09-29T13:33:37Z</time>
      </trkpt>
      <trkpt lat="48.40282" lon="2.64157">
        <ele>-21</ele>
        <time>2022-09-29T13:33:41Z</time>
      </trkpt>
      <trkpt lat="48.4028" lon="2.6415">
        <ele>-21.200000762939</ele>
        <time>2022-09-29T13:33:45Z</time>
      </trkpt>
      <trkpt lat="48.40279" lon="2.64144">
        <ele>-21.200000762939</ele>
        <time>2022-09-29T13:33:49Z</time>
      </trkpt>
      <trkpt lat="48.40279" lon="2.64138">
        <ele>-21.200000762939</ele>
        <time>2022-09-29T13:33:53Z</time>
      </trkpt>
      <trkpt lat="48.40279" lon="2.64133">
        <ele>-21.200000762939</ele>
        <time>2022-09-29T13:33:57Z</time>
      </trkpt>
      <trkpt lat="48.40279" lon="2.64129">
        <ele>-21</ele>
        <time>2022-09-29T13:34:01Z</time>
      </trkpt>
      <trkpt lat="48.40278" lon="2.64123">
        <ele>-21</ele>
        <time>2022-09-29T13:34:05Z</time>
      </trkpt>
      <trkpt lat="48.40278" lon="2.64116">
        <ele>-20.60000038147</ele>
        <time>2022-09-29T13:34:09Z</time>
      </trkpt>
      <trkpt lat="48.40277" lon="2.64109">
        <ele>-20.799999237061</ele>
        <time>2022-09-29T13:34:13Z</time>
      </trkpt>
      <trkpt lat="48.40277" lon="2.64103">
        <ele>-21.200000762939</ele>
        <time>2022-09-29T13:34:17Z</time>
      </trkpt>
      <trkpt lat="48.40278" lon="2.64097">
        <ele>-21.799999237061</ele>
        <time>2022-09-29T13:34:21Z</time>
      </trkpt>
      <trkpt lat="48.4028" lon="2.64092">
        <ele>-21.799999237061</ele>
        <time>2022-09-29T13:34:25Z</time>
      </trkpt>
      <trkpt lat="48.40283" lon="2.64089">
        <ele>-21.60000038147</ele>
        <time>2022-09-29T13:34:29Z</time>
      </trkpt>
      <trkpt lat="48.40285" lon="2.64084">
        <ele>-21.60000038147</ele>
        <time>2022-09-29T13:34:33Z</time>
      </trkpt>
      <trkpt lat="48.40287" lon="2.6408">
        <ele>-21.60000038147</ele>
        <time>2022-09-29T13:34:37Z</time>
      </trkpt>
      <trkpt lat="48.40288" lon="2.64073">
        <ele>-21.799999237061</ele>
        <time>2022-09-29T13:34:41Z</time>
      </trkpt>
      <trkpt lat="48.40288" lon="2.64066">
        <ele>-22</ele>
        <time>2022-09-29T13:34:45Z</time>
      </trkpt>
      <trkpt lat="48.4029" lon="2.6406">
        <ele>-22.200000762939</ele>
        <time>2022-09-29T13:34:49Z</time>
      </trkpt>
      <trkpt lat="48.40292" lon="2.64055">
        <ele>-22.200000762939</ele>
        <time>2022-09-29T13:34:53Z</time>
      </trkpt>
      <trkpt lat="48.40294" lon="2.64049">
        <ele>-22.200000762939</ele>
        <time>2022-09-29T13:34:57Z</time>
      </trkpt>
      <trkpt lat="48.40297" lon="2.64044">
        <ele>-22.200000762939</ele>
        <time>2022-09-29T13:35:01Z</time>
      </trkpt>
      <trkpt lat="48.40299" lon="2.64042">
        <ele>-22</ele>
        <time>2022-09-29T13:35:05Z</time>
      </trkpt>
      <trkpt lat="48.40302" lon="2.64037">
        <ele>-22</ele>
        <time>2022-09-29T13:35:09Z</time>
      </trkpt>
      <trkpt lat="48.40305" lon="2.64032">
        <ele>-22</ele>
        <time>2022-09-29T13:35:13Z</time>
      </trkpt>
      <trkpt lat="48.40308" lon="2.64028">
        <ele>-22</ele>
        <time>2022-09-29T13:35:17Z</time>
      </trkpt>
      <trkpt lat="48.40311" lon="2.64024">
        <ele>-21.60000038147</ele>
        <time>2022-09-29T13:35:21Z</time>
      </trkpt>
      <trkpt lat="48.40312" lon="2.6402">
        <ele>-21</ele>
        <time>2022-09-29T13:35:25Z</time>
      </trkpt>
      <trkpt lat="48.40314" lon="2.64016">
        <ele>-20</ele>
        <time>2022-09-29T13:35:29Z</time>
      </trkpt>
      <trkpt lat="48.40318" lon="2.64011">
        <ele>-19.60000038147</ele>
        <time>2022-09-29T13:35:33Z</time>
      </trkpt>
      <trkpt lat="48.40321" lon="2.64008">
        <ele>-19.200000762939</ele>
        <time>2022-09-29T13:35:37Z</time>
      </trkpt>
      <trkpt lat="48.40324" lon="2.64008">
        <ele>-18.799999237061</ele>
        <time>2022-09-29T13:35:41Z</time>
      </trkpt>
      <trkpt lat="48.40328" lon="2.64008">
        <ele>-18.799999237061</ele>
        <time>2022-09-29T13:35:45Z</time>
      </trkpt>
      <trkpt lat="48.40331" lon="2.64005">
        <ele>-18.60000038147</ele>
        <time>2022-09-29T13:35:49Z</time>
      </trkpt>
      <trkpt lat="48.40334" lon="2.64005">
        <ele>-19</ele>
        <time>2022-09-29T13:35:53Z</time>
      </trkpt>
      <trkpt lat="48.40337" lon="2.64002">
        <ele>-19.799999237061</ele>
        <time>2022-09-29T13:35:57Z</time>
      </trkpt>
      <trkpt lat="48.4034" lon="2.63998">
        <ele>-20</ele>
        <time>2022-09-29T13:36:01Z</time>
      </trkpt>
      <trkpt lat="48.40343" lon="2.63992">
        <ele>-20</ele>
        <time>2022-09-29T13:36:05Z</time>
      </trkpt>
      <trkpt lat="48.40345" lon="2.63988">
        <ele>-20</ele>
        <time>2022-09-29T13:36:09Z</time>
      </trkpt>
      <trkpt lat="48.40348" lon="2.63984">
        <ele>-20.39999961853</ele>
        <time>2022-09-29T13:36:13Z</time>
      </trkpt>
      <trkpt lat="48.40352" lon="2.63982">
        <ele>-21</ele>
        <time>2022-09-29T13:36:17Z</time>
      </trkpt>
      <trkpt lat="48.40355" lon="2.63977">
        <ele>-21.200000762939</ele>
        <time>2022-09-29T13:36:21Z</time>
      </trkpt>
      <trkpt lat="48.40355" lon="2.63971">
        <ele>-20.799999237061</ele>
        <time>2022-09-29T13:36:25Z</time>
      </trkpt>
      <trkpt lat="48.40354" lon="2.63967">
        <ele>-20.200000762939</ele>
        <time>2022-09-29T13:36:29Z</time>
      </trkpt>
      <trkpt lat="48.40354" lon="2.63961">
        <ele>-19.60000038147</ele>
        <time>2022-09-29T13:36:33Z</time>
      </trkpt>
      <trkpt lat="48.40354" lon="2.63956">
        <ele>-19</ele>
        <time>2022-09-29T13:36:37Z</time>
      </trkpt>
      <trkpt lat="48.40356" lon="2.63952">
        <ele>-18.200000762939</ele>
        <time>2022-09-29T13:36:41Z</time>
      </trkpt>
      <trkpt lat="48.40358" lon="2.6395">
        <ele>-17.60000038147</ele>
        <time>2022-09-29T13:36:45Z</time>
      </trkpt>
      <trkpt lat="48.40359" lon="2.63947">
        <ele>-17.200000762939</ele>
        <time>2022-09-29T13:36:49Z</time>
      </trkpt>
      <trkpt lat="48.4036" lon="2.63942">
        <ele>-17</ele>
        <time>2022-09-29T13:36:53Z</time>
      </trkpt>
      <trkpt lat="48.40361" lon="2.6394">
        <ele>-16.60000038147</ele>
        <time>2022-09-29T13:36:57Z</time>
      </trkpt>
      <trkpt lat="48.40361" lon="2.63937">
        <ele>-16.60000038147</ele>
        <time>2022-09-29T13:37:01Z</time>
      </trkpt>
      <trkpt lat="48.4036" lon="2.63933">
        <ele>-16.39999961853</ele>
        <time>2022-09-29T13:37:05Z</time>
      </trkpt>
      <trkpt lat="48.4036" lon="2.63929">
        <ele>-16.39999961853</ele>
        <time>2022-09-29T13:37:09Z</time>
      </trkpt>
      <trkpt lat="48.40361" lon="2.63926">
        <ele>-16.200000762939</ele>
        <time>2022-09-29T13:37:13Z</time>
      </trkpt>
      <trkpt lat="48.40361" lon="2.63921">
        <ele>-16</ele>
        <time>2022-09-29T13:37:17Z</time>
      </trkpt>
      <trkpt lat="48.4036" lon="2.63916">
        <ele>-15.800000190735</ele>
        <time>2022-09-29T13:37:21Z</time>
      </trkpt>
      <trkpt lat="48.4036" lon="2.63913">
        <ele>-15.800000190735</ele>
        <time>2022-09-29T13:37:25Z</time>
      </trkpt>
      <trkpt lat="48.40361" lon="2.63909">
        <ele>-15.60000038147</ele>
        <time>2022-09-29T13:37:29Z</time>
      </trkpt>
      <trkpt lat="48.40362" lon="2.63906">
        <ele>-15.39999961853</ele>
        <time>2022-09-29T13:37:33Z</time>
      </trkpt>
      <trkpt lat="48.40364" lon="2.63901">
        <ele>-15.199999809265</ele>
        <time>2022-09-29T13:37:37Z</time>
      </trkpt>
      <trkpt lat="48.40365" lon="2.63896">
        <ele>-15.199999809265</ele>
        <time>2022-09-29T13:37:41Z</time>
      </trkpt>
      <trkpt lat="48.40367" lon="2.63891">
        <ele>-15</ele>
        <time>2022-09-29T13:37:45Z</time>
      </trkpt>
      <trkpt lat="48.40368" lon="2.63884">
        <ele>-15</ele>
        <time>2022-09-29T13:37:49Z</time>
      </trkpt>
      <trkpt lat="48.4037" lon="2.63878">
        <ele>-15.199999809265</ele>
        <time>2022-09-29T13:37:53Z</time>
      </trkpt>
      <trkpt lat="48.40373" lon="2.63873">
        <ele>-15.39999961853</ele>
        <time>2022-09-29T13:37:57Z</time>
      </trkpt>
      <trkpt lat="48.40377" lon="2.63869">
        <ele>-15.39999961853</ele>
        <time>2022-09-29T13:38:01Z</time>
      </trkpt>
      <trkpt lat="48.40381" lon="2.63865">
        <ele>-15.39999961853</ele>
        <time>2022-09-29T13:38:05Z</time>
      </trkpt>
      <trkpt lat="48.40383" lon="2.63862">
        <ele>-15.199999809265</ele>
        <time>2022-09-29T13:38:09Z</time>
      </trkpt>
      <trkpt lat="48.40386" lon="2.63859">
        <ele>-15.199999809265</ele>
        <time>2022-09-29T13:38:13Z</time>
      </trkpt>
      <trkpt lat="48.40389" lon="2.63855">
        <ele>-15.199999809265</ele>
        <time>2022-09-29T13:38:17Z</time>
      </trkpt>
      <trkpt lat="48.40391" lon="2.63853">
        <ele>-15.199999809265</ele>
        <time>2022-09-29T13:38:21Z</time>
      </trkpt>
      <trkpt lat="48.40393" lon="2.6385">
        <ele>-15.199999809265</ele>
        <time>2022-09-29T13:38:25Z</time>
      </trkpt>
      <trkpt lat="48.40395" lon="2.63846">
        <ele>-15.39999961853</ele>
        <time>2022-09-29T13:38:29Z</time>
      </trkpt>
      <trkpt lat="48.40397" lon="2.63844">
        <ele>-15.39999961853</ele>
        <time>2022-09-29T13:38:33Z</time>
      </trkpt>
      <trkpt lat="48.40398" lon="2.63842">
        <ele>-15.39999961853</ele>
        <time>2022-09-29T13:38:37Z</time>
      </trkpt>
      <trkpt lat="48.404" lon="2.63843">
        <ele>-15.60000038147</ele>
        <time>2022-09-29T13:38:41Z</time>
      </trkpt>
      <trkpt lat="48.40403" lon="2.63847">
        <ele>-15.60000038147</ele>
        <time>2022-09-29T13:38:45Z</time>
      </trkpt>
      <trkpt lat="48.40405" lon="2.6385">
        <ele>-15.60000038147</ele>
        <time>2022-09-29T13:38:49Z</time>
      </trkpt>
      <trkpt lat="48.40407" lon="2.63851">
        <ele>-15.39999961853</ele>
        <time>2022-09-29T13:38:53Z</time>
      </trkpt>
      <trkpt lat="48.40409" lon="2.63849">
        <ele>-15.39999961853</ele>
        <time>2022-09-29T13:38:57Z</time>
      </trkpt>
      <trkpt lat="48.4041" lon="2.63849">
        <ele>-15.39999961853</ele>
        <time>2022-09-29T13:39:01Z</time>
      </trkpt>
      <trkpt lat="48.40411" lon="2.63848">
        <ele>-15.39999961853</ele>
        <time>2022-09-29T13:39:05Z</time>
      </trkpt>
      <trkpt lat="48.4041" lon="2.63847">
        <ele>-15.39999961853</ele>
        <time>2022-09-29T13:39:09Z</time>
      </trkpt>
      <trkpt lat="48.40412" lon="2.63847">
        <ele>-15.39999961853</ele>
        <time>2022-09-29T13:39:17Z</time>
      </trkpt>
      <trkpt lat="48.40414" lon="2.63845">
        <ele>-15.39999961853</ele>
        <time>2022-09-29T13:39:21Z</time>
      </trkpt>
      <trkpt lat="48.40417" lon="2.63841">
        <ele>-15.39999961853</ele>
        <time>2022-09-29T13:39:25Z</time>
      </trkpt>
      <trkpt lat="48.40418" lon="2.63838">
        <ele>-15.39999961853</ele>
        <time>2022-09-29T13:39:29Z</time>
      </trkpt>
      <trkpt lat="48.40419" lon="2.63835">
        <ele>-15.39999961853</ele>
        <time>2022-09-29T13:39:33Z</time>
      </trkpt>
      <trkpt lat="48.4042" lon="2.63832">
        <ele>-15.39999961853</ele>
        <time>2022-09-29T13:39:37Z</time>
      </trkpt>
      <trkpt lat="48.40421" lon="2.63829">
        <ele>-15.39999961853</ele>
        <time>2022-09-29T13:39:41Z</time>
      </trkpt>
      <trkpt lat="48.40422" lon="2.63828">
        <ele>-15.39999961853</ele>
        <time>2022-09-29T13:39:45Z</time>
      </trkpt>
      <trkpt lat="48.40422" lon="2.63827">
        <ele>-15.39999961853</ele>
        <time>2022-09-29T13:39:49Z</time>
      </trkpt>
      <trkpt lat="48.40422" lon="2.63828">
        <ele>-15.39999961853</ele>
        <time>2022-09-29T13:39:53Z</time>
      </trkpt>
      <trkpt lat="48.40423" lon="2.63827">
        <ele>-15.39999961853</ele>
        <time>2022-09-29T13:40:01Z</time>
      </trkpt>
      <trkpt lat="48.40424" lon="2.63828">
        <ele>-15.39999961853</ele>
        <time>2022-09-29T13:40:05Z</time>
      </trkpt>
      <trkpt lat="48.40425" lon="2.63828">
        <ele>-15.39999961853</ele>
        <time>2022-09-29T13:40:09Z</time>
      </trkpt>
      <trkpt lat="48.40427" lon="2.63826">
        <ele>-15.39999961853</ele>
        <time>2022-09-29T13:40:13Z</time>
      </trkpt>
      <trkpt lat="48.40428" lon="2.63821">
        <ele>-15.39999961853</ele>
        <time>2022-09-29T13:40:17Z</time>
      </trkpt>
      <trkpt lat="48.40429" lon="2.63816">
        <ele>-16</ele>
        <time>2022-09-29T13:40:21Z</time>
      </trkpt>
      <trkpt lat="48.40428" lon="2.6381">
        <ele>-16.200000762939</ele>
        <time>2022-09-29T13:40:25Z</time>
      </trkpt>
      <trkpt lat="48.40429" lon="2.63804">
        <ele>-16</ele>
        <time>2022-09-29T13:40:29Z</time>
      </trkpt>
      <trkpt lat="48.40426" lon="2.63799">
        <ele>-15.800000190735</ele>
        <time>2022-09-29T13:40:33Z</time>
      </trkpt>
      <trkpt lat="48.40426" lon="2.63794">
        <ele>-15.60000038147</ele>
        <time>2022-09-29T13:40:37Z</time>
      </trkpt>
      <trkpt lat="48.40427" lon="2.63789">
        <ele>-15.800000190735</ele>
        <time>2022-09-29T13:40:41Z</time>
      </trkpt>
      <trkpt lat="48.40427" lon="2.63782">
        <ele>-16</ele>
        <time>2022-09-29T13:40:45Z</time>
      </trkpt>
      <trkpt lat="48.40427" lon="2.63776">
        <ele>-16</ele>
        <time>2022-09-29T13:40:49Z</time>
      </trkpt>
      <trkpt lat="48.40425" lon="2.63769">
        <ele>-16</ele>
        <time>2022-09-29T13:40:53Z</time>
      </trkpt>
      <trkpt lat="48.40425" lon="2.63764">
        <ele>-16</ele>
        <time>2022-09-29T13:40:57Z</time>
      </trkpt>
      <trkpt lat="48.40426" lon="2.63759">
        <ele>-16</ele>
        <time>2022-09-29T13:41:01Z</time>
      </trkpt>
      <trkpt lat="48.40427" lon="2.63755">
        <ele>-16</ele>
        <time>2022-09-29T13:41:05Z</time>
      </trkpt>
      <trkpt lat="48.40427" lon="2.63749">
        <ele>-16</ele>
        <time>2022-09-29T13:41:09Z</time>
      </trkpt>
      <trkpt lat="48.40427" lon="2.63744">
        <ele>-16</ele>
        <time>2022-09-29T13:41:13Z</time>
      </trkpt>
      <trkpt lat="48.40429" lon="2.63738">
        <ele>-16</ele>
        <time>2022-09-29T13:41:17Z</time>
      </trkpt>
      <trkpt lat="48.4043" lon="2.63732">
        <ele>-16</ele>
        <time>2022-09-29T13:41:21Z</time>
      </trkpt>
      <trkpt lat="48.40431" lon="2.63725">
        <ele>-16</ele>
        <time>2022-09-29T13:41:25Z</time>
      </trkpt>
      <trkpt lat="48.40432" lon="2.6372">
        <ele>-16</ele>
        <time>2022-09-29T13:41:29Z</time>
      </trkpt>
      <trkpt lat="48.40434" lon="2.63714">
        <ele>-16</ele>
        <time>2022-09-29T13:41:33Z</time>
      </trkpt>
      <trkpt lat="48.40435" lon="2.63709">
        <ele>-16</ele>
        <time>2022-09-29T13:41:37Z</time>
      </trkpt>
      <trkpt lat="48.40437" lon="2.63704">
        <ele>-16</ele>
        <time>2022-09-29T13:41:41Z</time>
      </trkpt>
      <trkpt lat="48.40439" lon="2.63698">
        <ele>-16.200000762939</ele>
        <time>2022-09-29T13:41:45Z</time>
      </trkpt>
      <trkpt lat="48.4044" lon="2.63691">
        <ele>-16.200000762939</ele>
        <time>2022-09-29T13:41:49Z</time>
      </trkpt>
      <trkpt lat="48.40441" lon="2.63686">
        <ele>-16.200000762939</ele>
        <time>2022-09-29T13:41:53Z</time>
      </trkpt>
      <trkpt lat="48.40441" lon="2.63683">
        <ele>-16.200000762939</ele>
        <time>2022-09-29T13:41:57Z</time>
      </trkpt>
      <trkpt lat="48.40442" lon="2.63676">
        <ele>-16.200000762939</ele>
        <time>2022-09-29T13:42:01Z</time>
      </trkpt>
      <trkpt lat="48.40443" lon="2.63669">
        <ele>-16.200000762939</ele>
        <time>2022-09-29T13:42:05Z</time>
      </trkpt>
      <trkpt lat="48.40443" lon="2.63663">
        <ele>-16.200000762939</ele>
        <time>2022-09-29T13:42:09Z</time>
      </trkpt>
      <trkpt lat="48.40444" lon="2.63655">
        <ele>-16.200000762939</ele>
        <time>2022-09-29T13:42:13Z</time>
      </trkpt>
      <trkpt lat="48.40445" lon="2.63648">
        <ele>-16.60000038147</ele>
        <time>2022-09-29T13:42:17Z</time>
      </trkpt>
      <trkpt lat="48.40446" lon="2.63642">
        <ele>-16.60000038147</ele>
        <time>2022-09-29T13:42:21Z</time>
      </trkpt>
      <trkpt lat="48.40446" lon="2.63636">
        <ele>-16.60000038147</ele>
        <time>2022-09-29T13:42:25Z</time>
      </trkpt>
      <trkpt lat="48.40447" lon="2.63629">
        <ele>-16.60000038147</ele>
        <time>2022-09-29T13:42:29Z</time>
      </trkpt>
      <trkpt lat="48.40449" lon="2.63622">
        <ele>-16.60000038147</ele>
        <time>2022-09-29T13:42:33Z</time>
      </trkpt>
      <trkpt lat="48.4045" lon="2.63614">
        <ele>-16.60000038147</ele>
        <time>2022-09-29T13:42:37Z</time>
      </trkpt>
      <trkpt lat="48.40452" lon="2.63607">
        <ele>-16.60000038147</ele>
        <time>2022-09-29T13:42:41Z</time>
      </trkpt>
      <trkpt lat="48.40452" lon="2.63601">
        <ele>-16.60000038147</ele>
        <time>2022-09-29T13:42:45Z</time>
      </trkpt>
      <trkpt lat="48.40455" lon="2.63595">
        <ele>-16.60000038147</ele>
        <time>2022-09-29T13:42:49Z</time>
      </trkpt>
      <trkpt lat="48.40457" lon="2.63589">
        <ele>-16.60000038147</ele>
        <time>2022-09-29T13:42:53Z</time>
      </trkpt>
      <trkpt lat="48.40458" lon="2.63582">
        <ele>-16.799999237061</ele>
        <time>2022-09-29T13:42:57Z</time>
      </trkpt>
      <trkpt lat="48.40458" lon="2.63575">
        <ele>-16.799999237061</ele>
        <time>2022-09-29T13:43:01Z</time>
      </trkpt>
      <trkpt lat="48.40459" lon="2.63569">
        <ele>-17</ele>
        <time>2022-09-29T13:43:05Z</time>
      </trkpt>
      <trkpt lat="48.40459" lon="2.63563">
        <ele>-17</ele>
        <time>2022-09-29T13:43:09Z</time>
      </trkpt>
      <trkpt lat="48.40458" lon="2.63556">
        <ele>-17</ele>
        <time>2022-09-29T13:43:13Z</time>
      </trkpt>
      <trkpt lat="48.40459" lon="2.63548">
        <ele>-17</ele>
        <time>2022-09-29T13:43:17Z</time>
      </trkpt>
      <trkpt lat="48.4046" lon="2.63542">
        <ele>-17</ele>
        <time>2022-09-29T13:43:21Z</time>
      </trkpt>
      <trkpt lat="48.40462" lon="2.63536">
        <ele>-17</ele>
        <time>2022-09-29T13:43:25Z</time>
      </trkpt>
      <trkpt lat="48.40462" lon="2.63531">
        <ele>-17</ele>
        <time>2022-09-29T13:43:29Z</time>
      </trkpt>
      <trkpt lat="48.40463" lon="2.63525">
        <ele>-17.200000762939</ele>
        <time>2022-09-29T13:43:33Z</time>
      </trkpt>
      <trkpt lat="48.40464" lon="2.63519">
        <ele>-17.200000762939</ele>
        <time>2022-09-29T13:43:37Z</time>
      </trkpt>
      <trkpt lat="48.40464" lon="2.63514">
        <ele>-17</ele>
        <time>2022-09-29T13:43:41Z</time>
      </trkpt>
      <trkpt lat="48.40464" lon="2.63507">
        <ele>-17</ele>
        <time>2022-09-29T13:43:45Z</time>
      </trkpt>
      <trkpt lat="48.40464" lon="2.63501">
        <ele>-17.200000762939</ele>
        <time>2022-09-29T13:43:49Z</time>
      </trkpt>
      <trkpt lat="48.40466" lon="2.63493">
        <ele>-17.200000762939</ele>
        <time>2022-09-29T13:43:53Z</time>
      </trkpt>
      <trkpt lat="48.40468" lon="2.63486">
        <ele>-17.200000762939</ele>
        <time>2022-09-29T13:43:57Z</time>
      </trkpt>
      <trkpt lat="48.40469" lon="2.63481">
        <ele>-17.39999961853</ele>
        <time>2022-09-29T13:44:01Z</time>
      </trkpt>
      <trkpt lat="48.4047" lon="2.63473">
        <ele>-17.39999961853</ele>
        <time>2022-09-29T13:44:05Z</time>
      </trkpt>
      <trkpt lat="48.4047" lon="2.63469">
        <ele>-17.60000038147</ele>
        <time>2022-09-29T13:44:09Z</time>
      </trkpt>
      <trkpt lat="48.4047" lon="2.63463">
        <ele>-17.60000038147</ele>
        <time>2022-09-29T13:44:13Z</time>
      </trkpt>
      <trkpt lat="48.40472" lon="2.63457">
        <ele>-17.39999961853</ele>
        <time>2022-09-29T13:44:17Z</time>
      </trkpt>
      <trkpt lat="48.40474" lon="2.63456">
        <ele>-17.39999961853</ele>
        <time>2022-09-29T13:44:21Z</time>
      </trkpt>
      <trkpt lat="48.40478" lon="2.63457">
        <ele>-17.60000038147</ele>
        <time>2022-09-29T13:44:25Z</time>
      </trkpt>
      <trkpt lat="48.4048" lon="2.63459">
        <ele>-17.799999237061</ele>
        <time>2022-09-29T13:44:29Z</time>
      </trkpt>
      <trkpt lat="48.40483" lon="2.63462">
        <ele>-18</ele>
        <time>2022-09-29T13:44:33Z</time>
      </trkpt>
      <trkpt lat="48.40485" lon="2.63465">
        <ele>-18</ele>
        <time>2022-09-29T13:44:37Z</time>
      </trkpt>
      <trkpt lat="48.40488" lon="2.63469">
        <ele>-18</ele>
        <time>2022-09-29T13:44:41Z</time>
      </trkpt>
      <trkpt lat="48.40491" lon="2.63472">
        <ele>-18</ele>
        <time>2022-09-29T13:44:45Z</time>
      </trkpt>
      <trkpt lat="48.40494" lon="2.63475">
        <ele>-18</ele>
        <time>2022-09-29T13:44:49Z</time>
      </trkpt>
      <trkpt lat="48.40497" lon="2.63479">
        <ele>-17.799999237061</ele>
        <time>2022-09-29T13:44:53Z</time>
      </trkpt>
      <trkpt lat="48.40501" lon="2.63482">
        <ele>-17.60000038147</ele>
        <time>2022-09-29T13:44:57Z</time>
      </trkpt>
      <trkpt lat="48.40506" lon="2.63483">
        <ele>-17.39999961853</ele>
        <time>2022-09-29T13:45:01Z</time>
      </trkpt>
      <trkpt lat="48.4051" lon="2.6348">
        <ele>-17.200000762939</ele>
        <time>2022-09-29T13:45:05Z</time>
      </trkpt>
      <trkpt lat="48.40514" lon="2.63476">
        <ele>-17</ele>
        <time>2022-09-29T13:45:09Z</time>
      </trkpt>
      <trkpt lat="48.40518" lon="2.63473">
        <ele>-17</ele>
        <time>2022-09-29T13:45:13Z</time>
      </trkpt>
      <trkpt lat="48.40522" lon="2.63471">
        <ele>-16.799999237061</ele>
        <time>2022-09-29T13:45:17Z</time>
      </trkpt>
      <trkpt lat="48.40525" lon="2.63469">
        <ele>-16.799999237061</ele>
        <time>2022-09-29T13:45:21Z</time>
      </trkpt>
      <trkpt lat="48.40531" lon="2.63466">
        <ele>-16.60000038147</ele>
        <time>2022-09-29T13:45:25Z</time>
      </trkpt>
      <trkpt lat="48.40535" lon="2.63462">
        <ele>-16.39999961853</ele>
        <time>2022-09-29T13:45:29Z</time>
      </trkpt>
      <trkpt lat="48.40537" lon="2.63457">
        <ele>-16.200000762939</ele>
        <time>2022-09-29T13:45:33Z</time>
      </trkpt>
      <trkpt lat="48.40539" lon="2.63453">
        <ele>-16.200000762939</ele>
        <time>2022-09-29T13:45:37Z</time>
      </trkpt>
      <trkpt lat="48.4054" lon="2.63448">
        <ele>-16.200000762939</ele>
        <time>2022-09-29T13:45:41Z</time>
      </trkpt>
      <trkpt lat="48.40543" lon="2.63444">
        <ele>-16</ele>
        <time>2022-09-29T13:45:45Z</time>
      </trkpt>
      <trkpt lat="48.40545" lon="2.63439">
        <ele>-16</ele>
        <time>2022-09-29T13:45:49Z</time>
      </trkpt>
      <trkpt lat="48.40548" lon="2.63435">
        <ele>-16</ele>
        <time>2022-09-29T13:45:53Z</time>
      </trkpt>
      <trkpt lat="48.40549" lon="2.63431">
        <ele>-16.200000762939</ele>
        <time>2022-09-29T13:45:57Z</time>
      </trkpt>
      <trkpt lat="48.40551" lon="2.6343">
        <ele>-16.200000762939</ele>
        <time>2022-09-29T13:46:01Z</time>
      </trkpt>
      <trkpt lat="48.40554" lon="2.63426">
        <ele>-16.39999961853</ele>
        <time>2022-09-29T13:46:05Z</time>
      </trkpt>
      <trkpt lat="48.40556" lon="2.63422">
        <ele>-16.39999961853</ele>
        <time>2022-09-29T13:46:09Z</time>
      </trkpt>
      <trkpt lat="48.40557" lon="2.63419">
        <ele>-16.60000038147</ele>
        <time>2022-09-29T13:46:13Z</time>
      </trkpt>
      <trkpt lat="48.40557" lon="2.63418">
        <ele>-16.60000038147</ele>
        <time>2022-09-29T13:46:17Z</time>
      </trkpt>
      <trkpt lat="48.40558" lon="2.63416">
        <ele>-16.60000038147</ele>
        <time>2022-09-29T13:46:21Z</time>
      </trkpt>
      <trkpt lat="48.4056" lon="2.63413">
        <ele>-16.39999961853</ele>
        <time>2022-09-29T13:46:25Z</time>
      </trkpt>
      <trkpt lat="48.40562" lon="2.63409">
        <ele>-16.39999961853</ele>
        <time>2022-09-29T13:46:29Z</time>
      </trkpt>
      <trkpt lat="48.40563" lon="2.63404">
        <ele>-16.39999961853</ele>
        <time>2022-09-29T13:46:33Z</time>
      </trkpt>
      <trkpt lat="48.40564" lon="2.634">
        <ele>-16.39999961853</ele>
        <time>2022-09-29T13:46:37Z</time>
      </trkpt>
      <trkpt lat="48.40565" lon="2.63396">
        <ele>-16.39999961853</ele>
        <time>2022-09-29T13:46:41Z</time>
      </trkpt>
      <trkpt lat="48.40566" lon="2.63394">
        <ele>-16.200000762939</ele>
        <time>2022-09-29T13:46:45Z</time>
      </trkpt>
      <trkpt lat="48.40566" lon="2.63389">
        <ele>-16</ele>
        <time>2022-09-29T13:46:49Z</time>
      </trkpt>
      <trkpt lat="48.40568" lon="2.63385">
        <ele>-16.200000762939</ele>
        <time>2022-09-29T13:46:53Z</time>
      </trkpt>
      <trkpt lat="48.4057" lon="2.63383">
        <ele>-16.39999961853</ele>
        <time>2022-09-29T13:46:57Z</time>
      </trkpt>
      <trkpt lat="48.40572" lon="2.6338">
        <ele>-16.39999961853</ele>
        <time>2022-09-29T13:47:01Z</time>
      </trkpt>
      <trkpt lat="48.40574" lon="2.63377">
        <ele>-16.39999961853</ele>
        <time>2022-09-29T13:47:05Z</time>
      </trkpt>
      <trkpt lat="48.40574" lon="2.63378">
        <ele>-16.60000038147</ele>
        <time>2022-09-29T13:47:09Z</time>
      </trkpt>
      <trkpt lat="48.40575" lon="2.63377">
        <ele>-16.60000038147</ele>
        <time>2022-09-29T13:47:25Z</time>
      </trkpt>
      <trkpt lat="48.40578" lon="2.63375">
        <ele>-16.60000038147</ele>
        <time>2022-09-29T13:47:29Z</time>
      </trkpt>
      <trkpt lat="48.4058" lon="2.63371">
        <ele>-16.60000038147</ele>
        <time>2022-09-29T13:47:33Z</time>
      </trkpt>
      <trkpt lat="48.40583" lon="2.63366">
        <ele>-16.39999961853</ele>
        <time>2022-09-29T13:47:37Z</time>
      </trkpt>
      <trkpt lat="48.40585" lon="2.63363">
        <ele>-15.800000190735</ele>
        <time>2022-09-29T13:47:41Z</time>
      </trkpt>
      <trkpt lat="48.40586" lon="2.63364">
        <ele>-15.60000038147</ele>
        <time>2022-09-29T13:47:45Z</time>
      </trkpt>
      <trkpt lat="48.40588" lon="2.63365">
        <ele>-15.60000038147</ele>
        <time>2022-09-29T13:47:49Z</time>
      </trkpt>
      <trkpt lat="48.4059" lon="2.63367">
        <ele>-15.60000038147</ele>
        <time>2022-09-29T13:47:53Z</time>
      </trkpt>
      <trkpt lat="48.40591" lon="2.63371">
        <ele>-16</ele>
        <time>2022-09-29T13:47:57Z</time>
      </trkpt>
      <trkpt lat="48.40592" lon="2.63372">
        <ele>-16.200000762939</ele>
        <time>2022-09-29T13:48:01Z</time>
      </trkpt>
      <trkpt lat="48.40595" lon="2.63375">
        <ele>-16.39999961853</ele>
        <time>2022-09-29T13:48:05Z</time>
      </trkpt>
      <trkpt lat="48.40597" lon="2.63377">
        <ele>-16.60000038147</ele>
        <time>2022-09-29T13:48:09Z</time>
      </trkpt>
      <trkpt lat="48.40598" lon="2.63379">
        <ele>-16.60000038147</ele>
        <time>2022-09-29T13:48:13Z</time>
      </trkpt>
      <trkpt lat="48.40599" lon="2.63381">
        <ele>-16.39999961853</ele>
        <time>2022-09-29T13:48:17Z</time>
      </trkpt>
      <trkpt lat="48.406" lon="2.63381">
        <ele>-16.39999961853</ele>
        <time>2022-09-29T13:48:21Z</time>
      </trkpt>
      <trkpt lat="48.40603" lon="2.63386">
        <ele>-16.200000762939</ele>
        <time>2022-09-29T13:48:25Z</time>
      </trkpt>
      <trkpt lat="48.40605" lon="2.63394">
        <ele>-16.200000762939</ele>
        <time>2022-09-29T13:48:29Z</time>
      </trkpt>
      <trkpt lat="48.40606" lon="2.63398">
        <ele>-16.60000038147</ele>
        <time>2022-09-29T13:48:33Z</time>
      </trkpt>
      <trkpt lat="48.40606" lon="2.63399">
        <ele>-16.799999237061</ele>
        <time>2022-09-29T13:48:37Z</time>
      </trkpt>
      <trkpt lat="48.40605" lon="2.63405">
        <ele>-16.799999237061</ele>
        <time>2022-09-29T13:48:41Z</time>
      </trkpt>
      <trkpt lat="48.40604" lon="2.63407">
        <ele>-16.60000038147</ele>
        <time>2022-09-29T13:48:45Z</time>
      </trkpt>
      <trkpt lat="48.40602" lon="2.6341">
        <ele>-16.39999961853</ele>
        <time>2022-09-29T13:48:49Z</time>
      </trkpt>
      <trkpt lat="48.40602" lon="2.63413">
        <ele>-16.39999961853</ele>
        <time>2022-09-29T13:48:53Z</time>
      </trkpt>
      <trkpt lat="48.40602" lon="2.63414">
        <ele>-16.39999961853</ele>
        <time>2022-09-29T13:48:57Z</time>
      </trkpt>
      <trkpt lat="48.40601" lon="2.63415">
        <ele>-16.39999961853</ele>
        <time>2022-09-29T13:49:01Z</time>
      </trkpt>
      <trkpt lat="48.40599" lon="2.63422">
        <ele>-16.60000038147</ele>
        <time>2022-09-29T13:49:05Z</time>
      </trkpt>
      <trkpt lat="48.40599" lon="2.63424">
        <ele>-16.60000038147</ele>
        <time>2022-09-29T13:49:09Z</time>
      </trkpt>
      <trkpt lat="48.40598" lon="2.63426">
        <ele>-16.60000038147</ele>
        <time>2022-09-29T13:49:13Z</time>
      </trkpt>
      <trkpt lat="48.40595" lon="2.63434">
        <ele>-16.60000038147</ele>
        <time>2022-09-29T13:49:17Z</time>
      </trkpt>
      <trkpt lat="48.40593" lon="2.63437">
        <ele>-16.60000038147</ele>
        <time>2022-09-29T13:49:21Z</time>
      </trkpt>
      <trkpt lat="48.40592" lon="2.6344">
        <ele>-16.60000038147</ele>
        <time>2022-09-29T13:49:25Z</time>
      </trkpt>
      <trkpt lat="48.40586" lon="2.63451">
        <ele>-16.60000038147</ele>
        <time>2022-09-29T13:49:29Z</time>
      </trkpt>
      <trkpt lat="48.40585" lon="2.63455">
        <ele>-16.60000038147</ele>
        <time>2022-09-29T13:49:33Z</time>
      </trkpt>
      <trkpt lat="48.40582" lon="2.63458">
        <ele>-16.60000038147</ele>
        <time>2022-09-29T13:49:37Z</time>
      </trkpt>
      <trkpt lat="48.40581" lon="2.63459">
        <ele>-16.60000038147</ele>
        <time>2022-09-29T13:49:41Z</time>
      </trkpt>
      <trkpt lat="48.4058" lon="2.63461">
        <ele>-16.60000038147</ele>
        <time>2022-09-29T13:49:45Z</time>
      </trkpt>
      <trkpt lat="48.4058" lon="2.63462">
        <ele>-16.60000038147</ele>
        <time>2022-09-29T13:49:49Z</time>
      </trkpt>
      <trkpt lat="48.40573" lon="2.6347">
        <ele>-16.60000038147</ele>
        <time>2022-09-29T13:49:57Z</time>
      </trkpt>
      <trkpt lat="48.40565" lon="2.63475">
        <ele>-16.799999237061</ele>
        <time>2022-09-29T13:50:01Z</time>
      </trkpt>
      <trkpt lat="48.40564" lon="2.63476">
        <ele>-17</ele>
        <time>2022-09-29T13:50:05Z</time>
      </trkpt>
      <trkpt lat="48.40561" lon="2.63479">
        <ele>-16.799999237061</ele>
        <time>2022-09-29T13:50:09Z</time>
      </trkpt>
      <trkpt lat="48.40561" lon="2.6348">
        <ele>-16.60000038147</ele>
        <time>2022-09-29T13:50:13Z</time>
      </trkpt>
      <trkpt lat="48.40559" lon="2.63484">
        <ele>-16.60000038147</ele>
        <time>2022-09-29T13:50:17Z</time>
      </trkpt>
      <trkpt lat="48.40558" lon="2.63489">
        <ele>-16.39999961853</ele>
        <time>2022-09-29T13:50:21Z</time>
      </trkpt>
      <trkpt lat="48.40559" lon="2.63495">
        <ele>-16.39999961853</ele>
        <time>2022-09-29T13:50:25Z</time>
      </trkpt>
      <trkpt lat="48.40558" lon="2.63499">
        <ele>-15.800000190735</ele>
        <time>2022-09-29T13:50:29Z</time>
      </trkpt>
      <trkpt lat="48.40558" lon="2.63503">
        <ele>-15.60000038147</ele>
        <time>2022-09-29T13:50:33Z</time>
      </trkpt>
      <trkpt lat="48.40557" lon="2.63506">
        <ele>-15.60000038147</ele>
        <time>2022-09-29T13:50:37Z</time>
      </trkpt>
      <trkpt lat="48.40555" lon="2.63508">
        <ele>-15.60000038147</ele>
        <time>2022-09-29T13:50:41Z</time>
      </trkpt>
      <trkpt lat="48.40551" lon="2.63513">
        <ele>-15.60000038147</ele>
        <time>2022-09-29T13:50:45Z</time>
      </trkpt>
      <trkpt lat="48.40549" lon="2.63519">
        <ele>-15.800000190735</ele>
        <time>2022-09-29T13:50:49Z</time>
      </trkpt>
      <trkpt lat="48.40547" lon="2.63524">
        <ele>-16</ele>
        <time>2022-09-29T13:50:53Z</time>
      </trkpt>
      <trkpt lat="48.40545" lon="2.63533">
        <ele>-16.39999961853</ele>
        <time>2022-09-29T13:50:57Z</time>
      </trkpt>
      <trkpt lat="48.40546" lon="2.63537">
        <ele>-16.60000038147</ele>
        <time>2022-09-29T13:51:01Z</time>
      </trkpt>
      <trkpt lat="48.40546" lon="2.63536">
        <ele>-17.200000762939</ele>
        <time>2022-09-29T13:51:13Z</time>
      </trkpt>
      <trkpt lat="48.40547" lon="2.63536">
        <ele>-17.200000762939</ele>
        <time>2022-09-29T13:51:17Z</time>
      </trkpt>
      <trkpt lat="48.40547" lon="2.63535">
        <ele>-18.39999961853</ele>
        <time>2022-09-29T13:51:21Z</time>
      </trkpt>
      <trkpt lat="48.40547" lon="2.63533">
        <ele>-17.200000762939</ele>
        <time>2022-09-29T13:51:29Z</time>
      </trkpt>
      <trkpt lat="48.40548" lon="2.63533">
        <ele>-17.39999961853</ele>
        <time>2022-09-29T13:51:33Z</time>
      </trkpt>
      <trkpt lat="48.40548" lon="2.63534">
        <ele>-17.200000762939</ele>
        <time>2022-09-29T13:51:37Z</time>
      </trkpt>
      <trkpt lat="48.40546" lon="2.63535">
        <ele>-17.200000762939</ele>
        <time>2022-09-29T13:51:41Z</time>
      </trkpt>
      <trkpt lat="48.40545" lon="2.63534">
        <ele>-17.200000762939</ele>
        <time>2022-09-29T13:51:45Z</time>
      </trkpt>
      <trkpt lat="48.40544" lon="2.63533">
        <ele>-17.200000762939</ele>
        <time>2022-09-29T13:52:05Z</time>
      </trkpt>
      <trkpt lat="48.40544" lon="2.63532">
        <ele>-17.200000762939</ele>
        <time>2022-09-29T13:52:09Z</time>
      </trkpt>
      <trkpt lat="48.40545" lon="2.63532">
        <ele>-17.200000762939</ele>
        <time>2022-09-29T13:52:13Z</time>
      </trkpt>
      <trkpt lat="48.40545" lon="2.63535">
        <ele>-17.39999961853</ele>
        <time>2022-09-29T13:52:17Z</time>
      </trkpt>
      <trkpt lat="48.40546" lon="2.63537">
        <ele>-17.39999961853</ele>
        <time>2022-09-29T13:52:21Z</time>
      </trkpt>
      <trkpt lat="48.40547" lon="2.63538">
        <ele>-17.39999961853</ele>
        <time>2022-09-29T13:52:25Z</time>
      </trkpt>
      <trkpt lat="48.40548" lon="2.63539">
        <ele>-17.39999961853</ele>
        <time>2022-09-29T13:52:29Z</time>
      </trkpt>
      <trkpt lat="48.40548" lon="2.63538">
        <ele>-17.39999961853</ele>
        <time>2022-09-29T13:52:33Z</time>
      </trkpt>
      <trkpt lat="48.40548" lon="2.63537">
        <ele>-17.39999961853</ele>
        <time>2022-09-29T13:52:37Z</time>
      </trkpt>
      <trkpt lat="48.40547" lon="2.63537">
        <ele>-17.39999961853</ele>
        <time>2022-09-29T13:52:41Z</time>
      </trkpt>
      <trkpt lat="48.40546" lon="2.63539">
        <ele>-17.39999961853</ele>
        <time>2022-09-29T13:52:45Z</time>
      </trkpt>
      <trkpt lat="48.40544" lon="2.6354">
        <ele>-17.39999961853</ele>
        <time>2022-09-29T13:52:49Z</time>
      </trkpt>
      <trkpt lat="48.40543" lon="2.63541">
        <ele>-17.39999961853</ele>
        <time>2022-09-29T13:52:53Z</time>
      </trkpt>
      <trkpt lat="48.40543" lon="2.63543">
        <ele>-17.39999961853</ele>
        <time>2022-09-29T13:52:57Z</time>
      </trkpt>
      <trkpt lat="48.40542" lon="2.63544">
        <ele>-17.200000762939</ele>
        <time>2022-09-29T13:53:05Z</time>
      </trkpt>
      <trkpt lat="48.40542" lon="2.63546">
        <ele>-17.39999961853</ele>
        <time>2022-09-29T13:53:09Z</time>
      </trkpt>
      <trkpt lat="48.40542" lon="2.63548">
        <ele>-17.39999961853</ele>
        <time>2022-09-29T13:53:13Z</time>
      </trkpt>
      <trkpt lat="48.40543" lon="2.63547">
        <ele>-17.39999961853</ele>
        <time>2022-09-29T13:53:21Z</time>
      </trkpt>
      <trkpt lat="48.40543" lon="2.63545">
        <ele>-17.39999961853</ele>
        <time>2022-09-29T13:53:25Z</time>
      </trkpt>
      <trkpt lat="48.40543" lon="2.63543">
        <ele>-17.39999961853</ele>
        <time>2022-09-29T13:53:29Z</time>
      </trkpt>
      <trkpt lat="48.40542" lon="2.63541">
        <ele>-17.39999961853</ele>
        <time>2022-09-29T13:53:37Z</time>
      </trkpt>
      <trkpt lat="48.40542" lon="2.6354">
        <ele>-17.39999961853</ele>
        <time>2022-09-29T13:53:45Z</time>
      </trkpt>
      <trkpt lat="48.40541" lon="2.6354">
        <ele>-17.39999961853</ele>
        <time>2022-09-29T13:53:49Z</time>
      </trkpt>
      <trkpt lat="48.4054" lon="2.6354">
        <ele>-17.39999961853</ele>
        <time>2022-09-29T13:53:53Z</time>
      </trkpt>
      <trkpt lat="48.4054" lon="2.63541">
        <ele>-17.39999961853</ele>
        <time>2022-09-29T13:54:01Z</time>
      </trkpt>
      <trkpt lat="48.40539" lon="2.63541">
        <ele>-17.39999961853</ele>
        <time>2022-09-29T13:54:13Z</time>
      </trkpt>
      <trkpt lat="48.40539" lon="2.63542">
        <ele>-17.39999961853</ele>
        <time>2022-09-29T13:54:21Z</time>
      </trkpt>
      <trkpt lat="48.40542" lon="2.63542">
        <ele>-17.39999961853</ele>
        <time>2022-09-29T13:54:25Z</time>
      </trkpt>
      <trkpt lat="48.40545" lon="2.63544">
        <ele>-17.39999961853</ele>
        <time>2022-09-29T13:54:29Z</time>
      </trkpt>
      <trkpt lat="48.40547" lon="2.63547">
        <ele>-17.39999961853</ele>
        <time>2022-09-29T13:54:33Z</time>
      </trkpt>
      <trkpt lat="48.4055" lon="2.63551">
        <ele>-17.39999961853</ele>
        <time>2022-09-29T13:54:37Z</time>
      </trkpt>
      <trkpt lat="48.40552" lon="2.63554">
        <ele>-17.39999961853</ele>
        <time>2022-09-29T13:54:41Z</time>
      </trkpt>
      <trkpt lat="48.40553" lon="2.63558">
        <ele>-17.39999961853</ele>
        <time>2022-09-29T13:54:45Z</time>
      </trkpt>
      <trkpt lat="48.40554" lon="2.6356">
        <ele>-17.39999961853</ele>
        <time>2022-09-29T13:54:49Z</time>
      </trkpt>
      <trkpt lat="48.40554" lon="2.63561">
        <ele>-17.39999961853</ele>
        <time>2022-09-29T13:54:53Z</time>
      </trkpt>
      <trkpt lat="48.40557" lon="2.63564">
        <ele>-17.39999961853</ele>
        <time>2022-09-29T13:54:57Z</time>
      </trkpt>
      <trkpt lat="48.40559" lon="2.63568">
        <ele>-17.39999961853</ele>
        <time>2022-09-29T13:55:01Z</time>
      </trkpt>
      <trkpt lat="48.40561" lon="2.63571">
        <ele>-18.799999237061</ele>
        <time>2022-09-29T13:55:05Z</time>
      </trkpt>
      <trkpt lat="48.40563" lon="2.63573">
        <ele>-19.39999961853</ele>
        <time>2022-09-29T13:55:09Z</time>
      </trkpt>
      <trkpt lat="48.40565" lon="2.63576">
        <ele>-19.39999961853</ele>
        <time>2022-09-29T13:55:13Z</time>
      </trkpt>
      <trkpt lat="48.40568" lon="2.63579">
        <ele>-19.39999961853</ele>
        <time>2022-09-29T13:55:17Z</time>
      </trkpt>
      <trkpt lat="48.40571" lon="2.63582">
        <ele>-19.39999961853</ele>
        <time>2022-09-29T13:55:21Z</time>
      </trkpt>
      <trkpt lat="48.40573" lon="2.63584">
        <ele>-19.39999961853</ele>
        <time>2022-09-29T13:55:25Z</time>
      </trkpt>
      <trkpt lat="48.40577" lon="2.63588">
        <ele>-19.60000038147</ele>
        <time>2022-09-29T13:55:29Z</time>
      </trkpt>
      <trkpt lat="48.40581" lon="2.63591">
        <ele>-19.799999237061</ele>
        <time>2022-09-29T13:55:33Z</time>
      </trkpt>
      <trkpt lat="48.40586" lon="2.63592">
        <ele>-19.799999237061</ele>
        <time>2022-09-29T13:55:37Z</time>
      </trkpt>
      <trkpt lat="48.40589" lon="2.63595">
        <ele>-20</ele>
        <time>2022-09-29T13:55:41Z</time>
      </trkpt>
      <trkpt lat="48.4059" lon="2.63601">
        <ele>-20.200000762939</ele>
        <time>2022-09-29T13:55:45Z</time>
      </trkpt>
      <trkpt lat="48.4059" lon="2.63605">
        <ele>-20.200000762939</ele>
        <time>2022-09-29T13:55:49Z</time>
      </trkpt>
      <trkpt lat="48.4059" lon="2.6361">
        <ele>-20.39999961853</ele>
        <time>2022-09-29T13:55:53Z</time>
      </trkpt>
      <trkpt lat="48.40588" lon="2.63615">
        <ele>-20.39999961853</ele>
        <time>2022-09-29T13:55:57Z</time>
      </trkpt>
      <trkpt lat="48.40585" lon="2.6362">
        <ele>-20.39999961853</ele>
        <time>2022-09-29T13:56:01Z</time>
      </trkpt>
      <trkpt lat="48.40583" lon="2.63626">
        <ele>-20.39999961853</ele>
        <time>2022-09-29T13:56:05Z</time>
      </trkpt>
      <trkpt lat="48.40582" lon="2.63633">
        <ele>-20.39999961853</ele>
        <time>2022-09-29T13:56:09Z</time>
      </trkpt>
      <trkpt lat="48.40582" lon="2.63639">
        <ele>-20.39999961853</ele>
        <time>2022-09-29T13:56:13Z</time>
      </trkpt>
      <trkpt lat="48.40582" lon="2.63646">
        <ele>-20.39999961853</ele>
        <time>2022-09-29T13:56:17Z</time>
      </trkpt>
      <trkpt lat="48.4058" lon="2.63651">
        <ele>-20.60000038147</ele>
        <time>2022-09-29T13:56:21Z</time>
      </trkpt>
      <trkpt lat="48.40579" lon="2.63656">
        <ele>-20.60000038147</ele>
        <time>2022-09-29T13:56:25Z</time>
      </trkpt>
      <trkpt lat="48.4058" lon="2.63661">
        <ele>-20.39999961853</ele>
        <time>2022-09-29T13:56:29Z</time>
      </trkpt>
      <trkpt lat="48.4058" lon="2.63667">
        <ele>-20.39999961853</ele>
        <time>2022-09-29T13:56:33Z</time>
      </trkpt>
      <trkpt lat="48.40579" lon="2.63675">
        <ele>-20.39999961853</ele>
        <time>2022-09-29T13:56:37Z</time>
      </trkpt>
      <trkpt lat="48.40577" lon="2.63684">
        <ele>-20.39999961853</ele>
        <time>2022-09-29T13:56:41Z</time>
      </trkpt>
      <trkpt lat="48.40576" lon="2.6369">
        <ele>-20.60000038147</ele>
        <time>2022-09-29T13:56:45Z</time>
      </trkpt>
      <trkpt lat="48.40575" lon="2.63695">
        <ele>-20.60000038147</ele>
        <time>2022-09-29T13:56:49Z</time>
      </trkpt>
      <trkpt lat="48.40575" lon="2.63701">
        <ele>-20.60000038147</ele>
        <time>2022-09-29T13:56:53Z</time>
      </trkpt>
      <trkpt lat="48.40575" lon="2.63703">
        <ele>-20.39999961853</ele>
        <time>2022-09-29T13:56:57Z</time>
      </trkpt>
      <trkpt lat="48.40576" lon="2.63709">
        <ele>-20.39999961853</ele>
        <time>2022-09-29T13:57:01Z</time>
      </trkpt>
      <trkpt lat="48.40577" lon="2.63714">
        <ele>-20.39999961853</ele>
        <time>2022-09-29T13:57:05Z</time>
      </trkpt>
      <trkpt lat="48.40576" lon="2.6372">
        <ele>-20</ele>
        <time>2022-09-29T13:57:09Z</time>
      </trkpt>
      <trkpt lat="48.40575" lon="2.63725">
        <ele>-19.60000038147</ele>
        <time>2022-09-29T13:57:13Z</time>
      </trkpt>
      <trkpt lat="48.40574" lon="2.63731">
        <ele>-19.39999961853</ele>
        <time>2022-09-29T13:57:17Z</time>
      </trkpt>
      <trkpt lat="48.40575" lon="2.63738">
        <ele>-19.60000038147</ele>
        <time>2022-09-29T13:57:21Z</time>
      </trkpt>
      <trkpt lat="48.40575" lon="2.63743">
        <ele>-19.799999237061</ele>
        <time>2022-09-29T13:57:25Z</time>
      </trkpt>
      <trkpt lat="48.40575" lon="2.6375">
        <ele>-19.799999237061</ele>
        <time>2022-09-29T13:57:29Z</time>
      </trkpt>
      <trkpt lat="48.40575" lon="2.63756">
        <ele>-19.799999237061</ele>
        <time>2022-09-29T13:57:33Z</time>
      </trkpt>
      <trkpt lat="48.40573" lon="2.63762">
        <ele>-19.799999237061</ele>
        <time>2022-09-29T13:57:37Z</time>
      </trkpt>
      <trkpt lat="48.40571" lon="2.63767">
        <ele>-19.799999237061</ele>
        <time>2022-09-29T13:57:41Z</time>
      </trkpt>
      <trkpt lat="48.40571" lon="2.63773">
        <ele>-19.799999237061</ele>
        <time>2022-09-29T13:57:45Z</time>
      </trkpt>
      <trkpt lat="48.40571" lon="2.63779">
        <ele>-19.60000038147</ele>
        <time>2022-09-29T13:57:49Z</time>
      </trkpt>
      <trkpt lat="48.40571" lon="2.63784">
        <ele>-19.60000038147</ele>
        <time>2022-09-29T13:57:53Z</time>
      </trkpt>
      <trkpt lat="48.40569" lon="2.6379">
        <ele>-19.39999961853</ele>
        <time>2022-09-29T13:57:57Z</time>
      </trkpt>
      <trkpt lat="48.40569" lon="2.63795">
        <ele>-19.39999961853</ele>
        <time>2022-09-29T13:58:01Z</time>
      </trkpt>
      <trkpt lat="48.40569" lon="2.63801">
        <ele>-19.39999961853</ele>
        <time>2022-09-29T13:58:05Z</time>
      </trkpt>
      <trkpt lat="48.4057" lon="2.63808">
        <ele>-19.39999961853</ele>
        <time>2022-09-29T13:58:09Z</time>
      </trkpt>
      <trkpt lat="48.4057" lon="2.63814">
        <ele>-19.39999961853</ele>
        <time>2022-09-29T13:58:13Z</time>
      </trkpt>
      <trkpt lat="48.40571" lon="2.63821">
        <ele>-19.60000038147</ele>
        <time>2022-09-29T13:58:17Z</time>
      </trkpt>
      <trkpt lat="48.40572" lon="2.63826">
        <ele>-19.60000038147</ele>
        <time>2022-09-29T13:58:21Z</time>
      </trkpt>
      <trkpt lat="48.40574" lon="2.63833">
        <ele>-19.60000038147</ele>
        <time>2022-09-29T13:58:25Z</time>
      </trkpt>
      <trkpt lat="48.40576" lon="2.6384">
        <ele>-19.60000038147</ele>
        <time>2022-09-29T13:58:29Z</time>
      </trkpt>
      <trkpt lat="48.40578" lon="2.63848">
        <ele>-19.799999237061</ele>
        <time>2022-09-29T13:58:33Z</time>
      </trkpt>
      <trkpt lat="48.40579" lon="2.63853">
        <ele>-20.200000762939</ele>
        <time>2022-09-29T13:58:37Z</time>
      </trkpt>
      <trkpt lat="48.40581" lon="2.63859">
        <ele>-20.39999961853</ele>
        <time>2022-09-29T13:58:41Z</time>
      </trkpt>
      <trkpt lat="48.40582" lon="2.63867">
        <ele>-20.799999237061</ele>
        <time>2022-09-29T13:58:45Z</time>
      </trkpt>
      <trkpt lat="48.40584" lon="2.63873">
        <ele>-21</ele>
        <time>2022-09-29T13:58:49Z</time>
      </trkpt>
      <trkpt lat="48.40584" lon="2.63879">
        <ele>-21</ele>
        <time>2022-09-29T13:58:53Z</time>
      </trkpt>
      <trkpt lat="48.40585" lon="2.63885">
        <ele>-21.200000762939</ele>
        <time>2022-09-29T13:58:57Z</time>
      </trkpt>
      <trkpt lat="48.40586" lon="2.63888">
        <ele>-21.39999961853</ele>
        <time>2022-09-29T13:59:01Z</time>
      </trkpt>
      <trkpt lat="48.40586" lon="2.63889">
        <ele>-21.39999961853</ele>
        <time>2022-09-29T13:59:09Z</time>
      </trkpt>
      <trkpt lat="48.40587" lon="2.63889">
        <ele>-21.39999961853</ele>
        <time>2022-09-29T13:59:13Z</time>
      </trkpt>
      <trkpt lat="48.40587" lon="2.63888">
        <ele>-21.39999961853</ele>
        <time>2022-09-29T13:59:17Z</time>
      </trkpt>
      <trkpt lat="48.40588" lon="2.63888">
        <ele>-21.39999961853</ele>
        <time>2022-09-29T13:59:21Z</time>
      </trkpt>
      <trkpt lat="48.40589" lon="2.63888">
        <ele>-21.39999961853</ele>
        <time>2022-09-29T13:59:29Z</time>
      </trkpt>
      <trkpt lat="48.40589" lon="2.63889">
        <ele>-21.39999961853</ele>
        <time>2022-09-29T13:59:37Z</time>
      </trkpt>
      <trkpt lat="48.40589" lon="2.6389">
        <ele>-21.60000038147</ele>
        <time>2022-09-29T13:59:49Z</time>
      </trkpt>
      <trkpt lat="48.4059" lon="2.63896">
        <ele>-21.39999961853</ele>
        <time>2022-09-29T13:59:53Z</time>
      </trkpt>
      <trkpt lat="48.4059" lon="2.63902">
        <ele>-21.39999961853</ele>
        <time>2022-09-29T13:59:57Z</time>
      </trkpt>
      <trkpt lat="48.40591" lon="2.63909">
        <ele>-21.60000038147</ele>
        <time>2022-09-29T14:00:01Z</time>
      </trkpt>
      <trkpt lat="48.40592" lon="2.63916">
        <ele>-21.799999237061</ele>
        <time>2022-09-29T14:00:05Z</time>
      </trkpt>
      <trkpt lat="48.40594" lon="2.63921">
        <ele>-21.799999237061</ele>
        <time>2022-09-29T14:00:09Z</time>
      </trkpt>
      <trkpt lat="48.40595" lon="2.63929">
        <ele>-22</ele>
        <time>2022-09-29T14:00:13Z</time>
      </trkpt>
      <trkpt lat="48.40596" lon="2.63937">
        <ele>-22</ele>
        <time>2022-09-29T14:00:17Z</time>
      </trkpt>
      <trkpt lat="48.40597" lon="2.63943">
        <ele>-22</ele>
        <time>2022-09-29T14:00:21Z</time>
      </trkpt>
      <trkpt lat="48.40599" lon="2.63949">
        <ele>-22</ele>
        <time>2022-09-29T14:00:25Z</time>
      </trkpt>
      <trkpt lat="48.406" lon="2.6395">
        <ele>-21.799999237061</ele>
        <time>2022-09-29T14:00:29Z</time>
      </trkpt>
      <trkpt lat="48.40601" lon="2.63951">
        <ele>-21.799999237061</ele>
        <time>2022-09-29T14:00:37Z</time>
      </trkpt>
      <trkpt lat="48.40604" lon="2.63951">
        <ele>-21.799999237061</ele>
        <time>2022-09-29T14:00:41Z</time>
      </trkpt>
      <trkpt lat="48.40604" lon="2.63952">
        <ele>-21.799999237061</ele>
        <time>2022-09-29T14:00:45Z</time>
      </trkpt>
      <trkpt lat="48.40605" lon="2.63953">
        <ele>-21.799999237061</ele>
        <time>2022-09-29T14:00:49Z</time>
      </trkpt>
      <trkpt lat="48.40606" lon="2.63954">
        <ele>-21.799999237061</ele>
        <time>2022-09-29T14:00:53Z</time>
      </trkpt>
      <trkpt lat="48.40605" lon="2.63954">
        <ele>-21.799999237061</ele>
        <time>2022-09-29T14:01:01Z</time>
      </trkpt>
      <trkpt lat="48.40606" lon="2.63954">
        <ele>-21.799999237061</ele>
        <time>2022-09-29T14:01:09Z</time>
      </trkpt>
      <trkpt lat="48.40607" lon="2.63954">
        <ele>-21.799999237061</ele>
        <time>2022-09-29T14:01:13Z</time>
      </trkpt>
      <trkpt lat="48.40608" lon="2.63954">
        <ele>-21.799999237061</ele>
        <time>2022-09-29T14:01:17Z</time>
      </trkpt>
      <trkpt lat="48.40609" lon="2.63954">
        <ele>-21.799999237061</ele>
        <time>2022-09-29T14:01:25Z</time>
      </trkpt>
      <trkpt lat="48.40611" lon="2.63954">
        <ele>-21.799999237061</ele>
        <time>2022-09-29T14:01:33Z</time>
      </trkpt>
      <trkpt lat="48.40611" lon="2.63953">
        <ele>-21.799999237061</ele>
        <time>2022-09-29T14:01:37Z</time>
      </trkpt>
      <trkpt lat="48.40612" lon="2.63955">
        <ele>-21.799999237061</ele>
        <time>2022-09-29T14:01:41Z</time>
      </trkpt>
      <trkpt lat="48.40611" lon="2.63955">
        <ele>-21.799999237061</ele>
        <time>2022-09-29T14:01:49Z</time>
      </trkpt>
      <trkpt lat="48.4061" lon="2.63954">
        <ele>-21.799999237061</ele>
        <time>2022-09-29T14:01:53Z</time>
      </trkpt>
      <trkpt lat="48.40609" lon="2.63954">
        <ele>-21.799999237061</ele>
        <time>2022-09-29T14:01:57Z</time>
      </trkpt>
      <trkpt lat="48.40609" lon="2.63955">
        <ele>-21.799999237061</ele>
        <time>2022-09-29T14:02:01Z</time>
      </trkpt>
      <trkpt lat="48.40608" lon="2.63955">
        <ele>-21.799999237061</ele>
        <time>2022-09-29T14:02:09Z</time>
      </trkpt>
      <trkpt lat="48.40607" lon="2.63955">
        <ele>-21.799999237061</ele>
        <time>2022-09-29T14:02:17Z</time>
      </trkpt>
      <trkpt lat="48.40606" lon="2.63954">
        <ele>-21.799999237061</ele>
        <time>2022-09-29T14:02:21Z</time>
      </trkpt>
      <trkpt lat="48.40606" lon="2.63953">
        <ele>-21.799999237061</ele>
        <time>2022-09-29T14:02:25Z</time>
      </trkpt>
      <trkpt lat="48.40606" lon="2.63954">
        <ele>-21.799999237061</ele>
        <time>2022-09-29T14:02:29Z</time>
      </trkpt>
      <trkpt lat="48.40608" lon="2.63958">
        <ele>-21.799999237061</ele>
        <time>2022-09-29T14:02:33Z</time>
      </trkpt>
      <trkpt lat="48.40608" lon="2.63963">
        <ele>-21.799999237061</ele>
        <time>2022-09-29T14:02:37Z</time>
      </trkpt>
      <trkpt lat="48.40608" lon="2.63968">
        <ele>-21.799999237061</ele>
        <time>2022-09-29T14:02:41Z</time>
      </trkpt>
      <trkpt lat="48.4061" lon="2.63973">
        <ele>-21.799999237061</ele>
        <time>2022-09-29T14:02:45Z</time>
      </trkpt>
      <trkpt lat="48.40611" lon="2.63977">
        <ele>-21.799999237061</ele>
        <time>2022-09-29T14:02:49Z</time>
      </trkpt>
      <trkpt lat="48.40612" lon="2.63982">
        <ele>-21.799999237061</ele>
        <time>2022-09-29T14:02:53Z</time>
      </trkpt>
      <trkpt lat="48.40613" lon="2.63988">
        <ele>-21.799999237061</ele>
        <time>2022-09-29T14:02:57Z</time>
      </trkpt>
      <trkpt lat="48.40615" lon="2.63993">
        <ele>-21.799999237061</ele>
        <time>2022-09-29T14:03:01Z</time>
      </trkpt>
      <trkpt lat="48.40617" lon="2.64006">
        <ele>-21.799999237061</ele>
        <time>2022-09-29T14:03:05Z</time>
      </trkpt>
      <trkpt lat="48.40619" lon="2.64015">
        <ele>-21.799999237061</ele>
        <time>2022-09-29T14:03:09Z</time>
      </trkpt>
      <trkpt lat="48.40621" lon="2.6402">
        <ele>-21.799999237061</ele>
        <time>2022-09-29T14:03:13Z</time>
      </trkpt>
      <trkpt lat="48.40624" lon="2.64023">
        <ele>-21.799999237061</ele>
        <time>2022-09-29T14:03:17Z</time>
      </trkpt>
      <trkpt lat="48.40626" lon="2.64028">
        <ele>-21.799999237061</ele>
        <time>2022-09-29T14:03:21Z</time>
      </trkpt>
      <trkpt lat="48.40627" lon="2.64041">
        <ele>-21.799999237061</ele>
        <time>2022-09-29T14:03:25Z</time>
      </trkpt>
      <trkpt lat="48.40628" lon="2.64048">
        <ele>-21.60000038147</ele>
        <time>2022-09-29T14:03:29Z</time>
      </trkpt>
      <trkpt lat="48.40629" lon="2.64053">
        <ele>-21.60000038147</ele>
        <time>2022-09-29T14:03:33Z</time>
      </trkpt>
      <trkpt lat="48.40631" lon="2.64058">
        <ele>-21.39999961853</ele>
        <time>2022-09-29T14:03:37Z</time>
      </trkpt>
      <trkpt lat="48.40632" lon="2.6406">
        <ele>-21.39999961853</ele>
        <time>2022-09-29T14:03:41Z</time>
      </trkpt>
      <trkpt lat="48.40635" lon="2.64063">
        <ele>-21.60000038147</ele>
        <time>2022-09-29T14:03:45Z</time>
      </trkpt>
      <trkpt lat="48.40637" lon="2.64068">
        <ele>-21.39999961853</ele>
        <time>2022-09-29T14:03:49Z</time>
      </trkpt>
      <trkpt lat="48.40637" lon="2.64072">
        <ele>-21</ele>
        <time>2022-09-29T14:03:53Z</time>
      </trkpt>
      <trkpt lat="48.40638" lon="2.64076">
        <ele>-21</ele>
        <time>2022-09-29T14:03:57Z</time>
      </trkpt>
      <trkpt lat="48.40639" lon="2.64082">
        <ele>-20.799999237061</ele>
        <time>2022-09-29T14:04:01Z</time>
      </trkpt>
      <trkpt lat="48.40641" lon="2.64084">
        <ele>-20.60000038147</ele>
        <time>2022-09-29T14:04:05Z</time>
      </trkpt>
      <trkpt lat="48.40645" lon="2.64091">
        <ele>-20.60000038147</ele>
        <time>2022-09-29T14:04:09Z</time>
      </trkpt>
      <trkpt lat="48.40644" lon="2.64103">
        <ele>-20.60000038147</ele>
        <time>2022-09-29T14:04:13Z</time>
      </trkpt>
      <trkpt lat="48.40643" lon="2.6411">
        <ele>-20.39999961853</ele>
        <time>2022-09-29T14:04:17Z</time>
      </trkpt>
      <trkpt lat="48.40642" lon="2.64116">
        <ele>-20.200000762939</ele>
        <time>2022-09-29T14:04:21Z</time>
      </trkpt>
      <trkpt lat="48.40643" lon="2.64121">
        <ele>-19.799999237061</ele>
        <time>2022-09-29T14:04:25Z</time>
      </trkpt>
      <trkpt lat="48.40644" lon="2.64126">
        <ele>-19.39999961853</ele>
        <time>2022-09-29T14:04:29Z</time>
      </trkpt>
      <trkpt lat="48.40646" lon="2.64139">
        <ele>-19</ele>
        <time>2022-09-29T14:04:33Z</time>
      </trkpt>
      <trkpt lat="48.40646" lon="2.64152">
        <ele>-19</ele>
        <time>2022-09-29T14:04:37Z</time>
      </trkpt>
      <trkpt lat="48.40648" lon="2.64156">
        <ele>-19</ele>
        <time>2022-09-29T14:04:41Z</time>
      </trkpt>
      <trkpt lat="48.40649" lon="2.6416">
        <ele>-19</ele>
        <time>2022-09-29T14:04:45Z</time>
      </trkpt>
      <trkpt lat="48.40652" lon="2.64165">
        <ele>-19</ele>
        <time>2022-09-29T14:04:49Z</time>
      </trkpt>
      <trkpt lat="48.40654" lon="2.6417">
        <ele>-19</ele>
        <time>2022-09-29T14:04:53Z</time>
      </trkpt>
      <trkpt lat="48.40655" lon="2.64182">
        <ele>-19</ele>
        <time>2022-09-29T14:04:57Z</time>
      </trkpt>
      <trkpt lat="48.40655" lon="2.64193">
        <ele>-18.799999237061</ele>
        <time>2022-09-29T14:05:01Z</time>
      </trkpt>
      <trkpt lat="48.40655" lon="2.64201">
        <ele>-18.799999237061</ele>
        <time>2022-09-29T14:05:05Z</time>
      </trkpt>
      <trkpt lat="48.40656" lon="2.64206">
        <ele>-18.799999237061</ele>
        <time>2022-09-29T14:05:09Z</time>
      </trkpt>
      <trkpt lat="48.40656" lon="2.6421">
        <ele>-18.799999237061</ele>
        <time>2022-09-29T14:05:13Z</time>
      </trkpt>
      <trkpt lat="48.40657" lon="2.64214">
        <ele>-19</ele>
        <time>2022-09-29T14:05:17Z</time>
      </trkpt>
      <trkpt lat="48.40657" lon="2.6422">
        <ele>-18.799999237061</ele>
        <time>2022-09-29T14:05:21Z</time>
      </trkpt>
      <trkpt lat="48.40656" lon="2.64223">
        <ele>-18.799999237061</ele>
        <time>2022-09-29T14:05:25Z</time>
      </trkpt>
      <trkpt lat="48.40654" lon="2.64224">
        <ele>-18.799999237061</ele>
        <time>2022-09-29T14:05:29Z</time>
      </trkpt>
      <trkpt lat="48.40649" lon="2.64227">
        <ele>-18.60000038147</ele>
        <time>2022-09-29T14:05:33Z</time>
      </trkpt>
      <trkpt lat="48.40645" lon="2.64228">
        <ele>-18.39999961853</ele>
        <time>2022-09-29T14:05:37Z</time>
      </trkpt>
      <trkpt lat="48.40641" lon="2.64228">
        <ele>-18.39999961853</ele>
        <time>2022-09-29T14:05:41Z</time>
      </trkpt>
      <trkpt lat="48.40639" lon="2.64229">
        <ele>-18.60000038147</ele>
        <time>2022-09-29T14:05:45Z</time>
      </trkpt>
      <trkpt lat="48.40633" lon="2.64235">
        <ele>-18.60000038147</ele>
        <time>2022-09-29T14:05:49Z</time>
      </trkpt>
      <trkpt lat="48.40628" lon="2.64235">
        <ele>-18.60000038147</ele>
        <time>2022-09-29T14:05:53Z</time>
      </trkpt>
      <trkpt lat="48.40624" lon="2.64235">
        <ele>-17.799999237061</ele>
        <time>2022-09-29T14:05:57Z</time>
      </trkpt>
      <trkpt lat="48.40622" lon="2.64234">
        <ele>-17.60000038147</ele>
        <time>2022-09-29T14:06:01Z</time>
      </trkpt>
      <trkpt lat="48.4062" lon="2.64233">
        <ele>-17.60000038147</ele>
        <time>2022-09-29T14:06:05Z</time>
      </trkpt>
      <trkpt lat="48.40618" lon="2.64232">
        <ele>-17.60000038147</ele>
        <time>2022-09-29T14:06:09Z</time>
      </trkpt>
      <trkpt lat="48.40616" lon="2.64232">
        <ele>-17.799999237061</ele>
        <time>2022-09-29T14:06:13Z</time>
      </trkpt>
      <trkpt lat="48.40608" lon="2.64233">
        <ele>-17.799999237061</ele>
        <time>2022-09-29T14:06:17Z</time>
      </trkpt>
      <trkpt lat="48.40606" lon="2.64231">
        <ele>-17.799999237061</ele>
        <time>2022-09-29T14:06:21Z</time>
      </trkpt>
      <trkpt lat="48.406" lon="2.64227">
        <ele>-17.799999237061</ele>
        <time>2022-09-29T14:06:25Z</time>
      </trkpt>
      <trkpt lat="48.40597" lon="2.64228">
        <ele>-17.799999237061</ele>
        <time>2022-09-29T14:06:29Z</time>
      </trkpt>
      <trkpt lat="48.40593" lon="2.64231">
        <ele>-17.60000038147</ele>
        <time>2022-09-29T14:06:33Z</time>
      </trkpt>
      <trkpt lat="48.40592" lon="2.64232">
        <ele>-17.60000038147</ele>
        <time>2022-09-29T14:06:37Z</time>
      </trkpt>
      <trkpt lat="48.40591" lon="2.64232">
        <ele>-17.60000038147</ele>
        <time>2022-09-29T14:06:41Z</time>
      </trkpt>
      <trkpt lat="48.40589" lon="2.64231">
        <ele>-17.39999961853</ele>
        <time>2022-09-29T14:06:45Z</time>
      </trkpt>
      <trkpt lat="48.40585" lon="2.64233">
        <ele>-17.200000762939</ele>
        <time>2022-09-29T14:06:49Z</time>
      </trkpt>
      <trkpt lat="48.40584" lon="2.64235">
        <ele>-17</ele>
        <time>2022-09-29T14:06:53Z</time>
      </trkpt>
      <trkpt lat="48.40582" lon="2.64236">
        <ele>-17</ele>
        <time>2022-09-29T14:06:57Z</time>
      </trkpt>
      <trkpt lat="48.40581" lon="2.64236">
        <ele>-17</ele>
        <time>2022-09-29T14:07:01Z</time>
      </trkpt>
      <trkpt lat="48.4058" lon="2.64238">
        <ele>-17</ele>
        <time>2022-09-29T14:07:05Z</time>
      </trkpt>
      <trkpt lat="48.40578" lon="2.6424">
        <ele>-17</ele>
        <time>2022-09-29T14:07:09Z</time>
      </trkpt>
      <trkpt lat="48.40576" lon="2.64243">
        <ele>-17</ele>
        <time>2022-09-29T14:07:13Z</time>
      </trkpt>
      <trkpt lat="48.40573" lon="2.64245">
        <ele>-17.200000762939</ele>
        <time>2022-09-29T14:07:17Z</time>
      </trkpt>
      <trkpt lat="48.40572" lon="2.64248">
        <ele>-17.60000038147</ele>
        <time>2022-09-29T14:07:21Z</time>
      </trkpt>
      <trkpt lat="48.4057" lon="2.64252">
        <ele>-18.200000762939</ele>
        <time>2022-09-29T14:07:25Z</time>
      </trkpt>
      <trkpt lat="48.40568" lon="2.64259">
        <ele>-18.200000762939</ele>
        <time>2022-09-29T14:07:29Z</time>
      </trkpt>
      <trkpt lat="48.40566" lon="2.64263">
        <ele>-18.200000762939</ele>
        <time>2022-09-29T14:07:33Z</time>
      </trkpt>
      <trkpt lat="48.40565" lon="2.64268">
        <ele>-18.60000038147</ele>
        <time>2022-09-29T14:07:37Z</time>
      </trkpt>
      <trkpt lat="48.40565" lon="2.64272">
        <ele>-18.799999237061</ele>
        <time>2022-09-29T14:07:41Z</time>
      </trkpt>
      <trkpt lat="48.40563" lon="2.64279">
        <ele>-19.60000038147</ele>
        <time>2022-09-29T14:07:45Z</time>
      </trkpt>
      <trkpt lat="48.4056" lon="2.64285">
        <ele>-19.799999237061</ele>
        <time>2022-09-29T14:07:49Z</time>
      </trkpt>
      <trkpt lat="48.40559" lon="2.64288">
        <ele>-20.39999961853</ele>
        <time>2022-09-29T14:07:53Z</time>
      </trkpt>
      <trkpt lat="48.40556" lon="2.64292">
        <ele>-20.39999961853</ele>
        <time>2022-09-29T14:07:57Z</time>
      </trkpt>
      <trkpt lat="48.40553" lon="2.64301">
        <ele>-19.799999237061</ele>
        <time>2022-09-29T14:08:01Z</time>
      </trkpt>
      <trkpt lat="48.40544" lon="2.64312">
        <ele>-18.799999237061</ele>
        <time>2022-09-29T14:08:05Z</time>
      </trkpt>
      <trkpt lat="48.40541" lon="2.64314">
        <ele>-18.39999961853</ele>
        <time>2022-09-29T14:08:09Z</time>
      </trkpt>
      <trkpt lat="48.40539" lon="2.64316">
        <ele>-18.39999961853</ele>
        <time>2022-09-29T14:08:13Z</time>
      </trkpt>
      <trkpt lat="48.40538" lon="2.64317">
        <ele>-18.39999961853</ele>
        <time>2022-09-29T14:08:17Z</time>
      </trkpt>
      <trkpt lat="48.40537" lon="2.64318">
        <ele>-18.39999961853</ele>
        <time>2022-09-29T14:08:21Z</time>
      </trkpt>
      <trkpt lat="48.40536" lon="2.6432">
        <ele>-18.200000762939</ele>
        <time>2022-09-29T14:08:25Z</time>
      </trkpt>
      <trkpt lat="48.40528" lon="2.64322">
        <ele>-18</ele>
        <time>2022-09-29T14:08:29Z</time>
      </trkpt>
      <trkpt lat="48.40524" lon="2.64325">
        <ele>-17.39999961853</ele>
        <time>2022-09-29T14:08:33Z</time>
      </trkpt>
      <trkpt lat="48.4052" lon="2.64326">
        <ele>-17.799999237061</ele>
        <time>2022-09-29T14:08:37Z</time>
      </trkpt>
      <trkpt lat="48.40519" lon="2.64326">
        <ele>-18.60000038147</ele>
        <time>2022-09-29T14:08:41Z</time>
      </trkpt>
      <trkpt lat="48.40517" lon="2.64328">
        <ele>-19.200000762939</ele>
        <time>2022-09-29T14:08:45Z</time>
      </trkpt>
      <trkpt lat="48.40517" lon="2.64329">
        <ele>-19.39999961853</ele>
        <time>2022-09-29T14:08:49Z</time>
      </trkpt>
      <trkpt lat="48.40518" lon="2.64329">
        <ele>-19.200000762939</ele>
        <time>2022-09-29T14:08:53Z</time>
      </trkpt>
      <trkpt lat="48.40518" lon="2.64331">
        <ele>-19.799999237061</ele>
        <time>2022-09-29T14:08:57Z</time>
      </trkpt>
      <trkpt lat="48.40518" lon="2.64332">
        <ele>-20.60000038147</ele>
        <time>2022-09-29T14:09:05Z</time>
      </trkpt>
      <trkpt lat="48.40518" lon="2.64333">
        <ele>-21.200000762939</ele>
        <time>2022-09-29T14:09:13Z</time>
      </trkpt>
      <trkpt lat="48.40518" lon="2.64334">
        <ele>-21.200000762939</ele>
        <time>2022-09-29T14:09:17Z</time>
      </trkpt>
      <trkpt lat="48.40519" lon="2.64335">
        <ele>-21.39999961853</ele>
        <time>2022-09-29T14:09:21Z</time>
      </trkpt>
      <trkpt lat="48.40519" lon="2.64336">
        <ele>-21.39999961853</ele>
        <time>2022-09-29T14:09:25Z</time>
      </trkpt>
      <trkpt lat="48.40519" lon="2.64335">
        <ele>-21.39999961853</ele>
        <time>2022-09-29T14:09:29Z</time>
      </trkpt>
      <trkpt lat="48.40519" lon="2.64336">
        <ele>-21.39999961853</ele>
        <time>2022-09-29T14:09:33Z</time>
      </trkpt>
      <trkpt lat="48.40518" lon="2.64337">
        <ele>-21.39999961853</ele>
        <time>2022-09-29T14:09:37Z</time>
      </trkpt>
      <trkpt lat="48.40519" lon="2.64337">
        <ele>-21.39999961853</ele>
        <time>2022-09-29T14:09:41Z</time>
      </trkpt>
      <trkpt lat="48.4052" lon="2.64338">
        <ele>-21.39999961853</ele>
        <time>2022-09-29T14:09:45Z</time>
      </trkpt>
      <trkpt lat="48.40521" lon="2.64338">
        <ele>-21.39999961853</ele>
        <time>2022-09-29T14:09:49Z</time>
      </trkpt>
      <trkpt lat="48.40522" lon="2.64338">
        <ele>-21.39999961853</ele>
        <time>2022-09-29T14:09:53Z</time>
      </trkpt>
      <trkpt lat="48.40523" lon="2.64338">
        <ele>-21.39999961853</ele>
        <time>2022-09-29T14:09:57Z</time>
      </trkpt>
      <trkpt lat="48.40523" lon="2.64337">
        <ele>-21.39999961853</ele>
        <time>2022-09-29T14:10:01Z</time>
      </trkpt>
      <trkpt lat="48.40522" lon="2.64337">
        <ele>-21.39999961853</ele>
        <time>2022-09-29T14:10:09Z</time>
      </trkpt>
      <trkpt lat="48.40521" lon="2.64336">
        <ele>-21.39999961853</ele>
        <time>2022-09-29T14:10:13Z</time>
      </trkpt>
      <trkpt lat="48.40519" lon="2.64336">
        <ele>-21.39999961853</ele>
        <time>2022-09-29T14:10:21Z</time>
      </trkpt>
      <trkpt lat="48.40518" lon="2.64335">
        <ele>-21.39999961853</ele>
        <time>2022-09-29T14:10:25Z</time>
      </trkpt>
      <trkpt lat="48.40517" lon="2.64335">
        <ele>-21.39999961853</ele>
        <time>2022-09-29T14:10:33Z</time>
      </trkpt>
      <trkpt lat="48.40516" lon="2.64335">
        <ele>-21.39999961853</ele>
        <time>2022-09-29T14:10:37Z</time>
      </trkpt>
      <trkpt lat="48.40514" lon="2.64335">
        <ele>-21.39999961853</ele>
        <time>2022-09-29T14:10:45Z</time>
      </trkpt>
      <trkpt lat="48.40516" lon="2.64335">
        <ele>-21.39999961853</ele>
        <time>2022-09-29T14:10:53Z</time>
      </trkpt>
      <trkpt lat="48.40515" lon="2.64335">
        <ele>-21.39999961853</ele>
        <time>2022-09-29T14:10:57Z</time>
      </trkpt>
      <trkpt lat="48.40516" lon="2.64335">
        <ele>-21.39999961853</ele>
        <time>2022-09-29T14:11:09Z</time>
      </trkpt>
      <trkpt lat="48.40517" lon="2.64335">
        <ele>-21.39999961853</ele>
        <time>2022-09-29T14:11:13Z</time>
      </trkpt>
      <trkpt lat="48.40518" lon="2.64335">
        <ele>-21.39999961853</ele>
        <time>2022-09-29T14:11:17Z</time>
      </trkpt>
      <trkpt lat="48.40517" lon="2.64335">
        <ele>-21.39999961853</ele>
        <time>2022-09-29T14:11:21Z</time>
      </trkpt>
      <trkpt lat="48.40516" lon="2.64334">
        <ele>-21.39999961853</ele>
        <time>2022-09-29T14:11:25Z</time>
      </trkpt>
      <trkpt lat="48.40512" lon="2.64333">
        <ele>-21.39999961853</ele>
        <time>2022-09-29T14:11:29Z</time>
      </trkpt>
      <trkpt lat="48.40508" lon="2.64332">
        <ele>-21.39999961853</ele>
        <time>2022-09-29T14:11:33Z</time>
      </trkpt>
      <trkpt lat="48.40507" lon="2.64333">
        <ele>-21.39999961853</ele>
        <time>2022-09-29T14:11:37Z</time>
      </trkpt>
      <trkpt lat="48.40505" lon="2.64336">
        <ele>-21.39999961853</ele>
        <time>2022-09-29T14:11:41Z</time>
      </trkpt>
      <trkpt lat="48.40497" lon="2.64346">
        <ele>-21.39999961853</ele>
        <time>2022-09-29T14:11:45Z</time>
      </trkpt>
      <trkpt lat="48.40492" lon="2.64355">
        <ele>-21.39999961853</ele>
        <time>2022-09-29T14:11:49Z</time>
      </trkpt>
      <trkpt lat="48.40486" lon="2.6436">
        <ele>-25.60000038147</ele>
        <time>2022-09-29T14:11:53Z</time>
      </trkpt>
      <trkpt lat="48.40482" lon="2.64364">
        <ele>-25.60000038147</ele>
        <time>2022-09-29T14:11:57Z</time>
      </trkpt>
      <trkpt lat="48.40479" lon="2.6437">
        <ele>-25.60000038147</ele>
        <time>2022-09-29T14:12:01Z</time>
      </trkpt>
      <trkpt lat="48.40475" lon="2.64377">
        <ele>-25.39999961853</ele>
        <time>2022-09-29T14:12:05Z</time>
      </trkpt>
      <trkpt lat="48.40472" lon="2.64382">
        <ele>-25.200000762939</ele>
        <time>2022-09-29T14:12:09Z</time>
      </trkpt>
      <trkpt lat="48.40469" lon="2.64388">
        <ele>-25</ele>
        <time>2022-09-29T14:12:13Z</time>
      </trkpt>
      <trkpt lat="48.40466" lon="2.64393">
        <ele>-24.799999237061</ele>
        <time>2022-09-29T14:12:18Z</time>
      </trkpt>
      <trkpt lat="48.40463" lon="2.64398">
        <ele>-24.200000762939</ele>
        <time>2022-09-29T14:12:22Z</time>
      </trkpt>
      <trkpt lat="48.4046" lon="2.64403">
        <ele>-24.200000762939</ele>
        <time>2022-09-29T14:12:27Z</time>
      </trkpt>
      <trkpt lat="48.40457" lon="2.64404">
        <ele>-23.799999237061</ele>
        <time>2022-09-29T14:12:31Z</time>
      </trkpt>
      <trkpt lat="48.40454" lon="2.64402">
        <ele>-23.39999961853</ele>
        <time>2022-09-29T14:12:35Z</time>
      </trkpt>
      <trkpt lat="48.4045" lon="2.64402">
        <ele>-23</ele>
        <time>2022-09-29T14:12:39Z</time>
      </trkpt>
      <trkpt lat="48.40447" lon="2.64402">
        <ele>-21.60000038147</ele>
        <time>2022-09-29T14:12:43Z</time>
      </trkpt>
      <trkpt lat="48.40445" lon="2.64403">
        <ele>-21.200000762939</ele>
        <time>2022-09-29T14:12:47Z</time>
      </trkpt>
      <trkpt lat="48.40444" lon="2.64404">
        <ele>-20.799999237061</ele>
        <time>2022-09-29T14:12:50Z</time>
      </trkpt>
      <trkpt lat="48.40445" lon="2.64405">
        <ele>-20.60000038147</ele>
        <time>2022-09-29T14:12:59Z</time>
      </trkpt>
      <trkpt lat="48.40443" lon="2.64406">
        <ele>-20.60000038147</ele>
        <time>2022-09-29T14:13:03Z</time>
      </trkpt>
      <trkpt lat="48.40441" lon="2.64409">
        <ele>-20.200000762939</ele>
        <time>2022-09-29T14:13:07Z</time>
      </trkpt>
      <trkpt lat="48.40439" lon="2.64409">
        <ele>-20</ele>
        <time>2022-09-29T14:13:11Z</time>
      </trkpt>
      <trkpt lat="48.40437" lon="2.6441">
        <ele>-19.799999237061</ele>
        <time>2022-09-29T14:13:15Z</time>
      </trkpt>
      <trkpt lat="48.40436" lon="2.64412">
        <ele>-19.799999237061</ele>
        <time>2022-09-29T14:13:19Z</time>
      </trkpt>
      <trkpt lat="48.40436" lon="2.64415">
        <ele>-19.60000038147</ele>
        <time>2022-09-29T14:13:23Z</time>
      </trkpt>
      <trkpt lat="48.40435" lon="2.64417">
        <ele>-20</ele>
        <time>2022-09-29T14:13:27Z</time>
      </trkpt>
      <trkpt lat="48.40433" lon="2.64418">
        <ele>-20.39999961853</ele>
        <time>2022-09-29T14:13:31Z</time>
      </trkpt>
      <trkpt lat="48.40431" lon="2.64419">
        <ele>-20.60000038147</ele>
        <time>2022-09-29T14:13:35Z</time>
      </trkpt>
      <trkpt lat="48.40427" lon="2.64417">
        <ele>-20.799999237061</ele>
        <time>2022-09-29T14:13:39Z</time>
      </trkpt>
      <trkpt lat="48.40424" lon="2.64417">
        <ele>-20.60000038147</ele>
        <time>2022-09-29T14:13:43Z</time>
      </trkpt>
      <trkpt lat="48.40422" lon="2.64419">
        <ele>-20</ele>
        <time>2022-09-29T14:13:47Z</time>
      </trkpt>
      <trkpt lat="48.40421" lon="2.64423">
        <ele>-19.39999961853</ele>
        <time>2022-09-29T14:13:51Z</time>
      </trkpt>
      <trkpt lat="48.40419" lon="2.64427">
        <ele>-19.39999961853</ele>
        <time>2022-09-29T14:13:55Z</time>
      </trkpt>
      <trkpt lat="48.40416" lon="2.64429">
        <ele>-19.60000038147</ele>
        <time>2022-09-29T14:13:59Z</time>
      </trkpt>
      <trkpt lat="48.40414" lon="2.64429">
        <ele>-19.60000038147</ele>
        <time>2022-09-29T14:14:03Z</time>
      </trkpt>
      <trkpt lat="48.40412" lon="2.64429">
        <ele>-19.200000762939</ele>
        <time>2022-09-29T14:14:11Z</time>
      </trkpt>
      <trkpt lat="48.40409" lon="2.64431">
        <ele>-19</ele>
        <time>2022-09-29T14:14:15Z</time>
      </trkpt>
      <trkpt lat="48.40407" lon="2.64434">
        <ele>-19</ele>
        <time>2022-09-29T14:14:19Z</time>
      </trkpt>
      <trkpt lat="48.40404" lon="2.64436">
        <ele>-18.799999237061</ele>
        <time>2022-09-29T14:14:23Z</time>
      </trkpt>
      <trkpt lat="48.40402" lon="2.64438">
        <ele>-18.60000038147</ele>
        <time>2022-09-29T14:14:27Z</time>
      </trkpt>
      <trkpt lat="48.404" lon="2.64442">
        <ele>-18.799999237061</ele>
        <time>2022-09-29T14:14:31Z</time>
      </trkpt>
      <trkpt lat="48.404" lon="2.64444">
        <ele>-18.799999237061</ele>
        <time>2022-09-29T14:14:35Z</time>
      </trkpt>
      <trkpt lat="48.404" lon="2.64447">
        <ele>-19</ele>
        <time>2022-09-29T14:14:39Z</time>
      </trkpt>
      <trkpt lat="48.404" lon="2.64448">
        <ele>-18.799999237061</ele>
        <time>2022-09-29T14:14:43Z</time>
      </trkpt>
      <trkpt lat="48.40401" lon="2.64451">
        <ele>-18.799999237061</ele>
        <time>2022-09-29T14:14:47Z</time>
      </trkpt>
      <trkpt lat="48.40402" lon="2.64453">
        <ele>-19</ele>
        <time>2022-09-29T14:14:51Z</time>
      </trkpt>
      <trkpt lat="48.40401" lon="2.64455">
        <ele>-19</ele>
        <time>2022-09-29T14:14:55Z</time>
      </trkpt>
      <trkpt lat="48.404" lon="2.6446">
        <ele>-19.60000038147</ele>
        <time>2022-09-29T14:14:59Z</time>
      </trkpt>
      <trkpt lat="48.40399" lon="2.64467">
        <ele>-20.60000038147</ele>
        <time>2022-09-29T14:15:03Z</time>
      </trkpt>
      <trkpt lat="48.40398" lon="2.64468">
        <ele>-21.200000762939</ele>
        <time>2022-09-29T14:15:07Z</time>
      </trkpt>
      <trkpt lat="48.40396" lon="2.64464">
        <ele>-21.39999961853</ele>
        <time>2022-09-29T14:15:11Z</time>
      </trkpt>
      <trkpt lat="48.40391" lon="2.64464">
        <ele>-21</ele>
        <time>2022-09-29T14:15:15Z</time>
      </trkpt>
      <trkpt lat="48.40389" lon="2.64466">
        <ele>-21</ele>
        <time>2022-09-29T14:15:19Z</time>
      </trkpt>
      <trkpt lat="48.40387" lon="2.6447">
        <ele>-21.39999961853</ele>
        <time>2022-09-29T14:15:23Z</time>
      </trkpt>
      <trkpt lat="48.40383" lon="2.64474">
        <ele>-22</ele>
        <time>2022-09-29T14:15:27Z</time>
      </trkpt>
      <trkpt lat="48.40382" lon="2.64476">
        <ele>-22.60000038147</ele>
        <time>2022-09-29T14:15:31Z</time>
      </trkpt>
      <trkpt lat="48.4038" lon="2.64479">
        <ele>-23</ele>
        <time>2022-09-29T14:15:35Z</time>
      </trkpt>
      <trkpt lat="48.40379" lon="2.64481">
        <ele>-23.39999961853</ele>
        <time>2022-09-29T14:15:39Z</time>
      </trkpt>
      <trkpt lat="48.40377" lon="2.64485">
        <ele>-24.200000762939</ele>
        <time>2022-09-29T14:15:43Z</time>
      </trkpt>
      <trkpt lat="48.40374" lon="2.64491">
        <ele>-24.799999237061</ele>
        <time>2022-09-29T14:15:47Z</time>
      </trkpt>
      <trkpt lat="48.40371" lon="2.64495">
        <ele>-25.60000038147</ele>
        <time>2022-09-29T14:15:51Z</time>
      </trkpt>
      <trkpt lat="48.4037" lon="2.64498">
        <ele>-26.799999237061</ele>
        <time>2022-09-29T14:15:55Z</time>
      </trkpt>
      <trkpt lat="48.4037" lon="2.64501">
        <ele>-27.39999961853</ele>
        <time>2022-09-29T14:15:59Z</time>
      </trkpt>
      <trkpt lat="48.40367" lon="2.64504">
        <ele>-28</ele>
        <time>2022-09-29T14:16:03Z</time>
      </trkpt>
      <trkpt lat="48.40366" lon="2.64507">
        <ele>-28.799999237061</ele>
        <time>2022-09-29T14:16:07Z</time>
      </trkpt>
      <trkpt lat="48.40363" lon="2.6451">
        <ele>-29.60000038147</ele>
        <time>2022-09-29T14:16:11Z</time>
      </trkpt>
      <trkpt lat="48.4036" lon="2.64514">
        <ele>-30.39999961853</ele>
        <time>2022-09-29T14:16:15Z</time>
      </trkpt>
      <trkpt lat="48.40356" lon="2.64517">
        <ele>-31.39999961853</ele>
        <time>2022-09-29T14:16:19Z</time>
      </trkpt>
      <trkpt lat="48.40355" lon="2.64521">
        <ele>-32.599998474121</ele>
        <time>2022-09-29T14:16:23Z</time>
      </trkpt>
      <trkpt lat="48.40354" lon="2.6452">
        <ele>-33</ele>
        <time>2022-09-29T14:16:27Z</time>
      </trkpt>
      <trkpt lat="48.40354" lon="2.64521">
        <ele>-33.200000762939</ele>
        <time>2022-09-29T14:16:30Z</time>
      </trkpt>
      <trkpt lat="48.40354" lon="2.64522">
        <ele>-33</ele>
        <time>2022-09-29T14:16:35Z</time>
      </trkpt>
      <trkpt lat="48.40354" lon="2.64524">
        <ele>-33</ele>
        <time>2022-09-29T14:16:39Z</time>
      </trkpt>
      <trkpt lat="48.40354" lon="2.64526">
        <ele>-33</ele>
        <time>2022-09-29T14:16:44Z</time>
      </trkpt>
      <trkpt lat="48.40355" lon="2.64527">
        <ele>-33.200000762939</ele>
        <time>2022-09-29T14:16:48Z</time>
      </trkpt>
      <trkpt lat="48.40355" lon="2.64529">
        <ele>-33.200000762939</ele>
        <time>2022-09-29T14:16:53Z</time>
      </trkpt>
      <trkpt lat="48.40354" lon="2.64529">
        <ele>-33.400001525879</ele>
        <time>2022-09-29T14:16:57Z</time>
      </trkpt>
      <trkpt lat="48.40353" lon="2.64529">
        <ele>-33.200000762939</ele>
        <time>2022-09-29T14:17:01Z</time>
      </trkpt>
      <trkpt lat="48.40351" lon="2.6453">
        <ele>-33.200000762939</ele>
        <time>2022-09-29T14:17:09Z</time>
      </trkpt>
      <trkpt lat="48.40351" lon="2.64529">
        <ele>-33.200000762939</ele>
        <time>2022-09-29T14:17:13Z</time>
      </trkpt>
      <trkpt lat="48.4035" lon="2.64529">
        <ele>-33.200000762939</ele>
        <time>2022-09-29T14:17:17Z</time>
      </trkpt>
      <trkpt lat="48.4035" lon="2.64528">
        <ele>-33.200000762939</ele>
        <time>2022-09-29T14:17:21Z</time>
      </trkpt>
      <trkpt lat="48.40349" lon="2.64528">
        <ele>-33.200000762939</ele>
        <time>2022-09-29T14:17:25Z</time>
      </trkpt>
      <trkpt lat="48.40348" lon="2.64529">
        <ele>-33.200000762939</ele>
        <time>2022-09-29T14:17:29Z</time>
      </trkpt>
      <trkpt lat="48.40347" lon="2.64531">
        <ele>-33.200000762939</ele>
        <time>2022-09-29T14:17:37Z</time>
      </trkpt>
      <trkpt lat="48.40346" lon="2.64532">
        <ele>-33.200000762939</ele>
        <time>2022-09-29T14:17:41Z</time>
      </trkpt>
      <trkpt lat="48.40346" lon="2.64533">
        <ele>-33.200000762939</ele>
        <time>2022-09-29T14:17:45Z</time>
      </trkpt>
      <trkpt lat="48.40346" lon="2.64532">
        <ele>-33.200000762939</ele>
        <time>2022-09-29T14:17:49Z</time>
      </trkpt>
      <trkpt lat="48.40347" lon="2.64532">
        <ele>-34</ele>
        <time>2022-09-29T14:17:57Z</time>
      </trkpt>
      <trkpt lat="48.40347" lon="2.64531">
        <ele>-34</ele>
        <time>2022-09-29T14:18:01Z</time>
      </trkpt>
      <trkpt lat="48.40347" lon="2.6453">
        <ele>-34</ele>
        <time>2022-09-29T14:18:05Z</time>
      </trkpt>
      <trkpt lat="48.40347" lon="2.64529">
        <ele>-34</ele>
        <time>2022-09-29T14:18:09Z</time>
      </trkpt>
      <trkpt lat="48.40346" lon="2.64528">
        <ele>-34</ele>
        <time>2022-09-29T14:18:21Z</time>
      </trkpt>
      <trkpt lat="48.40346" lon="2.64527">
        <ele>-34</ele>
        <time>2022-09-29T14:18:28Z</time>
      </trkpt>
      <trkpt lat="48.40345" lon="2.64528">
        <ele>-34</ele>
        <time>2022-09-29T14:18:37Z</time>
      </trkpt>
      <trkpt lat="48.40347" lon="2.64525">
        <ele>-34</ele>
        <time>2022-09-29T14:18:45Z</time>
      </trkpt>
      <trkpt lat="48.40346" lon="2.64525">
        <ele>-34</ele>
        <time>2022-09-29T14:18:53Z</time>
      </trkpt>
      <trkpt lat="48.40346" lon="2.64524">
        <ele>-34</ele>
        <time>2022-09-29T14:19:01Z</time>
      </trkpt>
      <trkpt lat="48.40345" lon="2.64526">
        <ele>-34</ele>
        <time>2022-09-29T14:19:09Z</time>
      </trkpt>
      <trkpt lat="48.40345" lon="2.64527">
        <ele>-34</ele>
        <time>2022-09-29T14:19:13Z</time>
      </trkpt>
      <trkpt lat="48.40346" lon="2.64528">
        <ele>-34</ele>
        <time>2022-09-29T14:19:17Z</time>
      </trkpt>
      <trkpt lat="48.40348" lon="2.6453">
        <ele>-34</ele>
        <time>2022-09-29T14:19:21Z</time>
      </trkpt>
      <trkpt lat="48.4035" lon="2.64533">
        <ele>-34</ele>
        <time>2022-09-29T14:19:25Z</time>
      </trkpt>
      <trkpt lat="48.40352" lon="2.64534">
        <ele>-34</ele>
        <time>2022-09-29T14:19:29Z</time>
      </trkpt>
      <trkpt lat="48.40356" lon="2.64538">
        <ele>-34</ele>
        <time>2022-09-29T14:19:33Z</time>
      </trkpt>
      <trkpt lat="48.40358" lon="2.64541">
        <ele>-34</ele>
        <time>2022-09-29T14:19:37Z</time>
      </trkpt>
      <trkpt lat="48.40359" lon="2.64542">
        <ele>-34</ele>
        <time>2022-09-29T14:19:41Z</time>
      </trkpt>
      <trkpt lat="48.40361" lon="2.64546">
        <ele>-34</ele>
        <time>2022-09-29T14:19:45Z</time>
      </trkpt>
      <trkpt lat="48.40362" lon="2.6455">
        <ele>-34</ele>
        <time>2022-09-29T14:19:49Z</time>
      </trkpt>
      <trkpt lat="48.40361" lon="2.6455">
        <ele>-34</ele>
        <time>2022-09-29T14:19:53Z</time>
      </trkpt>
      <trkpt lat="48.40361" lon="2.64551">
        <ele>-34</ele>
        <time>2022-09-29T14:19:57Z</time>
      </trkpt>
      <trkpt lat="48.40362" lon="2.64555">
        <ele>-31</ele>
        <time>2022-09-29T14:20:01Z</time>
      </trkpt>
      <trkpt lat="48.40361" lon="2.64561">
        <ele>-31</ele>
        <time>2022-09-29T14:20:05Z</time>
      </trkpt>
      <trkpt lat="48.40362" lon="2.64567">
        <ele>-31</ele>
        <time>2022-09-29T14:20:09Z</time>
      </trkpt>
      <trkpt lat="48.40363" lon="2.64573">
        <ele>-31.200000762939</ele>
        <time>2022-09-29T14:20:13Z</time>
      </trkpt>
      <trkpt lat="48.40364" lon="2.64579">
        <ele>-31.39999961853</ele>
        <time>2022-09-29T14:20:17Z</time>
      </trkpt>
      <trkpt lat="48.40364" lon="2.64585">
        <ele>-31.60000038147</ele>
        <time>2022-09-29T14:20:21Z</time>
      </trkpt>
      <trkpt lat="48.40364" lon="2.64592">
        <ele>-31.60000038147</ele>
        <time>2022-09-29T14:20:25Z</time>
      </trkpt>
      <trkpt lat="48.40364" lon="2.64598">
        <ele>-31.60000038147</ele>
        <time>2022-09-29T14:20:29Z</time>
      </trkpt>
      <trkpt lat="48.40366" lon="2.64607">
        <ele>-31.799999237061</ele>
        <time>2022-09-29T14:20:33Z</time>
      </trkpt>
      <trkpt lat="48.40367" lon="2.64613">
        <ele>-31.799999237061</ele>
        <time>2022-09-29T14:20:37Z</time>
      </trkpt>
      <trkpt lat="48.40368" lon="2.64619">
        <ele>-31.799999237061</ele>
        <time>2022-09-29T14:20:41Z</time>
      </trkpt>
      <trkpt lat="48.4037" lon="2.64624">
        <ele>-31.60000038147</ele>
        <time>2022-09-29T14:20:45Z</time>
      </trkpt>
      <trkpt lat="48.40371" lon="2.6463">
        <ele>-31.60000038147</ele>
        <time>2022-09-29T14:20:49Z</time>
      </trkpt>
      <trkpt lat="48.40374" lon="2.64634">
        <ele>-31.39999961853</ele>
        <time>2022-09-29T14:20:53Z</time>
      </trkpt>
      <trkpt lat="48.40376" lon="2.64639">
        <ele>-31</ele>
        <time>2022-09-29T14:20:57Z</time>
      </trkpt>
      <trkpt lat="48.40379" lon="2.64645">
        <ele>-30.799999237061</ele>
        <time>2022-09-29T14:21:01Z</time>
      </trkpt>
      <trkpt lat="48.40382" lon="2.64648">
        <ele>-30.39999961853</ele>
        <time>2022-09-29T14:21:05Z</time>
      </trkpt>
      <trkpt lat="48.40385" lon="2.64653">
        <ele>-30</ele>
        <time>2022-09-29T14:21:09Z</time>
      </trkpt>
      <trkpt lat="48.40388" lon="2.64658">
        <ele>-29.60000038147</ele>
        <time>2022-09-29T14:21:13Z</time>
      </trkpt>
      <trkpt lat="48.40393" lon="2.64661">
        <ele>-29</ele>
        <time>2022-09-29T14:21:17Z</time>
      </trkpt>
      <trkpt lat="48.40395" lon="2.64666">
        <ele>-28.60000038147</ele>
        <time>2022-09-29T14:21:21Z</time>
      </trkpt>
      <trkpt lat="48.40394" lon="2.64672">
        <ele>-28</ele>
        <time>2022-09-29T14:21:25Z</time>
      </trkpt>
      <trkpt lat="48.40393" lon="2.64678">
        <ele>-27.39999961853</ele>
        <time>2022-09-29T14:21:29Z</time>
      </trkpt>
      <trkpt lat="48.40394" lon="2.64682">
        <ele>-26.799999237061</ele>
        <time>2022-09-29T14:21:33Z</time>
      </trkpt>
      <trkpt lat="48.40395" lon="2.64689">
        <ele>-26.200000762939</ele>
        <time>2022-09-29T14:21:37Z</time>
      </trkpt>
      <trkpt lat="48.40393" lon="2.64693">
        <ele>-25.39999961853</ele>
        <time>2022-09-29T14:21:41Z</time>
      </trkpt>
      <trkpt lat="48.40391" lon="2.64695">
        <ele>-24.39999961853</ele>
        <time>2022-09-29T14:21:45Z</time>
      </trkpt>
      <trkpt lat="48.4039" lon="2.64699">
        <ele>-23.799999237061</ele>
        <time>2022-09-29T14:21:49Z</time>
      </trkpt>
      <trkpt lat="48.40389" lon="2.64703">
        <ele>-22.60000038147</ele>
        <time>2022-09-29T14:21:53Z</time>
      </trkpt>
      <trkpt lat="48.40387" lon="2.64707">
        <ele>-22.799999237061</ele>
        <time>2022-09-29T14:21:57Z</time>
      </trkpt>
      <trkpt lat="48.40388" lon="2.64712">
        <ele>-22.799999237061</ele>
        <time>2022-09-29T14:22:01Z</time>
      </trkpt>
      <trkpt lat="48.40389" lon="2.64715">
        <ele>-22.60000038147</ele>
        <time>2022-09-29T14:22:05Z</time>
      </trkpt>
      <trkpt lat="48.40389" lon="2.64719">
        <ele>-22.60000038147</ele>
        <time>2022-09-29T14:22:09Z</time>
      </trkpt>
      <trkpt lat="48.40389" lon="2.64723">
        <ele>-22.200000762939</ele>
        <time>2022-09-29T14:22:13Z</time>
      </trkpt>
      <trkpt lat="48.4039" lon="2.64723">
        <ele>-22.200000762939</ele>
        <time>2022-09-29T14:22:17Z</time>
      </trkpt>
      <trkpt lat="48.40391" lon="2.64722">
        <ele>-22.200000762939</ele>
        <time>2022-09-29T14:22:21Z</time>
      </trkpt>
      <trkpt lat="48.40392" lon="2.64722">
        <ele>-22.200000762939</ele>
        <time>2022-09-29T14:22:25Z</time>
      </trkpt>
      <trkpt lat="48.40393" lon="2.64721">
        <ele>-22.200000762939</ele>
        <time>2022-09-29T14:22:29Z</time>
      </trkpt>
      <trkpt lat="48.40393" lon="2.64719">
        <ele>-21.799999237061</ele>
        <time>2022-09-29T14:22:33Z</time>
      </trkpt>
      <trkpt lat="48.40393" lon="2.64718">
        <ele>-21.799999237061</ele>
        <time>2022-09-29T14:22:37Z</time>
      </trkpt>
      <trkpt lat="48.40392" lon="2.64717">
        <ele>-21.799999237061</ele>
        <time>2022-09-29T14:22:41Z</time>
      </trkpt>
      <trkpt lat="48.4039" lon="2.64718">
        <ele>-21.799999237061</ele>
        <time>2022-09-29T14:22:45Z</time>
      </trkpt>
      <trkpt lat="48.4039" lon="2.64722">
        <ele>-21.799999237061</ele>
        <time>2022-09-29T14:22:49Z</time>
      </trkpt>
      <trkpt lat="48.40392" lon="2.64725">
        <ele>-22</ele>
        <time>2022-09-29T14:22:53Z</time>
      </trkpt>
      <trkpt lat="48.40392" lon="2.64726">
        <ele>-22.200000762939</ele>
        <time>2022-09-29T14:22:57Z</time>
      </trkpt>
      <trkpt lat="48.40394" lon="2.6473">
        <ele>-22.200000762939</ele>
        <time>2022-09-29T14:23:01Z</time>
      </trkpt>
      <trkpt lat="48.40393" lon="2.64733">
        <ele>-22.200000762939</ele>
        <time>2022-09-29T14:23:09Z</time>
      </trkpt>
      <trkpt lat="48.40393" lon="2.64737">
        <ele>-22.200000762939</ele>
        <time>2022-09-29T14:23:13Z</time>
      </trkpt>
      <trkpt lat="48.40392" lon="2.64742">
        <ele>-22.200000762939</ele>
        <time>2022-09-29T14:23:17Z</time>
      </trkpt>
      <trkpt lat="48.40394" lon="2.64746">
        <ele>-22.200000762939</ele>
        <time>2022-09-29T14:23:21Z</time>
      </trkpt>
      <trkpt lat="48.40394" lon="2.64744">
        <ele>-22.200000762939</ele>
        <time>2022-09-29T14:23:25Z</time>
      </trkpt>
      <trkpt lat="48.40394" lon="2.6474">
        <ele>-22.200000762939</ele>
        <time>2022-09-29T14:23:29Z</time>
      </trkpt>
      <trkpt lat="48.40395" lon="2.64738">
        <ele>-22.200000762939</ele>
        <time>2022-09-29T14:23:33Z</time>
      </trkpt>
      <trkpt lat="48.40396" lon="2.64738">
        <ele>-22.200000762939</ele>
        <time>2022-09-29T14:23:41Z</time>
      </trkpt>
      <trkpt lat="48.40395" lon="2.64736">
        <ele>-22.200000762939</ele>
        <time>2022-09-29T14:23:49Z</time>
      </trkpt>
      <trkpt lat="48.40395" lon="2.64735">
        <ele>-22.200000762939</ele>
        <time>2022-09-29T14:23:53Z</time>
      </trkpt>
      <trkpt lat="48.40395" lon="2.64734">
        <ele>-22.200000762939</ele>
        <time>2022-09-29T14:23:57Z</time>
      </trkpt>
      <trkpt lat="48.40395" lon="2.64733">
        <ele>-22.200000762939</ele>
        <time>2022-09-29T14:24:01Z</time>
      </trkpt>
      <trkpt lat="48.40396" lon="2.64733">
        <ele>-22.200000762939</ele>
        <time>2022-09-29T14:24:05Z</time>
      </trkpt>
      <trkpt lat="48.40396" lon="2.64734">
        <ele>-22.200000762939</ele>
        <time>2022-09-29T14:24:09Z</time>
      </trkpt>
      <trkpt lat="48.40397" lon="2.64735">
        <ele>-22.200000762939</ele>
        <time>2022-09-29T14:24:13Z</time>
      </trkpt>
      <trkpt lat="48.40397" lon="2.64736">
        <ele>-22.200000762939</ele>
        <time>2022-09-29T14:24:21Z</time>
      </trkpt>
      <trkpt lat="48.40396" lon="2.64735">
        <ele>-22.200000762939</ele>
        <time>2022-09-29T14:24:25Z</time>
      </trkpt>
      <trkpt lat="48.40395" lon="2.64735">
        <ele>-22.200000762939</ele>
        <time>2022-09-29T14:24:29Z</time>
      </trkpt>
      <trkpt lat="48.40394" lon="2.64736">
        <ele>-22.200000762939</ele>
        <time>2022-09-29T14:24:33Z</time>
      </trkpt>
      <trkpt lat="48.40393" lon="2.64735">
        <ele>-22.200000762939</ele>
        <time>2022-09-29T14:24:37Z</time>
      </trkpt>
      <trkpt lat="48.40393" lon="2.64737">
        <ele>-22.200000762939</ele>
        <time>2022-09-29T14:24:41Z</time>
      </trkpt>
      <trkpt lat="48.40392" lon="2.64736">
        <ele>-22.200000762939</ele>
        <time>2022-09-29T14:24:45Z</time>
      </trkpt>
      <trkpt lat="48.40392" lon="2.64734">
        <ele>-22.200000762939</ele>
        <time>2022-09-29T14:24:49Z</time>
      </trkpt>
      <trkpt lat="48.40393" lon="2.64734">
        <ele>-22.200000762939</ele>
        <time>2022-09-29T14:24:53Z</time>
      </trkpt>
      <trkpt lat="48.40394" lon="2.64734">
        <ele>-22.200000762939</ele>
        <time>2022-09-29T14:24:57Z</time>
      </trkpt>
      <trkpt lat="48.40395" lon="2.64734">
        <ele>-22.200000762939</ele>
        <time>2022-09-29T14:25:01Z</time>
      </trkpt>
      <trkpt lat="48.40396" lon="2.64734">
        <ele>-22.200000762939</ele>
        <time>2022-09-29T14:25:05Z</time>
      </trkpt>
      <trkpt lat="48.40396" lon="2.64733">
        <ele>-22.200000762939</ele>
        <time>2022-09-29T14:25:09Z</time>
      </trkpt>
      <trkpt lat="48.40395" lon="2.64732">
        <ele>-22.200000762939</ele>
        <time>2022-09-29T14:25:21Z</time>
      </trkpt>
      <trkpt lat="48.40394" lon="2.64734">
        <ele>-22.200000762939</ele>
        <time>2022-09-29T14:25:29Z</time>
      </trkpt>
      <trkpt lat="48.40394" lon="2.64733">
        <ele>-22.200000762939</ele>
        <time>2022-09-29T14:25:33Z</time>
      </trkpt>
      <trkpt lat="48.40395" lon="2.64734">
        <ele>-22.200000762939</ele>
        <time>2022-09-29T14:25:37Z</time>
      </trkpt>
      <trkpt lat="48.40395" lon="2.64736">
        <ele>-22.200000762939</ele>
        <time>2022-09-29T14:25:41Z</time>
      </trkpt>
      <trkpt lat="48.40396" lon="2.64739">
        <ele>-22.200000762939</ele>
        <time>2022-09-29T14:25:45Z</time>
      </trkpt>
      <trkpt lat="48.40396" lon="2.64741">
        <ele>-22.200000762939</ele>
        <time>2022-09-29T14:25:49Z</time>
      </trkpt>
      <trkpt lat="48.40397" lon="2.64742">
        <ele>-22.200000762939</ele>
        <time>2022-09-29T14:25:53Z</time>
      </trkpt>
      <trkpt lat="48.40398" lon="2.64741">
        <ele>-22.200000762939</ele>
        <time>2022-09-29T14:26:05Z</time>
      </trkpt>
      <trkpt lat="48.40399" lon="2.64742">
        <ele>-22.200000762939</ele>
        <time>2022-09-29T14:26:09Z</time>
      </trkpt>
      <trkpt lat="48.40401" lon="2.64743">
        <ele>-22.200000762939</ele>
        <time>2022-09-29T14:26:13Z</time>
      </trkpt>
      <trkpt lat="48.40403" lon="2.64743">
        <ele>-22.200000762939</ele>
        <time>2022-09-29T14:26:17Z</time>
      </trkpt>
      <trkpt lat="48.40404" lon="2.64744">
        <ele>-22.200000762939</ele>
        <time>2022-09-29T14:26:21Z</time>
      </trkpt>
      <trkpt lat="48.40403" lon="2.64744">
        <ele>-22.200000762939</ele>
        <time>2022-09-29T14:26:33Z</time>
      </trkpt>
      <trkpt lat="48.40404" lon="2.64745">
        <ele>-22.200000762939</ele>
        <time>2022-09-29T14:26:37Z</time>
      </trkpt>
      <trkpt lat="48.40405" lon="2.64746">
        <ele>-22.200000762939</ele>
        <time>2022-09-29T14:26:41Z</time>
      </trkpt>
      <trkpt lat="48.40406" lon="2.64747">
        <ele>-22.200000762939</ele>
        <time>2022-09-29T14:26:45Z</time>
      </trkpt>
      <trkpt lat="48.40407" lon="2.64748">
        <ele>-22.200000762939</ele>
        <time>2022-09-29T14:26:49Z</time>
      </trkpt>
      <trkpt lat="48.40407" lon="2.64749">
        <ele>-22.200000762939</ele>
        <time>2022-09-29T14:26:53Z</time>
      </trkpt>
      <trkpt lat="48.40405" lon="2.64751">
        <ele>-22.200000762939</ele>
        <time>2022-09-29T14:26:57Z</time>
      </trkpt>
      <trkpt lat="48.40405" lon="2.64749">
        <ele>-22.200000762939</ele>
        <time>2022-09-29T14:27:01Z</time>
      </trkpt>
      <trkpt lat="48.40404" lon="2.64748">
        <ele>-22.200000762939</ele>
        <time>2022-09-29T14:27:05Z</time>
      </trkpt>
      <trkpt lat="48.40403" lon="2.64747">
        <ele>-22.200000762939</ele>
        <time>2022-09-29T14:27:09Z</time>
      </trkpt>
      <trkpt lat="48.40399" lon="2.64743">
        <ele>-22.200000762939</ele>
        <time>2022-09-29T14:27:13Z</time>
      </trkpt>
      <trkpt lat="48.40396" lon="2.6474">
        <ele>-22.200000762939</ele>
        <time>2022-09-29T14:27:17Z</time>
      </trkpt>
      <trkpt lat="48.40395" lon="2.64736">
        <ele>-22.200000762939</ele>
        <time>2022-09-29T14:27:21Z</time>
      </trkpt>
      <trkpt lat="48.40393" lon="2.64731">
        <ele>-22.200000762939</ele>
        <time>2022-09-29T14:27:25Z</time>
      </trkpt>
      <trkpt lat="48.4039" lon="2.64726">
        <ele>-22.200000762939</ele>
        <time>2022-09-29T14:27:29Z</time>
      </trkpt>
      <trkpt lat="48.40389" lon="2.64721">
        <ele>-22.200000762939</ele>
        <time>2022-09-29T14:27:33Z</time>
      </trkpt>
      <trkpt lat="48.40387" lon="2.64714">
        <ele>-22.200000762939</ele>
        <time>2022-09-29T14:27:37Z</time>
      </trkpt>
      <trkpt lat="48.40389" lon="2.64709">
        <ele>-22.200000762939</ele>
        <time>2022-09-29T14:27:41Z</time>
      </trkpt>
      <trkpt lat="48.40392" lon="2.64703">
        <ele>-22.200000762939</ele>
        <time>2022-09-29T14:27:45Z</time>
      </trkpt>
      <trkpt lat="48.40392" lon="2.647">
        <ele>-22.799999237061</ele>
        <time>2022-09-29T14:27:49Z</time>
      </trkpt>
      <trkpt lat="48.40394" lon="2.64699">
        <ele>-23.200000762939</ele>
        <time>2022-09-29T14:27:53Z</time>
      </trkpt>
      <trkpt lat="48.40397" lon="2.64698">
        <ele>-23.60000038147</ele>
        <time>2022-09-29T14:27:57Z</time>
      </trkpt>
      <trkpt lat="48.40398" lon="2.64696">
        <ele>-24.39999961853</ele>
        <time>2022-09-29T14:28:01Z</time>
      </trkpt>
      <trkpt lat="48.40398" lon="2.64692">
        <ele>-24.60000038147</ele>
        <time>2022-09-29T14:28:05Z</time>
      </trkpt>
      <trkpt lat="48.40399" lon="2.64685">
        <ele>-25.200000762939</ele>
        <time>2022-09-29T14:28:09Z</time>
      </trkpt>
      <trkpt lat="48.404" lon="2.64681">
        <ele>-26.200000762939</ele>
        <time>2022-09-29T14:28:13Z</time>
      </trkpt>
      <trkpt lat="48.40402" lon="2.6468">
        <ele>-26.60000038147</ele>
        <time>2022-09-29T14:28:17Z</time>
      </trkpt>
      <trkpt lat="48.40404" lon="2.6468">
        <ele>-26.60000038147</ele>
        <time>2022-09-29T14:28:21Z</time>
      </trkpt>
      <trkpt lat="48.40404" lon="2.64681">
        <ele>-26.200000762939</ele>
        <time>2022-09-29T14:28:25Z</time>
      </trkpt>
      <trkpt lat="48.40405" lon="2.64683">
        <ele>-26</ele>
        <time>2022-09-29T14:28:29Z</time>
      </trkpt>
      <trkpt lat="48.40408" lon="2.64684">
        <ele>-25.60000038147</ele>
        <time>2022-09-29T14:28:33Z</time>
      </trkpt>
      <trkpt lat="48.4041" lon="2.64687">
        <ele>-25.200000762939</ele>
        <time>2022-09-29T14:28:37Z</time>
      </trkpt>
      <trkpt lat="48.40412" lon="2.6469">
        <ele>-25</ele>
        <time>2022-09-29T14:28:41Z</time>
      </trkpt>
      <trkpt lat="48.40415" lon="2.64692">
        <ele>-25</ele>
        <time>2022-09-29T14:28:45Z</time>
      </trkpt>
      <trkpt lat="48.40418" lon="2.64695">
        <ele>-25</ele>
        <time>2022-09-29T14:28:49Z</time>
      </trkpt>
      <trkpt lat="48.4042" lon="2.64696">
        <ele>-25.200000762939</ele>
        <time>2022-09-29T14:28:53Z</time>
      </trkpt>
      <trkpt lat="48.40423" lon="2.64698">
        <ele>-25.39999961853</ele>
        <time>2022-09-29T14:28:57Z</time>
      </trkpt>
      <trkpt lat="48.40425" lon="2.647">
        <ele>-25.799999237061</ele>
        <time>2022-09-29T14:29:01Z</time>
      </trkpt>
      <trkpt lat="48.40428" lon="2.64703">
        <ele>-26.39999961853</ele>
        <time>2022-09-29T14:29:05Z</time>
      </trkpt>
      <trkpt lat="48.40431" lon="2.64707">
        <ele>-27</ele>
        <time>2022-09-29T14:29:09Z</time>
      </trkpt>
      <trkpt lat="48.40433" lon="2.6471">
        <ele>-27.60000038147</ele>
        <time>2022-09-29T14:29:13Z</time>
      </trkpt>
      <trkpt lat="48.40434" lon="2.64713">
        <ele>-28.39999961853</ele>
        <time>2022-09-29T14:29:17Z</time>
      </trkpt>
      <trkpt lat="48.40436" lon="2.64718">
        <ele>-29.39999961853</ele>
        <time>2022-09-29T14:29:21Z</time>
      </trkpt>
      <trkpt lat="48.40439" lon="2.64722">
        <ele>-30.60000038147</ele>
        <time>2022-09-29T14:29:25Z</time>
      </trkpt>
      <trkpt lat="48.40443" lon="2.64723">
        <ele>-31.60000038147</ele>
        <time>2022-09-29T14:29:29Z</time>
      </trkpt>
      <trkpt lat="48.40448" lon="2.64722">
        <ele>-32.200000762939</ele>
        <time>2022-09-29T14:29:33Z</time>
      </trkpt>
      <trkpt lat="48.40451" lon="2.64723">
        <ele>-33</ele>
        <time>2022-09-29T14:29:37Z</time>
      </trkpt>
      <trkpt lat="48.40455" lon="2.6473">
        <ele>-33.599998474121</ele>
        <time>2022-09-29T14:29:41Z</time>
      </trkpt>
      <trkpt lat="48.4046" lon="2.64734">
        <ele>-34.400001525879</ele>
        <time>2022-09-29T14:29:45Z</time>
      </trkpt>
      <trkpt lat="48.40462" lon="2.64736">
        <ele>-35.200000762939</ele>
        <time>2022-09-29T14:29:49Z</time>
      </trkpt>
      <trkpt lat="48.40465" lon="2.64738">
        <ele>-35.599998474121</ele>
        <time>2022-09-29T14:29:53Z</time>
      </trkpt>
      <trkpt lat="48.40467" lon="2.64741">
        <ele>-36</ele>
        <time>2022-09-29T14:29:57Z</time>
      </trkpt>
      <trkpt lat="48.4047" lon="2.64744">
        <ele>-36.400001525879</ele>
        <time>2022-09-29T14:30:01Z</time>
      </trkpt>
      <trkpt lat="48.40471" lon="2.64744">
        <ele>-36.799999237061</ele>
        <time>2022-09-29T14:30:05Z</time>
      </trkpt>
      <trkpt lat="48.40474" lon="2.64745">
        <ele>-37</ele>
        <time>2022-09-29T14:30:09Z</time>
      </trkpt>
      <trkpt lat="48.40478" lon="2.64747">
        <ele>-37.799999237061</ele>
        <time>2022-09-29T14:30:13Z</time>
      </trkpt>
      <trkpt lat="48.4048" lon="2.64748">
        <ele>-38.599998474121</ele>
        <time>2022-09-29T14:30:17Z</time>
      </trkpt>
      <trkpt lat="48.40484" lon="2.64751">
        <ele>-38.799999237061</ele>
        <time>2022-09-29T14:30:21Z</time>
      </trkpt>
      <trkpt lat="48.40487" lon="2.64757">
        <ele>-39.400001525879</ele>
        <time>2022-09-29T14:30:25Z</time>
      </trkpt>
      <trkpt lat="48.40489" lon="2.64761">
        <ele>-39.599998474121</ele>
        <time>2022-09-29T14:30:29Z</time>
      </trkpt>
      <trkpt lat="48.40493" lon="2.64764">
        <ele>-39.799999237061</ele>
        <time>2022-09-29T14:30:33Z</time>
      </trkpt>
      <trkpt lat="48.40495" lon="2.64764">
        <ele>-40.200000762939</ele>
        <time>2022-09-29T14:30:37Z</time>
      </trkpt>
      <trkpt lat="48.40496" lon="2.64764">
        <ele>-40.599998474121</ele>
        <time>2022-09-29T14:30:41Z</time>
      </trkpt>
      <trkpt lat="48.405" lon="2.64766">
        <ele>-41</ele>
        <time>2022-09-29T14:30:45Z</time>
      </trkpt>
      <trkpt lat="48.40505" lon="2.64768">
        <ele>-41.400001525879</ele>
        <time>2022-09-29T14:30:49Z</time>
      </trkpt>
      <trkpt lat="48.40508" lon="2.64771">
        <ele>-41.799999237061</ele>
        <time>2022-09-29T14:30:53Z</time>
      </trkpt>
      <trkpt lat="48.40512" lon="2.64774">
        <ele>-42.200000762939</ele>
        <time>2022-09-29T14:30:57Z</time>
      </trkpt>
      <trkpt lat="48.40515" lon="2.64774">
        <ele>-42.400001525879</ele>
        <time>2022-09-29T14:31:01Z</time>
      </trkpt>
      <trkpt lat="48.40518" lon="2.64773">
        <ele>-42.599998474121</ele>
        <time>2022-09-29T14:31:05Z</time>
      </trkpt>
      <trkpt lat="48.40522" lon="2.64774">
        <ele>-42.400001525879</ele>
        <time>2022-09-29T14:31:09Z</time>
      </trkpt>
      <trkpt lat="48.40526" lon="2.64775">
        <ele>-42.400001525879</ele>
        <time>2022-09-29T14:31:13Z</time>
      </trkpt>
      <trkpt lat="48.40529" lon="2.64776">
        <ele>-42.400001525879</ele>
        <time>2022-09-29T14:31:17Z</time>
      </trkpt>
      <trkpt lat="48.40533" lon="2.64777">
        <ele>-42.599998474121</ele>
        <time>2022-09-29T14:31:21Z</time>
      </trkpt>
      <trkpt lat="48.40537" lon="2.64779">
        <ele>-42.599998474121</ele>
        <time>2022-09-29T14:31:25Z</time>
      </trkpt>
      <trkpt lat="48.40542" lon="2.64781">
        <ele>-42.599998474121</ele>
        <time>2022-09-29T14:31:29Z</time>
      </trkpt>
      <trkpt lat="48.40546" lon="2.64783">
        <ele>-42.799999237061</ele>
        <time>2022-09-29T14:31:33Z</time>
      </trkpt>
      <trkpt lat="48.4055" lon="2.64784">
        <ele>-43</ele>
        <time>2022-09-29T14:31:37Z</time>
      </trkpt>
      <trkpt lat="48.40555" lon="2.64786">
        <ele>-43.200000762939</ele>
        <time>2022-09-29T14:31:41Z</time>
      </trkpt>
      <trkpt lat="48.40559" lon="2.64787">
        <ele>-43.400001525879</ele>
        <time>2022-09-29T14:31:45Z</time>
      </trkpt>
      <trkpt lat="48.40562" lon="2.64787">
        <ele>-43.799999237061</ele>
        <time>2022-09-29T14:31:49Z</time>
      </trkpt>
      <trkpt lat="48.40565" lon="2.64789">
        <ele>-44.200000762939</ele>
        <time>2022-09-29T14:31:53Z</time>
      </trkpt>
      <trkpt lat="48.40566" lon="2.64792">
        <ele>-44.400001525879</ele>
        <time>2022-09-29T14:31:57Z</time>
      </trkpt>
      <trkpt lat="48.40571" lon="2.64793">
        <ele>-44.599998474121</ele>
        <time>2022-09-29T14:32:01Z</time>
      </trkpt>
      <trkpt lat="48.40577" lon="2.64795">
        <ele>-44.599998474121</ele>
        <time>2022-09-29T14:32:05Z</time>
      </trkpt>
      <trkpt lat="48.40579" lon="2.64794">
        <ele>-44.400001525879</ele>
        <time>2022-09-29T14:32:09Z</time>
      </trkpt>
      <trkpt lat="48.4058" lon="2.64794">
        <ele>-44.200000762939</ele>
        <time>2022-09-29T14:32:13Z</time>
      </trkpt>
      <trkpt lat="48.40581" lon="2.64797">
        <ele>-44.200000762939</ele>
        <time>2022-09-29T14:32:17Z</time>
      </trkpt>
      <trkpt lat="48.40583" lon="2.64804">
        <ele>-44.799999237061</ele>
        <time>2022-09-29T14:32:21Z</time>
      </trkpt>
      <trkpt lat="48.40582" lon="2.64808">
        <ele>-45</ele>
        <time>2022-09-29T14:32:25Z</time>
      </trkpt>
      <trkpt lat="48.4058" lon="2.64812">
        <ele>-45</ele>
        <time>2022-09-29T14:32:29Z</time>
      </trkpt>
      <trkpt lat="48.40578" lon="2.6482">
        <ele>-45.200000762939</ele>
        <time>2022-09-29T14:32:33Z</time>
      </trkpt>
      <trkpt lat="48.40579" lon="2.64826">
        <ele>-45.200000762939</ele>
        <time>2022-09-29T14:32:37Z</time>
      </trkpt>
      <trkpt lat="48.4058" lon="2.64831">
        <ele>-45.400001525879</ele>
        <time>2022-09-29T14:32:41Z</time>
      </trkpt>
      <trkpt lat="48.4058" lon="2.64838">
        <ele>-45.400001525879</ele>
        <time>2022-09-29T14:32:45Z</time>
      </trkpt>
      <trkpt lat="48.40578" lon="2.64845">
        <ele>-45.599998474121</ele>
        <time>2022-09-29T14:32:49Z</time>
      </trkpt>
      <trkpt lat="48.40576" lon="2.64852">
        <ele>-46</ele>
        <time>2022-09-29T14:32:53Z</time>
      </trkpt>
      <trkpt lat="48.40576" lon="2.64859">
        <ele>-46.400001525879</ele>
        <time>2022-09-29T14:32:57Z</time>
      </trkpt>
      <trkpt lat="48.40575" lon="2.64863">
        <ele>-46.599998474121</ele>
        <time>2022-09-29T14:33:01Z</time>
      </trkpt>
      <trkpt lat="48.40574" lon="2.64869">
        <ele>-46.799999237061</ele>
        <time>2022-09-29T14:33:05Z</time>
      </trkpt>
      <trkpt lat="48.40573" lon="2.64873">
        <ele>-47.200000762939</ele>
        <time>2022-09-29T14:33:09Z</time>
      </trkpt>
      <trkpt lat="48.40573" lon="2.64872">
        <ele>-47.400001525879</ele>
        <time>2022-09-29T14:33:13Z</time>
      </trkpt>
      <trkpt lat="48.40573" lon="2.64873">
        <ele>-47.400001525879</ele>
        <time>2022-09-29T14:33:25Z</time>
      </trkpt>
      <trkpt lat="48.40573" lon="2.64874">
        <ele>-47.599998474121</ele>
        <time>2022-09-29T14:33:29Z</time>
      </trkpt>
      <trkpt lat="48.40573" lon="2.64877">
        <ele>-47.599998474121</ele>
        <time>2022-09-29T14:33:33Z</time>
      </trkpt>
      <trkpt lat="48.40572" lon="2.6488">
        <ele>-47.799999237061</ele>
        <time>2022-09-29T14:33:37Z</time>
      </trkpt>
      <trkpt lat="48.40572" lon="2.64881">
        <ele>-47.799999237061</ele>
        <time>2022-09-29T14:33:41Z</time>
      </trkpt>
      <trkpt lat="48.40571" lon="2.64881">
        <ele>-47.799999237061</ele>
        <time>2022-09-29T14:33:45Z</time>
      </trkpt>
      <trkpt lat="48.4057" lon="2.64881">
        <ele>-47.799999237061</ele>
        <time>2022-09-29T14:33:49Z</time>
      </trkpt>
      <trkpt lat="48.40569" lon="2.6488">
        <ele>-47.599998474121</ele>
        <time>2022-09-29T14:33:53Z</time>
      </trkpt>
      <trkpt lat="48.40568" lon="2.6488">
        <ele>-47.599998474121</ele>
        <time>2022-09-29T14:33:57Z</time>
      </trkpt>
      <trkpt lat="48.40567" lon="2.64878">
        <ele>-47.799999237061</ele>
        <time>2022-09-29T14:34:01Z</time>
      </trkpt>
      <trkpt lat="48.40567" lon="2.64877">
        <ele>-47.799999237061</ele>
        <time>2022-09-29T14:34:05Z</time>
      </trkpt>
      <trkpt lat="48.40568" lon="2.64877">
        <ele>-47.799999237061</ele>
        <time>2022-09-29T14:34:09Z</time>
      </trkpt>
      <trkpt lat="48.40569" lon="2.64877">
        <ele>-47.799999237061</ele>
        <time>2022-09-29T14:34:13Z</time>
      </trkpt>
      <trkpt lat="48.4057" lon="2.64878">
        <ele>-47.799999237061</ele>
        <time>2022-09-29T14:34:17Z</time>
      </trkpt>
      <trkpt lat="48.40574" lon="2.6488">
        <ele>-47.799999237061</ele>
        <time>2022-09-29T14:34:21Z</time>
      </trkpt>
      <trkpt lat="48.40575" lon="2.64879">
        <ele>-47.799999237061</ele>
        <time>2022-09-29T14:34:25Z</time>
      </trkpt>
      <trkpt lat="48.40576" lon="2.64878">
        <ele>-47.799999237061</ele>
        <time>2022-09-29T14:34:29Z</time>
      </trkpt>
      <trkpt lat="48.40577" lon="2.64877">
        <ele>-47.799999237061</ele>
        <time>2022-09-29T14:34:33Z</time>
      </trkpt>
      <trkpt lat="48.40576" lon="2.64876">
        <ele>-47.799999237061</ele>
        <time>2022-09-29T14:34:37Z</time>
      </trkpt>
      <trkpt lat="48.40575" lon="2.64877">
        <ele>-47.799999237061</ele>
        <time>2022-09-29T14:34:41Z</time>
      </trkpt>
      <trkpt lat="48.40573" lon="2.64879">
        <ele>-47.799999237061</ele>
        <time>2022-09-29T14:34:45Z</time>
      </trkpt>
      <trkpt lat="48.40569" lon="2.64884">
        <ele>-47.799999237061</ele>
        <time>2022-09-29T14:34:49Z</time>
      </trkpt>
      <trkpt lat="48.40567" lon="2.64887">
        <ele>-47.799999237061</ele>
        <time>2022-09-29T14:34:53Z</time>
      </trkpt>
      <trkpt lat="48.40566" lon="2.64889">
        <ele>-47.799999237061</ele>
        <time>2022-09-29T14:34:57Z</time>
      </trkpt>
      <trkpt lat="48.40564" lon="2.64893">
        <ele>-47.799999237061</ele>
        <time>2022-09-29T14:35:01Z</time>
      </trkpt>
      <trkpt lat="48.40562" lon="2.64896">
        <ele>-49</ele>
        <time>2022-09-29T14:35:05Z</time>
      </trkpt>
      <trkpt lat="48.4056" lon="2.649">
        <ele>-49.599998474121</ele>
        <time>2022-09-29T14:35:09Z</time>
      </trkpt>
      <trkpt lat="48.40559" lon="2.64904">
        <ele>-50</ele>
        <time>2022-09-29T14:35:13Z</time>
      </trkpt>
      <trkpt lat="48.40556" lon="2.64909">
        <ele>-50.599998474121</ele>
        <time>2022-09-29T14:35:17Z</time>
      </trkpt>
      <trkpt lat="48.40554" lon="2.64913">
        <ele>-50.799999237061</ele>
        <time>2022-09-29T14:35:21Z</time>
      </trkpt>
      <trkpt lat="48.40552" lon="2.64918">
        <ele>-51</ele>
        <time>2022-09-29T14:35:25Z</time>
      </trkpt>
      <trkpt lat="48.40549" lon="2.64924">
        <ele>-51.200000762939</ele>
        <time>2022-09-29T14:35:29Z</time>
      </trkpt>
      <trkpt lat="48.40545" lon="2.64929">
        <ele>-51.599998474121</ele>
        <time>2022-09-29T14:35:33Z</time>
      </trkpt>
      <trkpt lat="48.40542" lon="2.64934">
        <ele>-51.799999237061</ele>
        <time>2022-09-29T14:35:37Z</time>
      </trkpt>
      <trkpt lat="48.40538" lon="2.6494">
        <ele>-52</ele>
        <time>2022-09-29T14:35:41Z</time>
      </trkpt>
      <trkpt lat="48.40536" lon="2.64944">
        <ele>-52.400001525879</ele>
        <time>2022-09-29T14:35:45Z</time>
      </trkpt>
      <trkpt lat="48.40536" lon="2.64947">
        <ele>-52.400001525879</ele>
        <time>2022-09-29T14:35:49Z</time>
      </trkpt>
      <trkpt lat="48.40532" lon="2.64953">
        <ele>-52.599998474121</ele>
        <time>2022-09-29T14:35:53Z</time>
      </trkpt>
      <trkpt lat="48.40528" lon="2.64961">
        <ele>-52.799999237061</ele>
        <time>2022-09-29T14:35:57Z</time>
      </trkpt>
      <trkpt lat="48.40525" lon="2.64968">
        <ele>-53</ele>
        <time>2022-09-29T14:36:01Z</time>
      </trkpt>
      <trkpt lat="48.40523" lon="2.64974">
        <ele>-53.200000762939</ele>
        <time>2022-09-29T14:36:05Z</time>
      </trkpt>
      <trkpt lat="48.40521" lon="2.64981">
        <ele>-53.599998474121</ele>
        <time>2022-09-29T14:36:09Z</time>
      </trkpt>
      <trkpt lat="48.40518" lon="2.64986">
        <ele>-53.799999237061</ele>
        <time>2022-09-29T14:36:13Z</time>
      </trkpt>
      <trkpt lat="48.40516" lon="2.6499">
        <ele>-54</ele>
        <time>2022-09-29T14:36:17Z</time>
      </trkpt>
      <trkpt lat="48.40512" lon="2.64993">
        <ele>-54.200000762939</ele>
        <time>2022-09-29T14:36:21Z</time>
      </trkpt>
      <trkpt lat="48.40508" lon="2.64996">
        <ele>-54.400001525879</ele>
        <time>2022-09-29T14:36:25Z</time>
      </trkpt>
      <trkpt lat="48.40504" lon="2.64999">
        <ele>-54.599998474121</ele>
        <time>2022-09-29T14:36:29Z</time>
      </trkpt>
      <trkpt lat="48.40501" lon="2.65002">
        <ele>-55</ele>
        <time>2022-09-29T14:36:33Z</time>
      </trkpt>
      <trkpt lat="48.40499" lon="2.65004">
        <ele>-55</ele>
        <time>2022-09-29T14:36:37Z</time>
      </trkpt>
      <trkpt lat="48.40496" lon="2.65008">
        <ele>-55.200000762939</ele>
        <time>2022-09-29T14:36:41Z</time>
      </trkpt>
      <trkpt lat="48.40493" lon="2.65012">
        <ele>-55.400001525879</ele>
        <time>2022-09-29T14:36:45Z</time>
      </trkpt>
      <trkpt lat="48.4049" lon="2.65015">
        <ele>-55.599998474121</ele>
        <time>2022-09-29T14:36:49Z</time>
      </trkpt>
      <trkpt lat="48.40486" lon="2.6502">
        <ele>-55.799999237061</ele>
        <time>2022-09-29T14:36:53Z</time>
      </trkpt>
      <trkpt lat="48.40483" lon="2.65025">
        <ele>-56</ele>
        <time>2022-09-29T14:36:57Z</time>
      </trkpt>
      <trkpt lat="48.4048" lon="2.65031">
        <ele>-56.200000762939</ele>
        <time>2022-09-29T14:37:01Z</time>
      </trkpt>
      <trkpt lat="48.40478" lon="2.65036">
        <ele>-56.200000762939</ele>
        <time>2022-09-29T14:37:05Z</time>
      </trkpt>
      <trkpt lat="48.40475" lon="2.65042">
        <ele>-56.400001525879</ele>
        <time>2022-09-29T14:37:09Z</time>
      </trkpt>
      <trkpt lat="48.40472" lon="2.65047">
        <ele>-56.599998474121</ele>
        <time>2022-09-29T14:37:13Z</time>
      </trkpt>
      <trkpt lat="48.40469" lon="2.65051">
        <ele>-56.799999237061</ele>
        <time>2022-09-29T14:37:17Z</time>
      </trkpt>
      <trkpt lat="48.40466" lon="2.65056">
        <ele>-57</ele>
        <time>2022-09-29T14:37:21Z</time>
      </trkpt>
      <trkpt lat="48.40464" lon="2.6506">
        <ele>-57</ele>
        <time>2022-09-29T14:37:25Z</time>
      </trkpt>
      <trkpt lat="48.40462" lon="2.65065">
        <ele>-57.200000762939</ele>
        <time>2022-09-29T14:37:29Z</time>
      </trkpt>
      <trkpt lat="48.4046" lon="2.65069">
        <ele>-57.400001525879</ele>
        <time>2022-09-29T14:37:33Z</time>
      </trkpt>
      <trkpt lat="48.40457" lon="2.65074">
        <ele>-57.400001525879</ele>
        <time>2022-09-29T14:37:37Z</time>
      </trkpt>
      <trkpt lat="48.40455" lon="2.65078">
        <ele>-57.599998474121</ele>
        <time>2022-09-29T14:37:41Z</time>
      </trkpt>
      <trkpt lat="48.40451" lon="2.65083">
        <ele>-57.799999237061</ele>
        <time>2022-09-29T14:37:45Z</time>
      </trkpt>
      <trkpt lat="48.40447" lon="2.65089">
        <ele>-58</ele>
        <time>2022-09-29T14:37:49Z</time>
      </trkpt>
      <trkpt lat="48.40444" lon="2.65095">
        <ele>-58</ele>
        <time>2022-09-29T14:37:53Z</time>
      </trkpt>
      <trkpt lat="48.40441" lon="2.651">
        <ele>-58.200000762939</ele>
        <time>2022-09-29T14:37:57Z</time>
      </trkpt>
      <trkpt lat="48.40439" lon="2.65103">
        <ele>-58.200000762939</ele>
        <time>2022-09-29T14:38:01Z</time>
      </trkpt>
      <trkpt lat="48.40436" lon="2.65107">
        <ele>-58.400001525879</ele>
        <time>2022-09-29T14:38:05Z</time>
      </trkpt>
      <trkpt lat="48.40432" lon="2.6511">
        <ele>-58.599998474121</ele>
        <time>2022-09-29T14:38:09Z</time>
      </trkpt>
      <trkpt lat="48.40429" lon="2.65114">
        <ele>-58.599998474121</ele>
        <time>2022-09-29T14:38:13Z</time>
      </trkpt>
      <trkpt lat="48.40423" lon="2.65116">
        <ele>-58.799999237061</ele>
        <time>2022-09-29T14:38:17Z</time>
      </trkpt>
      <trkpt lat="48.40419" lon="2.65119">
        <ele>-59</ele>
        <time>2022-09-29T14:38:21Z</time>
      </trkpt>
      <trkpt lat="48.40414" lon="2.65122">
        <ele>-59.200000762939</ele>
        <time>2022-09-29T14:38:25Z</time>
      </trkpt>
      <trkpt lat="48.40409" lon="2.65127">
        <ele>-59.200000762939</ele>
        <time>2022-09-29T14:38:29Z</time>
      </trkpt>
      <trkpt lat="48.40406" lon="2.65131">
        <ele>-59.200000762939</ele>
        <time>2022-09-29T14:38:33Z</time>
      </trkpt>
      <trkpt lat="48.40403" lon="2.65133">
        <ele>-59.200000762939</ele>
        <time>2022-09-29T14:38:37Z</time>
      </trkpt>
      <trkpt lat="48.404" lon="2.65135">
        <ele>-59.200000762939</ele>
        <time>2022-09-29T14:38:41Z</time>
      </trkpt>
      <trkpt lat="48.40398" lon="2.65137">
        <ele>-59.400001525879</ele>
        <time>2022-09-29T14:38:45Z</time>
      </trkpt>
      <trkpt lat="48.40394" lon="2.65141">
        <ele>-59.400001525879</ele>
        <time>2022-09-29T14:38:49Z</time>
      </trkpt>
      <trkpt lat="48.40389" lon="2.65146">
        <ele>-59.400001525879</ele>
        <time>2022-09-29T14:38:53Z</time>
      </trkpt>
      <trkpt lat="48.40383" lon="2.65151">
        <ele>-59.599998474121</ele>
        <time>2022-09-29T14:38:57Z</time>
      </trkpt>
      <trkpt lat="48.40379" lon="2.65155">
        <ele>-59.799999237061</ele>
        <time>2022-09-29T14:39:01Z</time>
      </trkpt>
      <trkpt lat="48.40376" lon="2.65159">
        <ele>-59.799999237061</ele>
        <time>2022-09-29T14:39:05Z</time>
      </trkpt>
      <trkpt lat="48.40374" lon="2.65161">
        <ele>-59.799999237061</ele>
        <time>2022-09-29T14:39:09Z</time>
      </trkpt>
      <trkpt lat="48.40369" lon="2.65163">
        <ele>-59.400001525879</ele>
        <time>2022-09-29T14:39:13Z</time>
      </trkpt>
      <trkpt lat="48.40366" lon="2.65167">
        <ele>-59.200000762939</ele>
        <time>2022-09-29T14:39:17Z</time>
      </trkpt>
      <trkpt lat="48.40362" lon="2.65172">
        <ele>-59.200000762939</ele>
        <time>2022-09-29T14:39:21Z</time>
      </trkpt>
      <trkpt lat="48.40359" lon="2.65176">
        <ele>-58.599998474121</ele>
        <time>2022-09-29T14:39:25Z</time>
      </trkpt>
      <trkpt lat="48.40357" lon="2.65176">
        <ele>-58</ele>
        <time>2022-09-29T14:39:29Z</time>
      </trkpt>
      <trkpt lat="48.40353" lon="2.6518">
        <ele>-57.599998474121</ele>
        <time>2022-09-29T14:39:33Z</time>
      </trkpt>
      <trkpt lat="48.40351" lon="2.65185">
        <ele>-57.200000762939</ele>
        <time>2022-09-29T14:39:37Z</time>
      </trkpt>
      <trkpt lat="48.40349" lon="2.65188">
        <ele>-56.400001525879</ele>
        <time>2022-09-29T14:39:41Z</time>
      </trkpt>
      <trkpt lat="48.40347" lon="2.65188">
        <ele>-56</ele>
        <time>2022-09-29T14:39:45Z</time>
      </trkpt>
      <trkpt lat="48.40344" lon="2.65187">
        <ele>-55.400001525879</ele>
        <time>2022-09-29T14:39:49Z</time>
      </trkpt>
      <trkpt lat="48.40341" lon="2.65184">
        <ele>-55</ele>
        <time>2022-09-29T14:39:53Z</time>
      </trkpt>
      <trkpt lat="48.40337" lon="2.65183">
        <ele>-54.599998474121</ele>
        <time>2022-09-29T14:39:57Z</time>
      </trkpt>
      <trkpt lat="48.40332" lon="2.65186">
        <ele>-54.400001525879</ele>
        <time>2022-09-29T14:40:01Z</time>
      </trkpt>
      <trkpt lat="48.40329" lon="2.65189">
        <ele>-54.200000762939</ele>
        <time>2022-09-29T14:40:05Z</time>
      </trkpt>
      <trkpt lat="48.40326" lon="2.65191">
        <ele>-54.200000762939</ele>
        <time>2022-09-29T14:40:09Z</time>
      </trkpt>
      <trkpt lat="48.40323" lon="2.65196">
        <ele>-54</ele>
        <time>2022-09-29T14:40:13Z</time>
      </trkpt>
      <trkpt lat="48.4032" lon="2.652">
        <ele>-54</ele>
        <time>2022-09-29T14:40:17Z</time>
      </trkpt>
      <trkpt lat="48.40319" lon="2.65205">
        <ele>-54</ele>
        <time>2022-09-29T14:40:21Z</time>
      </trkpt>
      <trkpt lat="48.40318" lon="2.6521">
        <ele>-53.799999237061</ele>
        <time>2022-09-29T14:40:25Z</time>
      </trkpt>
      <trkpt lat="48.40317" lon="2.65215">
        <ele>-53.799999237061</ele>
        <time>2022-09-29T14:40:29Z</time>
      </trkpt>
      <trkpt lat="48.40315" lon="2.65218">
        <ele>-53.799999237061</ele>
        <time>2022-09-29T14:40:33Z</time>
      </trkpt>
      <trkpt lat="48.40313" lon="2.65224">
        <ele>-53.599998474121</ele>
        <time>2022-09-29T14:40:37Z</time>
      </trkpt>
      <trkpt lat="48.40312" lon="2.65228">
        <ele>-53.400001525879</ele>
        <time>2022-09-29T14:40:41Z</time>
      </trkpt>
      <trkpt lat="48.4031" lon="2.65231">
        <ele>-53.200000762939</ele>
        <time>2022-09-29T14:40:45Z</time>
      </trkpt>
      <trkpt lat="48.40308" lon="2.65234">
        <ele>-52.799999237061</ele>
        <time>2022-09-29T14:40:49Z</time>
      </trkpt>
      <trkpt lat="48.40306" lon="2.65237">
        <ele>-52.400001525879</ele>
        <time>2022-09-29T14:40:53Z</time>
      </trkpt>
      <trkpt lat="48.40304" lon="2.6524">
        <ele>-52.200000762939</ele>
        <time>2022-09-29T14:40:57Z</time>
      </trkpt>
      <trkpt lat="48.40302" lon="2.65242">
        <ele>-52</ele>
        <time>2022-09-29T14:41:01Z</time>
      </trkpt>
      <trkpt lat="48.40301" lon="2.65246">
        <ele>-51.599998474121</ele>
        <time>2022-09-29T14:41:05Z</time>
      </trkpt>
      <trkpt lat="48.40296" lon="2.6525">
        <ele>-50.799999237061</ele>
        <time>2022-09-29T14:41:09Z</time>
      </trkpt>
      <trkpt lat="48.40294" lon="2.65253">
        <ele>-50</ele>
        <time>2022-09-29T14:41:13Z</time>
      </trkpt>
      <trkpt lat="48.40292" lon="2.65255">
        <ele>-49.799999237061</ele>
        <time>2022-09-29T14:41:17Z</time>
      </trkpt>
      <trkpt lat="48.40288" lon="2.65257">
        <ele>-49.599998474121</ele>
        <time>2022-09-29T14:41:21Z</time>
      </trkpt>
      <trkpt lat="48.40285" lon="2.65261">
        <ele>-49.400001525879</ele>
        <time>2022-09-29T14:41:25Z</time>
      </trkpt>
      <trkpt lat="48.40284" lon="2.65264">
        <ele>-49.200000762939</ele>
        <time>2022-09-29T14:41:29Z</time>
      </trkpt>
      <trkpt lat="48.40283" lon="2.65269">
        <ele>-48.799999237061</ele>
        <time>2022-09-29T14:41:33Z</time>
      </trkpt>
      <trkpt lat="48.4028" lon="2.65274">
        <ele>-48.200000762939</ele>
        <time>2022-09-29T14:41:37Z</time>
      </trkpt>
      <trkpt lat="48.40281" lon="2.65276">
        <ele>-47.599998474121</ele>
        <time>2022-09-29T14:41:41Z</time>
      </trkpt>
      <trkpt lat="48.40279" lon="2.6528">
        <ele>-47</ele>
        <time>2022-09-29T14:41:49Z</time>
      </trkpt>
      <trkpt lat="48.40276" lon="2.65289">
        <ele>-47</ele>
        <time>2022-09-29T14:41:53Z</time>
      </trkpt>
      <trkpt lat="48.40276" lon="2.65295">
        <ele>-47</ele>
        <time>2022-09-29T14:41:57Z</time>
      </trkpt>
      <trkpt lat="48.40273" lon="2.65301">
        <ele>-47</ele>
        <time>2022-09-29T14:42:01Z</time>
      </trkpt>
      <trkpt lat="48.40271" lon="2.65303">
        <ele>-47.200000762939</ele>
        <time>2022-09-29T14:42:05Z</time>
      </trkpt>
      <trkpt lat="48.4027" lon="2.65304">
        <ele>-47.200000762939</ele>
        <time>2022-09-29T14:42:09Z</time>
      </trkpt>
      <trkpt lat="48.4027" lon="2.65307">
        <ele>-47.200000762939</ele>
        <time>2022-09-29T14:42:13Z</time>
      </trkpt>
      <trkpt lat="48.40268" lon="2.65312">
        <ele>-47.200000762939</ele>
        <time>2022-09-29T14:42:17Z</time>
      </trkpt>
      <trkpt lat="48.40266" lon="2.65317">
        <ele>-47.400001525879</ele>
        <time>2022-09-29T14:42:21Z</time>
      </trkpt>
      <trkpt lat="48.40265" lon="2.65322">
        <ele>-47.599998474121</ele>
        <time>2022-09-29T14:42:25Z</time>
      </trkpt>
      <trkpt lat="48.40266" lon="2.65325">
        <ele>-47.799999237061</ele>
        <time>2022-09-29T14:42:29Z</time>
      </trkpt>
      <trkpt lat="48.40263" lon="2.65329">
        <ele>-48</ele>
        <time>2022-09-29T14:42:33Z</time>
      </trkpt>
      <trkpt lat="48.40261" lon="2.65334">
        <ele>-48.400001525879</ele>
        <time>2022-09-29T14:42:37Z</time>
      </trkpt>
      <trkpt lat="48.40261" lon="2.65333">
        <ele>-48.400001525879</ele>
        <time>2022-09-29T14:42:41Z</time>
      </trkpt>
      <trkpt lat="48.40259" lon="2.65335">
        <ele>-48.599998474121</ele>
        <time>2022-09-29T14:42:45Z</time>
      </trkpt>
      <trkpt lat="48.40253" lon="2.65344">
        <ele>-49.200000762939</ele>
        <time>2022-09-29T14:42:49Z</time>
      </trkpt>
      <trkpt lat="48.40252" lon="2.65345">
        <ele>-49.200000762939</ele>
        <time>2022-09-29T14:42:53Z</time>
      </trkpt>
      <trkpt lat="48.4025" lon="2.65346">
        <ele>-49.400001525879</ele>
        <time>2022-09-29T14:42:57Z</time>
      </trkpt>
      <trkpt lat="48.40248" lon="2.65347">
        <ele>-49.400001525879</ele>
        <time>2022-09-29T14:43:01Z</time>
      </trkpt>
      <trkpt lat="48.40246" lon="2.65352">
        <ele>-49.799999237061</ele>
        <time>2022-09-29T14:43:05Z</time>
      </trkpt>
      <trkpt lat="48.40243" lon="2.65355">
        <ele>-50.200000762939</ele>
        <time>2022-09-29T14:43:09Z</time>
      </trkpt>
      <trkpt lat="48.4024" lon="2.65357">
        <ele>-50.599998474121</ele>
        <time>2022-09-29T14:43:13Z</time>
      </trkpt>
      <trkpt lat="48.40236" lon="2.65357">
        <ele>-51.200000762939</ele>
        <time>2022-09-29T14:43:17Z</time>
      </trkpt>
      <trkpt lat="48.40231" lon="2.65357">
        <ele>-51.799999237061</ele>
        <time>2022-09-29T14:43:21Z</time>
      </trkpt>
      <trkpt lat="48.40225" lon="2.65359">
        <ele>-52.200000762939</ele>
        <time>2022-09-29T14:43:25Z</time>
      </trkpt>
      <trkpt lat="48.40222" lon="2.65355">
        <ele>-52.200000762939</ele>
        <time>2022-09-29T14:43:29Z</time>
      </trkpt>
      <trkpt lat="48.40219" lon="2.65353">
        <ele>-52.200000762939</ele>
        <time>2022-09-29T14:43:33Z</time>
      </trkpt>
      <trkpt lat="48.40216" lon="2.65351">
        <ele>-52.200000762939</ele>
        <time>2022-09-29T14:43:37Z</time>
      </trkpt>
      <trkpt lat="48.40213" lon="2.65351">
        <ele>-52.599998474121</ele>
        <time>2022-09-29T14:43:41Z</time>
      </trkpt>
      <trkpt lat="48.4021" lon="2.65349">
        <ele>-53.200000762939</ele>
        <time>2022-09-29T14:43:45Z</time>
      </trkpt>
      <trkpt lat="48.40206" lon="2.65351">
        <ele>-53.599998474121</ele>
        <time>2022-09-29T14:43:49Z</time>
      </trkpt>
      <trkpt lat="48.40205" lon="2.65351">
        <ele>-54</ele>
        <time>2022-09-29T14:43:53Z</time>
      </trkpt>
      <trkpt lat="48.40206" lon="2.6535">
        <ele>-54</ele>
        <time>2022-09-29T14:43:57Z</time>
      </trkpt>
      <trkpt lat="48.40206" lon="2.65349">
        <ele>-54</ele>
        <time>2022-09-29T14:44:05Z</time>
      </trkpt>
      <trkpt lat="48.40207" lon="2.65348">
        <ele>-54</ele>
        <time>2022-09-29T14:44:09Z</time>
      </trkpt>
      <trkpt lat="48.40207" lon="2.65347">
        <ele>-54</ele>
        <time>2022-09-29T14:44:13Z</time>
      </trkpt>
      <trkpt lat="48.40206" lon="2.65347">
        <ele>-54</ele>
        <time>2022-09-29T14:44:17Z</time>
      </trkpt>
      <trkpt lat="48.40206" lon="2.65346">
        <ele>-54</ele>
        <time>2022-09-29T14:44:21Z</time>
      </trkpt>
      <trkpt lat="48.40206" lon="2.65345">
        <ele>-53.799999237061</ele>
        <time>2022-09-29T14:44:29Z</time>
      </trkpt>
      <trkpt lat="48.40206" lon="2.65344">
        <ele>-53.599998474121</ele>
        <time>2022-09-29T14:44:41Z</time>
      </trkpt>
      <trkpt lat="48.40205" lon="2.65343">
        <ele>-53.599998474121</ele>
        <time>2022-09-29T14:44:49Z</time>
      </trkpt>
      <trkpt lat="48.40204" lon="2.65343">
        <ele>-53.599998474121</ele>
        <time>2022-09-29T14:44:53Z</time>
      </trkpt>
      <trkpt lat="48.40203" lon="2.65343">
        <ele>-53.599998474121</ele>
        <time>2022-09-29T14:44:57Z</time>
      </trkpt>
      <trkpt lat="48.40203" lon="2.65342">
        <ele>-53.599998474121</ele>
        <time>2022-09-29T14:45:05Z</time>
      </trkpt>
      <trkpt lat="48.40204" lon="2.65343">
        <ele>-53.599998474121</ele>
        <time>2022-09-29T14:45:09Z</time>
      </trkpt>
      <trkpt lat="48.40203" lon="2.65344">
        <ele>-53.599998474121</ele>
        <time>2022-09-29T14:45:17Z</time>
      </trkpt>
      <trkpt lat="48.40204" lon="2.65346">
        <ele>-53.599998474121</ele>
        <time>2022-09-29T14:45:21Z</time>
      </trkpt>
      <trkpt lat="48.40206" lon="2.65347">
        <ele>-53.599998474121</ele>
        <time>2022-09-29T14:45:25Z</time>
      </trkpt>
      <trkpt lat="48.40207" lon="2.65348">
        <ele>-53.599998474121</ele>
        <time>2022-09-29T14:45:29Z</time>
      </trkpt>
      <trkpt lat="48.40207" lon="2.65349">
        <ele>-53.599998474121</ele>
        <time>2022-09-29T14:45:33Z</time>
      </trkpt>
      <trkpt lat="48.40207" lon="2.65351">
        <ele>-53.599998474121</ele>
        <time>2022-09-29T14:45:37Z</time>
      </trkpt>
      <trkpt lat="48.40206" lon="2.65353">
        <ele>-53.599998474121</ele>
        <time>2022-09-29T14:45:41Z</time>
      </trkpt>
      <trkpt lat="48.402" lon="2.65353">
        <ele>-53.599998474121</ele>
        <time>2022-09-29T14:45:45Z</time>
      </trkpt>
      <trkpt lat="48.40198" lon="2.65352">
        <ele>-53.599998474121</ele>
        <time>2022-09-29T14:45:49Z</time>
      </trkpt>
      <trkpt lat="48.40197" lon="2.65352">
        <ele>-53.599998474121</ele>
        <time>2022-09-29T14:45:57Z</time>
      </trkpt>
      <trkpt lat="48.40192" lon="2.65356">
        <ele>-53.599998474121</ele>
        <time>2022-09-29T14:46:01Z</time>
      </trkpt>
      <trkpt lat="48.40189" lon="2.65361">
        <ele>-53.599998474121</ele>
        <time>2022-09-29T14:46:05Z</time>
      </trkpt>
      <trkpt lat="48.40189" lon="2.65363">
        <ele>-53.599998474121</ele>
        <time>2022-09-29T14:46:09Z</time>
      </trkpt>
      <trkpt lat="48.40188" lon="2.65364">
        <ele>-53.599998474121</ele>
        <time>2022-09-29T14:46:13Z</time>
      </trkpt>
      <trkpt lat="48.40187" lon="2.65368">
        <ele>-53.599998474121</ele>
        <time>2022-09-29T14:46:17Z</time>
      </trkpt>
      <trkpt lat="48.40185" lon="2.65369">
        <ele>-53.599998474121</ele>
        <time>2022-09-29T14:46:21Z</time>
      </trkpt>
      <trkpt lat="48.40181" lon="2.65372">
        <ele>-53.599998474121</ele>
        <time>2022-09-29T14:46:25Z</time>
      </trkpt>
      <trkpt lat="48.40179" lon="2.65378">
        <ele>-53.599998474121</ele>
        <time>2022-09-29T14:46:29Z</time>
      </trkpt>
      <trkpt lat="48.40177" lon="2.65385">
        <ele>-53.599998474121</ele>
        <time>2022-09-29T14:46:33Z</time>
      </trkpt>
      <trkpt lat="48.40176" lon="2.6539">
        <ele>-53.599998474121</ele>
        <time>2022-09-29T14:46:37Z</time>
      </trkpt>
      <trkpt lat="48.40175" lon="2.65392">
        <ele>-53.599998474121</ele>
        <time>2022-09-29T14:46:41Z</time>
      </trkpt>
      <trkpt lat="48.40171" lon="2.65399">
        <ele>-53.599998474121</ele>
        <time>2022-09-29T14:46:45Z</time>
      </trkpt>
      <trkpt lat="48.40169" lon="2.65402">
        <ele>-53.599998474121</ele>
        <time>2022-09-29T14:46:49Z</time>
      </trkpt>
      <trkpt lat="48.40167" lon="2.65405">
        <ele>-60.400001525879</ele>
        <time>2022-09-29T14:46:53Z</time>
      </trkpt>
      <trkpt lat="48.40162" lon="2.65409">
        <ele>-60.200000762939</ele>
        <time>2022-09-29T14:46:57Z</time>
      </trkpt>
      <trkpt lat="48.40158" lon="2.65413">
        <ele>-60.400001525879</ele>
        <time>2022-09-29T14:47:01Z</time>
      </trkpt>
      <trkpt lat="48.40158" lon="2.65414">
        <ele>-60.599998474121</ele>
        <time>2022-09-29T14:47:05Z</time>
      </trkpt>
      <trkpt lat="48.40157" lon="2.65417">
        <ele>-60.599998474121</ele>
        <time>2022-09-29T14:47:09Z</time>
      </trkpt>
      <trkpt lat="48.40157" lon="2.65419">
        <ele>-60.599998474121</ele>
        <time>2022-09-29T14:47:13Z</time>
      </trkpt>
      <trkpt lat="48.40157" lon="2.65418">
        <ele>-60.799999237061</ele>
        <time>2022-09-29T14:47:21Z</time>
      </trkpt>
      <trkpt lat="48.40156" lon="2.65419">
        <ele>-60.599998474121</ele>
        <time>2022-09-29T14:47:29Z</time>
      </trkpt>
      <trkpt lat="48.40155" lon="2.65419">
        <ele>-60.599998474121</ele>
        <time>2022-09-29T14:47:45Z</time>
      </trkpt>
      <trkpt lat="48.40154" lon="2.65418">
        <ele>-60.599998474121</ele>
        <time>2022-09-29T14:47:49Z</time>
      </trkpt>
      <trkpt lat="48.40154" lon="2.65419">
        <ele>-60.799999237061</ele>
        <time>2022-09-29T14:47:57Z</time>
      </trkpt>
      <trkpt lat="48.40153" lon="2.65419">
        <ele>-60.799999237061</ele>
        <time>2022-09-29T14:48:05Z</time>
      </trkpt>
      <trkpt lat="48.40153" lon="2.6542">
        <ele>-60.799999237061</ele>
        <time>2022-09-29T14:48:09Z</time>
      </trkpt>
      <trkpt lat="48.40153" lon="2.65419">
        <ele>-60.799999237061</ele>
        <time>2022-09-29T14:48:13Z</time>
      </trkpt>
      <trkpt lat="48.40155" lon="2.65417">
        <ele>-61</ele>
        <time>2022-09-29T14:48:17Z</time>
      </trkpt>
      <trkpt lat="48.40156" lon="2.65415">
        <ele>-60.799999237061</ele>
        <time>2022-09-29T14:48:21Z</time>
      </trkpt>
      <trkpt lat="48.40156" lon="2.65416">
        <ele>-60.799999237061</ele>
        <time>2022-09-29T14:48:25Z</time>
      </trkpt>
      <trkpt lat="48.40155" lon="2.65415">
        <ele>-61</ele>
        <time>2022-09-29T14:48:29Z</time>
      </trkpt>
      <trkpt lat="48.40155" lon="2.65416">
        <ele>-61</ele>
        <time>2022-09-29T14:48:33Z</time>
      </trkpt>
      <trkpt lat="48.40155" lon="2.65418">
        <ele>-60.799999237061</ele>
        <time>2022-09-29T14:48:37Z</time>
      </trkpt>
      <trkpt lat="48.40156" lon="2.65419">
        <ele>-61</ele>
        <time>2022-09-29T14:48:41Z</time>
      </trkpt>
      <trkpt lat="48.40157" lon="2.6542">
        <ele>-61</ele>
        <time>2022-09-29T14:48:45Z</time>
      </trkpt>
      <trkpt lat="48.40159" lon="2.65422">
        <ele>-61</ele>
        <time>2022-09-29T14:48:49Z</time>
      </trkpt>
      <trkpt lat="48.40159" lon="2.65426">
        <ele>-61</ele>
        <time>2022-09-29T14:48:53Z</time>
      </trkpt>
      <trkpt lat="48.40158" lon="2.65435">
        <ele>-61.200000762939</ele>
        <time>2022-09-29T14:48:57Z</time>
      </trkpt>
      <trkpt lat="48.40157" lon="2.65439">
        <ele>-61.200000762939</ele>
        <time>2022-09-29T14:49:01Z</time>
      </trkpt>
      <trkpt lat="48.40157" lon="2.65443">
        <ele>-61.200000762939</ele>
        <time>2022-09-29T14:49:05Z</time>
      </trkpt>
      <trkpt lat="48.40156" lon="2.65448">
        <ele>-61.200000762939</ele>
        <time>2022-09-29T14:49:09Z</time>
      </trkpt>
      <trkpt lat="48.40156" lon="2.65453">
        <ele>-61</ele>
        <time>2022-09-29T14:49:13Z</time>
      </trkpt>
      <trkpt lat="48.40157" lon="2.65458">
        <ele>-61.200000762939</ele>
        <time>2022-09-29T14:49:17Z</time>
      </trkpt>
      <trkpt lat="48.40156" lon="2.65462">
        <ele>-61.400001525879</ele>
        <time>2022-09-29T14:49:21Z</time>
      </trkpt>
      <trkpt lat="48.40156" lon="2.65467">
        <ele>-61.400001525879</ele>
        <time>2022-09-29T14:49:25Z</time>
      </trkpt>
      <trkpt lat="48.40156" lon="2.65471">
        <ele>-61.400001525879</ele>
        <time>2022-09-29T14:49:29Z</time>
      </trkpt>
      <trkpt lat="48.40156" lon="2.65479">
        <ele>-61.400001525879</ele>
        <time>2022-09-29T14:49:33Z</time>
      </trkpt>
      <trkpt lat="48.40156" lon="2.65487">
        <ele>-61.200000762939</ele>
        <time>2022-09-29T14:49:37Z</time>
      </trkpt>
      <trkpt lat="48.40155" lon="2.65495">
        <ele>-61.200000762939</ele>
        <time>2022-09-29T14:49:41Z</time>
      </trkpt>
      <trkpt lat="48.40154" lon="2.65501">
        <ele>-61.400001525879</ele>
        <time>2022-09-29T14:49:45Z</time>
      </trkpt>
      <trkpt lat="48.40152" lon="2.65506">
        <ele>-61.599998474121</ele>
        <time>2022-09-29T14:49:49Z</time>
      </trkpt>
      <trkpt lat="48.40152" lon="2.65511">
        <ele>-61.599998474121</ele>
        <time>2022-09-29T14:49:53Z</time>
      </trkpt>
      <trkpt lat="48.4015" lon="2.65515">
        <ele>-61.599998474121</ele>
        <time>2022-09-29T14:49:57Z</time>
      </trkpt>
      <trkpt lat="48.40149" lon="2.65521">
        <ele>-61.599998474121</ele>
        <time>2022-09-29T14:50:01Z</time>
      </trkpt>
      <trkpt lat="48.40147" lon="2.65526">
        <ele>-61.599998474121</ele>
        <time>2022-09-29T14:50:05Z</time>
      </trkpt>
      <trkpt lat="48.40147" lon="2.65533">
        <ele>-61.599998474121</ele>
        <time>2022-09-29T14:50:09Z</time>
      </trkpt>
      <trkpt lat="48.40147" lon="2.6554">
        <ele>-61.799999237061</ele>
        <time>2022-09-29T14:50:13Z</time>
      </trkpt>
      <trkpt lat="48.40147" lon="2.65546">
        <ele>-61.799999237061</ele>
        <time>2022-09-29T14:50:17Z</time>
      </trkpt>
      <trkpt lat="48.40148" lon="2.65553">
        <ele>-61.799999237061</ele>
        <time>2022-09-29T14:50:21Z</time>
      </trkpt>
      <trkpt lat="48.40148" lon="2.65561">
        <ele>-62.200000762939</ele>
        <time>2022-09-29T14:50:25Z</time>
      </trkpt>
      <trkpt lat="48.40147" lon="2.65568">
        <ele>-62.400001525879</ele>
        <time>2022-09-29T14:50:29Z</time>
      </trkpt>
      <trkpt lat="48.40146" lon="2.65576">
        <ele>-62.400001525879</ele>
        <time>2022-09-29T14:50:33Z</time>
      </trkpt>
      <trkpt lat="48.40145" lon="2.65583">
        <ele>-62.599998474121</ele>
        <time>2022-09-29T14:50:37Z</time>
      </trkpt>
      <trkpt lat="48.40145" lon="2.65589">
        <ele>-62.599998474121</ele>
        <time>2022-09-29T14:50:41Z</time>
      </trkpt>
      <trkpt lat="48.40145" lon="2.65596">
        <ele>-62.599998474121</ele>
        <time>2022-09-29T14:50:45Z</time>
      </trkpt>
      <trkpt lat="48.40144" lon="2.65603">
        <ele>-62.799999237061</ele>
        <time>2022-09-29T14:50:49Z</time>
      </trkpt>
      <trkpt lat="48.40144" lon="2.6561">
        <ele>-62.799999237061</ele>
        <time>2022-09-29T14:50:53Z</time>
      </trkpt>
      <trkpt lat="48.40145" lon="2.65616">
        <ele>-62.799999237061</ele>
        <time>2022-09-29T14:50:57Z</time>
      </trkpt>
      <trkpt lat="48.40145" lon="2.65624">
        <ele>-62.799999237061</ele>
        <time>2022-09-29T14:51:01Z</time>
      </trkpt>
      <trkpt lat="48.40145" lon="2.6563">
        <ele>-62.799999237061</ele>
        <time>2022-09-29T14:51:05Z</time>
      </trkpt>
      <trkpt lat="48.40143" lon="2.65635">
        <ele>-62.799999237061</ele>
        <time>2022-09-29T14:51:09Z</time>
      </trkpt>
      <trkpt lat="48.40142" lon="2.65639">
        <ele>-63</ele>
        <time>2022-09-29T14:51:13Z</time>
      </trkpt>
      <trkpt lat="48.40142" lon="2.65644">
        <ele>-63</ele>
        <time>2022-09-29T14:51:17Z</time>
      </trkpt>
      <trkpt lat="48.40142" lon="2.65648">
        <ele>-63.200000762939</ele>
        <time>2022-09-29T14:51:21Z</time>
      </trkpt>
      <trkpt lat="48.40143" lon="2.65653">
        <ele>-63.200000762939</ele>
        <time>2022-09-29T14:51:25Z</time>
      </trkpt>
      <trkpt lat="48.40143" lon="2.65661">
        <ele>-63.200000762939</ele>
        <time>2022-09-29T14:51:29Z</time>
      </trkpt>
      <trkpt lat="48.40142" lon="2.65667">
        <ele>-63.200000762939</ele>
        <time>2022-09-29T14:51:33Z</time>
      </trkpt>
      <trkpt lat="48.4014" lon="2.65672">
        <ele>-63.200000762939</ele>
        <time>2022-09-29T14:51:37Z</time>
      </trkpt>
      <trkpt lat="48.40139" lon="2.65679">
        <ele>-63.200000762939</ele>
        <time>2022-09-29T14:51:41Z</time>
      </trkpt>
      <trkpt lat="48.40137" lon="2.65686">
        <ele>-63.200000762939</ele>
        <time>2022-09-29T14:51:45Z</time>
      </trkpt>
      <trkpt lat="48.40136" lon="2.65693">
        <ele>-63.200000762939</ele>
        <time>2022-09-29T14:51:49Z</time>
      </trkpt>
      <trkpt lat="48.40136" lon="2.65701">
        <ele>-63.200000762939</ele>
        <time>2022-09-29T14:51:53Z</time>
      </trkpt>
      <trkpt lat="48.40135" lon="2.6571">
        <ele>-63.200000762939</ele>
        <time>2022-09-29T14:51:57Z</time>
      </trkpt>
      <trkpt lat="48.40133" lon="2.65717">
        <ele>-63.200000762939</ele>
        <time>2022-09-29T14:52:01Z</time>
      </trkpt>
      <trkpt lat="48.40132" lon="2.65723">
        <ele>-63.200000762939</ele>
        <time>2022-09-29T14:52:05Z</time>
      </trkpt>
      <trkpt lat="48.40131" lon="2.6573">
        <ele>-63.400001525879</ele>
        <time>2022-09-29T14:52:09Z</time>
      </trkpt>
      <trkpt lat="48.40131" lon="2.65735">
        <ele>-63.599998474121</ele>
        <time>2022-09-29T14:52:13Z</time>
      </trkpt>
      <trkpt lat="48.4013" lon="2.65741">
        <ele>-63.599998474121</ele>
        <time>2022-09-29T14:52:17Z</time>
      </trkpt>
      <trkpt lat="48.40131" lon="2.65747">
        <ele>-63.599998474121</ele>
        <time>2022-09-29T14:52:21Z</time>
      </trkpt>
      <trkpt lat="48.40132" lon="2.65753">
        <ele>-63.599998474121</ele>
        <time>2022-09-29T14:52:25Z</time>
      </trkpt>
      <trkpt lat="48.40131" lon="2.65761">
        <ele>-63.799999237061</ele>
        <time>2022-09-29T14:52:29Z</time>
      </trkpt>
      <trkpt lat="48.4013" lon="2.65769">
        <ele>-63.799999237061</ele>
        <time>2022-09-29T14:52:33Z</time>
      </trkpt>
      <trkpt lat="48.40129" lon="2.65776">
        <ele>-63.799999237061</ele>
        <time>2022-09-29T14:52:37Z</time>
      </trkpt>
      <trkpt lat="48.40127" lon="2.65782">
        <ele>-63.799999237061</ele>
        <time>2022-09-29T14:52:41Z</time>
      </trkpt>
      <trkpt lat="48.40126" lon="2.65788">
        <ele>-64</ele>
        <time>2022-09-29T14:52:45Z</time>
      </trkpt>
      <trkpt lat="48.40123" lon="2.65792">
        <ele>-64</ele>
        <time>2022-09-29T14:52:49Z</time>
      </trkpt>
      <trkpt lat="48.40123" lon="2.658">
        <ele>-64</ele>
        <time>2022-09-29T14:52:53Z</time>
      </trkpt>
      <trkpt lat="48.40122" lon="2.65807">
        <ele>-64</ele>
        <time>2022-09-29T14:52:57Z</time>
      </trkpt>
      <trkpt lat="48.40122" lon="2.65813">
        <ele>-64.199996948242</ele>
        <time>2022-09-29T14:53:01Z</time>
      </trkpt>
      <trkpt lat="48.40122" lon="2.65819">
        <ele>-64.199996948242</ele>
        <time>2022-09-29T14:53:05Z</time>
      </trkpt>
      <trkpt lat="48.40122" lon="2.65824">
        <ele>-64.400001525879</ele>
        <time>2022-09-29T14:53:09Z</time>
      </trkpt>
      <trkpt lat="48.4012" lon="2.6583">
        <ele>-64.599998474121</ele>
        <time>2022-09-29T14:53:13Z</time>
      </trkpt>
      <trkpt lat="48.40122" lon="2.65836">
        <ele>-64.599998474121</ele>
        <time>2022-09-29T14:53:17Z</time>
      </trkpt>
      <trkpt lat="48.40123" lon="2.65844">
        <ele>-64.599998474121</ele>
        <time>2022-09-29T14:53:21Z</time>
      </trkpt>
      <trkpt lat="48.40123" lon="2.65852">
        <ele>-64.800003051758</ele>
        <time>2022-09-29T14:53:25Z</time>
      </trkpt>
      <trkpt lat="48.40123" lon="2.65858">
        <ele>-64.800003051758</ele>
        <time>2022-09-29T14:53:29Z</time>
      </trkpt>
      <trkpt lat="48.40124" lon="2.65867">
        <ele>-65</ele>
        <time>2022-09-29T14:53:33Z</time>
      </trkpt>
      <trkpt lat="48.40123" lon="2.65876">
        <ele>-65</ele>
        <time>2022-09-29T14:53:37Z</time>
      </trkpt>
      <trkpt lat="48.40122" lon="2.65883">
        <ele>-65</ele>
        <time>2022-09-29T14:53:41Z</time>
      </trkpt>
      <trkpt lat="48.40122" lon="2.65891">
        <ele>-65.199996948242</ele>
        <time>2022-09-29T14:53:45Z</time>
      </trkpt>
      <trkpt lat="48.40121" lon="2.65898">
        <ele>-65.199996948242</ele>
        <time>2022-09-29T14:53:49Z</time>
      </trkpt>
      <trkpt lat="48.4012" lon="2.65906">
        <ele>-65.400001525879</ele>
        <time>2022-09-29T14:53:53Z</time>
      </trkpt>
      <trkpt lat="48.40121" lon="2.65912">
        <ele>-65.400001525879</ele>
        <time>2022-09-29T14:53:57Z</time>
      </trkpt>
      <trkpt lat="48.40122" lon="2.65918">
        <ele>-65.400001525879</ele>
        <time>2022-09-29T14:54:01Z</time>
      </trkpt>
      <trkpt lat="48.40121" lon="2.65925">
        <ele>-65.400001525879</ele>
        <time>2022-09-29T14:54:05Z</time>
      </trkpt>
      <trkpt lat="48.4012" lon="2.65933">
        <ele>-65.599998474121</ele>
        <time>2022-09-29T14:54:09Z</time>
      </trkpt>
      <trkpt lat="48.40119" lon="2.65939">
        <ele>-65.800003051758</ele>
        <time>2022-09-29T14:54:13Z</time>
      </trkpt>
      <trkpt lat="48.40119" lon="2.65945">
        <ele>-65.800003051758</ele>
        <time>2022-09-29T14:54:17Z</time>
      </trkpt>
      <trkpt lat="48.4012" lon="2.65952">
        <ele>-66</ele>
        <time>2022-09-29T14:54:21Z</time>
      </trkpt>
      <trkpt lat="48.4012" lon="2.65958">
        <ele>-66.199996948242</ele>
        <time>2022-09-29T14:54:25Z</time>
      </trkpt>
      <trkpt lat="48.40118" lon="2.65964">
        <ele>-66.199996948242</ele>
        <time>2022-09-29T14:54:29Z</time>
      </trkpt>
      <trkpt lat="48.40117" lon="2.6597">
        <ele>-66.400001525879</ele>
        <time>2022-09-29T14:54:33Z</time>
      </trkpt>
      <trkpt lat="48.40115" lon="2.65976">
        <ele>-66.400001525879</ele>
        <time>2022-09-29T14:54:37Z</time>
      </trkpt>
      <trkpt lat="48.40114" lon="2.65982">
        <ele>-66.400001525879</ele>
        <time>2022-09-29T14:54:41Z</time>
      </trkpt>
      <trkpt lat="48.40113" lon="2.65988">
        <ele>-66.599998474121</ele>
        <time>2022-09-29T14:54:45Z</time>
      </trkpt>
      <trkpt lat="48.40112" lon="2.65993">
        <ele>-66.599998474121</ele>
        <time>2022-09-29T14:54:49Z</time>
      </trkpt>
      <trkpt lat="48.40112" lon="2.66">
        <ele>-66.800003051758</ele>
        <time>2022-09-29T14:54:53Z</time>
      </trkpt>
      <trkpt lat="48.40111" lon="2.66006">
        <ele>-66.800003051758</ele>
        <time>2022-09-29T14:54:57Z</time>
      </trkpt>
      <trkpt lat="48.40108" lon="2.66014">
        <ele>-66.800003051758</ele>
        <time>2022-09-29T14:55:01Z</time>
      </trkpt>
      <trkpt lat="48.40106" lon="2.6602">
        <ele>-66.800003051758</ele>
        <time>2022-09-29T14:55:05Z</time>
      </trkpt>
      <trkpt lat="48.40105" lon="2.66026">
        <ele>-67</ele>
        <time>2022-09-29T14:55:09Z</time>
      </trkpt>
      <trkpt lat="48.40104" lon="2.66032">
        <ele>-67</ele>
        <time>2022-09-29T14:55:13Z</time>
      </trkpt>
      <trkpt lat="48.40104" lon="2.66038">
        <ele>-67</ele>
        <time>2022-09-29T14:55:17Z</time>
      </trkpt>
      <trkpt lat="48.40102" lon="2.66043">
        <ele>-67.199996948242</ele>
        <time>2022-09-29T14:55:21Z</time>
      </trkpt>
      <trkpt lat="48.40101" lon="2.66048">
        <ele>-67.199996948242</ele>
        <time>2022-09-29T14:55:25Z</time>
      </trkpt>
      <trkpt lat="48.401" lon="2.66054">
        <ele>-67.199996948242</ele>
        <time>2022-09-29T14:55:29Z</time>
      </trkpt>
      <trkpt lat="48.40097" lon="2.6606">
        <ele>-67</ele>
        <time>2022-09-29T14:55:33Z</time>
      </trkpt>
      <trkpt lat="48.40094" lon="2.66067">
        <ele>-66.800003051758</ele>
        <time>2022-09-29T14:55:37Z</time>
      </trkpt>
      <trkpt lat="48.40094" lon="2.66072">
        <ele>-66.800003051758</ele>
        <time>2022-09-29T14:55:41Z</time>
      </trkpt>
      <trkpt lat="48.40092" lon="2.66079">
        <ele>-67</ele>
        <time>2022-09-29T14:55:45Z</time>
      </trkpt>
      <trkpt lat="48.40089" lon="2.66087">
        <ele>-67.199996948242</ele>
        <time>2022-09-29T14:55:49Z</time>
      </trkpt>
      <trkpt lat="48.40087" lon="2.66096">
        <ele>-67.400001525879</ele>
        <time>2022-09-29T14:55:53Z</time>
      </trkpt>
      <trkpt lat="48.40086" lon="2.66103">
        <ele>-67.400001525879</ele>
        <time>2022-09-29T14:55:57Z</time>
      </trkpt>
      <trkpt lat="48.40085" lon="2.66109">
        <ele>-67.400001525879</ele>
        <time>2022-09-29T14:56:01Z</time>
      </trkpt>
      <trkpt lat="48.40084" lon="2.66115">
        <ele>-67.400001525879</ele>
        <time>2022-09-29T14:56:05Z</time>
      </trkpt>
      <trkpt lat="48.40082" lon="2.66121">
        <ele>-67.400001525879</ele>
        <time>2022-09-29T14:56:09Z</time>
      </trkpt>
      <trkpt lat="48.40081" lon="2.66125">
        <ele>-67.599998474121</ele>
        <time>2022-09-29T14:56:13Z</time>
      </trkpt>
      <trkpt lat="48.4008" lon="2.6613">
        <ele>-67.599998474121</ele>
        <time>2022-09-29T14:56:17Z</time>
      </trkpt>
      <trkpt lat="48.40078" lon="2.66137">
        <ele>-67.599998474121</ele>
        <time>2022-09-29T14:56:21Z</time>
      </trkpt>
      <trkpt lat="48.40078" lon="2.66143">
        <ele>-67.599998474121</ele>
        <time>2022-09-29T14:56:25Z</time>
      </trkpt>
      <trkpt lat="48.40076" lon="2.6615">
        <ele>-67.800003051758</ele>
        <time>2022-09-29T14:56:29Z</time>
      </trkpt>
      <trkpt lat="48.40075" lon="2.66157">
        <ele>-67.800003051758</ele>
        <time>2022-09-29T14:56:33Z</time>
      </trkpt>
      <trkpt lat="48.4007" lon="2.66164">
        <ele>-67.800003051758</ele>
        <time>2022-09-29T14:56:37Z</time>
      </trkpt>
      <trkpt lat="48.40067" lon="2.6617">
        <ele>-67.800003051758</ele>
        <time>2022-09-29T14:56:41Z</time>
      </trkpt>
      <trkpt lat="48.40066" lon="2.66177">
        <ele>-67.800003051758</ele>
        <time>2022-09-29T14:56:45Z</time>
      </trkpt>
      <trkpt lat="48.40067" lon="2.66183">
        <ele>-67.800003051758</ele>
        <time>2022-09-29T14:56:49Z</time>
      </trkpt>
      <trkpt lat="48.40066" lon="2.66189">
        <ele>-68</ele>
        <time>2022-09-29T14:56:53Z</time>
      </trkpt>
      <trkpt lat="48.40066" lon="2.66197">
        <ele>-68</ele>
        <time>2022-09-29T14:56:57Z</time>
      </trkpt>
      <trkpt lat="48.40066" lon="2.66204">
        <ele>-68</ele>
        <time>2022-09-29T14:57:01Z</time>
      </trkpt>
      <trkpt lat="48.40067" lon="2.66212">
        <ele>-68.199996948242</ele>
        <time>2022-09-29T14:57:05Z</time>
      </trkpt>
      <trkpt lat="48.40065" lon="2.66219">
        <ele>-68.199996948242</ele>
        <time>2022-09-29T14:57:09Z</time>
      </trkpt>
      <trkpt lat="48.40063" lon="2.66225">
        <ele>-68.199996948242</ele>
        <time>2022-09-29T14:57:13Z</time>
      </trkpt>
      <trkpt lat="48.40061" lon="2.66231">
        <ele>-68.199996948242</ele>
        <time>2022-09-29T14:57:17Z</time>
      </trkpt>
      <trkpt lat="48.40059" lon="2.66238">
        <ele>-68.400001525879</ele>
        <time>2022-09-29T14:57:21Z</time>
      </trkpt>
      <trkpt lat="48.40056" lon="2.66244">
        <ele>-68.400001525879</ele>
        <time>2022-09-29T14:57:25Z</time>
      </trkpt>
      <trkpt lat="48.40057" lon="2.66251">
        <ele>-68.400001525879</ele>
        <time>2022-09-29T14:57:29Z</time>
      </trkpt>
      <trkpt lat="48.40058" lon="2.66258">
        <ele>-68.199996948242</ele>
        <time>2022-09-29T14:57:33Z</time>
      </trkpt>
      <trkpt lat="48.40058" lon="2.66266">
        <ele>-68.599998474121</ele>
        <time>2022-09-29T14:57:37Z</time>
      </trkpt>
      <trkpt lat="48.40056" lon="2.66272">
        <ele>-69</ele>
        <time>2022-09-29T14:57:41Z</time>
      </trkpt>
      <trkpt lat="48.40058" lon="2.66279">
        <ele>-69</ele>
        <time>2022-09-29T14:57:45Z</time>
      </trkpt>
      <trkpt lat="48.40059" lon="2.66285">
        <ele>-69</ele>
        <time>2022-09-29T14:57:49Z</time>
      </trkpt>
      <trkpt lat="48.40059" lon="2.6629">
        <ele>-69</ele>
        <time>2022-09-29T14:57:53Z</time>
      </trkpt>
      <trkpt lat="48.40059" lon="2.66296">
        <ele>-69</ele>
        <time>2022-09-29T14:57:57Z</time>
      </trkpt>
      <trkpt lat="48.40058" lon="2.66302">
        <ele>-69.199996948242</ele>
        <time>2022-09-29T14:58:01Z</time>
      </trkpt>
      <trkpt lat="48.40057" lon="2.66308">
        <ele>-69.199996948242</ele>
        <time>2022-09-29T14:58:05Z</time>
      </trkpt>
      <trkpt lat="48.40055" lon="2.66314">
        <ele>-69.199996948242</ele>
        <time>2022-09-29T14:58:09Z</time>
      </trkpt>
      <trkpt lat="48.40055" lon="2.66321">
        <ele>-69.199996948242</ele>
        <time>2022-09-29T14:58:13Z</time>
      </trkpt>
      <trkpt lat="48.40054" lon="2.66327">
        <ele>-69.400001525879</ele>
        <time>2022-09-29T14:58:17Z</time>
      </trkpt>
      <trkpt lat="48.40052" lon="2.66333">
        <ele>-69.199996948242</ele>
        <time>2022-09-29T14:58:21Z</time>
      </trkpt>
      <trkpt lat="48.40052" lon="2.66342">
        <ele>-69.400001525879</ele>
        <time>2022-09-29T14:58:25Z</time>
      </trkpt>
      <trkpt lat="48.40052" lon="2.66349">
        <ele>-69.599998474121</ele>
        <time>2022-09-29T14:58:29Z</time>
      </trkpt>
      <trkpt lat="48.40051" lon="2.66355">
        <ele>-69.599998474121</ele>
        <time>2022-09-29T14:58:33Z</time>
      </trkpt>
      <trkpt lat="48.40053" lon="2.66362">
        <ele>-69.599998474121</ele>
        <time>2022-09-29T14:58:37Z</time>
      </trkpt>
      <trkpt lat="48.40051" lon="2.6637">
        <ele>-69.599998474121</ele>
        <time>2022-09-29T14:58:41Z</time>
      </trkpt>
      <trkpt lat="48.40052" lon="2.66376">
        <ele>-69.800003051758</ele>
        <time>2022-09-29T14:58:45Z</time>
      </trkpt>
      <trkpt lat="48.40052" lon="2.66384">
        <ele>-69.800003051758</ele>
        <time>2022-09-29T14:58:49Z</time>
      </trkpt>
      <trkpt lat="48.40052" lon="2.66391">
        <ele>-69.800003051758</ele>
        <time>2022-09-29T14:58:53Z</time>
      </trkpt>
      <trkpt lat="48.4005" lon="2.66396">
        <ele>-69.800003051758</ele>
        <time>2022-09-29T14:58:57Z</time>
      </trkpt>
      <trkpt lat="48.40049" lon="2.66401">
        <ele>-70</ele>
        <time>2022-09-29T14:59:01Z</time>
      </trkpt>
      <trkpt lat="48.40049" lon="2.66407">
        <ele>-70</ele>
        <time>2022-09-29T14:59:05Z</time>
      </trkpt>
      <trkpt lat="48.40049" lon="2.66415">
        <ele>-70.199996948242</ele>
        <time>2022-09-29T14:59:09Z</time>
      </trkpt>
      <trkpt lat="48.40048" lon="2.66421">
        <ele>-70.400001525879</ele>
        <time>2022-09-29T14:59:13Z</time>
      </trkpt>
      <trkpt lat="48.40048" lon="2.66427">
        <ele>-70.400001525879</ele>
        <time>2022-09-29T14:59:17Z</time>
      </trkpt>
      <trkpt lat="48.40048" lon="2.66433">
        <ele>-70.400001525879</ele>
        <time>2022-09-29T14:59:21Z</time>
      </trkpt>
      <trkpt lat="48.40046" lon="2.66438">
        <ele>-70.400001525879</ele>
        <time>2022-09-29T14:59:25Z</time>
      </trkpt>
      <trkpt lat="48.40047" lon="2.66445">
        <ele>-70.400001525879</ele>
        <time>2022-09-29T14:59:29Z</time>
      </trkpt>
      <trkpt lat="48.40046" lon="2.66453">
        <ele>-70.400001525879</ele>
        <time>2022-09-29T14:59:33Z</time>
      </trkpt>
      <trkpt lat="48.40047" lon="2.6646">
        <ele>-70.400001525879</ele>
        <time>2022-09-29T14:59:37Z</time>
      </trkpt>
      <trkpt lat="48.40046" lon="2.66467">
        <ele>-70.400001525879</ele>
        <time>2022-09-29T14:59:41Z</time>
      </trkpt>
      <trkpt lat="48.40046" lon="2.66474">
        <ele>-70.400001525879</ele>
        <time>2022-09-29T14:59:45Z</time>
      </trkpt>
      <trkpt lat="48.40046" lon="2.66481">
        <ele>-70.400001525879</ele>
        <time>2022-09-29T14:59:49Z</time>
      </trkpt>
      <trkpt lat="48.40046" lon="2.66488">
        <ele>-70.400001525879</ele>
        <time>2022-09-29T14:59:53Z</time>
      </trkpt>
      <trkpt lat="48.40046" lon="2.66496">
        <ele>-70.400001525879</ele>
        <time>2022-09-29T14:59:57Z</time>
      </trkpt>
      <trkpt lat="48.40046" lon="2.66502">
        <ele>-70.400001525879</ele>
        <time>2022-09-29T15:00:01Z</time>
      </trkpt>
      <trkpt lat="48.40045" lon="2.66507">
        <ele>-70.599998474121</ele>
        <time>2022-09-29T15:00:05Z</time>
      </trkpt>
      <trkpt lat="48.40045" lon="2.66516">
        <ele>-70.400001525879</ele>
        <time>2022-09-29T15:00:09Z</time>
      </trkpt>
      <trkpt lat="48.40046" lon="2.66522">
        <ele>-70.400001525879</ele>
        <time>2022-09-29T15:00:13Z</time>
      </trkpt>
      <trkpt lat="48.40044" lon="2.66529">
        <ele>-70.599998474121</ele>
        <time>2022-09-29T15:00:17Z</time>
      </trkpt>
      <trkpt lat="48.40044" lon="2.66536">
        <ele>-70.599998474121</ele>
        <time>2022-09-29T15:00:21Z</time>
      </trkpt>
      <trkpt lat="48.40045" lon="2.66544">
        <ele>-70.400001525879</ele>
        <time>2022-09-29T15:00:25Z</time>
      </trkpt>
      <trkpt lat="48.40044" lon="2.66551">
        <ele>-70.400001525879</ele>
        <time>2022-09-29T15:00:29Z</time>
      </trkpt>
      <trkpt lat="48.40043" lon="2.66558">
        <ele>-70.400001525879</ele>
        <time>2022-09-29T15:00:33Z</time>
      </trkpt>
      <trkpt lat="48.40044" lon="2.66565">
        <ele>-70.599998474121</ele>
        <time>2022-09-29T15:00:37Z</time>
      </trkpt>
      <trkpt lat="48.40046" lon="2.6657">
        <ele>-70.599998474121</ele>
        <time>2022-09-29T15:00:41Z</time>
      </trkpt>
      <trkpt lat="48.40045" lon="2.66577">
        <ele>-70.599998474121</ele>
        <time>2022-09-29T15:00:45Z</time>
      </trkpt>
      <trkpt lat="48.40043" lon="2.66583">
        <ele>-70.599998474121</ele>
        <time>2022-09-29T15:00:49Z</time>
      </trkpt>
      <trkpt lat="48.40042" lon="2.6659">
        <ele>-70.800003051758</ele>
        <time>2022-09-29T15:00:53Z</time>
      </trkpt>
      <trkpt lat="48.40042" lon="2.66598">
        <ele>-70.800003051758</ele>
        <time>2022-09-29T15:00:57Z</time>
      </trkpt>
      <trkpt lat="48.40042" lon="2.66606">
        <ele>-70.800003051758</ele>
        <time>2022-09-29T15:01:01Z</time>
      </trkpt>
      <trkpt lat="48.40042" lon="2.66612">
        <ele>-70.800003051758</ele>
        <time>2022-09-29T15:01:05Z</time>
      </trkpt>
      <trkpt lat="48.40042" lon="2.66618">
        <ele>-70.800003051758</ele>
        <time>2022-09-29T15:01:09Z</time>
      </trkpt>
      <trkpt lat="48.40043" lon="2.66624">
        <ele>-70.800003051758</ele>
        <time>2022-09-29T15:01:13Z</time>
      </trkpt>
      <trkpt lat="48.40044" lon="2.6663">
        <ele>-70.800003051758</ele>
        <time>2022-09-29T15:01:17Z</time>
      </trkpt>
      <trkpt lat="48.40042" lon="2.66637">
        <ele>-71</ele>
        <time>2022-09-29T15:01:21Z</time>
      </trkpt>
      <trkpt lat="48.40041" lon="2.66644">
        <ele>-71.199996948242</ele>
        <time>2022-09-29T15:01:25Z</time>
      </trkpt>
      <trkpt lat="48.4004" lon="2.66652">
        <ele>-71.199996948242</ele>
        <time>2022-09-29T15:01:29Z</time>
      </trkpt>
      <trkpt lat="48.40038" lon="2.66662">
        <ele>-71.199996948242</ele>
        <time>2022-09-29T15:01:33Z</time>
      </trkpt>
      <trkpt lat="48.40037" lon="2.6667">
        <ele>-71.199996948242</ele>
        <time>2022-09-29T15:01:37Z</time>
      </trkpt>
      <trkpt lat="48.40038" lon="2.66678">
        <ele>-71.400001525879</ele>
        <time>2022-09-29T15:01:41Z</time>
      </trkpt>
      <trkpt lat="48.40039" lon="2.66685">
        <ele>-71.400001525879</ele>
        <time>2022-09-29T15:01:45Z</time>
      </trkpt>
      <trkpt lat="48.4004" lon="2.66693">
        <ele>-71.400001525879</ele>
        <time>2022-09-29T15:01:49Z</time>
      </trkpt>
      <trkpt lat="48.40041" lon="2.667">
        <ele>-71.400001525879</ele>
        <time>2022-09-29T15:01:53Z</time>
      </trkpt>
      <trkpt lat="48.40041" lon="2.66707">
        <ele>-71.199996948242</ele>
        <time>2022-09-29T15:01:57Z</time>
      </trkpt>
      <trkpt lat="48.40042" lon="2.66713">
        <ele>-71</ele>
        <time>2022-09-29T15:02:01Z</time>
      </trkpt>
      <trkpt lat="48.40042" lon="2.66721">
        <ele>-71.400001525879</ele>
        <time>2022-09-29T15:02:05Z</time>
      </trkpt>
      <trkpt lat="48.40044" lon="2.66727">
        <ele>-71.599998474121</ele>
        <time>2022-09-29T15:02:09Z</time>
      </trkpt>
      <trkpt lat="48.40046" lon="2.66731">
        <ele>-71.599998474121</ele>
        <time>2022-09-29T15:02:13Z</time>
      </trkpt>
      <trkpt lat="48.40048" lon="2.66737">
        <ele>-71.400001525879</ele>
        <time>2022-09-29T15:02:17Z</time>
      </trkpt>
      <trkpt lat="48.4005" lon="2.66743">
        <ele>-71</ele>
        <time>2022-09-29T15:02:21Z</time>
      </trkpt>
      <trkpt lat="48.40051" lon="2.66744">
        <ele>-71.199996948242</ele>
        <time>2022-09-29T15:02:25Z</time>
      </trkpt>
      <trkpt lat="48.40052" lon="2.66743">
        <ele>-71.199996948242</ele>
        <time>2022-09-29T15:02:33Z</time>
      </trkpt>
      <trkpt lat="48.40054" lon="2.66741">
        <ele>-71.400001525879</ele>
        <time>2022-09-29T15:02:37Z</time>
      </trkpt>
      <trkpt lat="48.40057" lon="2.66741">
        <ele>-71.400001525879</ele>
        <time>2022-09-29T15:02:41Z</time>
      </trkpt>
      <trkpt lat="48.4006" lon="2.66741">
        <ele>-71.400001525879</ele>
        <time>2022-09-29T15:02:45Z</time>
      </trkpt>
      <trkpt lat="48.40062" lon="2.66738">
        <ele>-71.599998474121</ele>
        <time>2022-09-29T15:02:49Z</time>
      </trkpt>
      <trkpt lat="48.40064" lon="2.66737">
        <ele>-71.599998474121</ele>
        <time>2022-09-29T15:02:53Z</time>
      </trkpt>
      <trkpt lat="48.40066" lon="2.66737">
        <ele>-71.400001525879</ele>
        <time>2022-09-29T15:02:57Z</time>
      </trkpt>
      <trkpt lat="48.4007" lon="2.66737">
        <ele>-71.400001525879</ele>
        <time>2022-09-29T15:03:01Z</time>
      </trkpt>
      <trkpt lat="48.40076" lon="2.66737">
        <ele>-71.199996948242</ele>
        <time>2022-09-29T15:03:05Z</time>
      </trkpt>
      <trkpt lat="48.40081" lon="2.66737">
        <ele>-71</ele>
        <time>2022-09-29T15:03:09Z</time>
      </trkpt>
      <trkpt lat="48.40085" lon="2.66738">
        <ele>-71.199996948242</ele>
        <time>2022-09-29T15:03:13Z</time>
      </trkpt>
      <trkpt lat="48.40091" lon="2.6674">
        <ele>-71.199996948242</ele>
        <time>2022-09-29T15:03:17Z</time>
      </trkpt>
      <trkpt lat="48.40095" lon="2.6674">
        <ele>-71.199996948242</ele>
        <time>2022-09-29T15:03:21Z</time>
      </trkpt>
      <trkpt lat="48.40098" lon="2.6674">
        <ele>-71.199996948242</ele>
        <time>2022-09-29T15:03:25Z</time>
      </trkpt>
      <trkpt lat="48.40101" lon="2.66741">
        <ele>-71.199996948242</ele>
        <time>2022-09-29T15:03:29Z</time>
      </trkpt>
      <trkpt lat="48.40106" lon="2.66741">
        <ele>-71.400001525879</ele>
        <time>2022-09-29T15:03:33Z</time>
      </trkpt>
      <trkpt lat="48.40111" lon="2.66743">
        <ele>-71.400001525879</ele>
        <time>2022-09-29T15:03:37Z</time>
      </trkpt>
      <trkpt lat="48.40115" lon="2.66743">
        <ele>-71.400001525879</ele>
        <time>2022-09-29T15:03:41Z</time>
      </trkpt>
      <trkpt lat="48.40118" lon="2.66743">
        <ele>-71.400001525879</ele>
        <time>2022-09-29T15:03:45Z</time>
      </trkpt>
      <trkpt lat="48.40121" lon="2.66743">
        <ele>-71.400001525879</ele>
        <time>2022-09-29T15:03:49Z</time>
      </trkpt>
      <trkpt lat="48.40126" lon="2.66744">
        <ele>-71.400001525879</ele>
        <time>2022-09-29T15:03:53Z</time>
      </trkpt>
      <trkpt lat="48.40131" lon="2.66745">
        <ele>-71.400001525879</ele>
        <time>2022-09-29T15:03:57Z</time>
      </trkpt>
      <trkpt lat="48.40134" lon="2.66746">
        <ele>-71.400001525879</ele>
        <time>2022-09-29T15:04:01Z</time>
      </trkpt>
      <trkpt lat="48.40139" lon="2.66745">
        <ele>-71.400001525879</ele>
        <time>2022-09-29T15:04:05Z</time>
      </trkpt>
      <trkpt lat="48.40143" lon="2.66746">
        <ele>-71.400001525879</ele>
        <time>2022-09-29T15:04:09Z</time>
      </trkpt>
      <trkpt lat="48.40148" lon="2.66746">
        <ele>-71.400001525879</ele>
        <time>2022-09-29T15:04:13Z</time>
      </trkpt>
      <trkpt lat="48.40153" lon="2.66747">
        <ele>-71.400001525879</ele>
        <time>2022-09-29T15:04:17Z</time>
      </trkpt>
      <trkpt lat="48.40158" lon="2.66747">
        <ele>-71.199996948242</ele>
        <time>2022-09-29T15:04:21Z</time>
      </trkpt>
      <trkpt lat="48.40165" lon="2.66746">
        <ele>-71.199996948242</ele>
        <time>2022-09-29T15:04:25Z</time>
      </trkpt>
      <trkpt lat="48.40169" lon="2.66746">
        <ele>-71.199996948242</ele>
        <time>2022-09-29T15:04:29Z</time>
      </trkpt>
      <trkpt lat="48.40173" lon="2.66748">
        <ele>-71.199996948242</ele>
        <time>2022-09-29T15:04:33Z</time>
      </trkpt>
      <trkpt lat="48.40177" lon="2.66748">
        <ele>-71.199996948242</ele>
        <time>2022-09-29T15:04:37Z</time>
      </trkpt>
      <trkpt lat="48.40182" lon="2.6675">
        <ele>-71.199996948242</ele>
        <time>2022-09-29T15:04:41Z</time>
      </trkpt>
      <trkpt lat="48.40187" lon="2.6675">
        <ele>-71.199996948242</ele>
        <time>2022-09-29T15:04:45Z</time>
      </trkpt>
      <trkpt lat="48.40193" lon="2.66752">
        <ele>-71.199996948242</ele>
        <time>2022-09-29T15:04:49Z</time>
      </trkpt>
      <trkpt lat="48.40197" lon="2.66752">
        <ele>-71.400001525879</ele>
        <time>2022-09-29T15:04:53Z</time>
      </trkpt>
      <trkpt lat="48.40203" lon="2.66752">
        <ele>-71.400001525879</ele>
        <time>2022-09-29T15:04:57Z</time>
      </trkpt>
      <trkpt lat="48.4021" lon="2.66754">
        <ele>-71.599998474121</ele>
        <time>2022-09-29T15:05:01Z</time>
      </trkpt>
      <trkpt lat="48.40214" lon="2.66754">
        <ele>-71.599998474121</ele>
        <time>2022-09-29T15:05:05Z</time>
      </trkpt>
      <trkpt lat="48.40217" lon="2.66755">
        <ele>-71.599998474121</ele>
        <time>2022-09-29T15:05:09Z</time>
      </trkpt>
      <trkpt lat="48.40219" lon="2.66754">
        <ele>-71.800003051758</ele>
        <time>2022-09-29T15:05:13Z</time>
      </trkpt>
      <trkpt lat="48.40222" lon="2.66756">
        <ele>-71.800003051758</ele>
        <time>2022-09-29T15:05:17Z</time>
      </trkpt>
      <trkpt lat="48.40227" lon="2.66756">
        <ele>-71.800003051758</ele>
        <time>2022-09-29T15:05:21Z</time>
      </trkpt>
      <trkpt lat="48.40233" lon="2.66757">
        <ele>-71.800003051758</ele>
        <time>2022-09-29T15:05:25Z</time>
      </trkpt>
      <trkpt lat="48.40237" lon="2.66757">
        <ele>-71.800003051758</ele>
        <time>2022-09-29T15:05:29Z</time>
      </trkpt>
      <trkpt lat="48.40242" lon="2.66758">
        <ele>-71.800003051758</ele>
        <time>2022-09-29T15:05:33Z</time>
      </trkpt>
      <trkpt lat="48.40248" lon="2.66759">
        <ele>-72</ele>
        <time>2022-09-29T15:05:37Z</time>
      </trkpt>
      <trkpt lat="48.40252" lon="2.66759">
        <ele>-72</ele>
        <time>2022-09-29T15:05:41Z</time>
      </trkpt>
      <trkpt lat="48.40257" lon="2.66759">
        <ele>-71.800003051758</ele>
        <time>2022-09-29T15:05:45Z</time>
      </trkpt>
      <trkpt lat="48.40263" lon="2.6676">
        <ele>-71.800003051758</ele>
        <time>2022-09-29T15:05:49Z</time>
      </trkpt>
      <trkpt lat="48.40267" lon="2.6676">
        <ele>-71.599998474121</ele>
        <time>2022-09-29T15:05:53Z</time>
      </trkpt>
      <trkpt lat="48.40272" lon="2.66763">
        <ele>-71.599998474121</ele>
        <time>2022-09-29T15:05:57Z</time>
      </trkpt>
      <trkpt lat="48.40278" lon="2.66763">
        <ele>-71.400001525879</ele>
        <time>2022-09-29T15:06:01Z</time>
      </trkpt>
      <trkpt lat="48.40284" lon="2.66765">
        <ele>-71.400001525879</ele>
        <time>2022-09-29T15:06:05Z</time>
      </trkpt>
      <trkpt lat="48.4029" lon="2.66767">
        <ele>-71.199996948242</ele>
        <time>2022-09-29T15:06:09Z</time>
      </trkpt>
      <trkpt lat="48.40296" lon="2.66768">
        <ele>-71</ele>
        <time>2022-09-29T15:06:13Z</time>
      </trkpt>
      <trkpt lat="48.403" lon="2.66769">
        <ele>-70.800003051758</ele>
        <time>2022-09-29T15:06:17Z</time>
      </trkpt>
      <trkpt lat="48.40304" lon="2.6677">
        <ele>-71.199996948242</ele>
        <time>2022-09-29T15:06:21Z</time>
      </trkpt>
      <trkpt lat="48.40308" lon="2.6677">
        <ele>-71.199996948242</ele>
        <time>2022-09-29T15:06:25Z</time>
      </trkpt>
      <trkpt lat="48.4031" lon="2.66771">
        <ele>-70.800003051758</ele>
        <time>2022-09-29T15:06:29Z</time>
      </trkpt>
      <trkpt lat="48.40315" lon="2.66771">
        <ele>-70.800003051758</ele>
        <time>2022-09-29T15:06:33Z</time>
      </trkpt>
      <trkpt lat="48.4032" lon="2.66771">
        <ele>-70.800003051758</ele>
        <time>2022-09-29T15:06:37Z</time>
      </trkpt>
      <trkpt lat="48.40326" lon="2.66771">
        <ele>-70.800003051758</ele>
        <time>2022-09-29T15:06:41Z</time>
      </trkpt>
      <trkpt lat="48.40332" lon="2.66772">
        <ele>-70.400001525879</ele>
        <time>2022-09-29T15:06:45Z</time>
      </trkpt>
      <trkpt lat="48.40335" lon="2.66773">
        <ele>-70.199996948242</ele>
        <time>2022-09-29T15:06:49Z</time>
      </trkpt>
      <trkpt lat="48.40339" lon="2.66773">
        <ele>-70.199996948242</ele>
        <time>2022-09-29T15:06:53Z</time>
      </trkpt>
      <trkpt lat="48.40344" lon="2.66774">
        <ele>-70.199996948242</ele>
        <time>2022-09-29T15:06:57Z</time>
      </trkpt>
      <trkpt lat="48.40351" lon="2.66773">
        <ele>-70</ele>
        <time>2022-09-29T15:07:01Z</time>
      </trkpt>
      <trkpt lat="48.40355" lon="2.66774">
        <ele>-69.800003051758</ele>
        <time>2022-09-29T15:07:05Z</time>
      </trkpt>
      <trkpt lat="48.40359" lon="2.66776">
        <ele>-69.800003051758</ele>
        <time>2022-09-29T15:07:09Z</time>
      </trkpt>
      <trkpt lat="48.40364" lon="2.66779">
        <ele>-69.800003051758</ele>
        <time>2022-09-29T15:07:13Z</time>
      </trkpt>
      <trkpt lat="48.40369" lon="2.6678">
        <ele>-69.800003051758</ele>
        <time>2022-09-29T15:07:17Z</time>
      </trkpt>
      <trkpt lat="48.40375" lon="2.66781">
        <ele>-69.599998474121</ele>
        <time>2022-09-29T15:07:21Z</time>
      </trkpt>
      <trkpt lat="48.4038" lon="2.66781">
        <ele>-69.400001525879</ele>
        <time>2022-09-29T15:07:25Z</time>
      </trkpt>
      <trkpt lat="48.40384" lon="2.66782">
        <ele>-69.199996948242</ele>
        <time>2022-09-29T15:07:29Z</time>
      </trkpt>
      <trkpt lat="48.40385" lon="2.66784">
        <ele>-69.199996948242</ele>
        <time>2022-09-29T15:07:33Z</time>
      </trkpt>
      <trkpt lat="48.40388" lon="2.66786">
        <ele>-69.199996948242</ele>
        <time>2022-09-29T15:07:37Z</time>
      </trkpt>
      <trkpt lat="48.40392" lon="2.66786">
        <ele>-69.199996948242</ele>
        <time>2022-09-29T15:07:41Z</time>
      </trkpt>
      <trkpt lat="48.40395" lon="2.66784">
        <ele>-69.199996948242</ele>
        <time>2022-09-29T15:07:45Z</time>
      </trkpt>
      <trkpt lat="48.40399" lon="2.66784">
        <ele>-69.199996948242</ele>
        <time>2022-09-29T15:07:49Z</time>
      </trkpt>
      <trkpt lat="48.40403" lon="2.66783">
        <ele>-69.199996948242</ele>
        <time>2022-09-29T15:07:53Z</time>
      </trkpt>
      <trkpt lat="48.40407" lon="2.66783">
        <ele>-69.199996948242</ele>
        <time>2022-09-29T15:07:57Z</time>
      </trkpt>
      <trkpt lat="48.40411" lon="2.66784">
        <ele>-69</ele>
        <time>2022-09-29T15:08:01Z</time>
      </trkpt>
      <trkpt lat="48.40417" lon="2.66784">
        <ele>-69</ele>
        <time>2022-09-29T15:08:05Z</time>
      </trkpt>
      <trkpt lat="48.40422" lon="2.66784">
        <ele>-68.800003051758</ele>
        <time>2022-09-29T15:08:09Z</time>
      </trkpt>
      <trkpt lat="48.40426" lon="2.66785">
        <ele>-68.800003051758</ele>
        <time>2022-09-29T15:08:13Z</time>
      </trkpt>
      <trkpt lat="48.40431" lon="2.66786">
        <ele>-68.800003051758</ele>
        <time>2022-09-29T15:08:17Z</time>
      </trkpt>
      <trkpt lat="48.40437" lon="2.66786">
        <ele>-68.800003051758</ele>
        <time>2022-09-29T15:08:21Z</time>
      </trkpt>
      <trkpt lat="48.40443" lon="2.66787">
        <ele>-68.800003051758</ele>
        <time>2022-09-29T15:08:25Z</time>
      </trkpt>
      <trkpt lat="48.40449" lon="2.66787">
        <ele>-69</ele>
        <time>2022-09-29T15:08:29Z</time>
      </trkpt>
      <trkpt lat="48.40454" lon="2.66787">
        <ele>-69</ele>
        <time>2022-09-29T15:08:33Z</time>
      </trkpt>
      <trkpt lat="48.40463" lon="2.66786">
        <ele>-68.800003051758</ele>
        <time>2022-09-29T15:08:37Z</time>
      </trkpt>
      <trkpt lat="48.40465" lon="2.66787">
        <ele>-68</ele>
        <time>2022-09-29T15:08:41Z</time>
      </trkpt>
      <trkpt lat="48.4047" lon="2.66791">
        <ele>-68.199996948242</ele>
        <time>2022-09-29T15:08:45Z</time>
      </trkpt>
      <trkpt lat="48.40475" lon="2.66795">
        <ele>-68.199996948242</ele>
        <time>2022-09-29T15:08:49Z</time>
      </trkpt>
      <trkpt lat="48.40478" lon="2.668">
        <ele>-68.199996948242</ele>
        <time>2022-09-29T15:08:53Z</time>
      </trkpt>
      <trkpt lat="48.4048" lon="2.66805">
        <ele>-68</ele>
        <time>2022-09-29T15:08:57Z</time>
      </trkpt>
      <trkpt lat="48.40479" lon="2.66809">
        <ele>-67.800003051758</ele>
        <time>2022-09-29T15:09:01Z</time>
      </trkpt>
      <trkpt lat="48.4048" lon="2.66814">
        <ele>-67.800003051758</ele>
        <time>2022-09-29T15:09:05Z</time>
      </trkpt>
      <trkpt lat="48.4048" lon="2.66819">
        <ele>-68</ele>
        <time>2022-09-29T15:09:09Z</time>
      </trkpt>
      <trkpt lat="48.40479" lon="2.66825">
        <ele>-68</ele>
        <time>2022-09-29T15:09:13Z</time>
      </trkpt>
      <trkpt lat="48.40479" lon="2.66831">
        <ele>-68.199996948242</ele>
        <time>2022-09-29T15:09:17Z</time>
      </trkpt>
      <trkpt lat="48.4048" lon="2.66836">
        <ele>-68.199996948242</ele>
        <time>2022-09-29T15:09:21Z</time>
      </trkpt>
      <trkpt lat="48.40482" lon="2.66842">
        <ele>-68.400001525879</ele>
        <time>2022-09-29T15:09:25Z</time>
      </trkpt>
      <trkpt lat="48.40483" lon="2.66848">
        <ele>-68.400001525879</ele>
        <time>2022-09-29T15:09:29Z</time>
      </trkpt>
      <trkpt lat="48.40485" lon="2.66856">
        <ele>-68.599998474121</ele>
        <time>2022-09-29T15:09:33Z</time>
      </trkpt>
      <trkpt lat="48.40487" lon="2.66864">
        <ele>-68.599998474121</ele>
        <time>2022-09-29T15:09:37Z</time>
      </trkpt>
      <trkpt lat="48.40489" lon="2.6687">
        <ele>-68.800003051758</ele>
        <time>2022-09-29T15:09:41Z</time>
      </trkpt>
      <trkpt lat="48.40488" lon="2.66875">
        <ele>-68.800003051758</ele>
        <time>2022-09-29T15:09:45Z</time>
      </trkpt>
      <trkpt lat="48.40486" lon="2.6688">
        <ele>-68.800003051758</ele>
        <time>2022-09-29T15:09:49Z</time>
      </trkpt>
      <trkpt lat="48.40486" lon="2.66887">
        <ele>-69</ele>
        <time>2022-09-29T15:09:53Z</time>
      </trkpt>
      <trkpt lat="48.40486" lon="2.66895">
        <ele>-69</ele>
        <time>2022-09-29T15:09:57Z</time>
      </trkpt>
      <trkpt lat="48.40486" lon="2.66902">
        <ele>-69.199996948242</ele>
        <time>2022-09-29T15:10:01Z</time>
      </trkpt>
      <trkpt lat="48.40487" lon="2.66908">
        <ele>-69.400001525879</ele>
        <time>2022-09-29T15:10:05Z</time>
      </trkpt>
      <trkpt lat="48.40486" lon="2.66915">
        <ele>-69.199996948242</ele>
        <time>2022-09-29T15:10:09Z</time>
      </trkpt>
      <trkpt lat="48.40485" lon="2.66922">
        <ele>-69</ele>
        <time>2022-09-29T15:10:13Z</time>
      </trkpt>
      <trkpt lat="48.40486" lon="2.6693">
        <ele>-69.400001525879</ele>
        <time>2022-09-29T15:10:17Z</time>
      </trkpt>
      <trkpt lat="48.40488" lon="2.66938">
        <ele>-69.400001525879</ele>
        <time>2022-09-29T15:10:21Z</time>
      </trkpt>
      <trkpt lat="48.40489" lon="2.66945">
        <ele>-69.400001525879</ele>
        <time>2022-09-29T15:10:25Z</time>
      </trkpt>
      <trkpt lat="48.40489" lon="2.66952">
        <ele>-69.400001525879</ele>
        <time>2022-09-29T15:10:29Z</time>
      </trkpt>
      <trkpt lat="48.40491" lon="2.66957">
        <ele>-69.400001525879</ele>
        <time>2022-09-29T15:10:33Z</time>
      </trkpt>
      <trkpt lat="48.40489" lon="2.66962">
        <ele>-69.400001525879</ele>
        <time>2022-09-29T15:10:37Z</time>
      </trkpt>
      <trkpt lat="48.40489" lon="2.66967">
        <ele>-69.199996948242</ele>
        <time>2022-09-29T15:10:41Z</time>
      </trkpt>
      <trkpt lat="48.4049" lon="2.66974">
        <ele>-69.199996948242</ele>
        <time>2022-09-29T15:10:45Z</time>
      </trkpt>
      <trkpt lat="48.4049" lon="2.66982">
        <ele>-69.199996948242</ele>
        <time>2022-09-29T15:10:49Z</time>
      </trkpt>
      <trkpt lat="48.40491" lon="2.6699">
        <ele>-69.199996948242</ele>
        <time>2022-09-29T15:10:53Z</time>
      </trkpt>
      <trkpt lat="48.40492" lon="2.66999">
        <ele>-69.400001525879</ele>
        <time>2022-09-29T15:10:57Z</time>
      </trkpt>
      <trkpt lat="48.40493" lon="2.67006">
        <ele>-69.400001525879</ele>
        <time>2022-09-29T15:11:01Z</time>
      </trkpt>
      <trkpt lat="48.40493" lon="2.67013">
        <ele>-69.400001525879</ele>
        <time>2022-09-29T15:11:05Z</time>
      </trkpt>
      <trkpt lat="48.40494" lon="2.6702">
        <ele>-69.400001525879</ele>
        <time>2022-09-29T15:11:09Z</time>
      </trkpt>
      <trkpt lat="48.40495" lon="2.67027">
        <ele>-69.400001525879</ele>
        <time>2022-09-29T15:11:13Z</time>
      </trkpt>
      <trkpt lat="48.40495" lon="2.67034">
        <ele>-69.400001525879</ele>
        <time>2022-09-29T15:11:17Z</time>
      </trkpt>
      <trkpt lat="48.40496" lon="2.67041">
        <ele>-69.400001525879</ele>
        <time>2022-09-29T15:11:21Z</time>
      </trkpt>
      <trkpt lat="48.40498" lon="2.67048">
        <ele>-69.599998474121</ele>
        <time>2022-09-29T15:11:25Z</time>
      </trkpt>
      <trkpt lat="48.40498" lon="2.67055">
        <ele>-69.599998474121</ele>
        <time>2022-09-29T15:11:29Z</time>
      </trkpt>
      <trkpt lat="48.40497" lon="2.67062">
        <ele>-69.599998474121</ele>
        <time>2022-09-29T15:11:33Z</time>
      </trkpt>
      <trkpt lat="48.40497" lon="2.67069">
        <ele>-69.800003051758</ele>
        <time>2022-09-29T15:11:37Z</time>
      </trkpt>
      <trkpt lat="48.40498" lon="2.67077">
        <ele>-69.800003051758</ele>
        <time>2022-09-29T15:11:41Z</time>
      </trkpt>
      <trkpt lat="48.40499" lon="2.67084">
        <ele>-70</ele>
        <time>2022-09-29T15:11:45Z</time>
      </trkpt>
      <trkpt lat="48.405" lon="2.6709">
        <ele>-70</ele>
        <time>2022-09-29T15:11:49Z</time>
      </trkpt>
      <trkpt lat="48.405" lon="2.67097">
        <ele>-70</ele>
        <time>2022-09-29T15:11:53Z</time>
      </trkpt>
      <trkpt lat="48.405" lon="2.67104">
        <ele>-70.199996948242</ele>
        <time>2022-09-29T15:11:57Z</time>
      </trkpt>
      <trkpt lat="48.405" lon="2.6711">
        <ele>-70.199996948242</ele>
        <time>2022-09-29T15:12:01Z</time>
      </trkpt>
      <trkpt lat="48.40501" lon="2.67116">
        <ele>-70.400001525879</ele>
        <time>2022-09-29T15:12:05Z</time>
      </trkpt>
      <trkpt lat="48.40502" lon="2.67123">
        <ele>-70.400001525879</ele>
        <time>2022-09-29T15:12:09Z</time>
      </trkpt>
      <trkpt lat="48.40505" lon="2.6713">
        <ele>-70.199996948242</ele>
        <time>2022-09-29T15:12:13Z</time>
      </trkpt>
      <trkpt lat="48.40505" lon="2.67137">
        <ele>-70.400001525879</ele>
        <time>2022-09-29T15:12:17Z</time>
      </trkpt>
      <trkpt lat="48.40505" lon="2.67145">
        <ele>-70.400001525879</ele>
        <time>2022-09-29T15:12:21Z</time>
      </trkpt>
      <trkpt lat="48.40505" lon="2.67152">
        <ele>-70.199996948242</ele>
        <time>2022-09-29T15:12:25Z</time>
      </trkpt>
      <trkpt lat="48.40506" lon="2.67159">
        <ele>-70.199996948242</ele>
        <time>2022-09-29T15:12:29Z</time>
      </trkpt>
      <trkpt lat="48.40507" lon="2.67167">
        <ele>-70.199996948242</ele>
        <time>2022-09-29T15:12:33Z</time>
      </trkpt>
      <trkpt lat="48.40506" lon="2.67175">
        <ele>-70.199996948242</ele>
        <time>2022-09-29T15:12:37Z</time>
      </trkpt>
      <trkpt lat="48.40505" lon="2.67182">
        <ele>-70.199996948242</ele>
        <time>2022-09-29T15:12:41Z</time>
      </trkpt>
      <trkpt lat="48.40506" lon="2.67188">
        <ele>-70.199996948242</ele>
        <time>2022-09-29T15:12:45Z</time>
      </trkpt>
      <trkpt lat="48.40506" lon="2.67194">
        <ele>-70.199996948242</ele>
        <time>2022-09-29T15:12:49Z</time>
      </trkpt>
      <trkpt lat="48.40506" lon="2.67202">
        <ele>-70</ele>
        <time>2022-09-29T15:12:53Z</time>
      </trkpt>
      <trkpt lat="48.40506" lon="2.67209">
        <ele>-69.800003051758</ele>
        <time>2022-09-29T15:12:57Z</time>
      </trkpt>
      <trkpt lat="48.40506" lon="2.67217">
        <ele>-70</ele>
        <time>2022-09-29T15:13:01Z</time>
      </trkpt>
      <trkpt lat="48.40508" lon="2.67224">
        <ele>-70</ele>
        <time>2022-09-29T15:13:05Z</time>
      </trkpt>
      <trkpt lat="48.40509" lon="2.67232">
        <ele>-70</ele>
        <time>2022-09-29T15:13:09Z</time>
      </trkpt>
      <trkpt lat="48.4051" lon="2.67239">
        <ele>-70</ele>
        <time>2022-09-29T15:13:13Z</time>
      </trkpt>
      <trkpt lat="48.4051" lon="2.67246">
        <ele>-70</ele>
        <time>2022-09-29T15:13:17Z</time>
      </trkpt>
      <trkpt lat="48.4051" lon="2.67253">
        <ele>-70</ele>
        <time>2022-09-29T15:13:21Z</time>
      </trkpt>
      <trkpt lat="48.40511" lon="2.67261">
        <ele>-70</ele>
        <time>2022-09-29T15:13:25Z</time>
      </trkpt>
      <trkpt lat="48.40512" lon="2.67269">
        <ele>-70</ele>
        <time>2022-09-29T15:13:29Z</time>
      </trkpt>
      <trkpt lat="48.40513" lon="2.67277">
        <ele>-70</ele>
        <time>2022-09-29T15:13:33Z</time>
      </trkpt>
      <trkpt lat="48.40513" lon="2.67284">
        <ele>-70</ele>
        <time>2022-09-29T15:13:37Z</time>
      </trkpt>
      <trkpt lat="48.40514" lon="2.6729">
        <ele>-70</ele>
        <time>2022-09-29T15:13:41Z</time>
      </trkpt>
      <trkpt lat="48.40514" lon="2.67298">
        <ele>-70.199996948242</ele>
        <time>2022-09-29T15:13:45Z</time>
      </trkpt>
      <trkpt lat="48.40513" lon="2.67301">
        <ele>-70.400001525879</ele>
        <time>2022-09-29T15:13:49Z</time>
      </trkpt>
      <trkpt lat="48.40515" lon="2.67305">
        <ele>-70.599998474121</ele>
        <time>2022-09-29T15:13:53Z</time>
      </trkpt>
      <trkpt lat="48.40515" lon="2.67312">
        <ele>-70.599998474121</ele>
        <time>2022-09-29T15:13:57Z</time>
      </trkpt>
      <trkpt lat="48.40516" lon="2.67319">
        <ele>-70.599998474121</ele>
        <time>2022-09-29T15:14:01Z</time>
      </trkpt>
      <trkpt lat="48.40516" lon="2.67325">
        <ele>-70.599998474121</ele>
        <time>2022-09-29T15:14:05Z</time>
      </trkpt>
      <trkpt lat="48.40517" lon="2.67332">
        <ele>-70.599998474121</ele>
        <time>2022-09-29T15:14:09Z</time>
      </trkpt>
      <trkpt lat="48.40517" lon="2.67339">
        <ele>-70.800003051758</ele>
        <time>2022-09-29T15:14:13Z</time>
      </trkpt>
      <trkpt lat="48.40518" lon="2.67347">
        <ele>-70.800003051758</ele>
        <time>2022-09-29T15:14:17Z</time>
      </trkpt>
      <trkpt lat="48.4052" lon="2.67353">
        <ele>-70.800003051758</ele>
        <time>2022-09-29T15:14:21Z</time>
      </trkpt>
      <trkpt lat="48.4052" lon="2.67362">
        <ele>-71</ele>
        <time>2022-09-29T15:14:25Z</time>
      </trkpt>
      <trkpt lat="48.40521" lon="2.6737">
        <ele>-71.199996948242</ele>
        <time>2022-09-29T15:14:29Z</time>
      </trkpt>
      <trkpt lat="48.40521" lon="2.67377">
        <ele>-71</ele>
        <time>2022-09-29T15:14:33Z</time>
      </trkpt>
      <trkpt lat="48.4052" lon="2.67384">
        <ele>-71</ele>
        <time>2022-09-29T15:14:37Z</time>
      </trkpt>
      <trkpt lat="48.40521" lon="2.67391">
        <ele>-71</ele>
        <time>2022-09-29T15:14:41Z</time>
      </trkpt>
      <trkpt lat="48.40521" lon="2.67397">
        <ele>-71</ele>
        <time>2022-09-29T15:14:45Z</time>
      </trkpt>
      <trkpt lat="48.40523" lon="2.67403">
        <ele>-70.800003051758</ele>
        <time>2022-09-29T15:14:49Z</time>
      </trkpt>
      <trkpt lat="48.40525" lon="2.67411">
        <ele>-70.800003051758</ele>
        <time>2022-09-29T15:14:53Z</time>
      </trkpt>
      <trkpt lat="48.40524" lon="2.67419">
        <ele>-70.800003051758</ele>
        <time>2022-09-29T15:14:57Z</time>
      </trkpt>
      <trkpt lat="48.40521" lon="2.67425">
        <ele>-70.800003051758</ele>
        <time>2022-09-29T15:15:01Z</time>
      </trkpt>
      <trkpt lat="48.40522" lon="2.67431">
        <ele>-70.800003051758</ele>
        <time>2022-09-29T15:15:05Z</time>
      </trkpt>
      <trkpt lat="48.40523" lon="2.67438">
        <ele>-70.800003051758</ele>
        <time>2022-09-29T15:15:09Z</time>
      </trkpt>
      <trkpt lat="48.40526" lon="2.67444">
        <ele>-70.599998474121</ele>
        <time>2022-09-29T15:15:13Z</time>
      </trkpt>
      <trkpt lat="48.40526" lon="2.6745">
        <ele>-70.400001525879</ele>
        <time>2022-09-29T15:15:17Z</time>
      </trkpt>
      <trkpt lat="48.40527" lon="2.67457">
        <ele>-70.400001525879</ele>
        <time>2022-09-29T15:15:21Z</time>
      </trkpt>
      <trkpt lat="48.40527" lon="2.67465">
        <ele>-70.400001525879</ele>
        <time>2022-09-29T15:15:25Z</time>
      </trkpt>
      <trkpt lat="48.40527" lon="2.67472">
        <ele>-70.400001525879</ele>
        <time>2022-09-29T15:15:29Z</time>
      </trkpt>
      <trkpt lat="48.40527" lon="2.67477">
        <ele>-70.400001525879</ele>
        <time>2022-09-29T15:15:33Z</time>
      </trkpt>
      <trkpt lat="48.40527" lon="2.67484">
        <ele>-70.400001525879</ele>
        <time>2022-09-29T15:15:37Z</time>
      </trkpt>
      <trkpt lat="48.40526" lon="2.67491">
        <ele>-70.400001525879</ele>
        <time>2022-09-29T15:15:41Z</time>
      </trkpt>
      <trkpt lat="48.40526" lon="2.67497">
        <ele>-70.400001525879</ele>
        <time>2022-09-29T15:15:45Z</time>
      </trkpt>
      <trkpt lat="48.40526" lon="2.67505">
        <ele>-70.400001525879</ele>
        <time>2022-09-29T15:15:49Z</time>
      </trkpt>
      <trkpt lat="48.40527" lon="2.67514">
        <ele>-70.400001525879</ele>
        <time>2022-09-29T15:15:53Z</time>
      </trkpt>
      <trkpt lat="48.40529" lon="2.6752">
        <ele>-70.199996948242</ele>
        <time>2022-09-29T15:15:57Z</time>
      </trkpt>
      <trkpt lat="48.40531" lon="2.67527">
        <ele>-70.400001525879</ele>
        <time>2022-09-29T15:16:01Z</time>
      </trkpt>
      <trkpt lat="48.40531" lon="2.67534">
        <ele>-70.400001525879</ele>
        <time>2022-09-29T15:16:05Z</time>
      </trkpt>
      <trkpt lat="48.40531" lon="2.67538">
        <ele>-70.400001525879</ele>
        <time>2022-09-29T15:16:09Z</time>
      </trkpt>
      <trkpt lat="48.40532" lon="2.67544">
        <ele>-70.400001525879</ele>
        <time>2022-09-29T15:16:13Z</time>
      </trkpt>
      <trkpt lat="48.40531" lon="2.67551">
        <ele>-70.199996948242</ele>
        <time>2022-09-29T15:16:17Z</time>
      </trkpt>
      <trkpt lat="48.40532" lon="2.67558">
        <ele>-70.199996948242</ele>
        <time>2022-09-29T15:16:21Z</time>
      </trkpt>
      <trkpt lat="48.40531" lon="2.67564">
        <ele>-70.199996948242</ele>
        <time>2022-09-29T15:16:25Z</time>
      </trkpt>
      <trkpt lat="48.40533" lon="2.67573">
        <ele>-70.199996948242</ele>
        <time>2022-09-29T15:16:29Z</time>
      </trkpt>
      <trkpt lat="48.40533" lon="2.67579">
        <ele>-70.199996948242</ele>
        <time>2022-09-29T15:16:33Z</time>
      </trkpt>
      <trkpt lat="48.40534" lon="2.67585">
        <ele>-70.199996948242</ele>
        <time>2022-09-29T15:16:37Z</time>
      </trkpt>
      <trkpt lat="48.40533" lon="2.67592">
        <ele>-70.199996948242</ele>
        <time>2022-09-29T15:16:41Z</time>
      </trkpt>
      <trkpt lat="48.40535" lon="2.67598">
        <ele>-70.199996948242</ele>
        <time>2022-09-29T15:16:45Z</time>
      </trkpt>
      <trkpt lat="48.40536" lon="2.67604">
        <ele>-70.199996948242</ele>
        <time>2022-09-29T15:16:49Z</time>
      </trkpt>
      <trkpt lat="48.40536" lon="2.6761">
        <ele>-70.199996948242</ele>
        <time>2022-09-29T15:16:53Z</time>
      </trkpt>
      <trkpt lat="48.40535" lon="2.67615">
        <ele>-70.199996948242</ele>
        <time>2022-09-29T15:16:57Z</time>
      </trkpt>
      <trkpt lat="48.40532" lon="2.67624">
        <ele>-70.400001525879</ele>
        <time>2022-09-29T15:17:01Z</time>
      </trkpt>
      <trkpt lat="48.40532" lon="2.67629">
        <ele>-70.400001525879</ele>
        <time>2022-09-29T15:17:05Z</time>
      </trkpt>
      <trkpt lat="48.40532" lon="2.67635">
        <ele>-70.199996948242</ele>
        <time>2022-09-29T15:17:09Z</time>
      </trkpt>
      <trkpt lat="48.40534" lon="2.67642">
        <ele>-70.199996948242</ele>
        <time>2022-09-29T15:17:13Z</time>
      </trkpt>
      <trkpt lat="48.40535" lon="2.67649">
        <ele>-70.199996948242</ele>
        <time>2022-09-29T15:17:17Z</time>
      </trkpt>
      <trkpt lat="48.40535" lon="2.67655">
        <ele>-70.199996948242</ele>
        <time>2022-09-29T15:17:21Z</time>
      </trkpt>
      <trkpt lat="48.40534" lon="2.6766">
        <ele>-70.199996948242</ele>
        <time>2022-09-29T15:17:25Z</time>
      </trkpt>
      <trkpt lat="48.40532" lon="2.67665">
        <ele>-70</ele>
        <time>2022-09-29T15:17:29Z</time>
      </trkpt>
      <trkpt lat="48.40529" lon="2.67668">
        <ele>-70</ele>
        <time>2022-09-29T15:17:33Z</time>
      </trkpt>
      <trkpt lat="48.40526" lon="2.6767">
        <ele>-70</ele>
        <time>2022-09-29T15:17:37Z</time>
      </trkpt>
      <trkpt lat="48.40522" lon="2.67672">
        <ele>-70</ele>
        <time>2022-09-29T15:17:41Z</time>
      </trkpt>
      <trkpt lat="48.40518" lon="2.67675">
        <ele>-70.199996948242</ele>
        <time>2022-09-29T15:17:45Z</time>
      </trkpt>
      <trkpt lat="48.40516" lon="2.67679">
        <ele>-70.199996948242</ele>
        <time>2022-09-29T15:17:49Z</time>
      </trkpt>
      <trkpt lat="48.40514" lon="2.67684">
        <ele>-70.199996948242</ele>
        <time>2022-09-29T15:17:53Z</time>
      </trkpt>
      <trkpt lat="48.40511" lon="2.67687">
        <ele>-70.199996948242</ele>
        <time>2022-09-29T15:17:57Z</time>
      </trkpt>
      <trkpt lat="48.40509" lon="2.67691">
        <ele>-70</ele>
        <time>2022-09-29T15:18:01Z</time>
      </trkpt>
      <trkpt lat="48.40504" lon="2.67695">
        <ele>-70.199996948242</ele>
        <time>2022-09-29T15:18:05Z</time>
      </trkpt>
      <trkpt lat="48.40501" lon="2.677">
        <ele>-70.199996948242</ele>
        <time>2022-09-29T15:18:09Z</time>
      </trkpt>
      <trkpt lat="48.40499" lon="2.67704">
        <ele>-70.400001525879</ele>
        <time>2022-09-29T15:18:13Z</time>
      </trkpt>
      <trkpt lat="48.40497" lon="2.6771">
        <ele>-70.599998474121</ele>
        <time>2022-09-29T15:18:17Z</time>
      </trkpt>
      <trkpt lat="48.40495" lon="2.67715">
        <ele>-70.400001525879</ele>
        <time>2022-09-29T15:18:21Z</time>
      </trkpt>
      <trkpt lat="48.40495" lon="2.67722">
        <ele>-70.400001525879</ele>
        <time>2022-09-29T15:18:25Z</time>
      </trkpt>
      <trkpt lat="48.40493" lon="2.67729">
        <ele>-70.400001525879</ele>
        <time>2022-09-29T15:18:29Z</time>
      </trkpt>
      <trkpt lat="48.40492" lon="2.67736">
        <ele>-70.400001525879</ele>
        <time>2022-09-29T15:18:33Z</time>
      </trkpt>
      <trkpt lat="48.40493" lon="2.67741">
        <ele>-70.199996948242</ele>
        <time>2022-09-29T15:18:36Z</time>
      </trkpt>
      <trkpt lat="48.40494" lon="2.6775">
        <ele>-70.199996948242</ele>
        <time>2022-09-29T15:18:41Z</time>
      </trkpt>
      <trkpt lat="48.40494" lon="2.67756">
        <ele>-70.199996948242</ele>
        <time>2022-09-29T15:18:45Z</time>
      </trkpt>
      <trkpt lat="48.40494" lon="2.67761">
        <ele>-70.199996948242</ele>
        <time>2022-09-29T15:18:49Z</time>
      </trkpt>
      <trkpt lat="48.40492" lon="2.67766">
        <ele>-70</ele>
        <time>2022-09-29T15:18:53Z</time>
      </trkpt>
      <trkpt lat="48.4049" lon="2.67771">
        <ele>-70</ele>
        <time>2022-09-29T15:18:57Z</time>
      </trkpt>
      <trkpt lat="48.40487" lon="2.67774">
        <ele>-70</ele>
        <time>2022-09-29T15:19:01Z</time>
      </trkpt>
      <trkpt lat="48.40484" lon="2.67778">
        <ele>-70</ele>
        <time>2022-09-29T15:19:05Z</time>
      </trkpt>
      <trkpt lat="48.4048" lon="2.67782">
        <ele>-70.199996948242</ele>
        <time>2022-09-29T15:19:09Z</time>
      </trkpt>
      <trkpt lat="48.40477" lon="2.67785">
        <ele>-70.199996948242</ele>
        <time>2022-09-29T15:19:13Z</time>
      </trkpt>
      <trkpt lat="48.40471" lon="2.67785">
        <ele>-70.199996948242</ele>
        <time>2022-09-29T15:19:17Z</time>
      </trkpt>
      <trkpt lat="48.40467" lon="2.67786">
        <ele>-70.400001525879</ele>
        <time>2022-09-29T15:19:21Z</time>
      </trkpt>
      <trkpt lat="48.40462" lon="2.67786">
        <ele>-70.400001525879</ele>
        <time>2022-09-29T15:19:25Z</time>
      </trkpt>
      <trkpt lat="48.40459" lon="2.67786">
        <ele>-70.400001525879</ele>
        <time>2022-09-29T15:19:29Z</time>
      </trkpt>
      <trkpt lat="48.40456" lon="2.67789">
        <ele>-70.199996948242</ele>
        <time>2022-09-29T15:19:33Z</time>
      </trkpt>
      <trkpt lat="48.40453" lon="2.67788">
        <ele>-70</ele>
        <time>2022-09-29T15:19:37Z</time>
      </trkpt>
      <trkpt lat="48.40453" lon="2.67787">
        <ele>-70</ele>
        <time>2022-09-29T15:19:49Z</time>
      </trkpt>
      <trkpt lat="48.40454" lon="2.67786">
        <ele>-70</ele>
        <time>2022-09-29T15:19:53Z</time>
      </trkpt>
      <trkpt lat="48.40454" lon="2.67787">
        <ele>-70</ele>
        <time>2022-09-29T15:19:57Z</time>
      </trkpt>
      <trkpt lat="48.40454" lon="2.67786">
        <ele>-70</ele>
        <time>2022-09-29T15:20:05Z</time>
      </trkpt>
      <trkpt lat="48.40453" lon="2.67786">
        <ele>-70</ele>
        <time>2022-09-29T15:20:09Z</time>
      </trkpt>
      <trkpt lat="48.40453" lon="2.67787">
        <ele>-70</ele>
        <time>2022-09-29T15:20:13Z</time>
      </trkpt>
      <trkpt lat="48.40452" lon="2.67788">
        <ele>-70</ele>
        <time>2022-09-29T15:20:25Z</time>
      </trkpt>
    </trkseg>
  </trk>
</gpx>